<?xml version="1.0" encoding="UTF-8" standalone="no" ?>
<gpx xmlns="http://www.topografix.com/GPX/1/1" xmlns:xsi="http://www.w3.org/2001/XMLSchema-instance" xsi:schemaLocation="http://www.topografix.com/GPX/1/1 http://www.topografix.com/GPX/1/1/gpx.xsd" version="1.1" creator="VisuGPX - https://www.visugpx.com">
  <metadata>
    <name>Lyon - Pollionnay</name>
    <desc><![CDATA[Lyon - Pollionnay -  aftertaf n°4 - MDL]]></desc>
  </metadata>
  <trk>
    <name><![CDATA[Cyclocrampons]]></name>
    <cmt><![CDATA[Aftertaf n°4  - Pollionnay -  avec JF, EricT, Manu, Xtian, Pascal69, BeerMat, Ben, Lemuet -  apéro JF!  -  test des genouillère >  ]]></cmt>
    <trkseg>
      <trkpt lat="45.74892" lon="4.86151">
        <ele>212.06199645996</ele>
        <time>2012-04-17T15:17:38Z</time>
      </trkpt>
      <trkpt lat="45.74899" lon="4.86134">
        <ele>212.06199645996</ele>
        <time>2012-04-17T15:17:41Z</time>
      </trkpt>
      <trkpt lat="45.74909" lon="4.86092">
        <ele>212.49499511719</ele>
        <time>2012-04-17T15:17:48Z</time>
      </trkpt>
      <trkpt lat="45.74924" lon="4.86059">
        <ele>212.32099914551</ele>
        <time>2012-04-17T15:17:54Z</time>
      </trkpt>
      <trkpt lat="45.74944" lon="4.86022">
        <ele>212.70500183106</ele>
        <time>2012-04-17T15:18:00Z</time>
      </trkpt>
      <trkpt lat="45.74954" lon="4.8599">
        <ele>213.25900268555</ele>
        <time>2012-04-17T15:18:05Z</time>
      </trkpt>
      <trkpt lat="45.74956" lon="4.85965">
        <ele>213.49000549316</ele>
        <time>2012-04-17T15:18:11Z</time>
      </trkpt>
      <trkpt lat="45.74958" lon="4.85959">
        <ele>213.61000061035</ele>
        <time>2012-04-17T15:18:15Z</time>
      </trkpt>
      <trkpt lat="45.74963" lon="4.85963">
        <ele>212.24899291992</ele>
        <time>2012-04-17T15:18:54Z</time>
      </trkpt>
      <trkpt lat="45.74976" lon="4.85948">
        <ele>212.29299926758</ele>
        <time>2012-04-17T15:18:59Z</time>
      </trkpt>
      <trkpt lat="45.74981" lon="4.85933">
        <ele>212.17399597168</ele>
        <time>2012-04-17T15:19:01Z</time>
      </trkpt>
      <trkpt lat="45.75" lon="4.85863">
        <ele>211.91299438477</ele>
        <time>2012-04-17T15:19:09Z</time>
      </trkpt>
      <trkpt lat="45.75027" lon="4.85786">
        <ele>211.01100158691</ele>
        <time>2012-04-17T15:19:17Z</time>
      </trkpt>
      <trkpt lat="45.75054" lon="4.8571">
        <ele>210.38499450684</ele>
        <time>2012-04-17T15:19:25Z</time>
      </trkpt>
      <trkpt lat="45.75082" lon="4.85647">
        <ele>209.02699279785</ele>
        <time>2012-04-17T15:19:31Z</time>
      </trkpt>
      <trkpt lat="45.75117" lon="4.85578">
        <ele>207.83500671387</ele>
        <time>2012-04-17T15:19:37Z</time>
      </trkpt>
      <trkpt lat="45.75154" lon="4.85508">
        <ele>207.28300476074</ele>
        <time>2012-04-17T15:19:44Z</time>
      </trkpt>
      <trkpt lat="45.75181" lon="4.85426">
        <ele>206.26699829102</ele>
        <time>2012-04-17T15:19:52Z</time>
      </trkpt>
      <trkpt lat="45.75201" lon="4.85364">
        <ele>205.52499389648</ele>
        <time>2012-04-17T15:19:58Z</time>
      </trkpt>
      <trkpt lat="45.75228" lon="4.85272">
        <ele>204.96699523926</ele>
        <time>2012-04-17T15:20:08Z</time>
      </trkpt>
      <trkpt lat="45.75232" lon="4.85209">
        <ele>204.94900512695</ele>
        <time>2012-04-17T15:20:14Z</time>
      </trkpt>
      <trkpt lat="45.75255" lon="4.85145">
        <ele>204.58999633789</ele>
        <time>2012-04-17T15:20:20Z</time>
      </trkpt>
      <trkpt lat="45.75275" lon="4.85104">
        <ele>204.65899658203</ele>
        <time>2012-04-17T15:20:25Z</time>
      </trkpt>
      <trkpt lat="45.75279" lon="4.85089">
        <ele>204.15100097656</ele>
        <time>2012-04-17T15:20:29Z</time>
      </trkpt>
      <trkpt lat="45.75282" lon="4.85091">
        <ele>203.73100280762</ele>
        <time>2012-04-17T15:20:31Z</time>
      </trkpt>
      <trkpt lat="45.7528" lon="4.85097">
        <ele>203.30000305176</ele>
        <time>2012-04-17T15:20:39Z</time>
      </trkpt>
      <trkpt lat="45.75249" lon="4.85117">
        <ele>202.70199584961</ele>
        <time>2012-04-17T15:21:19Z</time>
      </trkpt>
      <trkpt lat="45.75254" lon="4.85101">
        <ele>202.5890045166</ele>
        <time>2012-04-17T15:21:24Z</time>
      </trkpt>
      <trkpt lat="45.75259" lon="4.85087">
        <ele>202.69000244141</ele>
        <time>2012-04-17T15:21:26Z</time>
      </trkpt>
      <trkpt lat="45.75275" lon="4.85049">
        <ele>202.83500671387</ele>
        <time>2012-04-17T15:21:31Z</time>
      </trkpt>
      <trkpt lat="45.75289" lon="4.84995">
        <ele>202.9049987793</ele>
        <time>2012-04-17T15:21:37Z</time>
      </trkpt>
      <trkpt lat="45.75313" lon="4.84949">
        <ele>203.05099487305</ele>
        <time>2012-04-17T15:21:44Z</time>
      </trkpt>
      <trkpt lat="45.75328" lon="4.84913">
        <ele>202.96000671387</ele>
        <time>2012-04-17T15:21:49Z</time>
      </trkpt>
      <trkpt lat="45.75344" lon="4.84855">
        <ele>202.91600036621</ele>
        <time>2012-04-17T15:21:56Z</time>
      </trkpt>
      <trkpt lat="45.75357" lon="4.84811">
        <ele>202.94900512695</ele>
        <time>2012-04-17T15:22:01Z</time>
      </trkpt>
      <trkpt lat="45.7539" lon="4.84739">
        <ele>203.07800292969</ele>
        <time>2012-04-17T15:22:10Z</time>
      </trkpt>
      <trkpt lat="45.75409" lon="4.84667">
        <ele>203.16700744629</ele>
        <time>2012-04-17T15:22:17Z</time>
      </trkpt>
      <trkpt lat="45.75425" lon="4.84641">
        <ele>203.09199523926</ele>
        <time>2012-04-17T15:22:21Z</time>
      </trkpt>
      <trkpt lat="45.75426" lon="4.84609">
        <ele>203.16299438477</ele>
        <time>2012-04-17T15:22:25Z</time>
      </trkpt>
      <trkpt lat="45.75434" lon="4.84586">
        <ele>203.03900146484</ele>
        <time>2012-04-17T15:22:28Z</time>
      </trkpt>
      <trkpt lat="45.7544" lon="4.84562">
        <ele>202.93699645996</ele>
        <time>2012-04-17T15:22:31Z</time>
      </trkpt>
      <trkpt lat="45.75453" lon="4.84541">
        <ele>202.49000549316</ele>
        <time>2012-04-17T15:22:35Z</time>
      </trkpt>
      <trkpt lat="45.75459" lon="4.84537">
        <ele>201.9880065918</ele>
        <time>2012-04-17T15:22:40Z</time>
      </trkpt>
      <trkpt lat="45.75463" lon="4.84521">
        <ele>201.86399841309</ele>
        <time>2012-04-17T15:22:45Z</time>
      </trkpt>
      <trkpt lat="45.75469" lon="4.845">
        <ele>202.12100219727</ele>
        <time>2012-04-17T15:22:50Z</time>
      </trkpt>
      <trkpt lat="45.75475" lon="4.84484">
        <ele>202.21099853516</ele>
        <time>2012-04-17T15:22:53Z</time>
      </trkpt>
      <trkpt lat="45.75491" lon="4.84439">
        <ele>202.57600402832</ele>
        <time>2012-04-17T15:23:00Z</time>
      </trkpt>
      <trkpt lat="45.75504" lon="4.84406">
        <ele>202.70100402832</ele>
        <time>2012-04-17T15:23:05Z</time>
      </trkpt>
      <trkpt lat="45.75511" lon="4.84376">
        <ele>202.75100708008</ele>
        <time>2012-04-17T15:23:09Z</time>
      </trkpt>
      <trkpt lat="45.75514" lon="4.84347">
        <ele>202.73300170898</ele>
        <time>2012-04-17T15:23:13Z</time>
      </trkpt>
      <trkpt lat="45.75527" lon="4.84317">
        <ele>202.44999694824</ele>
        <time>2012-04-17T15:23:19Z</time>
      </trkpt>
      <trkpt lat="45.75537" lon="4.8431">
        <ele>202.26899719238</ele>
        <time>2012-04-17T15:23:25Z</time>
      </trkpt>
      <trkpt lat="45.75542" lon="4.84299">
        <ele>202.39399719238</ele>
        <time>2012-04-17T15:23:30Z</time>
      </trkpt>
      <trkpt lat="45.75546" lon="4.84298">
        <ele>202.42500305176</ele>
        <time>2012-04-17T15:23:35Z</time>
      </trkpt>
      <trkpt lat="45.75559" lon="4.84303">
        <ele>201.89500427246</ele>
        <time>2012-04-17T15:24:00Z</time>
      </trkpt>
      <trkpt lat="45.75563" lon="4.84284">
        <ele>202.19400024414</ele>
        <time>2012-04-17T15:24:04Z</time>
      </trkpt>
      <trkpt lat="45.75583" lon="4.84227">
        <ele>203.77099609375</ele>
        <time>2012-04-17T15:24:12Z</time>
      </trkpt>
      <trkpt lat="45.75587" lon="4.84213">
        <ele>203.98500061035</ele>
        <time>2012-04-17T15:24:14Z</time>
      </trkpt>
      <trkpt lat="45.75591" lon="4.84199">
        <ele>204.46899414062</ele>
        <time>2012-04-17T15:24:16Z</time>
      </trkpt>
      <trkpt lat="45.756" lon="4.84152">
        <ele>205.11799621582</ele>
        <time>2012-04-17T15:24:22Z</time>
      </trkpt>
      <trkpt lat="45.75621" lon="4.84078">
        <ele>206.23500061035</ele>
        <time>2012-04-17T15:24:31Z</time>
      </trkpt>
      <trkpt lat="45.75636" lon="4.84026">
        <ele>206.45500183106</ele>
        <time>2012-04-17T15:24:39Z</time>
      </trkpt>
      <trkpt lat="45.75643" lon="4.84007">
        <ele>206.35899353027</ele>
        <time>2012-04-17T15:24:42Z</time>
      </trkpt>
      <trkpt lat="45.75661" lon="4.83953">
        <ele>205.41600036621</ele>
        <time>2012-04-17T15:24:50Z</time>
      </trkpt>
      <trkpt lat="45.75684" lon="4.83878">
        <ele>206.21800231934</ele>
        <time>2012-04-17T15:25:01Z</time>
      </trkpt>
      <trkpt lat="45.75701" lon="4.83815">
        <ele>206.67399597168</ele>
        <time>2012-04-17T15:25:09Z</time>
      </trkpt>
      <trkpt lat="45.75719" lon="4.83753">
        <ele>206.2200012207</ele>
        <time>2012-04-17T15:25:17Z</time>
      </trkpt>
      <trkpt lat="45.75735" lon="4.83696">
        <ele>205.60000610352</ele>
        <time>2012-04-17T15:25:25Z</time>
      </trkpt>
      <trkpt lat="45.75743" lon="4.83647">
        <ele>205.02499389648</ele>
        <time>2012-04-17T15:25:31Z</time>
      </trkpt>
      <trkpt lat="45.75749" lon="4.83613">
        <ele>204.42399597168</ele>
        <time>2012-04-17T15:25:35Z</time>
      </trkpt>
      <trkpt lat="45.75769" lon="4.83525">
        <ele>203.64399719238</ele>
        <time>2012-04-17T15:25:44Z</time>
      </trkpt>
      <trkpt lat="45.75776" lon="4.83501">
        <ele>203.06900024414</ele>
        <time>2012-04-17T15:25:47Z</time>
      </trkpt>
      <trkpt lat="45.75782" lon="4.83488">
        <ele>202.62699890137</ele>
        <time>2012-04-17T15:25:49Z</time>
      </trkpt>
      <trkpt lat="45.75801" lon="4.83439">
        <ele>201.55099487305</ele>
        <time>2012-04-17T15:25:56Z</time>
      </trkpt>
      <trkpt lat="45.75819" lon="4.83395">
        <ele>201.32200622559</ele>
        <time>2012-04-17T15:26:03Z</time>
      </trkpt>
      <trkpt lat="45.75829" lon="4.83342">
        <ele>202.22599792481</ele>
        <time>2012-04-17T15:26:09Z</time>
      </trkpt>
      <trkpt lat="45.75837" lon="4.83281">
        <ele>201.72799682617</ele>
        <time>2012-04-17T15:26:16Z</time>
      </trkpt>
      <trkpt lat="45.75858" lon="4.83205">
        <ele>201.20599365234</ele>
        <time>2012-04-17T15:26:26Z</time>
      </trkpt>
      <trkpt lat="45.75883" lon="4.8312">
        <ele>202.12300109863</ele>
        <time>2012-04-17T15:26:37Z</time>
      </trkpt>
      <trkpt lat="45.75901" lon="4.83059">
        <ele>201.58000183106</ele>
        <time>2012-04-17T15:26:45Z</time>
      </trkpt>
      <trkpt lat="45.75904" lon="4.83025">
        <ele>201.01699829102</ele>
        <time>2012-04-17T15:26:49Z</time>
      </trkpt>
      <trkpt lat="45.75906" lon="4.83003">
        <ele>200.5359954834</ele>
        <time>2012-04-17T15:26:54Z</time>
      </trkpt>
      <trkpt lat="45.7591" lon="4.8299">
        <ele>200.79600524902</ele>
        <time>2012-04-17T15:26:59Z</time>
      </trkpt>
      <trkpt lat="45.75922" lon="4.82966">
        <ele>201.45300292969</ele>
        <time>2012-04-17T15:27:04Z</time>
      </trkpt>
      <trkpt lat="45.75948" lon="4.82913">
        <ele>203.01899719238</ele>
        <time>2012-04-17T15:27:13Z</time>
      </trkpt>
      <trkpt lat="45.75968" lon="4.82851">
        <ele>204.15899658203</ele>
        <time>2012-04-17T15:27:23Z</time>
      </trkpt>
      <trkpt lat="45.75981" lon="4.82812">
        <ele>204.11399841309</ele>
        <time>2012-04-17T15:27:29Z</time>
      </trkpt>
      <trkpt lat="45.75983" lon="4.82805">
        <ele>203.60600280762</ele>
        <time>2012-04-17T15:27:32Z</time>
      </trkpt>
      <trkpt lat="45.75989" lon="4.82789">
        <ele>202.80400085449</ele>
        <time>2012-04-17T15:27:36Z</time>
      </trkpt>
      <trkpt lat="45.76004" lon="4.82731">
        <ele>203.0359954834</ele>
        <time>2012-04-17T15:27:44Z</time>
      </trkpt>
      <trkpt lat="45.76019" lon="4.82677">
        <ele>202.40899658203</ele>
        <time>2012-04-17T15:27:51Z</time>
      </trkpt>
      <trkpt lat="45.76031" lon="4.82655">
        <ele>201.84700012207</ele>
        <time>2012-04-17T15:27:55Z</time>
      </trkpt>
      <trkpt lat="45.76047" lon="4.82655">
        <ele>200.85099792481</ele>
        <time>2012-04-17T15:28:00Z</time>
      </trkpt>
      <trkpt lat="45.76057" lon="4.82657">
        <ele>200.66700744629</ele>
        <time>2012-04-17T15:28:04Z</time>
      </trkpt>
      <trkpt lat="45.76065" lon="4.82657">
        <ele>200.79200744629</ele>
        <time>2012-04-17T15:28:08Z</time>
      </trkpt>
      <trkpt lat="45.76073" lon="4.82657">
        <ele>200.59199523926</ele>
        <time>2012-04-17T15:28:11Z</time>
      </trkpt>
      <trkpt lat="45.76085" lon="4.82646">
        <ele>200.51600646973</ele>
        <time>2012-04-17T15:28:18Z</time>
      </trkpt>
      <trkpt lat="45.76089" lon="4.82634">
        <ele>199.89500427246</ele>
        <time>2012-04-17T15:29:05Z</time>
      </trkpt>
      <trkpt lat="45.76102" lon="4.826">
        <ele>201.39199829102</ele>
        <time>2012-04-17T15:29:13Z</time>
      </trkpt>
      <trkpt lat="45.76105" lon="4.82577">
        <ele>202.70399475098</ele>
        <time>2012-04-17T15:29:19Z</time>
      </trkpt>
      <trkpt lat="45.76095" lon="4.82568">
        <ele>203.02299499512</ele>
        <time>2012-04-17T15:29:23Z</time>
      </trkpt>
      <trkpt lat="45.76091" lon="4.82567">
        <ele>203.08700561523</ele>
        <time>2012-04-17T15:29:24Z</time>
      </trkpt>
      <trkpt lat="45.76083" lon="4.82563">
        <ele>203.15600585938</ele>
        <time>2012-04-17T15:29:26Z</time>
      </trkpt>
      <trkpt lat="45.76073" lon="4.82557">
        <ele>203.15899658203</ele>
        <time>2012-04-17T15:29:28Z</time>
      </trkpt>
      <trkpt lat="45.76051" lon="4.82549">
        <ele>202.99299621582</ele>
        <time>2012-04-17T15:29:32Z</time>
      </trkpt>
      <trkpt lat="45.76037" lon="4.82552">
        <ele>202.78199768066</ele>
        <time>2012-04-17T15:29:35Z</time>
      </trkpt>
      <trkpt lat="45.76019" lon="4.82559">
        <ele>202.375</ele>
        <time>2012-04-17T15:29:40Z</time>
      </trkpt>
      <trkpt lat="45.76002" lon="4.82563">
        <ele>202.41400146484</ele>
        <time>2012-04-17T15:29:45Z</time>
      </trkpt>
      <trkpt lat="45.75988" lon="4.82565">
        <ele>202.85299682617</ele>
        <time>2012-04-17T15:29:49Z</time>
      </trkpt>
      <trkpt lat="45.7598" lon="4.8257">
        <ele>203.25700378418</ele>
        <time>2012-04-17T15:29:52Z</time>
      </trkpt>
      <trkpt lat="45.75966" lon="4.8257">
        <ele>203.95399475098</ele>
        <time>2012-04-17T15:29:57Z</time>
      </trkpt>
      <trkpt lat="45.7595" lon="4.82561">
        <ele>205.12600708008</ele>
        <time>2012-04-17T15:30:03Z</time>
      </trkpt>
      <trkpt lat="45.75943" lon="4.82544">
        <ele>206.44400024414</ele>
        <time>2012-04-17T15:30:07Z</time>
      </trkpt>
      <trkpt lat="45.75934" lon="4.8253">
        <ele>207.62300109863</ele>
        <time>2012-04-17T15:30:11Z</time>
      </trkpt>
      <trkpt lat="45.75924" lon="4.82519">
        <ele>209.50900268555</ele>
        <time>2012-04-17T15:30:16Z</time>
      </trkpt>
      <trkpt lat="45.75919" lon="4.82514">
        <ele>210.45599365234</ele>
        <time>2012-04-17T15:30:19Z</time>
      </trkpt>
      <trkpt lat="45.75906" lon="4.82497">
        <ele>213.15299987793</ele>
        <time>2012-04-17T15:30:28Z</time>
      </trkpt>
      <trkpt lat="45.75898" lon="4.82486">
        <ele>215.25999450684</ele>
        <time>2012-04-17T15:30:35Z</time>
      </trkpt>
      <trkpt lat="45.75889" lon="4.8248">
        <ele>217.25999450684</ele>
        <time>2012-04-17T15:30:42Z</time>
      </trkpt>
      <trkpt lat="45.75879" lon="4.82469">
        <ele>219.57600402832</ele>
        <time>2012-04-17T15:30:50Z</time>
      </trkpt>
      <trkpt lat="45.75871" lon="4.82462">
        <ele>221.23500061035</ele>
        <time>2012-04-17T15:30:57Z</time>
      </trkpt>
      <trkpt lat="45.75863" lon="4.82455">
        <ele>222.82499694824</ele>
        <time>2012-04-17T15:31:04Z</time>
      </trkpt>
      <trkpt lat="45.75858" lon="4.82453">
        <ele>224.60699462891</ele>
        <time>2012-04-17T15:31:10Z</time>
      </trkpt>
      <trkpt lat="45.75853" lon="4.8245">
        <ele>225.58999633789</ele>
        <time>2012-04-17T15:31:14Z</time>
      </trkpt>
      <trkpt lat="45.75848" lon="4.8244">
        <ele>227.45399475098</ele>
        <time>2012-04-17T15:31:21Z</time>
      </trkpt>
      <trkpt lat="45.75845" lon="4.82425">
        <ele>229.07699584961</ele>
        <time>2012-04-17T15:31:27Z</time>
      </trkpt>
      <trkpt lat="45.75843" lon="4.82422">
        <ele>229.40400695801</ele>
        <time>2012-04-17T15:31:28Z</time>
      </trkpt>
      <trkpt lat="45.75838" lon="4.82405">
        <ele>231.33999633789</ele>
        <time>2012-04-17T15:31:35Z</time>
      </trkpt>
      <trkpt lat="45.75837" lon="4.82403">
        <ele>231.55999755859</ele>
        <time>2012-04-17T15:31:36Z</time>
      </trkpt>
      <trkpt lat="45.75834" lon="4.8239">
        <ele>233.13600158691</ele>
        <time>2012-04-17T15:31:42Z</time>
      </trkpt>
      <trkpt lat="45.7583" lon="4.82377">
        <ele>234.61500549316</ele>
        <time>2012-04-17T15:31:48Z</time>
      </trkpt>
      <trkpt lat="45.75827" lon="4.82376">
        <ele>234.80099487305</ele>
        <time>2012-04-17T15:31:50Z</time>
      </trkpt>
      <trkpt lat="45.75824" lon="4.82374">
        <ele>235.76100158691</ele>
        <time>2012-04-17T15:31:54Z</time>
      </trkpt>
      <trkpt lat="45.75813" lon="4.82368">
        <ele>237.41000366211</ele>
        <time>2012-04-17T15:32:01Z</time>
      </trkpt>
      <trkpt lat="45.75803" lon="4.82365">
        <ele>238.6609954834</ele>
        <time>2012-04-17T15:32:06Z</time>
      </trkpt>
      <trkpt lat="45.75795" lon="4.82361">
        <ele>240.14500427246</ele>
        <time>2012-04-17T15:32:14Z</time>
      </trkpt>
      <trkpt lat="45.75792" lon="4.82361">
        <ele>241.07299804688</ele>
        <time>2012-04-17T15:32:18Z</time>
      </trkpt>
      <trkpt lat="45.75788" lon="4.82347">
        <ele>242.51100158691</ele>
        <time>2012-04-17T15:32:24Z</time>
      </trkpt>
      <trkpt lat="45.75783" lon="4.82332">
        <ele>244.30999755859</ele>
        <time>2012-04-17T15:32:31Z</time>
      </trkpt>
      <trkpt lat="45.7578" lon="4.82316">
        <ele>245.55299377441</ele>
        <time>2012-04-17T15:32:39Z</time>
      </trkpt>
      <trkpt lat="45.75779" lon="4.82299">
        <ele>246.9700012207</ele>
        <time>2012-04-17T15:32:46Z</time>
      </trkpt>
      <trkpt lat="45.7578" lon="4.8228">
        <ele>248.75900268555</ele>
        <time>2012-04-17T15:32:53Z</time>
      </trkpt>
      <trkpt lat="45.75779" lon="4.82269">
        <ele>249.80999755859</ele>
        <time>2012-04-17T15:32:57Z</time>
      </trkpt>
      <trkpt lat="45.75777" lon="4.82254">
        <ele>251.30499267578</ele>
        <time>2012-04-17T15:33:03Z</time>
      </trkpt>
      <trkpt lat="45.75777" lon="4.82237">
        <ele>252.96499633789</ele>
        <time>2012-04-17T15:33:11Z</time>
      </trkpt>
      <trkpt lat="45.75775" lon="4.82218">
        <ele>254.38499450684</ele>
        <time>2012-04-17T15:33:17Z</time>
      </trkpt>
      <trkpt lat="45.75769" lon="4.82204">
        <ele>256.08700561523</ele>
        <time>2012-04-17T15:33:23Z</time>
      </trkpt>
      <trkpt lat="45.75761" lon="4.8219">
        <ele>257.59399414062</ele>
        <time>2012-04-17T15:33:30Z</time>
      </trkpt>
      <trkpt lat="45.7576" lon="4.82184">
        <ele>258.16101074219</ele>
        <time>2012-04-17T15:33:32Z</time>
      </trkpt>
      <trkpt lat="45.75764" lon="4.82182">
        <ele>259.22100830078</ele>
        <time>2012-04-17T15:33:36Z</time>
      </trkpt>
      <trkpt lat="45.75766" lon="4.82184">
        <ele>259.48599243164</ele>
        <time>2012-04-17T15:33:37Z</time>
      </trkpt>
      <trkpt lat="45.75774" lon="4.82197">
        <ele>260.60998535156</ele>
        <time>2012-04-17T15:33:43Z</time>
      </trkpt>
      <trkpt lat="45.75786" lon="4.82203">
        <ele>261.77301025391</ele>
        <time>2012-04-17T15:33:49Z</time>
      </trkpt>
      <trkpt lat="45.75802" lon="4.82204">
        <ele>263.06500244141</ele>
        <time>2012-04-17T15:33:57Z</time>
      </trkpt>
      <trkpt lat="45.75806" lon="4.82202">
        <ele>263.57998657227</ele>
        <time>2012-04-17T15:34:00Z</time>
      </trkpt>
      <trkpt lat="45.75806" lon="4.82191">
        <ele>264.37100219727</ele>
        <time>2012-04-17T15:34:04Z</time>
      </trkpt>
      <trkpt lat="45.75803" lon="4.82189">
        <ele>264.63400268555</ele>
        <time>2012-04-17T15:34:05Z</time>
      </trkpt>
      <trkpt lat="45.75777" lon="4.82175">
        <ele>266.0119934082</ele>
        <time>2012-04-17T15:34:14Z</time>
      </trkpt>
      <trkpt lat="45.75748" lon="4.82154">
        <ele>266.375</ele>
        <time>2012-04-17T15:34:23Z</time>
      </trkpt>
      <trkpt lat="45.75725" lon="4.8213">
        <ele>267.58898925781</ele>
        <time>2012-04-17T15:34:32Z</time>
      </trkpt>
      <trkpt lat="45.75709" lon="4.82111">
        <ele>269.00299072266</ele>
        <time>2012-04-17T15:34:39Z</time>
      </trkpt>
      <trkpt lat="45.75694" lon="4.82089">
        <ele>270.55599975586</ele>
        <time>2012-04-17T15:34:48Z</time>
      </trkpt>
      <trkpt lat="45.75692" lon="4.82075">
        <ele>272.19299316406</ele>
        <time>2012-04-17T15:34:53Z</time>
      </trkpt>
      <trkpt lat="45.75676" lon="4.82054">
        <ele>273.24301147461</ele>
        <time>2012-04-17T15:35:01Z</time>
      </trkpt>
      <trkpt lat="45.75658" lon="4.8203">
        <ele>274.94799804688</ele>
        <time>2012-04-17T15:35:10Z</time>
      </trkpt>
      <trkpt lat="45.75646" lon="4.81999">
        <ele>276.86199951172</ele>
        <time>2012-04-17T15:35:19Z</time>
      </trkpt>
      <trkpt lat="45.75637" lon="4.81975">
        <ele>278.50799560547</ele>
        <time>2012-04-17T15:35:27Z</time>
      </trkpt>
      <trkpt lat="45.75629" lon="4.81957">
        <ele>280.01501464844</ele>
        <time>2012-04-17T15:35:33Z</time>
      </trkpt>
      <trkpt lat="45.75619" lon="4.8193">
        <ele>281.27301025391</ele>
        <time>2012-04-17T15:35:41Z</time>
      </trkpt>
      <trkpt lat="45.75608" lon="4.81894">
        <ele>282.53698730469</ele>
        <time>2012-04-17T15:35:51Z</time>
      </trkpt>
      <trkpt lat="45.75608" lon="4.81861">
        <ele>283.99798583984</ele>
        <time>2012-04-17T15:36:00Z</time>
      </trkpt>
      <trkpt lat="45.75612" lon="4.81836">
        <ele>285.00299072266</ele>
        <time>2012-04-17T15:36:06Z</time>
      </trkpt>
      <trkpt lat="45.75619" lon="4.81801">
        <ele>286.09799194336</ele>
        <time>2012-04-17T15:36:14Z</time>
      </trkpt>
      <trkpt lat="45.75624" lon="4.81766">
        <ele>287.06799316406</ele>
        <time>2012-04-17T15:36:22Z</time>
      </trkpt>
      <trkpt lat="45.75632" lon="4.8174">
        <ele>287.63299560547</ele>
        <time>2012-04-17T15:36:28Z</time>
      </trkpt>
      <trkpt lat="45.75642" lon="4.81717">
        <ele>288.08599853516</ele>
        <time>2012-04-17T15:36:34Z</time>
      </trkpt>
      <trkpt lat="45.75655" lon="4.81685">
        <ele>289.3630065918</ele>
        <time>2012-04-17T15:36:42Z</time>
      </trkpt>
      <trkpt lat="45.75673" lon="4.81651">
        <ele>291.13198852539</ele>
        <time>2012-04-17T15:36:52Z</time>
      </trkpt>
      <trkpt lat="45.75688" lon="4.81618">
        <ele>292.56900024414</ele>
        <time>2012-04-17T15:37:01Z</time>
      </trkpt>
      <trkpt lat="45.75705" lon="4.81585">
        <ele>293.75100708008</ele>
        <time>2012-04-17T15:37:09Z</time>
      </trkpt>
      <trkpt lat="45.75721" lon="4.81556">
        <ele>294.09100341797</ele>
        <time>2012-04-17T15:37:16Z</time>
      </trkpt>
      <trkpt lat="45.75731" lon="4.81534">
        <ele>294.39199829102</ele>
        <time>2012-04-17T15:37:22Z</time>
      </trkpt>
      <trkpt lat="45.75735" lon="4.81526">
        <ele>294.26501464844</ele>
        <time>2012-04-17T15:37:27Z</time>
      </trkpt>
      <trkpt lat="45.75741" lon="4.81511">
        <ele>294.44100952148</ele>
        <time>2012-04-17T15:37:32Z</time>
      </trkpt>
      <trkpt lat="45.75742" lon="4.81506">
        <ele>294.57699584961</ele>
        <time>2012-04-17T15:37:33Z</time>
      </trkpt>
      <trkpt lat="45.75761" lon="4.81456">
        <ele>295.24398803711</ele>
        <time>2012-04-17T15:37:43Z</time>
      </trkpt>
      <trkpt lat="45.75776" lon="4.81428">
        <ele>295.11999511719</ele>
        <time>2012-04-17T15:37:49Z</time>
      </trkpt>
      <trkpt lat="45.75795" lon="4.81387">
        <ele>295.01901245117</ele>
        <time>2012-04-17T15:37:57Z</time>
      </trkpt>
      <trkpt lat="45.75804" lon="4.81371">
        <ele>295.21499633789</ele>
        <time>2012-04-17T15:38:02Z</time>
      </trkpt>
      <trkpt lat="45.75808" lon="4.81363">
        <ele>295.06799316406</ele>
        <time>2012-04-17T15:38:07Z</time>
      </trkpt>
      <trkpt lat="45.75807" lon="4.81362">
        <ele>294.69100952148</ele>
        <time>2012-04-17T15:38:15Z</time>
      </trkpt>
      <trkpt lat="45.7581" lon="4.81356">
        <ele>294.58999633789</ele>
        <time>2012-04-17T15:38:19Z</time>
      </trkpt>
      <trkpt lat="45.75818" lon="4.81341">
        <ele>294.60998535156</ele>
        <time>2012-04-17T15:38:22Z</time>
      </trkpt>
      <trkpt lat="45.75828" lon="4.813">
        <ele>293.79299926758</ele>
        <time>2012-04-17T15:38:27Z</time>
      </trkpt>
      <trkpt lat="45.75824" lon="4.81275">
        <ele>293.11199951172</ele>
        <time>2012-04-17T15:38:30Z</time>
      </trkpt>
      <trkpt lat="45.75817" lon="4.8126">
        <ele>292.62100219727</ele>
        <time>2012-04-17T15:38:32Z</time>
      </trkpt>
      <trkpt lat="45.75783" lon="4.81196">
        <ele>291.48901367188</ele>
        <time>2012-04-17T15:38:41Z</time>
      </trkpt>
      <trkpt lat="45.75761" lon="4.81152">
        <ele>290.61199951172</ele>
        <time>2012-04-17T15:38:47Z</time>
      </trkpt>
      <trkpt lat="45.75758" lon="4.81145">
        <ele>290.4880065918</ele>
        <time>2012-04-17T15:38:48Z</time>
      </trkpt>
      <trkpt lat="45.75749" lon="4.81121">
        <ele>289.46899414062</ele>
        <time>2012-04-17T15:38:53Z</time>
      </trkpt>
      <trkpt lat="45.75753" lon="4.81114">
        <ele>289.02801513672</ele>
        <time>2012-04-17T15:38:56Z</time>
      </trkpt>
      <trkpt lat="45.75765" lon="4.81118">
        <ele>288.86898803711</ele>
        <time>2012-04-17T15:39:00Z</time>
      </trkpt>
      <trkpt lat="45.75774" lon="4.81101">
        <ele>288.52801513672</ele>
        <time>2012-04-17T15:39:04Z</time>
      </trkpt>
      <trkpt lat="45.75777" lon="4.81086">
        <ele>288.39498901367</ele>
        <time>2012-04-17T15:39:06Z</time>
      </trkpt>
      <trkpt lat="45.75787" lon="4.8102">
        <ele>287.50100708008</ele>
        <time>2012-04-17T15:39:13Z</time>
      </trkpt>
      <trkpt lat="45.75799" lon="4.80946">
        <ele>286.3039855957</ele>
        <time>2012-04-17T15:39:20Z</time>
      </trkpt>
      <trkpt lat="45.75813" lon="4.80879">
        <ele>285.76800537109</ele>
        <time>2012-04-17T15:39:27Z</time>
      </trkpt>
      <trkpt lat="45.75825" lon="4.80824">
        <ele>285.60699462891</ele>
        <time>2012-04-17T15:39:33Z</time>
      </trkpt>
      <trkpt lat="45.75838" lon="4.8078">
        <ele>285.3210144043</ele>
        <time>2012-04-17T15:39:39Z</time>
      </trkpt>
      <trkpt lat="45.75847" lon="4.80746">
        <ele>285.38400268555</ele>
        <time>2012-04-17T15:39:44Z</time>
      </trkpt>
      <trkpt lat="45.75866" lon="4.80688">
        <ele>284.42098999023</ele>
        <time>2012-04-17T15:39:52Z</time>
      </trkpt>
      <trkpt lat="45.75888" lon="4.80625">
        <ele>283.83700561523</ele>
        <time>2012-04-17T15:40:00Z</time>
      </trkpt>
      <trkpt lat="45.75906" lon="4.80575">
        <ele>283.24899291992</ele>
        <time>2012-04-17T15:40:06Z</time>
      </trkpt>
      <trkpt lat="45.75908" lon="4.80568">
        <ele>283.02099609375</ele>
        <time>2012-04-17T15:40:07Z</time>
      </trkpt>
      <trkpt lat="45.75921" lon="4.80558">
        <ele>281.97500610352</ele>
        <time>2012-04-17T15:40:11Z</time>
      </trkpt>
      <trkpt lat="45.75946" lon="4.80558">
        <ele>281.02099609375</ele>
        <time>2012-04-17T15:40:16Z</time>
      </trkpt>
      <trkpt lat="45.75993" lon="4.80561">
        <ele>279.9880065918</ele>
        <time>2012-04-17T15:40:24Z</time>
      </trkpt>
      <trkpt lat="45.76011" lon="4.80561">
        <ele>277.96899414062</ele>
        <time>2012-04-17T15:40:28Z</time>
      </trkpt>
      <trkpt lat="45.76019" lon="4.8055">
        <ele>275.06698608398</ele>
        <time>2012-04-17T15:40:32Z</time>
      </trkpt>
      <trkpt lat="45.76036" lon="4.80509">
        <ele>273.20199584961</ele>
        <time>2012-04-17T15:40:39Z</time>
      </trkpt>
      <trkpt lat="45.76046" lon="4.80489">
        <ele>272.47900390625</ele>
        <time>2012-04-17T15:40:43Z</time>
      </trkpt>
      <trkpt lat="45.76057" lon="4.80467">
        <ele>271.48001098633</ele>
        <time>2012-04-17T15:40:47Z</time>
      </trkpt>
      <trkpt lat="45.76072" lon="4.8045">
        <ele>269.97100830078</ele>
        <time>2012-04-17T15:40:52Z</time>
      </trkpt>
      <trkpt lat="45.76083" lon="4.80442">
        <ele>268.29800415039</ele>
        <time>2012-04-17T15:40:57Z</time>
      </trkpt>
      <trkpt lat="45.76094" lon="4.8043">
        <ele>267.48901367188</ele>
        <time>2012-04-17T15:41:02Z</time>
      </trkpt>
      <trkpt lat="45.76094" lon="4.80428">
        <ele>266.68499755859</ele>
        <time>2012-04-17T15:41:08Z</time>
      </trkpt>
      <trkpt lat="45.76093" lon="4.80425">
        <ele>266.31399536133</ele>
        <time>2012-04-17T15:41:19Z</time>
      </trkpt>
      <trkpt lat="45.76093" lon="4.80424">
        <ele>266.35598754883</ele>
        <time>2012-04-17T15:41:30Z</time>
      </trkpt>
      <trkpt lat="45.7609" lon="4.80412">
        <ele>267.23300170898</ele>
        <time>2012-04-17T15:41:37Z</time>
      </trkpt>
      <trkpt lat="45.76087" lon="4.80402">
        <ele>269.66598510742</ele>
        <time>2012-04-17T15:41:44Z</time>
      </trkpt>
      <trkpt lat="45.76085" lon="4.80392">
        <ele>271.74700927734</ele>
        <time>2012-04-17T15:41:49Z</time>
      </trkpt>
      <trkpt lat="45.76084" lon="4.8039">
        <ele>272.1369934082</ele>
        <time>2012-04-17T15:41:50Z</time>
      </trkpt>
      <trkpt lat="45.76083" lon="4.80373">
        <ele>274.72698974609</ele>
        <time>2012-04-17T15:41:56Z</time>
      </trkpt>
      <trkpt lat="45.76084" lon="4.80352">
        <ele>275.79000854492</ele>
        <time>2012-04-17T15:42:01Z</time>
      </trkpt>
      <trkpt lat="45.76093" lon="4.80325">
        <ele>276.26599121094</ele>
        <time>2012-04-17T15:42:08Z</time>
      </trkpt>
      <trkpt lat="45.76105" lon="4.80296">
        <ele>276.66198730469</ele>
        <time>2012-04-17T15:42:15Z</time>
      </trkpt>
      <trkpt lat="45.76112" lon="4.80273">
        <ele>276.81298828125</ele>
        <time>2012-04-17T15:42:20Z</time>
      </trkpt>
      <trkpt lat="45.76124" lon="4.80253">
        <ele>276.96798706055</ele>
        <time>2012-04-17T15:42:25Z</time>
      </trkpt>
      <trkpt lat="45.76146" lon="4.8022">
        <ele>277.94198608398</ele>
        <time>2012-04-17T15:42:32Z</time>
      </trkpt>
      <trkpt lat="45.7617" lon="4.80187">
        <ele>278.7380065918</ele>
        <time>2012-04-17T15:42:39Z</time>
      </trkpt>
      <trkpt lat="45.76193" lon="4.80153">
        <ele>279.51800537109</ele>
        <time>2012-04-17T15:42:46Z</time>
      </trkpt>
      <trkpt lat="45.76204" lon="4.80137">
        <ele>279.82800292969</ele>
        <time>2012-04-17T15:42:49Z</time>
      </trkpt>
      <trkpt lat="45.76215" lon="4.80117">
        <ele>280.27099609375</ele>
        <time>2012-04-17T15:42:53Z</time>
      </trkpt>
      <trkpt lat="45.76236" lon="4.80068">
        <ele>280.52099609375</ele>
        <time>2012-04-17T15:43:01Z</time>
      </trkpt>
      <trkpt lat="45.76241" lon="4.80041">
        <ele>280.49099731445</ele>
        <time>2012-04-17T15:43:04Z</time>
      </trkpt>
      <trkpt lat="45.76251" lon="4.79974">
        <ele>280.28399658203</ele>
        <time>2012-04-17T15:43:12Z</time>
      </trkpt>
      <trkpt lat="45.76257" lon="4.79939">
        <ele>279.9169921875</ele>
        <time>2012-04-17T15:43:16Z</time>
      </trkpt>
      <trkpt lat="45.76259" lon="4.79913">
        <ele>279.50799560547</ele>
        <time>2012-04-17T15:43:19Z</time>
      </trkpt>
      <trkpt lat="45.7626" lon="4.79879">
        <ele>278.83401489258</ele>
        <time>2012-04-17T15:43:23Z</time>
      </trkpt>
      <trkpt lat="45.76252" lon="4.7984">
        <ele>278.11599731445</ele>
        <time>2012-04-17T15:43:28Z</time>
      </trkpt>
      <trkpt lat="45.7625" lon="4.79794">
        <ele>277.05700683594</ele>
        <time>2012-04-17T15:43:34Z</time>
      </trkpt>
      <trkpt lat="45.76239" lon="4.7975">
        <ele>275.91198730469</ele>
        <time>2012-04-17T15:43:40Z</time>
      </trkpt>
      <trkpt lat="45.76224" lon="4.797">
        <ele>274.9580078125</ele>
        <time>2012-04-17T15:43:47Z</time>
      </trkpt>
      <trkpt lat="45.76219" lon="4.79688">
        <ele>274.8330078125</ele>
        <time>2012-04-17T15:43:49Z</time>
      </trkpt>
      <trkpt lat="45.76211" lon="4.79652">
        <ele>274.25698852539</ele>
        <time>2012-04-17T15:43:54Z</time>
      </trkpt>
      <trkpt lat="45.76201" lon="4.79602">
        <ele>274.27499389648</ele>
        <time>2012-04-17T15:44:01Z</time>
      </trkpt>
      <trkpt lat="45.76199" lon="4.79588">
        <ele>274.14898681641</ele>
        <time>2012-04-17T15:44:04Z</time>
      </trkpt>
      <trkpt lat="45.762" lon="4.79587">
        <ele>274.01800537109</ele>
        <time>2012-04-17T15:44:06Z</time>
      </trkpt>
      <trkpt lat="45.76201" lon="4.79573">
        <ele>273.93600463867</ele>
        <time>2012-04-17T15:44:11Z</time>
      </trkpt>
      <trkpt lat="45.76196" lon="4.79539">
        <ele>274.22900390625</ele>
        <time>2012-04-17T15:44:17Z</time>
      </trkpt>
      <trkpt lat="45.76191" lon="4.79502">
        <ele>274.1960144043</ele>
        <time>2012-04-17T15:44:22Z</time>
      </trkpt>
      <trkpt lat="45.7618" lon="4.79452">
        <ele>273.42001342773</ele>
        <time>2012-04-17T15:44:28Z</time>
      </trkpt>
      <trkpt lat="45.76177" lon="4.79437">
        <ele>273.3330078125</ele>
        <time>2012-04-17T15:44:30Z</time>
      </trkpt>
      <trkpt lat="45.76172" lon="4.79413">
        <ele>273.11099243164</ele>
        <time>2012-04-17T15:44:33Z</time>
      </trkpt>
      <trkpt lat="45.76162" lon="4.79366">
        <ele>272.70001220703</ele>
        <time>2012-04-17T15:44:38Z</time>
      </trkpt>
      <trkpt lat="45.76159" lon="4.79322">
        <ele>271.9700012207</ele>
        <time>2012-04-17T15:44:43Z</time>
      </trkpt>
      <trkpt lat="45.76156" lon="4.79265">
        <ele>271.31298828125</ele>
        <time>2012-04-17T15:44:49Z</time>
      </trkpt>
      <trkpt lat="45.76154" lon="4.79239">
        <ele>270.9289855957</ele>
        <time>2012-04-17T15:44:52Z</time>
      </trkpt>
      <trkpt lat="45.76151" lon="4.79181">
        <ele>269.90301513672</ele>
        <time>2012-04-17T15:44:58Z</time>
      </trkpt>
      <trkpt lat="45.76152" lon="4.7913">
        <ele>268.98300170898</ele>
        <time>2012-04-17T15:45:04Z</time>
      </trkpt>
      <trkpt lat="45.76161" lon="4.79018">
        <ele>267.25698852539</ele>
        <time>2012-04-17T15:45:13Z</time>
      </trkpt>
      <trkpt lat="45.76168" lon="4.78992">
        <ele>266.52801513672</ele>
        <time>2012-04-17T15:45:16Z</time>
      </trkpt>
      <trkpt lat="45.76176" lon="4.78962">
        <ele>265.81900024414</ele>
        <time>2012-04-17T15:45:20Z</time>
      </trkpt>
      <trkpt lat="45.76188" lon="4.78935">
        <ele>264.71899414062</ele>
        <time>2012-04-17T15:45:25Z</time>
      </trkpt>
      <trkpt lat="45.76197" lon="4.78912">
        <ele>264.50799560547</ele>
        <time>2012-04-17T15:45:28Z</time>
      </trkpt>
      <trkpt lat="45.76222" lon="4.78866">
        <ele>264.06500244141</ele>
        <time>2012-04-17T15:45:34Z</time>
      </trkpt>
      <trkpt lat="45.7625" lon="4.78816">
        <ele>262.90701293945</ele>
        <time>2012-04-17T15:45:40Z</time>
      </trkpt>
      <trkpt lat="45.76268" lon="4.78786">
        <ele>262.17401123047</ele>
        <time>2012-04-17T15:45:44Z</time>
      </trkpt>
      <trkpt lat="45.76286" lon="4.78773">
        <ele>261.6130065918</ele>
        <time>2012-04-17T15:45:48Z</time>
      </trkpt>
      <trkpt lat="45.76305" lon="4.78758">
        <ele>260.28500366211</ele>
        <time>2012-04-17T15:45:52Z</time>
      </trkpt>
      <trkpt lat="45.76325" lon="4.78737">
        <ele>258.28100585938</ele>
        <time>2012-04-17T15:45:56Z</time>
      </trkpt>
      <trkpt lat="45.76353" lon="4.78709">
        <ele>256.32299804688</ele>
        <time>2012-04-17T15:46:01Z</time>
      </trkpt>
      <trkpt lat="45.76382" lon="4.78674">
        <ele>253.82000732422</ele>
        <time>2012-04-17T15:46:07Z</time>
      </trkpt>
      <trkpt lat="45.76403" lon="4.78669">
        <ele>252.58999633789</ele>
        <time>2012-04-17T15:46:11Z</time>
      </trkpt>
      <trkpt lat="45.7641" lon="4.78671">
        <ele>251.13200378418</ele>
        <time>2012-04-17T15:46:15Z</time>
      </trkpt>
      <trkpt lat="45.76411" lon="4.78673">
        <ele>249.80700683594</ele>
        <time>2012-04-17T15:46:19Z</time>
      </trkpt>
      <trkpt lat="45.76411" lon="4.78674">
        <ele>249.44400024414</ele>
        <time>2012-04-17T15:46:20Z</time>
      </trkpt>
      <trkpt lat="45.76416" lon="4.78666">
        <ele>247.8450012207</ele>
        <time>2012-04-17T15:46:25Z</time>
      </trkpt>
      <trkpt lat="45.76417" lon="4.78642">
        <ele>247.00199890137</ele>
        <time>2012-04-17T15:46:31Z</time>
      </trkpt>
      <trkpt lat="45.76416" lon="4.78613">
        <ele>246.54499816894</ele>
        <time>2012-04-17T15:46:39Z</time>
      </trkpt>
      <trkpt lat="45.76417" lon="4.78592">
        <ele>246.55900573731</ele>
        <time>2012-04-17T15:46:43Z</time>
      </trkpt>
      <trkpt lat="45.76415" lon="4.78541">
        <ele>246.29299926758</ele>
        <time>2012-04-17T15:46:51Z</time>
      </trkpt>
      <trkpt lat="45.76414" lon="4.78522">
        <ele>245.84100341797</ele>
        <time>2012-04-17T15:46:55Z</time>
      </trkpt>
      <trkpt lat="45.76412" lon="4.78496">
        <ele>245.6309967041</ele>
        <time>2012-04-17T15:46:59Z</time>
      </trkpt>
      <trkpt lat="45.76412" lon="4.78476">
        <ele>245.59599304199</ele>
        <time>2012-04-17T15:47:02Z</time>
      </trkpt>
      <trkpt lat="45.76409" lon="4.78433">
        <ele>244.77600097656</ele>
        <time>2012-04-17T15:47:10Z</time>
      </trkpt>
      <trkpt lat="45.76408" lon="4.78413">
        <ele>244.7799987793</ele>
        <time>2012-04-17T15:47:14Z</time>
      </trkpt>
      <trkpt lat="45.76411" lon="4.78397">
        <ele>244.55799865723</ele>
        <time>2012-04-17T15:47:17Z</time>
      </trkpt>
      <trkpt lat="45.76412" lon="4.78344">
        <ele>244.5359954834</ele>
        <time>2012-04-17T15:47:24Z</time>
      </trkpt>
      <trkpt lat="45.76409" lon="4.7829">
        <ele>244.07099914551</ele>
        <time>2012-04-17T15:47:31Z</time>
      </trkpt>
      <trkpt lat="45.76409" lon="4.78253">
        <ele>243.63900756836</ele>
        <time>2012-04-17T15:47:37Z</time>
      </trkpt>
      <trkpt lat="45.76403" lon="4.78232">
        <ele>242.76300048828</ele>
        <time>2012-04-17T15:47:42Z</time>
      </trkpt>
      <trkpt lat="45.76401" lon="4.78219">
        <ele>242.07800292969</ele>
        <time>2012-04-17T15:47:45Z</time>
      </trkpt>
      <trkpt lat="45.764" lon="4.78189">
        <ele>241.52499389648</ele>
        <time>2012-04-17T15:47:51Z</time>
      </trkpt>
      <trkpt lat="45.76388" lon="4.78174">
        <ele>241.19500732422</ele>
        <time>2012-04-17T15:47:56Z</time>
      </trkpt>
      <trkpt lat="45.76381" lon="4.78153">
        <ele>240.86599731445</ele>
        <time>2012-04-17T15:48:01Z</time>
      </trkpt>
      <trkpt lat="45.76382" lon="4.78135">
        <ele>240.86700439453</ele>
        <time>2012-04-17T15:48:06Z</time>
      </trkpt>
      <trkpt lat="45.76379" lon="4.78131">
        <ele>240.71899414062</ele>
        <time>2012-04-17T15:48:09Z</time>
      </trkpt>
      <trkpt lat="45.76379" lon="4.7813">
        <ele>240.63999938965</ele>
        <time>2012-04-17T15:48:16Z</time>
      </trkpt>
      <trkpt lat="45.76369" lon="4.78122">
        <ele>240.54100036621</ele>
        <time>2012-04-17T15:48:50Z</time>
      </trkpt>
      <trkpt lat="45.76359" lon="4.78107">
        <ele>240.52699279785</ele>
        <time>2012-04-17T15:48:55Z</time>
      </trkpt>
      <trkpt lat="45.76341" lon="4.78085">
        <ele>241.19299316406</ele>
        <time>2012-04-17T15:49:02Z</time>
      </trkpt>
      <trkpt lat="45.76326" lon="4.7807">
        <ele>241.29899597168</ele>
        <time>2012-04-17T15:49:08Z</time>
      </trkpt>
      <trkpt lat="45.7631" lon="4.78052">
        <ele>240.92700195312</ele>
        <time>2012-04-17T15:49:14Z</time>
      </trkpt>
      <trkpt lat="45.76301" lon="4.78042">
        <ele>240.25500488281</ele>
        <time>2012-04-17T15:49:20Z</time>
      </trkpt>
      <trkpt lat="45.763" lon="4.7804">
        <ele>240.16499328613</ele>
        <time>2012-04-17T15:49:23Z</time>
      </trkpt>
      <trkpt lat="45.76302" lon="4.78029">
        <ele>240.04400634766</ele>
        <time>2012-04-17T15:49:27Z</time>
      </trkpt>
      <trkpt lat="45.76295" lon="4.7802">
        <ele>240.07400512695</ele>
        <time>2012-04-17T15:49:29Z</time>
      </trkpt>
      <trkpt lat="45.76263" lon="4.77985">
        <ele>240.29499816894</ele>
        <time>2012-04-17T15:49:37Z</time>
      </trkpt>
      <trkpt lat="45.76252" lon="4.77969">
        <ele>239.51600646973</ele>
        <time>2012-04-17T15:49:43Z</time>
      </trkpt>
      <trkpt lat="45.7624" lon="4.77955">
        <ele>239.36599731445</ele>
        <time>2012-04-17T15:49:48Z</time>
      </trkpt>
      <trkpt lat="45.76226" lon="4.77939">
        <ele>239.68299865723</ele>
        <time>2012-04-17T15:49:52Z</time>
      </trkpt>
      <trkpt lat="45.76184" lon="4.7789">
        <ele>239.80599975586</ele>
        <time>2012-04-17T15:50:01Z</time>
      </trkpt>
      <trkpt lat="45.7616" lon="4.77861">
        <ele>239.61599731445</ele>
        <time>2012-04-17T15:50:07Z</time>
      </trkpt>
      <trkpt lat="45.76154" lon="4.7785">
        <ele>239.49899291992</ele>
        <time>2012-04-17T15:50:09Z</time>
      </trkpt>
      <trkpt lat="45.76143" lon="4.77837">
        <ele>239.1549987793</ele>
        <time>2012-04-17T15:50:12Z</time>
      </trkpt>
      <trkpt lat="45.76129" lon="4.7782">
        <ele>239.20300292969</ele>
        <time>2012-04-17T15:50:16Z</time>
      </trkpt>
      <trkpt lat="45.76106" lon="4.77793">
        <ele>239.2799987793</ele>
        <time>2012-04-17T15:50:23Z</time>
      </trkpt>
      <trkpt lat="45.76103" lon="4.77789">
        <ele>239.10299682617</ele>
        <time>2012-04-17T15:50:24Z</time>
      </trkpt>
      <trkpt lat="45.76097" lon="4.77774">
        <ele>238.76499938965</ele>
        <time>2012-04-17T15:50:28Z</time>
      </trkpt>
      <trkpt lat="45.76083" lon="4.77767">
        <ele>238.64100646973</ele>
        <time>2012-04-17T15:50:32Z</time>
      </trkpt>
      <trkpt lat="45.76078" lon="4.77763">
        <ele>238.61500549316</ele>
        <time>2012-04-17T15:50:33Z</time>
      </trkpt>
      <trkpt lat="45.7606" lon="4.77744">
        <ele>238.45100402832</ele>
        <time>2012-04-17T15:50:38Z</time>
      </trkpt>
      <trkpt lat="45.76031" lon="4.77714">
        <ele>238.13400268555</ele>
        <time>2012-04-17T15:50:45Z</time>
      </trkpt>
      <trkpt lat="45.76002" lon="4.7768">
        <ele>237.58099365234</ele>
        <time>2012-04-17T15:50:53Z</time>
      </trkpt>
      <trkpt lat="45.75986" lon="4.77661">
        <ele>237.30799865723</ele>
        <time>2012-04-17T15:50:58Z</time>
      </trkpt>
      <trkpt lat="45.75968" lon="4.7764">
        <ele>237.16900634766</ele>
        <time>2012-04-17T15:51:03Z</time>
      </trkpt>
      <trkpt lat="45.75956" lon="4.7762">
        <ele>237</ele>
        <time>2012-04-17T15:51:07Z</time>
      </trkpt>
      <trkpt lat="45.75927" lon="4.77589">
        <ele>236.89300537109</ele>
        <time>2012-04-17T15:51:14Z</time>
      </trkpt>
      <trkpt lat="45.7592" lon="4.77571">
        <ele>236.53100585938</ele>
        <time>2012-04-17T15:51:18Z</time>
      </trkpt>
      <trkpt lat="45.75915" lon="4.77563">
        <ele>236.46899414062</ele>
        <time>2012-04-17T15:51:20Z</time>
      </trkpt>
      <trkpt lat="45.75881" lon="4.77524">
        <ele>236.53799438477</ele>
        <time>2012-04-17T15:51:28Z</time>
      </trkpt>
      <trkpt lat="45.7585" lon="4.77492">
        <ele>236.4049987793</ele>
        <time>2012-04-17T15:51:36Z</time>
      </trkpt>
      <trkpt lat="45.75838" lon="4.77471">
        <ele>235.98399353027</ele>
        <time>2012-04-17T15:51:41Z</time>
      </trkpt>
      <trkpt lat="45.75839" lon="4.77465">
        <ele>234.90699768066</ele>
        <time>2012-04-17T15:51:46Z</time>
      </trkpt>
      <trkpt lat="45.7584" lon="4.77466">
        <ele>234.54299926758</ele>
        <time>2012-04-17T15:52:04Z</time>
      </trkpt>
      <trkpt lat="45.7584" lon="4.77461">
        <ele>234.62600708008</ele>
        <time>2012-04-17T15:52:22Z</time>
      </trkpt>
      <trkpt lat="45.7584" lon="4.7746">
        <ele>234.36799621582</ele>
        <time>2012-04-17T15:52:33Z</time>
      </trkpt>
      <trkpt lat="45.75832" lon="4.77448">
        <ele>234.41299438477</ele>
        <time>2012-04-17T15:52:38Z</time>
      </trkpt>
      <trkpt lat="45.75829" lon="4.77444">
        <ele>234.44299316406</ele>
        <time>2012-04-17T15:52:39Z</time>
      </trkpt>
      <trkpt lat="45.75829" lon="4.77423">
        <ele>234.77600097656</ele>
        <time>2012-04-17T15:52:43Z</time>
      </trkpt>
      <trkpt lat="45.75838" lon="4.77374">
        <ele>235.87800598144</ele>
        <time>2012-04-17T15:52:50Z</time>
      </trkpt>
      <trkpt lat="45.75841" lon="4.77358">
        <ele>235.7859954834</ele>
        <time>2012-04-17T15:52:52Z</time>
      </trkpt>
      <trkpt lat="45.75856" lon="4.77294">
        <ele>235.20500183106</ele>
        <time>2012-04-17T15:53:00Z</time>
      </trkpt>
      <trkpt lat="45.75873" lon="4.77223">
        <ele>234.95300292969</ele>
        <time>2012-04-17T15:53:08Z</time>
      </trkpt>
      <trkpt lat="45.7589" lon="4.77139">
        <ele>234.1609954834</ele>
        <time>2012-04-17T15:53:17Z</time>
      </trkpt>
      <trkpt lat="45.75893" lon="4.77079">
        <ele>234.2559967041</ele>
        <time>2012-04-17T15:53:23Z</time>
      </trkpt>
      <trkpt lat="45.75896" lon="4.77022">
        <ele>233.8450012207</ele>
        <time>2012-04-17T15:53:29Z</time>
      </trkpt>
      <trkpt lat="45.75899" lon="4.7695">
        <ele>233.89300537109</ele>
        <time>2012-04-17T15:53:37Z</time>
      </trkpt>
      <trkpt lat="45.75901" lon="4.76933">
        <ele>233.54800415039</ele>
        <time>2012-04-17T15:53:40Z</time>
      </trkpt>
      <trkpt lat="45.759" lon="4.76893">
        <ele>233.33099365234</ele>
        <time>2012-04-17T15:53:46Z</time>
      </trkpt>
      <trkpt lat="45.75896" lon="4.76828">
        <ele>233.57400512695</ele>
        <time>2012-04-17T15:53:54Z</time>
      </trkpt>
      <trkpt lat="45.75891" lon="4.7677">
        <ele>234.07000732422</ele>
        <time>2012-04-17T15:54:01Z</time>
      </trkpt>
      <trkpt lat="45.75886" lon="4.76711">
        <ele>234.71099853516</ele>
        <time>2012-04-17T15:54:08Z</time>
      </trkpt>
      <trkpt lat="45.7588" lon="4.76651">
        <ele>235.86099243164</ele>
        <time>2012-04-17T15:54:15Z</time>
      </trkpt>
      <trkpt lat="45.75871" lon="4.76571">
        <ele>237.18400573731</ele>
        <time>2012-04-17T15:54:25Z</time>
      </trkpt>
      <trkpt lat="45.75864" lon="4.76501">
        <ele>238.74499511719</ele>
        <time>2012-04-17T15:54:34Z</time>
      </trkpt>
      <trkpt lat="45.75858" lon="4.76443">
        <ele>239.30299377441</ele>
        <time>2012-04-17T15:54:42Z</time>
      </trkpt>
      <trkpt lat="45.75853" lon="4.76388">
        <ele>240.24000549316</ele>
        <time>2012-04-17T15:54:50Z</time>
      </trkpt>
      <trkpt lat="45.75846" lon="4.76326">
        <ele>241.48199462891</ele>
        <time>2012-04-17T15:54:59Z</time>
      </trkpt>
      <trkpt lat="45.7584" lon="4.76276">
        <ele>242.73699951172</ele>
        <time>2012-04-17T15:55:07Z</time>
      </trkpt>
      <trkpt lat="45.75832" lon="4.76218">
        <ele>244.06799316406</ele>
        <time>2012-04-17T15:55:16Z</time>
      </trkpt>
      <trkpt lat="45.75817" lon="4.7615">
        <ele>245.12699890137</ele>
        <time>2012-04-17T15:55:26Z</time>
      </trkpt>
      <trkpt lat="45.75816" lon="4.76143">
        <ele>245.11799621582</ele>
        <time>2012-04-17T15:55:27Z</time>
      </trkpt>
      <trkpt lat="45.75814" lon="4.76122">
        <ele>245.06399536133</ele>
        <time>2012-04-17T15:55:30Z</time>
      </trkpt>
      <trkpt lat="45.75805" lon="4.76062">
        <ele>245.20100402832</ele>
        <time>2012-04-17T15:55:38Z</time>
      </trkpt>
      <trkpt lat="45.75792" lon="4.75994">
        <ele>244.3869934082</ele>
        <time>2012-04-17T15:55:46Z</time>
      </trkpt>
      <trkpt lat="45.75796" lon="4.75941">
        <ele>243.03100585938</ele>
        <time>2012-04-17T15:55:51Z</time>
      </trkpt>
      <trkpt lat="45.75805" lon="4.75855">
        <ele>241.0299987793</ele>
        <time>2012-04-17T15:55:58Z</time>
      </trkpt>
      <trkpt lat="45.7581" lon="4.75816">
        <ele>239.81799316406</ele>
        <time>2012-04-17T15:56:01Z</time>
      </trkpt>
      <trkpt lat="45.75836" lon="4.75758">
        <ele>237.7799987793</ele>
        <time>2012-04-17T15:56:06Z</time>
      </trkpt>
      <trkpt lat="45.75852" lon="4.7574">
        <ele>236.8809967041</ele>
        <time>2012-04-17T15:56:08Z</time>
      </trkpt>
      <trkpt lat="45.7587" lon="4.75725">
        <ele>236.12600708008</ele>
        <time>2012-04-17T15:56:10Z</time>
      </trkpt>
      <trkpt lat="45.759" lon="4.7568">
        <ele>234.07000732422</ele>
        <time>2012-04-17T15:56:14Z</time>
      </trkpt>
      <trkpt lat="45.75911" lon="4.75636">
        <ele>232.25999450684</ele>
        <time>2012-04-17T15:56:17Z</time>
      </trkpt>
      <trkpt lat="45.75908" lon="4.75591">
        <ele>230.89100646973</ele>
        <time>2012-04-17T15:56:20Z</time>
      </trkpt>
      <trkpt lat="45.75893" lon="4.75552">
        <ele>228.75100708008</ele>
        <time>2012-04-17T15:56:23Z</time>
      </trkpt>
      <trkpt lat="45.75878" lon="4.75533">
        <ele>227.46099853516</ele>
        <time>2012-04-17T15:56:25Z</time>
      </trkpt>
      <trkpt lat="45.75845" lon="4.75477">
        <ele>224.79299926758</ele>
        <time>2012-04-17T15:56:30Z</time>
      </trkpt>
      <trkpt lat="45.75832" lon="4.75437">
        <ele>223.73599243164</ele>
        <time>2012-04-17T15:56:33Z</time>
      </trkpt>
      <trkpt lat="45.7583" lon="4.75395">
        <ele>223.01400756836</ele>
        <time>2012-04-17T15:56:36Z</time>
      </trkpt>
      <trkpt lat="45.75837" lon="4.75351">
        <ele>221.57800292969</ele>
        <time>2012-04-17T15:56:40Z</time>
      </trkpt>
      <trkpt lat="45.75838" lon="4.7534">
        <ele>220.72900390625</ele>
        <time>2012-04-17T15:56:43Z</time>
      </trkpt>
      <trkpt lat="45.7584" lon="4.75337">
        <ele>220.07499694824</ele>
        <time>2012-04-17T15:56:45Z</time>
      </trkpt>
      <trkpt lat="45.75842" lon="4.75319">
        <ele>219.32200622559</ele>
        <time>2012-04-17T15:56:50Z</time>
      </trkpt>
      <trkpt lat="45.75843" lon="4.75313">
        <ele>219.38900756836</ele>
        <time>2012-04-17T15:56:51Z</time>
      </trkpt>
      <trkpt lat="45.7585" lon="4.75251">
        <ele>220.05099487305</ele>
        <time>2012-04-17T15:56:59Z</time>
      </trkpt>
      <trkpt lat="45.7585" lon="4.75243">
        <ele>220.10400390625</ele>
        <time>2012-04-17T15:57:00Z</time>
      </trkpt>
      <trkpt lat="45.7584" lon="4.75196">
        <ele>220.37699890137</ele>
        <time>2012-04-17T15:57:06Z</time>
      </trkpt>
      <trkpt lat="45.75821" lon="4.75156">
        <ele>221.04800415039</ele>
        <time>2012-04-17T15:57:12Z</time>
      </trkpt>
      <trkpt lat="45.75795" lon="4.75094">
        <ele>221.55499267578</ele>
        <time>2012-04-17T15:57:21Z</time>
      </trkpt>
      <trkpt lat="45.75785" lon="4.75048">
        <ele>221.39799499512</ele>
        <time>2012-04-17T15:57:27Z</time>
      </trkpt>
      <trkpt lat="45.75784" lon="4.74993">
        <ele>221.90800476074</ele>
        <time>2012-04-17T15:57:34Z</time>
      </trkpt>
      <trkpt lat="45.75782" lon="4.74937">
        <ele>222.74699401856</ele>
        <time>2012-04-17T15:57:42Z</time>
      </trkpt>
      <trkpt lat="45.75768" lon="4.74901">
        <ele>223.63000488281</ele>
        <time>2012-04-17T15:57:48Z</time>
      </trkpt>
      <trkpt lat="45.75764" lon="4.74896">
        <ele>223.72999572754</ele>
        <time>2012-04-17T15:57:49Z</time>
      </trkpt>
      <trkpt lat="45.75731" lon="4.74862">
        <ele>225.44000244141</ele>
        <time>2012-04-17T15:57:57Z</time>
      </trkpt>
      <trkpt lat="45.7571" lon="4.74836">
        <ele>226.625</ele>
        <time>2012-04-17T15:58:03Z</time>
      </trkpt>
      <trkpt lat="45.75698" lon="4.74811">
        <ele>227.54499816894</ele>
        <time>2012-04-17T15:58:08Z</time>
      </trkpt>
      <trkpt lat="45.75686" lon="4.74757">
        <ele>229.11399841309</ele>
        <time>2012-04-17T15:58:18Z</time>
      </trkpt>
      <trkpt lat="45.75684" lon="4.74687">
        <ele>230.02200317383</ele>
        <time>2012-04-17T15:58:28Z</time>
      </trkpt>
      <trkpt lat="45.75686" lon="4.74616">
        <ele>229.28399658203</ele>
        <time>2012-04-17T15:58:37Z</time>
      </trkpt>
      <trkpt lat="45.7569" lon="4.74539">
        <ele>229.37899780273</ele>
        <time>2012-04-17T15:58:47Z</time>
      </trkpt>
      <trkpt lat="45.75692" lon="4.7448">
        <ele>229.52699279785</ele>
        <time>2012-04-17T15:58:55Z</time>
      </trkpt>
      <trkpt lat="45.7569" lon="4.7443">
        <ele>229.60299682617</ele>
        <time>2012-04-17T15:59:02Z</time>
      </trkpt>
      <trkpt lat="45.75685" lon="4.74367">
        <ele>230.60499572754</ele>
        <time>2012-04-17T15:59:11Z</time>
      </trkpt>
      <trkpt lat="45.75685" lon="4.74308">
        <ele>230.88900756836</ele>
        <time>2012-04-17T15:59:19Z</time>
      </trkpt>
      <trkpt lat="45.75683" lon="4.74257">
        <ele>231.17599487305</ele>
        <time>2012-04-17T15:59:26Z</time>
      </trkpt>
      <trkpt lat="45.75692" lon="4.74225">
        <ele>231.59300231934</ele>
        <time>2012-04-17T15:59:31Z</time>
      </trkpt>
      <trkpt lat="45.75698" lon="4.74218">
        <ele>231.81300354004</ele>
        <time>2012-04-17T15:59:33Z</time>
      </trkpt>
      <trkpt lat="45.75741" lon="4.74194">
        <ele>233.5890045166</ele>
        <time>2012-04-17T15:59:43Z</time>
      </trkpt>
      <trkpt lat="45.75772" lon="4.74178">
        <ele>234.84100341797</ele>
        <time>2012-04-17T15:59:50Z</time>
      </trkpt>
      <trkpt lat="45.75811" lon="4.74157">
        <ele>236.02900695801</ele>
        <time>2012-04-17T15:59:58Z</time>
      </trkpt>
      <trkpt lat="45.75834" lon="4.74143">
        <ele>236.98699951172</ele>
        <time>2012-04-17T16:00:03Z</time>
      </trkpt>
      <trkpt lat="45.75853" lon="4.74113">
        <ele>238.35600280762</ele>
        <time>2012-04-17T16:00:09Z</time>
      </trkpt>
      <trkpt lat="45.75863" lon="4.74077">
        <ele>239.50199890137</ele>
        <time>2012-04-17T16:00:15Z</time>
      </trkpt>
      <trkpt lat="45.75864" lon="4.74027">
        <ele>240.94299316406</ele>
        <time>2012-04-17T16:00:23Z</time>
      </trkpt>
      <trkpt lat="45.75858" lon="4.73979">
        <ele>242.21299743652</ele>
        <time>2012-04-17T16:00:31Z</time>
      </trkpt>
      <trkpt lat="45.75854" lon="4.73933">
        <ele>244.37199401856</ele>
        <time>2012-04-17T16:00:39Z</time>
      </trkpt>
      <trkpt lat="45.75848" lon="4.73893">
        <ele>245.84599304199</ele>
        <time>2012-04-17T16:00:46Z</time>
      </trkpt>
      <trkpt lat="45.75846" lon="4.73845">
        <ele>247.8450012207</ele>
        <time>2012-04-17T16:00:55Z</time>
      </trkpt>
      <trkpt lat="45.75845" lon="4.73822">
        <ele>248.65299987793</ele>
        <time>2012-04-17T16:01:00Z</time>
      </trkpt>
      <trkpt lat="45.7584" lon="4.73794">
        <ele>249.66900634766</ele>
        <time>2012-04-17T16:01:06Z</time>
      </trkpt>
      <trkpt lat="45.75835" lon="4.73754">
        <ele>251.5059967041</ele>
        <time>2012-04-17T16:01:14Z</time>
      </trkpt>
      <trkpt lat="45.75833" lon="4.7372">
        <ele>252.73199462891</ele>
        <time>2012-04-17T16:01:21Z</time>
      </trkpt>
      <trkpt lat="45.75832" lon="4.73703">
        <ele>253.05999755859</ele>
        <time>2012-04-17T16:01:27Z</time>
      </trkpt>
      <trkpt lat="45.75832" lon="4.73681">
        <ele>253.4640045166</ele>
        <time>2012-04-17T16:01:33Z</time>
      </trkpt>
      <trkpt lat="45.75834" lon="4.73648">
        <ele>254.63400268555</ele>
        <time>2012-04-17T16:01:40Z</time>
      </trkpt>
      <trkpt lat="45.75839" lon="4.73608">
        <ele>255.83399963379</ele>
        <time>2012-04-17T16:01:48Z</time>
      </trkpt>
      <trkpt lat="45.75845" lon="4.73565">
        <ele>257.14199829102</ele>
        <time>2012-04-17T16:01:56Z</time>
      </trkpt>
      <trkpt lat="45.75851" lon="4.73517">
        <ele>258.35598754883</ele>
        <time>2012-04-17T16:02:05Z</time>
      </trkpt>
      <trkpt lat="45.75855" lon="4.73485">
        <ele>259.46798706055</ele>
        <time>2012-04-17T16:02:11Z</time>
      </trkpt>
      <trkpt lat="45.75865" lon="4.7344">
        <ele>260.90100097656</ele>
        <time>2012-04-17T16:02:20Z</time>
      </trkpt>
      <trkpt lat="45.7588" lon="4.73391">
        <ele>262.6960144043</ele>
        <time>2012-04-17T16:02:30Z</time>
      </trkpt>
      <trkpt lat="45.75894" lon="4.7335">
        <ele>264.17300415039</ele>
        <time>2012-04-17T16:02:39Z</time>
      </trkpt>
      <trkpt lat="45.7591" lon="4.73304">
        <ele>265.55700683594</ele>
        <time>2012-04-17T16:02:49Z</time>
      </trkpt>
      <trkpt lat="45.75929" lon="4.7327">
        <ele>267.09100341797</ele>
        <time>2012-04-17T16:02:57Z</time>
      </trkpt>
      <trkpt lat="45.75954" lon="4.73226">
        <ele>269.07699584961</ele>
        <time>2012-04-17T16:03:08Z</time>
      </trkpt>
      <trkpt lat="45.75975" lon="4.73186">
        <ele>270.99200439453</ele>
        <time>2012-04-17T16:03:18Z</time>
      </trkpt>
      <trkpt lat="45.75981" lon="4.73161">
        <ele>271.97198486328</ele>
        <time>2012-04-17T16:03:23Z</time>
      </trkpt>
      <trkpt lat="45.75982" lon="4.7313">
        <ele>272.83999633789</ele>
        <time>2012-04-17T16:03:29Z</time>
      </trkpt>
      <trkpt lat="45.7598" lon="4.73072">
        <ele>275.1669921875</ele>
        <time>2012-04-17T16:03:40Z</time>
      </trkpt>
      <trkpt lat="45.75981" lon="4.73049">
        <ele>276.16900634766</ele>
        <time>2012-04-17T16:03:45Z</time>
      </trkpt>
      <trkpt lat="45.75991" lon="4.73023">
        <ele>276.89498901367</ele>
        <time>2012-04-17T16:03:51Z</time>
      </trkpt>
      <trkpt lat="45.75999" lon="4.72988">
        <ele>277.6780090332</ele>
        <time>2012-04-17T16:03:58Z</time>
      </trkpt>
      <trkpt lat="45.76011" lon="4.72946">
        <ele>279.95599365234</ele>
        <time>2012-04-17T16:04:07Z</time>
      </trkpt>
      <trkpt lat="45.76012" lon="4.72907">
        <ele>281.57699584961</ele>
        <time>2012-04-17T16:04:15Z</time>
      </trkpt>
      <trkpt lat="45.76006" lon="4.72873">
        <ele>282.6130065918</ele>
        <time>2012-04-17T16:04:22Z</time>
      </trkpt>
      <trkpt lat="45.75993" lon="4.7283">
        <ele>283.60101318359</ele>
        <time>2012-04-17T16:04:31Z</time>
      </trkpt>
      <trkpt lat="45.75977" lon="4.7278">
        <ele>285.29000854492</ele>
        <time>2012-04-17T16:04:42Z</time>
      </trkpt>
      <trkpt lat="45.75962" lon="4.72727">
        <ele>286.14599609375</ele>
        <time>2012-04-17T16:04:53Z</time>
      </trkpt>
      <trkpt lat="45.75957" lon="4.72679">
        <ele>288.01400756836</ele>
        <time>2012-04-17T16:05:03Z</time>
      </trkpt>
      <trkpt lat="45.75951" lon="4.72623">
        <ele>290.5950012207</ele>
        <time>2012-04-17T16:05:14Z</time>
      </trkpt>
      <trkpt lat="45.75946" lon="4.72576">
        <ele>291.76000976562</ele>
        <time>2012-04-17T16:05:24Z</time>
      </trkpt>
      <trkpt lat="45.7594" lon="4.72523">
        <ele>293.69198608398</ele>
        <time>2012-04-17T16:05:35Z</time>
      </trkpt>
      <trkpt lat="45.75934" lon="4.72472">
        <ele>295.54998779297</ele>
        <time>2012-04-17T16:05:46Z</time>
      </trkpt>
      <trkpt lat="45.75931" lon="4.72431">
        <ele>297.53601074219</ele>
        <time>2012-04-17T16:05:55Z</time>
      </trkpt>
      <trkpt lat="45.75923" lon="4.72417">
        <ele>298.01000976562</ele>
        <time>2012-04-17T16:05:59Z</time>
      </trkpt>
      <trkpt lat="45.75909" lon="4.72389">
        <ele>299.63198852539</ele>
        <time>2012-04-17T16:06:06Z</time>
      </trkpt>
      <trkpt lat="45.7589" lon="4.72355">
        <ele>301.29800415039</ele>
        <time>2012-04-17T16:06:15Z</time>
      </trkpt>
      <trkpt lat="45.75872" lon="4.72321">
        <ele>302.83401489258</ele>
        <time>2012-04-17T16:06:24Z</time>
      </trkpt>
      <trkpt lat="45.75856" lon="4.72292">
        <ele>304.06799316406</ele>
        <time>2012-04-17T16:06:32Z</time>
      </trkpt>
      <trkpt lat="45.7584" lon="4.72262">
        <ele>305.35101318359</ele>
        <time>2012-04-17T16:06:40Z</time>
      </trkpt>
      <trkpt lat="45.75821" lon="4.72223">
        <ele>307.05200195312</ele>
        <time>2012-04-17T16:06:50Z</time>
      </trkpt>
      <trkpt lat="45.75806" lon="4.72191">
        <ele>307.78500366211</ele>
        <time>2012-04-17T16:06:58Z</time>
      </trkpt>
      <trkpt lat="45.75801" lon="4.72162">
        <ele>308.52398681641</ele>
        <time>2012-04-17T16:07:04Z</time>
      </trkpt>
      <trkpt lat="45.758" lon="4.7212">
        <ele>309.3219909668</ele>
        <time>2012-04-17T16:07:12Z</time>
      </trkpt>
      <trkpt lat="45.7581" lon="4.72057">
        <ele>310.73199462891</ele>
        <time>2012-04-17T16:07:24Z</time>
      </trkpt>
      <trkpt lat="45.75817" lon="4.72009">
        <ele>312.45901489258</ele>
        <time>2012-04-17T16:07:33Z</time>
      </trkpt>
      <trkpt lat="45.75821" lon="4.71975">
        <ele>313.08099365234</ele>
        <time>2012-04-17T16:07:39Z</time>
      </trkpt>
      <trkpt lat="45.75832" lon="4.71917">
        <ele>313.10900878906</ele>
        <time>2012-04-17T16:07:49Z</time>
      </trkpt>
      <trkpt lat="45.75846" lon="4.71842">
        <ele>314.32998657227</ele>
        <time>2012-04-17T16:08:02Z</time>
      </trkpt>
      <trkpt lat="45.75857" lon="4.71797">
        <ele>314.99899291992</ele>
        <time>2012-04-17T16:08:10Z</time>
      </trkpt>
      <trkpt lat="45.75869" lon="4.71752">
        <ele>315.59698486328</ele>
        <time>2012-04-17T16:08:18Z</time>
      </trkpt>
      <trkpt lat="45.7588" lon="4.71707">
        <ele>316.38500976562</ele>
        <time>2012-04-17T16:08:26Z</time>
      </trkpt>
      <trkpt lat="45.75887" lon="4.71676">
        <ele>316.97698974609</ele>
        <time>2012-04-17T16:08:32Z</time>
      </trkpt>
      <trkpt lat="45.7589" lon="4.71639">
        <ele>317.57901000977</ele>
        <time>2012-04-17T16:08:38Z</time>
      </trkpt>
      <trkpt lat="45.75892" lon="4.71589">
        <ele>317.97299194336</ele>
        <time>2012-04-17T16:08:46Z</time>
      </trkpt>
      <trkpt lat="45.75894" lon="4.71542">
        <ele>318.33499145508</ele>
        <time>2012-04-17T16:08:53Z</time>
      </trkpt>
      <trkpt lat="45.75897" lon="4.71489">
        <ele>318.11099243164</ele>
        <time>2012-04-17T16:09:01Z</time>
      </trkpt>
      <trkpt lat="45.75898" lon="4.71468">
        <ele>317.72500610352</ele>
        <time>2012-04-17T16:09:04Z</time>
      </trkpt>
      <trkpt lat="45.75909" lon="4.71404">
        <ele>317.03100585938</ele>
        <time>2012-04-17T16:09:13Z</time>
      </trkpt>
      <trkpt lat="45.75924" lon="4.7132">
        <ele>316.56900024414</ele>
        <time>2012-04-17T16:09:24Z</time>
      </trkpt>
      <trkpt lat="45.75925" lon="4.71312">
        <ele>316.60101318359</ele>
        <time>2012-04-17T16:09:25Z</time>
      </trkpt>
      <trkpt lat="45.75932" lon="4.71258">
        <ele>316.6789855957</ele>
        <time>2012-04-17T16:09:32Z</time>
      </trkpt>
      <trkpt lat="45.75945" lon="4.71184">
        <ele>316.55599975586</ele>
        <time>2012-04-17T16:09:42Z</time>
      </trkpt>
      <trkpt lat="45.75959" lon="4.71118">
        <ele>316.89801025391</ele>
        <time>2012-04-17T16:09:52Z</time>
      </trkpt>
      <trkpt lat="45.75977" lon="4.71035">
        <ele>317.56799316406</ele>
        <time>2012-04-17T16:10:05Z</time>
      </trkpt>
      <trkpt lat="45.75991" lon="4.70967">
        <ele>318.01699829102</ele>
        <time>2012-04-17T16:10:16Z</time>
      </trkpt>
      <trkpt lat="45.75999" lon="4.70918">
        <ele>319.25201416016</ele>
        <time>2012-04-17T16:10:24Z</time>
      </trkpt>
      <trkpt lat="45.76012" lon="4.70856">
        <ele>320.17599487305</ele>
        <time>2012-04-17T16:10:35Z</time>
      </trkpt>
      <trkpt lat="45.76025" lon="4.70796">
        <ele>321.41400146484</ele>
        <time>2012-04-17T16:10:46Z</time>
      </trkpt>
      <trkpt lat="45.76038" lon="4.70741">
        <ele>323.125</ele>
        <time>2012-04-17T16:10:56Z</time>
      </trkpt>
      <trkpt lat="45.7604" lon="4.70736">
        <ele>323.39199829102</ele>
        <time>2012-04-17T16:10:57Z</time>
      </trkpt>
      <trkpt lat="45.76054" lon="4.70682">
        <ele>325.35198974609</ele>
        <time>2012-04-17T16:11:07Z</time>
      </trkpt>
      <trkpt lat="45.76064" lon="4.70648">
        <ele>326.71398925781</ele>
        <time>2012-04-17T16:11:14Z</time>
      </trkpt>
      <trkpt lat="45.76083" lon="4.70597">
        <ele>328.75698852539</ele>
        <time>2012-04-17T16:11:25Z</time>
      </trkpt>
      <trkpt lat="45.76089" lon="4.70578">
        <ele>329.09100341797</ele>
        <time>2012-04-17T16:11:30Z</time>
      </trkpt>
      <trkpt lat="45.76092" lon="4.70571">
        <ele>329.65301513672</ele>
        <time>2012-04-17T16:11:35Z</time>
      </trkpt>
      <trkpt lat="45.76087" lon="4.70574">
        <ele>329.7799987793</ele>
        <time>2012-04-17T16:11:39Z</time>
      </trkpt>
      <trkpt lat="45.76072" lon="4.7059">
        <ele>329.5530090332</ele>
        <time>2012-04-17T16:11:44Z</time>
      </trkpt>
      <trkpt lat="45.76062" lon="4.70578">
        <ele>329.50698852539</ele>
        <time>2012-04-17T16:11:47Z</time>
      </trkpt>
      <trkpt lat="45.7606" lon="4.70572">
        <ele>329.53298950195</ele>
        <time>2012-04-17T16:11:48Z</time>
      </trkpt>
      <trkpt lat="45.76049" lon="4.70539">
        <ele>329.96899414062</ele>
        <time>2012-04-17T16:11:54Z</time>
      </trkpt>
      <trkpt lat="45.76042" lon="4.70477">
        <ele>331.39599609375</ele>
        <time>2012-04-17T16:12:04Z</time>
      </trkpt>
      <trkpt lat="45.76038" lon="4.70424">
        <ele>331.38800048828</ele>
        <time>2012-04-17T16:12:12Z</time>
      </trkpt>
      <trkpt lat="45.76033" lon="4.70362">
        <ele>331.01800537109</ele>
        <time>2012-04-17T16:12:20Z</time>
      </trkpt>
      <trkpt lat="45.76026" lon="4.70289">
        <ele>330.30700683594</ele>
        <time>2012-04-17T16:12:29Z</time>
      </trkpt>
      <trkpt lat="45.76015" lon="4.70209">
        <ele>330.02499389648</ele>
        <time>2012-04-17T16:12:39Z</time>
      </trkpt>
      <trkpt lat="45.76008" lon="4.70157">
        <ele>330.56900024414</ele>
        <time>2012-04-17T16:12:46Z</time>
      </trkpt>
      <trkpt lat="45.75997" lon="4.70085">
        <ele>331.14801025391</ele>
        <time>2012-04-17T16:12:56Z</time>
      </trkpt>
      <trkpt lat="45.75991" lon="4.70015">
        <ele>331.94500732422</ele>
        <time>2012-04-17T16:13:06Z</time>
      </trkpt>
      <trkpt lat="45.75988" lon="4.69946">
        <ele>332.64001464844</ele>
        <time>2012-04-17T16:13:16Z</time>
      </trkpt>
      <trkpt lat="45.75994" lon="4.69887">
        <ele>332.40701293945</ele>
        <time>2012-04-17T16:13:25Z</time>
      </trkpt>
      <trkpt lat="45.76001" lon="4.69837">
        <ele>331.40701293945</ele>
        <time>2012-04-17T16:13:31Z</time>
      </trkpt>
      <trkpt lat="45.76003" lon="4.69771">
        <ele>328.27301025391</ele>
        <time>2012-04-17T16:13:37Z</time>
      </trkpt>
      <trkpt lat="45.76003" lon="4.6976">
        <ele>327.59600830078</ele>
        <time>2012-04-17T16:13:38Z</time>
      </trkpt>
      <trkpt lat="45.75992" lon="4.69706">
        <ele>323.08499145508</ele>
        <time>2012-04-17T16:13:44Z</time>
      </trkpt>
      <trkpt lat="45.75988" lon="4.69692">
        <ele>320.46701049805</ele>
        <time>2012-04-17T16:13:47Z</time>
      </trkpt>
      <trkpt lat="45.7598" lon="4.69683">
        <ele>316.70401000977</ele>
        <time>2012-04-17T16:13:52Z</time>
      </trkpt>
      <trkpt lat="45.75978" lon="4.6968">
        <ele>315.78601074219</ele>
        <time>2012-04-17T16:13:56Z</time>
      </trkpt>
      <trkpt lat="45.75978" lon="4.69675">
        <ele>315.42001342773</ele>
        <time>2012-04-17T16:13:58Z</time>
      </trkpt>
      <trkpt lat="45.75981" lon="4.69649">
        <ele>314.49099731445</ele>
        <time>2012-04-17T16:14:02Z</time>
      </trkpt>
      <trkpt lat="45.75986" lon="4.69614">
        <ele>311.68701171875</ele>
        <time>2012-04-17T16:14:07Z</time>
      </trkpt>
      <trkpt lat="45.75991" lon="4.69598">
        <ele>309.09399414062</ele>
        <time>2012-04-17T16:14:12Z</time>
      </trkpt>
      <trkpt lat="45.75995" lon="4.69581">
        <ele>308.2200012207</ele>
        <time>2012-04-17T16:14:17Z</time>
      </trkpt>
      <trkpt lat="45.75997" lon="4.69564">
        <ele>307.14801025391</ele>
        <time>2012-04-17T16:14:23Z</time>
      </trkpt>
      <trkpt lat="45.75995" lon="4.69547">
        <ele>306.39001464844</ele>
        <time>2012-04-17T16:14:30Z</time>
      </trkpt>
      <trkpt lat="45.75994" lon="4.69542">
        <ele>305.86801147461</ele>
        <time>2012-04-17T16:14:35Z</time>
      </trkpt>
      <trkpt lat="45.75996" lon="4.69538">
        <ele>305.77700805664</ele>
        <time>2012-04-17T16:14:42Z</time>
      </trkpt>
      <trkpt lat="45.75994" lon="4.69526">
        <ele>305.77200317383</ele>
        <time>2012-04-17T16:14:47Z</time>
      </trkpt>
      <trkpt lat="45.75993" lon="4.69509">
        <ele>305.7919921875</ele>
        <time>2012-04-17T16:14:53Z</time>
      </trkpt>
      <trkpt lat="45.75991" lon="4.69502">
        <ele>305.78298950195</ele>
        <time>2012-04-17T16:14:55Z</time>
      </trkpt>
      <trkpt lat="45.75991" lon="4.69483">
        <ele>305.66101074219</ele>
        <time>2012-04-17T16:15:00Z</time>
      </trkpt>
      <trkpt lat="45.75991" lon="4.69458">
        <ele>305.05499267578</ele>
        <time>2012-04-17T16:15:06Z</time>
      </trkpt>
      <trkpt lat="45.7599" lon="4.69433">
        <ele>303.76599121094</ele>
        <time>2012-04-17T16:15:13Z</time>
      </trkpt>
      <trkpt lat="45.75986" lon="4.69412">
        <ele>302.81799316406</ele>
        <time>2012-04-17T16:15:18Z</time>
      </trkpt>
      <trkpt lat="45.75987" lon="4.69385">
        <ele>301.67401123047</ele>
        <time>2012-04-17T16:15:24Z</time>
      </trkpt>
      <trkpt lat="45.75991" lon="4.69373">
        <ele>301.07299804688</ele>
        <time>2012-04-17T16:15:28Z</time>
      </trkpt>
      <trkpt lat="45.75993" lon="4.6937">
        <ele>300.94299316406</ele>
        <time>2012-04-17T16:15:29Z</time>
      </trkpt>
      <trkpt lat="45.76001" lon="4.69363">
        <ele>300.80999755859</ele>
        <time>2012-04-17T16:15:35Z</time>
      </trkpt>
      <trkpt lat="45.76001" lon="4.69362">
        <ele>300.85800170898</ele>
        <time>2012-04-17T16:15:36Z</time>
      </trkpt>
      <trkpt lat="45.76" lon="4.69357">
        <ele>300.98999023438</ele>
        <time>2012-04-17T16:15:39Z</time>
      </trkpt>
      <trkpt lat="45.76" lon="4.69345">
        <ele>301.18899536133</ele>
        <time>2012-04-17T16:15:44Z</time>
      </trkpt>
      <trkpt lat="45.76007" lon="4.69323">
        <ele>301.92498779297</ele>
        <time>2012-04-17T16:15:51Z</time>
      </trkpt>
      <trkpt lat="45.76008" lon="4.693">
        <ele>303.27301025391</ele>
        <time>2012-04-17T16:15:58Z</time>
      </trkpt>
      <trkpt lat="45.76008" lon="4.6928">
        <ele>304.90399169922</ele>
        <time>2012-04-17T16:16:04Z</time>
      </trkpt>
      <trkpt lat="45.76009" lon="4.69249">
        <ele>306.04501342773</ele>
        <time>2012-04-17T16:16:13Z</time>
      </trkpt>
      <trkpt lat="45.76" lon="4.69231">
        <ele>307.48199462891</ele>
        <time>2012-04-17T16:16:20Z</time>
      </trkpt>
      <trkpt lat="45.75988" lon="4.6921">
        <ele>309.58099365234</ele>
        <time>2012-04-17T16:16:28Z</time>
      </trkpt>
      <trkpt lat="45.75977" lon="4.69181">
        <ele>311.96099853516</ele>
        <time>2012-04-17T16:16:38Z</time>
      </trkpt>
      <trkpt lat="45.75971" lon="4.69153">
        <ele>314.17401123047</ele>
        <time>2012-04-17T16:16:47Z</time>
      </trkpt>
      <trkpt lat="45.75965" lon="4.69128">
        <ele>315.84600830078</ele>
        <time>2012-04-17T16:16:55Z</time>
      </trkpt>
      <trkpt lat="45.75959" lon="4.69095">
        <ele>317.51998901367</ele>
        <time>2012-04-17T16:17:05Z</time>
      </trkpt>
      <trkpt lat="45.75957" lon="4.69068">
        <ele>319.18499755859</ele>
        <time>2012-04-17T16:17:13Z</time>
      </trkpt>
      <trkpt lat="45.75959" lon="4.69044">
        <ele>320.29098510742</ele>
        <time>2012-04-17T16:17:20Z</time>
      </trkpt>
      <trkpt lat="45.75965" lon="4.69007">
        <ele>322.51000976562</ele>
        <time>2012-04-17T16:17:31Z</time>
      </trkpt>
      <trkpt lat="45.75978" lon="4.68972">
        <ele>325.22799682617</ele>
        <time>2012-04-17T16:17:43Z</time>
      </trkpt>
      <trkpt lat="45.7599" lon="4.68948">
        <ele>327.46701049805</ele>
        <time>2012-04-17T16:17:53Z</time>
      </trkpt>
      <trkpt lat="45.76002" lon="4.68926">
        <ele>329.54998779297</ele>
        <time>2012-04-17T16:18:02Z</time>
      </trkpt>
      <trkpt lat="45.76021" lon="4.68888">
        <ele>332.98001098633</ele>
        <time>2012-04-17T16:18:16Z</time>
      </trkpt>
      <trkpt lat="45.76029" lon="4.68865">
        <ele>335.28500366211</ele>
        <time>2012-04-17T16:18:24Z</time>
      </trkpt>
      <trkpt lat="45.76029" lon="4.68845">
        <ele>336.54699707031</ele>
        <time>2012-04-17T16:18:30Z</time>
      </trkpt>
      <trkpt lat="45.7602" lon="4.68824">
        <ele>338.30099487305</ele>
        <time>2012-04-17T16:18:37Z</time>
      </trkpt>
      <trkpt lat="45.76003" lon="4.68807">
        <ele>339.58801269531</ele>
        <time>2012-04-17T16:18:45Z</time>
      </trkpt>
      <trkpt lat="45.75982" lon="4.68799">
        <ele>341.2080078125</ele>
        <time>2012-04-17T16:18:54Z</time>
      </trkpt>
      <trkpt lat="45.7596" lon="4.68792">
        <ele>342.8219909668</ele>
        <time>2012-04-17T16:19:03Z</time>
      </trkpt>
      <trkpt lat="45.7596" lon="4.68778">
        <ele>343.10598754883</ele>
        <time>2012-04-17T16:19:07Z</time>
      </trkpt>
      <trkpt lat="45.75966" lon="4.68769">
        <ele>343.2799987793</ele>
        <time>2012-04-17T16:19:10Z</time>
      </trkpt>
      <trkpt lat="45.75982" lon="4.68736">
        <ele>343.92498779297</ele>
        <time>2012-04-17T16:19:19Z</time>
      </trkpt>
      <trkpt lat="45.75985" lon="4.68709">
        <ele>345.00399780273</ele>
        <time>2012-04-17T16:19:25Z</time>
      </trkpt>
      <trkpt lat="45.75987" lon="4.68661">
        <ele>346.22100830078</ele>
        <time>2012-04-17T16:19:35Z</time>
      </trkpt>
      <trkpt lat="45.7599" lon="4.68605">
        <ele>348.43399047852</ele>
        <time>2012-04-17T16:19:47Z</time>
      </trkpt>
      <trkpt lat="45.75992" lon="4.68568">
        <ele>349.34100341797</ele>
        <time>2012-04-17T16:19:55Z</time>
      </trkpt>
      <trkpt lat="45.75994" lon="4.68527">
        <ele>350.77200317383</ele>
        <time>2012-04-17T16:20:04Z</time>
      </trkpt>
      <trkpt lat="45.75998" lon="4.68474">
        <ele>352.70300292969</ele>
        <time>2012-04-17T16:20:16Z</time>
      </trkpt>
      <trkpt lat="45.76003" lon="4.68429">
        <ele>354.13800048828</ele>
        <time>2012-04-17T16:20:26Z</time>
      </trkpt>
      <trkpt lat="45.76009" lon="4.68367">
        <ele>355.53399658203</ele>
        <time>2012-04-17T16:20:40Z</time>
      </trkpt>
      <trkpt lat="45.76012" lon="4.68334">
        <ele>355.4880065918</ele>
        <time>2012-04-17T16:20:48Z</time>
      </trkpt>
      <trkpt lat="45.76016" lon="4.683">
        <ele>358.32000732422</ele>
        <time>2012-04-17T16:20:56Z</time>
      </trkpt>
      <trkpt lat="45.76017" lon="4.68288">
        <ele>359.67199707031</ele>
        <time>2012-04-17T16:20:59Z</time>
      </trkpt>
      <trkpt lat="45.76022" lon="4.68258">
        <ele>361.29598999023</ele>
        <time>2012-04-17T16:21:06Z</time>
      </trkpt>
      <trkpt lat="45.76033" lon="4.68223">
        <ele>362.12100219727</ele>
        <time>2012-04-17T16:21:14Z</time>
      </trkpt>
      <trkpt lat="45.76044" lon="4.68184">
        <ele>363.05801391602</ele>
        <time>2012-04-17T16:21:23Z</time>
      </trkpt>
      <trkpt lat="45.76056" lon="4.68136">
        <ele>364.72198486328</ele>
        <time>2012-04-17T16:21:34Z</time>
      </trkpt>
      <trkpt lat="45.76064" lon="4.68097">
        <ele>365.97698974609</ele>
        <time>2012-04-17T16:21:43Z</time>
      </trkpt>
      <trkpt lat="45.76072" lon="4.68054">
        <ele>367.81399536133</ele>
        <time>2012-04-17T16:21:53Z</time>
      </trkpt>
      <trkpt lat="45.7608" lon="4.68014">
        <ele>368.76800537109</ele>
        <time>2012-04-17T16:22:02Z</time>
      </trkpt>
      <trkpt lat="45.76086" lon="4.6798">
        <ele>369.78100585938</ele>
        <time>2012-04-17T16:22:10Z</time>
      </trkpt>
      <trkpt lat="45.76093" lon="4.67943">
        <ele>371.0419921875</ele>
        <time>2012-04-17T16:22:19Z</time>
      </trkpt>
      <trkpt lat="45.761" lon="4.67909">
        <ele>372.61801147461</ele>
        <time>2012-04-17T16:22:28Z</time>
      </trkpt>
      <trkpt lat="45.76108" lon="4.67874">
        <ele>374.80801391602</ele>
        <time>2012-04-17T16:22:38Z</time>
      </trkpt>
      <trkpt lat="45.76112" lon="4.67853">
        <ele>376.15200805664</ele>
        <time>2012-04-17T16:22:44Z</time>
      </trkpt>
      <trkpt lat="45.76121" lon="4.67816">
        <ele>377.16198730469</ele>
        <time>2012-04-17T16:22:54Z</time>
      </trkpt>
      <trkpt lat="45.76128" lon="4.67789">
        <ele>378.66400146484</ele>
        <time>2012-04-17T16:23:02Z</time>
      </trkpt>
      <trkpt lat="45.76141" lon="4.67756">
        <ele>380.00799560547</ele>
        <time>2012-04-17T16:23:12Z</time>
      </trkpt>
      <trkpt lat="45.76151" lon="4.67725">
        <ele>381.47198486328</ele>
        <time>2012-04-17T16:23:21Z</time>
      </trkpt>
      <trkpt lat="45.76163" lon="4.67693">
        <ele>383.3330078125</ele>
        <time>2012-04-17T16:23:31Z</time>
      </trkpt>
      <trkpt lat="45.76174" lon="4.67661">
        <ele>385.10299682617</ele>
        <time>2012-04-17T16:23:41Z</time>
      </trkpt>
      <trkpt lat="45.7618" lon="4.67636">
        <ele>385.78601074219</ele>
        <time>2012-04-17T16:23:49Z</time>
      </trkpt>
      <trkpt lat="45.76188" lon="4.67611">
        <ele>386.95999145508</ele>
        <time>2012-04-17T16:23:57Z</time>
      </trkpt>
      <trkpt lat="45.76193" lon="4.67593">
        <ele>388.44400024414</ele>
        <time>2012-04-17T16:24:04Z</time>
      </trkpt>
      <trkpt lat="45.76197" lon="4.67569">
        <ele>389.81900024414</ele>
        <time>2012-04-17T16:24:12Z</time>
      </trkpt>
      <trkpt lat="45.76201" lon="4.67549">
        <ele>391.51699829102</ele>
        <time>2012-04-17T16:24:19Z</time>
      </trkpt>
      <trkpt lat="45.76205" lon="4.67524">
        <ele>393.84298706055</ele>
        <time>2012-04-17T16:24:28Z</time>
      </trkpt>
      <trkpt lat="45.7621" lon="4.67508">
        <ele>395.04501342773</ele>
        <time>2012-04-17T16:24:35Z</time>
      </trkpt>
      <trkpt lat="45.76214" lon="4.67484">
        <ele>396.44400024414</ele>
        <time>2012-04-17T16:24:43Z</time>
      </trkpt>
      <trkpt lat="45.76218" lon="4.67464">
        <ele>398.13800048828</ele>
        <time>2012-04-17T16:24:50Z</time>
      </trkpt>
      <trkpt lat="45.76222" lon="4.67443">
        <ele>399.5950012207</ele>
        <time>2012-04-17T16:24:57Z</time>
      </trkpt>
      <trkpt lat="45.76227" lon="4.67415">
        <ele>401.41400146484</ele>
        <time>2012-04-17T16:25:06Z</time>
      </trkpt>
      <trkpt lat="45.76232" lon="4.67389">
        <ele>403.48599243164</ele>
        <time>2012-04-17T16:25:15Z</time>
      </trkpt>
      <trkpt lat="45.76236" lon="4.67366">
        <ele>405.20901489258</ele>
        <time>2012-04-17T16:25:23Z</time>
      </trkpt>
      <trkpt lat="45.76241" lon="4.6734">
        <ele>407.17498779297</ele>
        <time>2012-04-17T16:25:32Z</time>
      </trkpt>
      <trkpt lat="45.76244" lon="4.67316">
        <ele>408.42098999023</ele>
        <time>2012-04-17T16:25:39Z</time>
      </trkpt>
      <trkpt lat="45.76248" lon="4.67291">
        <ele>410.23498535156</ele>
        <time>2012-04-17T16:25:48Z</time>
      </trkpt>
      <trkpt lat="45.76253" lon="4.67266">
        <ele>411.67498779297</ele>
        <time>2012-04-17T16:25:57Z</time>
      </trkpt>
      <trkpt lat="45.76258" lon="4.67242">
        <ele>413.36599731445</ele>
        <time>2012-04-17T16:26:06Z</time>
      </trkpt>
      <trkpt lat="45.76263" lon="4.67214">
        <ele>415.09600830078</ele>
        <time>2012-04-17T16:26:16Z</time>
      </trkpt>
      <trkpt lat="45.76268" lon="4.67184">
        <ele>417.52398681641</ele>
        <time>2012-04-17T16:26:27Z</time>
      </trkpt>
      <trkpt lat="45.76274" lon="4.67158">
        <ele>420.03399658203</ele>
        <time>2012-04-17T16:26:37Z</time>
      </trkpt>
      <trkpt lat="45.76275" lon="4.67142">
        <ele>421.25201416016</ele>
        <time>2012-04-17T16:26:43Z</time>
      </trkpt>
      <trkpt lat="45.76278" lon="4.67116">
        <ele>423.30499267578</ele>
        <time>2012-04-17T16:26:52Z</time>
      </trkpt>
      <trkpt lat="45.7628" lon="4.6709">
        <ele>426.30499267578</ele>
        <time>2012-04-17T16:27:02Z</time>
      </trkpt>
      <trkpt lat="45.76283" lon="4.6707">
        <ele>427.6789855957</ele>
        <time>2012-04-17T16:27:10Z</time>
      </trkpt>
      <trkpt lat="45.76285" lon="4.67043">
        <ele>429.35699462891</ele>
        <time>2012-04-17T16:27:19Z</time>
      </trkpt>
      <trkpt lat="45.76287" lon="4.6702">
        <ele>430.91500854492</ele>
        <time>2012-04-17T16:27:27Z</time>
      </trkpt>
      <trkpt lat="45.76289" lon="4.66995">
        <ele>431.92098999023</ele>
        <time>2012-04-17T16:27:35Z</time>
      </trkpt>
      <trkpt lat="45.76292" lon="4.66969">
        <ele>433.20901489258</ele>
        <time>2012-04-17T16:27:43Z</time>
      </trkpt>
      <trkpt lat="45.76294" lon="4.6694">
        <ele>434.64801025391</ele>
        <time>2012-04-17T16:27:52Z</time>
      </trkpt>
      <trkpt lat="45.76296" lon="4.66913">
        <ele>435.97601318359</ele>
        <time>2012-04-17T16:28:00Z</time>
      </trkpt>
      <trkpt lat="45.76298" lon="4.66878">
        <ele>436.37701416016</ele>
        <time>2012-04-17T16:28:09Z</time>
      </trkpt>
      <trkpt lat="45.76304" lon="4.66843">
        <ele>437.1130065918</ele>
        <time>2012-04-17T16:28:17Z</time>
      </trkpt>
      <trkpt lat="45.76313" lon="4.66805">
        <ele>436.39599609375</ele>
        <time>2012-04-17T16:28:24Z</time>
      </trkpt>
      <trkpt lat="45.76323" lon="4.66766">
        <ele>435.71499633789</ele>
        <time>2012-04-17T16:28:30Z</time>
      </trkpt>
      <trkpt lat="45.76337" lon="4.66715">
        <ele>434.81900024414</ele>
        <time>2012-04-17T16:28:36Z</time>
      </trkpt>
      <trkpt lat="45.76355" lon="4.66641">
        <ele>433.03799438477</ele>
        <time>2012-04-17T16:28:44Z</time>
      </trkpt>
      <trkpt lat="45.76374" lon="4.66564">
        <ele>432.01501464844</ele>
        <time>2012-04-17T16:28:53Z</time>
      </trkpt>
      <trkpt lat="45.76385" lon="4.66516">
        <ele>431.14099121094</ele>
        <time>2012-04-17T16:28:59Z</time>
      </trkpt>
      <trkpt lat="45.76387" lon="4.66493">
        <ele>430.76901245117</ele>
        <time>2012-04-17T16:29:02Z</time>
      </trkpt>
      <trkpt lat="45.76394" lon="4.66468">
        <ele>430.37399291992</ele>
        <time>2012-04-17T16:29:06Z</time>
      </trkpt>
      <trkpt lat="45.76408" lon="4.66421">
        <ele>430.11599731445</ele>
        <time>2012-04-17T16:29:13Z</time>
      </trkpt>
      <trkpt lat="45.76425" lon="4.66362">
        <ele>429.63500976562</ele>
        <time>2012-04-17T16:29:21Z</time>
      </trkpt>
      <trkpt lat="45.76445" lon="4.66295">
        <ele>428.60598754883</ele>
        <time>2012-04-17T16:29:30Z</time>
      </trkpt>
      <trkpt lat="45.76455" lon="4.66256">
        <ele>428.59698486328</ele>
        <time>2012-04-17T16:29:36Z</time>
      </trkpt>
      <trkpt lat="45.76466" lon="4.66211">
        <ele>428.59600830078</ele>
        <time>2012-04-17T16:29:43Z</time>
      </trkpt>
      <trkpt lat="45.76476" lon="4.66175">
        <ele>428.51901245117</ele>
        <time>2012-04-17T16:29:49Z</time>
      </trkpt>
      <trkpt lat="45.76486" lon="4.66136">
        <ele>429.54901123047</ele>
        <time>2012-04-17T16:29:56Z</time>
      </trkpt>
      <trkpt lat="45.76495" lon="4.66111">
        <ele>430.3330078125</ele>
        <time>2012-04-17T16:30:02Z</time>
      </trkpt>
      <trkpt lat="45.76496" lon="4.66103">
        <ele>430.42999267578</ele>
        <time>2012-04-17T16:30:04Z</time>
      </trkpt>
      <trkpt lat="45.76494" lon="4.66069">
        <ele>431.35501098633</ele>
        <time>2012-04-17T16:30:12Z</time>
      </trkpt>
      <trkpt lat="45.76498" lon="4.66044">
        <ele>433.26501464844</ele>
        <time>2012-04-17T16:30:20Z</time>
      </trkpt>
      <trkpt lat="45.76507" lon="4.66025">
        <ele>434.68399047852</ele>
        <time>2012-04-17T16:30:27Z</time>
      </trkpt>
      <trkpt lat="45.76517" lon="4.66013">
        <ele>435.63101196289</ele>
        <time>2012-04-17T16:30:33Z</time>
      </trkpt>
      <trkpt lat="45.76519" lon="4.6601">
        <ele>435.82699584961</ele>
        <time>2012-04-17T16:30:34Z</time>
      </trkpt>
      <trkpt lat="45.76527" lon="4.66006">
        <ele>436.78201293945</ele>
        <time>2012-04-17T16:30:38Z</time>
      </trkpt>
      <trkpt lat="45.76545" lon="4.66013">
        <ele>437.81298828125</ele>
        <time>2012-04-17T16:30:46Z</time>
      </trkpt>
      <trkpt lat="45.76549" lon="4.66016">
        <ele>437.90301513672</ele>
        <time>2012-04-17T16:30:51Z</time>
      </trkpt>
      <trkpt lat="45.76548" lon="4.66016">
        <ele>437.61499023438</ele>
        <time>2012-04-17T16:31:20Z</time>
      </trkpt>
      <trkpt lat="45.76551" lon="4.66017">
        <ele>437.77200317383</ele>
        <time>2012-04-17T16:31:26Z</time>
      </trkpt>
      <trkpt lat="45.76548" lon="4.6602">
        <ele>437.87200927734</ele>
        <time>2012-04-17T16:39:54Z</time>
      </trkpt>
      <trkpt lat="45.76546" lon="4.66019">
        <ele>437.67700195312</ele>
        <time>2012-04-17T16:40:01Z</time>
      </trkpt>
      <trkpt lat="45.7654" lon="4.6601">
        <ele>437.55999755859</ele>
        <time>2012-04-17T16:43:36Z</time>
      </trkpt>
      <trkpt lat="45.76537" lon="4.66007">
        <ele>437.44198608398</ele>
        <time>2012-04-17T16:43:38Z</time>
      </trkpt>
      <trkpt lat="45.76534" lon="4.66001">
        <ele>437.60501098633</ele>
        <time>2012-04-17T16:43:42Z</time>
      </trkpt>
      <trkpt lat="45.76526" lon="4.66004">
        <ele>437.81600952148</ele>
        <time>2012-04-17T16:43:46Z</time>
      </trkpt>
      <trkpt lat="45.76517" lon="4.65998">
        <ele>437.67999267578</ele>
        <time>2012-04-17T16:43:50Z</time>
      </trkpt>
      <trkpt lat="45.76522" lon="4.65993">
        <ele>437.5719909668</ele>
        <time>2012-04-17T16:43:53Z</time>
      </trkpt>
      <trkpt lat="45.76539" lon="4.65989">
        <ele>438.29501342773</ele>
        <time>2012-04-17T16:44:00Z</time>
      </trkpt>
      <trkpt lat="45.76557" lon="4.65986">
        <ele>439.33200073242</ele>
        <time>2012-04-17T16:44:08Z</time>
      </trkpt>
      <trkpt lat="45.76574" lon="4.65984">
        <ele>440.60198974609</ele>
        <time>2012-04-17T16:44:15Z</time>
      </trkpt>
      <trkpt lat="45.76591" lon="4.65981">
        <ele>441.64300537109</ele>
        <time>2012-04-17T16:44:22Z</time>
      </trkpt>
      <trkpt lat="45.76607" lon="4.65977">
        <ele>442.29800415039</ele>
        <time>2012-04-17T16:44:28Z</time>
      </trkpt>
      <trkpt lat="45.76632" lon="4.65974">
        <ele>443.3219909668</ele>
        <time>2012-04-17T16:44:36Z</time>
      </trkpt>
      <trkpt lat="45.76655" lon="4.6598">
        <ele>444.6969909668</ele>
        <time>2012-04-17T16:44:44Z</time>
      </trkpt>
      <trkpt lat="45.7668" lon="4.65983">
        <ele>445.90899658203</ele>
        <time>2012-04-17T16:44:53Z</time>
      </trkpt>
      <trkpt lat="45.76712" lon="4.65981">
        <ele>448.14001464844</ele>
        <time>2012-04-17T16:45:04Z</time>
      </trkpt>
      <trkpt lat="45.76736" lon="4.6598">
        <ele>450.26000976562</ele>
        <time>2012-04-17T16:45:14Z</time>
      </trkpt>
      <trkpt lat="45.76755" lon="4.65978">
        <ele>451.87298583984</ele>
        <time>2012-04-17T16:45:22Z</time>
      </trkpt>
      <trkpt lat="45.76775" lon="4.65969">
        <ele>453.85598754883</ele>
        <time>2012-04-17T16:45:30Z</time>
      </trkpt>
      <trkpt lat="45.76791" lon="4.65952">
        <ele>455.8450012207</ele>
        <time>2012-04-17T16:45:38Z</time>
      </trkpt>
      <trkpt lat="45.76803" lon="4.6593">
        <ele>457.61898803711</ele>
        <time>2012-04-17T16:45:46Z</time>
      </trkpt>
      <trkpt lat="45.76811" lon="4.65907">
        <ele>458.77398681641</ele>
        <time>2012-04-17T16:45:54Z</time>
      </trkpt>
      <trkpt lat="45.76817" lon="4.65878">
        <ele>459.72698974609</ele>
        <time>2012-04-17T16:46:02Z</time>
      </trkpt>
      <trkpt lat="45.76826" lon="4.65876">
        <ele>460.14401245117</ele>
        <time>2012-04-17T16:46:06Z</time>
      </trkpt>
      <trkpt lat="45.76839" lon="4.65892">
        <ele>460.04000854492</ele>
        <time>2012-04-17T16:46:11Z</time>
      </trkpt>
      <trkpt lat="45.76849" lon="4.65916">
        <ele>459.89599609375</ele>
        <time>2012-04-17T16:46:16Z</time>
      </trkpt>
      <trkpt lat="45.76849" lon="4.65935">
        <ele>459.96099853516</ele>
        <time>2012-04-17T16:46:19Z</time>
      </trkpt>
      <trkpt lat="45.76844" lon="4.65989">
        <ele>458.69299316406</ele>
        <time>2012-04-17T16:46:26Z</time>
      </trkpt>
      <trkpt lat="45.76839" lon="4.66033">
        <ele>456.61099243164</ele>
        <time>2012-04-17T16:46:30Z</time>
      </trkpt>
      <trkpt lat="45.76836" lon="4.66056">
        <ele>455.75698852539</ele>
        <time>2012-04-17T16:46:32Z</time>
      </trkpt>
      <trkpt lat="45.7684" lon="4.66083">
        <ele>451.99301147461</ele>
        <time>2012-04-17T16:46:35Z</time>
      </trkpt>
      <trkpt lat="45.76854" lon="4.661">
        <ele>447.8030090332</ele>
        <time>2012-04-17T16:46:38Z</time>
      </trkpt>
      <trkpt lat="45.76854" lon="4.66119">
        <ele>445.04400634766</ele>
        <time>2012-04-17T16:46:40Z</time>
      </trkpt>
      <trkpt lat="45.76847" lon="4.66167">
        <ele>438.97601318359</ele>
        <time>2012-04-17T16:46:45Z</time>
      </trkpt>
      <trkpt lat="45.76846" lon="4.66175">
        <ele>436.45700073242</ele>
        <time>2012-04-17T16:46:47Z</time>
      </trkpt>
      <trkpt lat="45.76847" lon="4.66178">
        <ele>431.47299194336</ele>
        <time>2012-04-17T16:46:53Z</time>
      </trkpt>
      <trkpt lat="45.76849" lon="4.66178">
        <ele>430.94299316406</ele>
        <time>2012-04-17T16:46:57Z</time>
      </trkpt>
      <trkpt lat="45.76857" lon="4.66178">
        <ele>430.83898925781</ele>
        <time>2012-04-17T16:47:00Z</time>
      </trkpt>
      <trkpt lat="45.76878" lon="4.6617">
        <ele>430.33401489258</ele>
        <time>2012-04-17T16:47:04Z</time>
      </trkpt>
      <trkpt lat="45.76911" lon="4.66176">
        <ele>429.16400146484</ele>
        <time>2012-04-17T16:47:08Z</time>
      </trkpt>
      <trkpt lat="45.76918" lon="4.66182">
        <ele>428.74499511719</ele>
        <time>2012-04-17T16:47:09Z</time>
      </trkpt>
      <trkpt lat="45.76971" lon="4.66228">
        <ele>425.78399658203</ele>
        <time>2012-04-17T16:47:17Z</time>
      </trkpt>
      <trkpt lat="45.76996" lon="4.66232">
        <ele>425.13000488281</ele>
        <time>2012-04-17T16:47:21Z</time>
      </trkpt>
      <trkpt lat="45.77011" lon="4.66227">
        <ele>424.88500976562</ele>
        <time>2012-04-17T16:47:24Z</time>
      </trkpt>
      <trkpt lat="45.77037" lon="4.66213">
        <ele>424.4700012207</ele>
        <time>2012-04-17T16:47:30Z</time>
      </trkpt>
      <trkpt lat="45.77054" lon="4.66215">
        <ele>423.84298706055</ele>
        <time>2012-04-17T16:47:34Z</time>
      </trkpt>
      <trkpt lat="45.77062" lon="4.66222">
        <ele>423.29098510742</ele>
        <time>2012-04-17T16:47:36Z</time>
      </trkpt>
      <trkpt lat="45.77088" lon="4.66236">
        <ele>421.44000244141</ele>
        <time>2012-04-17T16:47:41Z</time>
      </trkpt>
      <trkpt lat="45.77101" lon="4.66242">
        <ele>420.61401367188</ele>
        <time>2012-04-17T16:47:43Z</time>
      </trkpt>
      <trkpt lat="45.77125" lon="4.66256">
        <ele>418.78900146484</ele>
        <time>2012-04-17T16:47:47Z</time>
      </trkpt>
      <trkpt lat="45.77131" lon="4.66259">
        <ele>418.06799316406</ele>
        <time>2012-04-17T16:47:48Z</time>
      </trkpt>
      <trkpt lat="45.77155" lon="4.6626">
        <ele>413.25799560547</ele>
        <time>2012-04-17T16:47:53Z</time>
      </trkpt>
      <trkpt lat="45.77164" lon="4.66261">
        <ele>409.06500244141</ele>
        <time>2012-04-17T16:47:57Z</time>
      </trkpt>
      <trkpt lat="45.77166" lon="4.66262">
        <ele>408.10501098633</ele>
        <time>2012-04-17T16:47:58Z</time>
      </trkpt>
      <trkpt lat="45.77181" lon="4.66261">
        <ele>402.07000732422</ele>
        <time>2012-04-17T16:48:04Z</time>
      </trkpt>
      <trkpt lat="45.77193" lon="4.66257">
        <ele>397.34201049805</ele>
        <time>2012-04-17T16:48:08Z</time>
      </trkpt>
      <trkpt lat="45.77201" lon="4.66256">
        <ele>395.00399780273</ele>
        <time>2012-04-17T16:48:11Z</time>
      </trkpt>
      <trkpt lat="45.77202" lon="4.66255">
        <ele>392.05999755859</ele>
        <time>2012-04-17T16:48:14Z</time>
      </trkpt>
      <trkpt lat="45.77204" lon="4.66252">
        <ele>390.15100097656</ele>
        <time>2012-04-17T16:48:23Z</time>
      </trkpt>
      <trkpt lat="45.77205" lon="4.66252">
        <ele>390.06698608398</ele>
        <time>2012-04-17T16:48:29Z</time>
      </trkpt>
      <trkpt lat="45.77206" lon="4.66257">
        <ele>389.83999633789</ele>
        <time>2012-04-17T16:48:55Z</time>
      </trkpt>
      <trkpt lat="45.77207" lon="4.66257">
        <ele>390.15701293945</ele>
        <time>2012-04-17T16:49:02Z</time>
      </trkpt>
      <trkpt lat="45.77215" lon="4.66252">
        <ele>390.57901000977</ele>
        <time>2012-04-17T16:50:22Z</time>
      </trkpt>
      <trkpt lat="45.77223" lon="4.66254">
        <ele>391.54501342773</ele>
        <time>2012-04-17T16:50:30Z</time>
      </trkpt>
      <trkpt lat="45.77231" lon="4.66256">
        <ele>392.29000854492</ele>
        <time>2012-04-17T16:50:36Z</time>
      </trkpt>
      <trkpt lat="45.77239" lon="4.66255">
        <ele>394.07598876953</ele>
        <time>2012-04-17T16:50:42Z</time>
      </trkpt>
      <trkpt lat="45.77245" lon="4.66255">
        <ele>395.89099121094</ele>
        <time>2012-04-17T16:50:47Z</time>
      </trkpt>
      <trkpt lat="45.77254" lon="4.66257">
        <ele>398.19299316406</ele>
        <time>2012-04-17T16:50:53Z</time>
      </trkpt>
      <trkpt lat="45.77255" lon="4.66257">
        <ele>398.62799072266</ele>
        <time>2012-04-17T16:50:54Z</time>
      </trkpt>
      <trkpt lat="45.7726" lon="4.66259">
        <ele>400.18200683594</ele>
        <time>2012-04-17T16:50:58Z</time>
      </trkpt>
      <trkpt lat="45.77263" lon="4.66259">
        <ele>401.18399047852</ele>
        <time>2012-04-17T16:51:01Z</time>
      </trkpt>
      <trkpt lat="45.77269" lon="4.66263">
        <ele>402.99899291992</ele>
        <time>2012-04-17T16:51:07Z</time>
      </trkpt>
      <trkpt lat="45.77275" lon="4.66266">
        <ele>404.21600341797</ele>
        <time>2012-04-17T16:51:23Z</time>
      </trkpt>
      <trkpt lat="45.77286" lon="4.66269">
        <ele>406.26501464844</ele>
        <time>2012-04-17T16:51:30Z</time>
      </trkpt>
      <trkpt lat="45.77298" lon="4.66273">
        <ele>408.14001464844</ele>
        <time>2012-04-17T16:51:38Z</time>
      </trkpt>
      <trkpt lat="45.77305" lon="4.66275">
        <ele>409.67300415039</ele>
        <time>2012-04-17T16:51:44Z</time>
      </trkpt>
      <trkpt lat="45.77314" lon="4.66278">
        <ele>411.15701293945</ele>
        <time>2012-04-17T16:51:50Z</time>
      </trkpt>
      <trkpt lat="45.77325" lon="4.66282">
        <ele>412.82699584961</ele>
        <time>2012-04-17T16:51:58Z</time>
      </trkpt>
      <trkpt lat="45.77337" lon="4.66287">
        <ele>414.14099121094</ele>
        <time>2012-04-17T16:52:06Z</time>
      </trkpt>
      <trkpt lat="45.77347" lon="4.66293">
        <ele>414.92700195312</ele>
        <time>2012-04-17T16:52:12Z</time>
      </trkpt>
      <trkpt lat="45.7736" lon="4.663">
        <ele>415.73199462891</ele>
        <time>2012-04-17T16:52:19Z</time>
      </trkpt>
      <trkpt lat="45.77365" lon="4.66303">
        <ele>416.30801391602</ele>
        <time>2012-04-17T16:52:23Z</time>
      </trkpt>
      <trkpt lat="45.77377" lon="4.66309">
        <ele>417.77801513672</ele>
        <time>2012-04-17T16:52:30Z</time>
      </trkpt>
      <trkpt lat="45.7739" lon="4.66314">
        <ele>420.07699584961</ele>
        <time>2012-04-17T16:52:38Z</time>
      </trkpt>
      <trkpt lat="45.77396" lon="4.66319">
        <ele>421.32901000977</ele>
        <time>2012-04-17T16:52:45Z</time>
      </trkpt>
      <trkpt lat="45.77397" lon="4.66323">
        <ele>421.65798950195</ele>
        <time>2012-04-17T16:52:52Z</time>
      </trkpt>
      <trkpt lat="45.77395" lon="4.66326">
        <ele>421.63000488281</ele>
        <time>2012-04-17T16:53:07Z</time>
      </trkpt>
      <trkpt lat="45.77399" lon="4.66329">
        <ele>421.98001098633</ele>
        <time>2012-04-17T16:53:11Z</time>
      </trkpt>
      <trkpt lat="45.77413" lon="4.66339">
        <ele>423.60000610352</ele>
        <time>2012-04-17T16:53:20Z</time>
      </trkpt>
      <trkpt lat="45.77427" lon="4.66348">
        <ele>425.49200439453</ele>
        <time>2012-04-17T16:53:28Z</time>
      </trkpt>
      <trkpt lat="45.77439" lon="4.66356">
        <ele>426.73400878906</ele>
        <time>2012-04-17T16:53:35Z</time>
      </trkpt>
      <trkpt lat="45.77451" lon="4.66365">
        <ele>427.48001098633</ele>
        <time>2012-04-17T16:53:42Z</time>
      </trkpt>
      <trkpt lat="45.77464" lon="4.66372">
        <ele>427.89001464844</ele>
        <time>2012-04-17T16:53:49Z</time>
      </trkpt>
      <trkpt lat="45.7748" lon="4.66382">
        <ele>427.75100708008</ele>
        <time>2012-04-17T16:53:55Z</time>
      </trkpt>
      <trkpt lat="45.77497" lon="4.6639">
        <ele>427.21798706055</ele>
        <time>2012-04-17T16:53:59Z</time>
      </trkpt>
      <trkpt lat="45.77516" lon="4.66399">
        <ele>425.28601074219</ele>
        <time>2012-04-17T16:54:04Z</time>
      </trkpt>
      <trkpt lat="45.77528" lon="4.66406">
        <ele>423.09100341797</ele>
        <time>2012-04-17T16:54:08Z</time>
      </trkpt>
      <trkpt lat="45.77531" lon="4.66407">
        <ele>422.22698974609</ele>
        <time>2012-04-17T16:54:09Z</time>
      </trkpt>
      <trkpt lat="45.77554" lon="4.66398">
        <ele>418.74200439453</ele>
        <time>2012-04-17T16:54:14Z</time>
      </trkpt>
      <trkpt lat="45.77569" lon="4.66394">
        <ele>417.5419921875</ele>
        <time>2012-04-17T16:54:18Z</time>
      </trkpt>
      <trkpt lat="45.77571" lon="4.66395">
        <ele>417.33099365234</ele>
        <time>2012-04-17T16:54:19Z</time>
      </trkpt>
      <trkpt lat="45.77582" lon="4.6641">
        <ele>416.3630065918</ele>
        <time>2012-04-17T16:54:25Z</time>
      </trkpt>
      <trkpt lat="45.77593" lon="4.66422">
        <ele>416.61898803711</ele>
        <time>2012-04-17T16:54:32Z</time>
      </trkpt>
      <trkpt lat="45.776" lon="4.66429">
        <ele>417.99899291992</ele>
        <time>2012-04-17T16:54:39Z</time>
      </trkpt>
      <trkpt lat="45.77608" lon="4.66441">
        <ele>419.91400146484</ele>
        <time>2012-04-17T16:54:49Z</time>
      </trkpt>
      <trkpt lat="45.77613" lon="4.66449">
        <ele>421.60998535156</ele>
        <time>2012-04-17T16:54:54Z</time>
      </trkpt>
      <trkpt lat="45.7762" lon="4.66465">
        <ele>423.69799804688</ele>
        <time>2012-04-17T16:55:00Z</time>
      </trkpt>
      <trkpt lat="45.77628" lon="4.66475">
        <ele>425.72799682617</ele>
        <time>2012-04-17T16:55:07Z</time>
      </trkpt>
      <trkpt lat="45.77636" lon="4.6648">
        <ele>427.59600830078</ele>
        <time>2012-04-17T16:55:14Z</time>
      </trkpt>
      <trkpt lat="45.77644" lon="4.66483">
        <ele>429.5419921875</ele>
        <time>2012-04-17T16:55:21Z</time>
      </trkpt>
      <trkpt lat="45.77652" lon="4.66485">
        <ele>430.98300170898</ele>
        <time>2012-04-17T16:55:28Z</time>
      </trkpt>
      <trkpt lat="45.7766" lon="4.66487">
        <ele>432.95001220703</ele>
        <time>2012-04-17T16:55:36Z</time>
      </trkpt>
      <trkpt lat="45.77668" lon="4.6649">
        <ele>434.46200561523</ele>
        <time>2012-04-17T16:55:42Z</time>
      </trkpt>
      <trkpt lat="45.77677" lon="4.66493">
        <ele>436.72198486328</ele>
        <time>2012-04-17T16:55:50Z</time>
      </trkpt>
      <trkpt lat="45.77682" lon="4.66502">
        <ele>438.5</ele>
        <time>2012-04-17T16:55:57Z</time>
      </trkpt>
      <trkpt lat="45.77687" lon="4.66508">
        <ele>439.88800048828</ele>
        <time>2012-04-17T16:56:03Z</time>
      </trkpt>
      <trkpt lat="45.77692" lon="4.66512">
        <ele>440.51699829102</ele>
        <time>2012-04-17T16:56:08Z</time>
      </trkpt>
      <trkpt lat="45.77702" lon="4.66521">
        <ele>440.79800415039</ele>
        <time>2012-04-17T16:56:17Z</time>
      </trkpt>
      <trkpt lat="45.77715" lon="4.66534">
        <ele>442.40100097656</ele>
        <time>2012-04-17T16:56:27Z</time>
      </trkpt>
      <trkpt lat="45.77723" lon="4.66542">
        <ele>443.19400024414</ele>
        <time>2012-04-17T16:56:34Z</time>
      </trkpt>
      <trkpt lat="45.77731" lon="4.66546">
        <ele>443.35900878906</ele>
        <time>2012-04-17T16:56:40Z</time>
      </trkpt>
      <trkpt lat="45.7774" lon="4.66556">
        <ele>443.33999633789</ele>
        <time>2012-04-17T16:56:47Z</time>
      </trkpt>
      <trkpt lat="45.77751" lon="4.66576">
        <ele>443.30899047852</ele>
        <time>2012-04-17T16:56:57Z</time>
      </trkpt>
      <trkpt lat="45.7776" lon="4.66587">
        <ele>446.36801147461</ele>
        <time>2012-04-17T16:57:05Z</time>
      </trkpt>
      <trkpt lat="45.77763" lon="4.66593">
        <ele>447.71301269531</ele>
        <time>2012-04-17T16:57:08Z</time>
      </trkpt>
      <trkpt lat="45.77769" lon="4.66606">
        <ele>449.12298583984</ele>
        <time>2012-04-17T16:57:15Z</time>
      </trkpt>
      <trkpt lat="45.77773" lon="4.66612">
        <ele>450.12899780273</ele>
        <time>2012-04-17T16:57:19Z</time>
      </trkpt>
      <trkpt lat="45.77778" lon="4.66608">
        <ele>451.1969909668</ele>
        <time>2012-04-17T16:57:24Z</time>
      </trkpt>
      <trkpt lat="45.77786" lon="4.66605">
        <ele>453.22299194336</ele>
        <time>2012-04-17T16:57:30Z</time>
      </trkpt>
      <trkpt lat="45.77789" lon="4.66607">
        <ele>453.56600952148</ele>
        <time>2012-04-17T16:57:32Z</time>
      </trkpt>
      <trkpt lat="45.77803" lon="4.66617">
        <ele>455.70700073242</ele>
        <time>2012-04-17T16:57:41Z</time>
      </trkpt>
      <trkpt lat="45.77812" lon="4.66617">
        <ele>456.91598510742</ele>
        <time>2012-04-17T16:57:47Z</time>
      </trkpt>
      <trkpt lat="45.77827" lon="4.66611">
        <ele>459.05599975586</ele>
        <time>2012-04-17T16:57:56Z</time>
      </trkpt>
      <trkpt lat="45.77837" lon="4.6661">
        <ele>460.61801147461</ele>
        <time>2012-04-17T16:58:02Z</time>
      </trkpt>
      <trkpt lat="45.77857" lon="4.66615">
        <ele>461.92199707031</ele>
        <time>2012-04-17T16:58:12Z</time>
      </trkpt>
      <trkpt lat="45.77875" lon="4.66618">
        <ele>463.1960144043</ele>
        <time>2012-04-17T16:58:21Z</time>
      </trkpt>
      <trkpt lat="45.77887" lon="4.66619">
        <ele>464.4580078125</ele>
        <time>2012-04-17T16:58:28Z</time>
      </trkpt>
      <trkpt lat="45.77899" lon="4.66616">
        <ele>466.25201416016</ele>
        <time>2012-04-17T16:58:36Z</time>
      </trkpt>
      <trkpt lat="45.77901" lon="4.66608">
        <ele>467.73901367188</ele>
        <time>2012-04-17T16:58:41Z</time>
      </trkpt>
      <trkpt lat="45.77895" lon="4.66595">
        <ele>469.64498901367</ele>
        <time>2012-04-17T16:58:48Z</time>
      </trkpt>
      <trkpt lat="45.77891" lon="4.66591">
        <ele>470.5299987793</ele>
        <time>2012-04-17T16:58:51Z</time>
      </trkpt>
      <trkpt lat="45.77885" lon="4.66576">
        <ele>472.29998779297</ele>
        <time>2012-04-17T16:59:00Z</time>
      </trkpt>
      <trkpt lat="45.77881" lon="4.6656">
        <ele>473.98599243164</ele>
        <time>2012-04-17T16:59:09Z</time>
      </trkpt>
      <trkpt lat="45.77878" lon="4.66544">
        <ele>475.91101074219</ele>
        <time>2012-04-17T16:59:18Z</time>
      </trkpt>
      <trkpt lat="45.77873" lon="4.66531">
        <ele>477.67300415039</ele>
        <time>2012-04-17T16:59:26Z</time>
      </trkpt>
      <trkpt lat="45.77865" lon="4.66518">
        <ele>479.01300048828</ele>
        <time>2012-04-17T16:59:33Z</time>
      </trkpt>
      <trkpt lat="45.77859" lon="4.66504">
        <ele>479.74398803711</ele>
        <time>2012-04-17T16:59:40Z</time>
      </trkpt>
      <trkpt lat="45.77853" lon="4.66488">
        <ele>481.24398803711</ele>
        <time>2012-04-17T16:59:48Z</time>
      </trkpt>
      <trkpt lat="45.77849" lon="4.66473">
        <ele>482.79299926758</ele>
        <time>2012-04-17T16:59:56Z</time>
      </trkpt>
      <trkpt lat="45.77848" lon="4.66455">
        <ele>484.25799560547</ele>
        <time>2012-04-17T17:00:04Z</time>
      </trkpt>
      <trkpt lat="45.77844" lon="4.66437">
        <ele>485.85900878906</ele>
        <time>2012-04-17T17:00:13Z</time>
      </trkpt>
      <trkpt lat="45.77843" lon="4.66433">
        <ele>486.16598510742</ele>
        <time>2012-04-17T17:00:15Z</time>
      </trkpt>
      <trkpt lat="45.77838" lon="4.66415">
        <ele>488.48498535156</ele>
        <time>2012-04-17T17:00:25Z</time>
      </trkpt>
      <trkpt lat="45.77835" lon="4.66406">
        <ele>489.15798950195</ele>
        <time>2012-04-17T17:00:30Z</time>
      </trkpt>
      <trkpt lat="45.77831" lon="4.6639">
        <ele>489.43701171875</ele>
        <time>2012-04-17T17:00:36Z</time>
      </trkpt>
      <trkpt lat="45.77829" lon="4.66369">
        <ele>489.34100341797</ele>
        <time>2012-04-17T17:00:42Z</time>
      </trkpt>
      <trkpt lat="45.77831" lon="4.66332">
        <ele>489.35900878906</ele>
        <time>2012-04-17T17:00:51Z</time>
      </trkpt>
      <trkpt lat="45.77834" lon="4.66296">
        <ele>489.66900634766</ele>
        <time>2012-04-17T17:01:00Z</time>
      </trkpt>
      <trkpt lat="45.77838" lon="4.66267">
        <ele>490.06399536133</ele>
        <time>2012-04-17T17:01:07Z</time>
      </trkpt>
      <trkpt lat="45.77842" lon="4.66244">
        <ele>490.0719909668</ele>
        <time>2012-04-17T17:01:12Z</time>
      </trkpt>
      <trkpt lat="45.77843" lon="4.66215">
        <ele>490.29998779297</ele>
        <time>2012-04-17T17:01:19Z</time>
      </trkpt>
      <trkpt lat="45.77846" lon="4.66194">
        <ele>490.5299987793</ele>
        <time>2012-04-17T17:01:25Z</time>
      </trkpt>
      <trkpt lat="45.77849" lon="4.6618">
        <ele>491.15899658203</ele>
        <time>2012-04-17T17:01:31Z</time>
      </trkpt>
      <trkpt lat="45.77853" lon="4.66167">
        <ele>492.60699462891</ele>
        <time>2012-04-17T17:01:37Z</time>
      </trkpt>
      <trkpt lat="45.77856" lon="4.66152">
        <ele>493.74099731445</ele>
        <time>2012-04-17T17:01:44Z</time>
      </trkpt>
      <trkpt lat="45.77858" lon="4.66137">
        <ele>494.87200927734</ele>
        <time>2012-04-17T17:01:50Z</time>
      </trkpt>
      <trkpt lat="45.7786" lon="4.66119">
        <ele>495.67999267578</ele>
        <time>2012-04-17T17:01:57Z</time>
      </trkpt>
      <trkpt lat="45.77863" lon="4.66104">
        <ele>496.45498657227</ele>
        <time>2012-04-17T17:02:04Z</time>
      </trkpt>
      <trkpt lat="45.77863" lon="4.6609">
        <ele>497.37399291992</ele>
        <time>2012-04-17T17:02:11Z</time>
      </trkpt>
      <trkpt lat="45.77863" lon="4.66076">
        <ele>498.53601074219</ele>
        <time>2012-04-17T17:02:17Z</time>
      </trkpt>
      <trkpt lat="45.77861" lon="4.66071">
        <ele>499.02801513672</ele>
        <time>2012-04-17T17:02:19Z</time>
      </trkpt>
      <trkpt lat="45.77859" lon="4.66052">
        <ele>500.48699951172</ele>
        <time>2012-04-17T17:02:27Z</time>
      </trkpt>
      <trkpt lat="45.77858" lon="4.66033">
        <ele>501.10800170898</ele>
        <time>2012-04-17T17:02:34Z</time>
      </trkpt>
      <trkpt lat="45.77856" lon="4.6602">
        <ele>501.74099731445</ele>
        <time>2012-04-17T17:02:39Z</time>
      </trkpt>
      <trkpt lat="45.77857" lon="4.66002">
        <ele>503.01000976562</ele>
        <time>2012-04-17T17:02:46Z</time>
      </trkpt>
      <trkpt lat="45.77858" lon="4.65989">
        <ele>504.06500244141</ele>
        <time>2012-04-17T17:02:52Z</time>
      </trkpt>
      <trkpt lat="45.77855" lon="4.65973">
        <ele>504.95599365234</ele>
        <time>2012-04-17T17:03:00Z</time>
      </trkpt>
      <trkpt lat="45.77853" lon="4.65956">
        <ele>505.85101318359</ele>
        <time>2012-04-17T17:03:07Z</time>
      </trkpt>
      <trkpt lat="45.77853" lon="4.65942">
        <ele>507.01699829102</ele>
        <time>2012-04-17T17:03:13Z</time>
      </trkpt>
      <trkpt lat="45.77854" lon="4.65927">
        <ele>508.19500732422</ele>
        <time>2012-04-17T17:03:20Z</time>
      </trkpt>
      <trkpt lat="45.77853" lon="4.65915">
        <ele>509.30200195312</ele>
        <time>2012-04-17T17:03:26Z</time>
      </trkpt>
      <trkpt lat="45.77859" lon="4.6591">
        <ele>510.50100708008</ele>
        <time>2012-04-17T17:03:32Z</time>
      </trkpt>
      <trkpt lat="45.77861" lon="4.65901">
        <ele>511.22299194336</ele>
        <time>2012-04-17T17:03:37Z</time>
      </trkpt>
      <trkpt lat="45.7786" lon="4.65898">
        <ele>511.45999145508</ele>
        <time>2012-04-17T17:03:39Z</time>
      </trkpt>
      <trkpt lat="45.77862" lon="4.65881">
        <ele>512.80102539062</ele>
        <time>2012-04-17T17:03:48Z</time>
      </trkpt>
      <trkpt lat="45.77861" lon="4.65869">
        <ele>513.56298828125</ele>
        <time>2012-04-17T17:03:54Z</time>
      </trkpt>
      <trkpt lat="45.77861" lon="4.6586">
        <ele>514.80200195312</ele>
        <time>2012-04-17T17:04:00Z</time>
      </trkpt>
      <trkpt lat="45.77861" lon="4.65856">
        <ele>515.35998535156</ele>
        <time>2012-04-17T17:04:03Z</time>
      </trkpt>
      <trkpt lat="45.77856" lon="4.65843">
        <ele>516.66900634766</ele>
        <time>2012-04-17T17:04:10Z</time>
      </trkpt>
      <trkpt lat="45.77854" lon="4.6583">
        <ele>518.16302490234</ele>
        <time>2012-04-17T17:04:15Z</time>
      </trkpt>
      <trkpt lat="45.77848" lon="4.65815">
        <ele>520.67498779297</ele>
        <time>2012-04-17T17:04:23Z</time>
      </trkpt>
      <trkpt lat="45.77843" lon="4.65806">
        <ele>522.14202880859</ele>
        <time>2012-04-17T17:04:30Z</time>
      </trkpt>
      <trkpt lat="45.77836" lon="4.65795">
        <ele>524.09698486328</ele>
        <time>2012-04-17T17:04:39Z</time>
      </trkpt>
      <trkpt lat="45.77834" lon="4.65791">
        <ele>524.65997314453</ele>
        <time>2012-04-17T17:04:42Z</time>
      </trkpt>
      <trkpt lat="45.7783" lon="4.6579">
        <ele>526.09002685547</ele>
        <time>2012-04-17T17:04:48Z</time>
      </trkpt>
      <trkpt lat="45.77826" lon="4.65792">
        <ele>527.27197265625</ele>
        <time>2012-04-17T17:04:52Z</time>
      </trkpt>
      <trkpt lat="45.77819" lon="4.65796">
        <ele>528.75897216797</ele>
        <time>2012-04-17T17:04:58Z</time>
      </trkpt>
      <trkpt lat="45.77812" lon="4.65795">
        <ele>529.91302490234</ele>
        <time>2012-04-17T17:05:04Z</time>
      </trkpt>
      <trkpt lat="45.77806" lon="4.65786">
        <ele>531.82000732422</ele>
        <time>2012-04-17T17:05:12Z</time>
      </trkpt>
      <trkpt lat="45.77806" lon="4.65785">
        <ele>532.125</ele>
        <time>2012-04-17T17:05:13Z</time>
      </trkpt>
      <trkpt lat="45.77805" lon="4.65779">
        <ele>532.88201904297</ele>
        <time>2012-04-17T17:05:17Z</time>
      </trkpt>
      <trkpt lat="45.778" lon="4.65774">
        <ele>534.19097900391</ele>
        <time>2012-04-17T17:05:22Z</time>
      </trkpt>
      <trkpt lat="45.77796" lon="4.65767">
        <ele>535.45397949219</ele>
        <time>2012-04-17T17:05:27Z</time>
      </trkpt>
      <trkpt lat="45.77792" lon="4.65754">
        <ele>537.03198242188</ele>
        <time>2012-04-17T17:05:35Z</time>
      </trkpt>
      <trkpt lat="45.77788" lon="4.65744">
        <ele>538.96997070312</ele>
        <time>2012-04-17T17:05:42Z</time>
      </trkpt>
      <trkpt lat="45.77787" lon="4.6574">
        <ele>539.58801269531</ele>
        <time>2012-04-17T17:05:44Z</time>
      </trkpt>
      <trkpt lat="45.77784" lon="4.65737">
        <ele>540.30999755859</ele>
        <time>2012-04-17T17:05:47Z</time>
      </trkpt>
      <trkpt lat="45.77781" lon="4.65734">
        <ele>541.0419921875</ele>
        <time>2012-04-17T17:05:50Z</time>
      </trkpt>
      <trkpt lat="45.77779" lon="4.65725">
        <ele>542.36401367188</ele>
        <time>2012-04-17T17:05:56Z</time>
      </trkpt>
      <trkpt lat="45.77774" lon="4.65717">
        <ele>543.48699951172</ele>
        <time>2012-04-17T17:06:02Z</time>
      </trkpt>
      <trkpt lat="45.7777" lon="4.65712">
        <ele>544.65502929688</ele>
        <time>2012-04-17T17:06:07Z</time>
      </trkpt>
      <trkpt lat="45.77768" lon="4.65704">
        <ele>545.64801025391</ele>
        <time>2012-04-17T17:06:11Z</time>
      </trkpt>
      <trkpt lat="45.77764" lon="4.65689">
        <ele>547.40301513672</ele>
        <time>2012-04-17T17:06:18Z</time>
      </trkpt>
      <trkpt lat="45.7776" lon="4.65673">
        <ele>548.89697265625</ele>
        <time>2012-04-17T17:06:25Z</time>
      </trkpt>
      <trkpt lat="45.77756" lon="4.65667">
        <ele>550.11700439453</ele>
        <time>2012-04-17T17:06:30Z</time>
      </trkpt>
      <trkpt lat="45.77753" lon="4.65659">
        <ele>551.1669921875</ele>
        <time>2012-04-17T17:06:35Z</time>
      </trkpt>
      <trkpt lat="45.77753" lon="4.65649">
        <ele>552.38397216797</ele>
        <time>2012-04-17T17:06:41Z</time>
      </trkpt>
      <trkpt lat="45.77749" lon="4.65642">
        <ele>553.48498535156</ele>
        <time>2012-04-17T17:06:46Z</time>
      </trkpt>
      <trkpt lat="45.77748" lon="4.65633">
        <ele>554.78002929688</ele>
        <time>2012-04-17T17:06:52Z</time>
      </trkpt>
      <trkpt lat="45.77748" lon="4.65627">
        <ele>555.27899169922</ele>
        <time>2012-04-17T17:06:55Z</time>
      </trkpt>
      <trkpt lat="45.77745" lon="4.6561">
        <ele>557.07202148438</ele>
        <time>2012-04-17T17:07:03Z</time>
      </trkpt>
      <trkpt lat="45.77746" lon="4.65593">
        <ele>558.28100585938</ele>
        <time>2012-04-17T17:07:10Z</time>
      </trkpt>
      <trkpt lat="45.77744" lon="4.6558">
        <ele>558.89398193359</ele>
        <time>2012-04-17T17:07:15Z</time>
      </trkpt>
      <trkpt lat="45.77739" lon="4.6556">
        <ele>559.86297607422</ele>
        <time>2012-04-17T17:07:22Z</time>
      </trkpt>
      <trkpt lat="45.77737" lon="4.6554">
        <ele>560.83502197266</ele>
        <time>2012-04-17T17:07:29Z</time>
      </trkpt>
      <trkpt lat="45.77739" lon="4.65526">
        <ele>561.46002197266</ele>
        <time>2012-04-17T17:07:34Z</time>
      </trkpt>
      <trkpt lat="45.77748" lon="4.65513">
        <ele>561.94500732422</ele>
        <time>2012-04-17T17:07:40Z</time>
      </trkpt>
      <trkpt lat="45.77753" lon="4.65509">
        <ele>562.19299316406</ele>
        <time>2012-04-17T17:07:43Z</time>
      </trkpt>
      <trkpt lat="45.77767" lon="4.65496">
        <ele>563.23699951172</ele>
        <time>2012-04-17T17:07:51Z</time>
      </trkpt>
      <trkpt lat="45.77777" lon="4.65483">
        <ele>563.85198974609</ele>
        <time>2012-04-17T17:07:57Z</time>
      </trkpt>
      <trkpt lat="45.77783" lon="4.65469">
        <ele>564.39599609375</ele>
        <time>2012-04-17T17:08:02Z</time>
      </trkpt>
      <trkpt lat="45.77787" lon="4.6546">
        <ele>565.08502197266</ele>
        <time>2012-04-17T17:08:06Z</time>
      </trkpt>
      <trkpt lat="45.7779" lon="4.65446">
        <ele>565.76202392578</ele>
        <time>2012-04-17T17:08:11Z</time>
      </trkpt>
      <trkpt lat="45.77795" lon="4.6543">
        <ele>566.56201171875</ele>
        <time>2012-04-17T17:08:18Z</time>
      </trkpt>
      <trkpt lat="45.77796" lon="4.65426">
        <ele>566.71301269531</ele>
        <time>2012-04-17T17:08:20Z</time>
      </trkpt>
      <trkpt lat="45.77801" lon="4.65409">
        <ele>567.46502685547</ele>
        <time>2012-04-17T17:08:27Z</time>
      </trkpt>
      <trkpt lat="45.77803" lon="4.65391">
        <ele>567.97497558594</ele>
        <time>2012-04-17T17:08:33Z</time>
      </trkpt>
      <trkpt lat="45.77804" lon="4.65388">
        <ele>568.10101318359</ele>
        <time>2012-04-17T17:08:34Z</time>
      </trkpt>
      <trkpt lat="45.7781" lon="4.65378">
        <ele>568.90301513672</ele>
        <time>2012-04-17T17:08:40Z</time>
      </trkpt>
      <trkpt lat="45.77817" lon="4.65367">
        <ele>569.99499511719</ele>
        <time>2012-04-17T17:08:46Z</time>
      </trkpt>
      <trkpt lat="45.77819" lon="4.65363">
        <ele>570.34002685547</ele>
        <time>2012-04-17T17:08:48Z</time>
      </trkpt>
      <trkpt lat="45.77821" lon="4.65353">
        <ele>571.21301269531</ele>
        <time>2012-04-17T17:08:53Z</time>
      </trkpt>
      <trkpt lat="45.77824" lon="4.65332">
        <ele>573.23297119141</ele>
        <time>2012-04-17T17:09:03Z</time>
      </trkpt>
      <trkpt lat="45.77824" lon="4.65317">
        <ele>574.10998535156</ele>
        <time>2012-04-17T17:09:10Z</time>
      </trkpt>
      <trkpt lat="45.77826" lon="4.65303">
        <ele>575.20397949219</ele>
        <time>2012-04-17T17:09:17Z</time>
      </trkpt>
      <trkpt lat="45.77828" lon="4.65288">
        <ele>576.24102783203</ele>
        <time>2012-04-17T17:09:24Z</time>
      </trkpt>
      <trkpt lat="45.77824" lon="4.65277">
        <ele>577.52899169922</ele>
        <time>2012-04-17T17:09:29Z</time>
      </trkpt>
      <trkpt lat="45.77819" lon="4.65264">
        <ele>578.94396972656</ele>
        <time>2012-04-17T17:09:35Z</time>
      </trkpt>
      <trkpt lat="45.77814" lon="4.65244">
        <ele>580.56201171875</ele>
        <time>2012-04-17T17:09:44Z</time>
      </trkpt>
      <trkpt lat="45.7781" lon="4.65228">
        <ele>581.7919921875</ele>
        <time>2012-04-17T17:09:51Z</time>
      </trkpt>
      <trkpt lat="45.7781" lon="4.65223">
        <ele>582.30200195312</ele>
        <time>2012-04-17T17:09:54Z</time>
      </trkpt>
      <trkpt lat="45.77808" lon="4.65211">
        <ele>583.49597167969</ele>
        <time>2012-04-17T17:10:00Z</time>
      </trkpt>
      <trkpt lat="45.77806" lon="4.652">
        <ele>584.6240234375</ele>
        <time>2012-04-17T17:10:05Z</time>
      </trkpt>
      <trkpt lat="45.77802" lon="4.65183">
        <ele>585.09497070312</ele>
        <time>2012-04-17T17:10:11Z</time>
      </trkpt>
      <trkpt lat="45.77801" lon="4.65166">
        <ele>585.7490234375</ele>
        <time>2012-04-17T17:10:18Z</time>
      </trkpt>
      <trkpt lat="45.77801" lon="4.65156">
        <ele>586.26800537109</ele>
        <time>2012-04-17T17:10:23Z</time>
      </trkpt>
      <trkpt lat="45.77802" lon="4.65151">
        <ele>586.51599121094</ele>
        <time>2012-04-17T17:10:25Z</time>
      </trkpt>
      <trkpt lat="45.77798" lon="4.6514">
        <ele>587.35198974609</ele>
        <time>2012-04-17T17:10:32Z</time>
      </trkpt>
      <trkpt lat="45.77794" lon="4.65125">
        <ele>587.94299316406</ele>
        <time>2012-04-17T17:10:38Z</time>
      </trkpt>
      <trkpt lat="45.7779" lon="4.65108">
        <ele>589.39099121094</ele>
        <time>2012-04-17T17:10:45Z</time>
      </trkpt>
      <trkpt lat="45.77787" lon="4.651">
        <ele>589.50402832031</ele>
        <time>2012-04-17T17:10:47Z</time>
      </trkpt>
      <trkpt lat="45.77777" lon="4.65062">
        <ele>588.46801757812</ele>
        <time>2012-04-17T17:10:53Z</time>
      </trkpt>
      <trkpt lat="45.77778" lon="4.65056">
        <ele>588.25</ele>
        <time>2012-04-17T17:10:54Z</time>
      </trkpt>
      <trkpt lat="45.77781" lon="4.6503">
        <ele>587.97900390625</ele>
        <time>2012-04-17T17:11:00Z</time>
      </trkpt>
      <trkpt lat="45.77783" lon="4.65006">
        <ele>588.38397216797</ele>
        <time>2012-04-17T17:11:06Z</time>
      </trkpt>
      <trkpt lat="45.77782" lon="4.64981">
        <ele>588.57098388672</ele>
        <time>2012-04-17T17:11:12Z</time>
      </trkpt>
      <trkpt lat="45.77783" lon="4.6496">
        <ele>588.90197753906</ele>
        <time>2012-04-17T17:11:18Z</time>
      </trkpt>
      <trkpt lat="45.77782" lon="4.64948">
        <ele>589.291015625</ele>
        <time>2012-04-17T17:11:23Z</time>
      </trkpt>
      <trkpt lat="45.77782" lon="4.64938">
        <ele>589.40899658203</ele>
        <time>2012-04-17T17:11:26Z</time>
      </trkpt>
      <trkpt lat="45.7778" lon="4.64921">
        <ele>590.36297607422</ele>
        <time>2012-04-17T17:11:32Z</time>
      </trkpt>
      <trkpt lat="45.77779" lon="4.64916">
        <ele>590.84002685547</ele>
        <time>2012-04-17T17:11:34Z</time>
      </trkpt>
      <trkpt lat="45.77778" lon="4.64902">
        <ele>592.78399658203</ele>
        <time>2012-04-17T17:11:40Z</time>
      </trkpt>
      <trkpt lat="45.77781" lon="4.64878">
        <ele>595.07202148438</ele>
        <time>2012-04-17T17:11:50Z</time>
      </trkpt>
      <trkpt lat="45.7778" lon="4.64862">
        <ele>596.06896972656</ele>
        <time>2012-04-17T17:11:56Z</time>
      </trkpt>
      <trkpt lat="45.77781" lon="4.64836">
        <ele>597.16497802734</ele>
        <time>2012-04-17T17:12:04Z</time>
      </trkpt>
      <trkpt lat="45.77785" lon="4.64823">
        <ele>597.92700195312</ele>
        <time>2012-04-17T17:12:09Z</time>
      </trkpt>
      <trkpt lat="45.77789" lon="4.64807">
        <ele>598.83197021484</ele>
        <time>2012-04-17T17:12:15Z</time>
      </trkpt>
      <trkpt lat="45.77792" lon="4.64801">
        <ele>599.35198974609</ele>
        <time>2012-04-17T17:12:18Z</time>
      </trkpt>
      <trkpt lat="45.77793" lon="4.64791">
        <ele>600.40600585938</ele>
        <time>2012-04-17T17:12:22Z</time>
      </trkpt>
      <trkpt lat="45.77798" lon="4.64773">
        <ele>602.29400634766</ele>
        <time>2012-04-17T17:12:30Z</time>
      </trkpt>
      <trkpt lat="45.77805" lon="4.6476">
        <ele>603.28802490234</ele>
        <time>2012-04-17T17:12:36Z</time>
      </trkpt>
      <trkpt lat="45.77809" lon="4.64742">
        <ele>604.17999267578</ele>
        <time>2012-04-17T17:12:44Z</time>
      </trkpt>
      <trkpt lat="45.77813" lon="4.64727">
        <ele>605.14599609375</ele>
        <time>2012-04-17T17:12:50Z</time>
      </trkpt>
      <trkpt lat="45.77814" lon="4.64711">
        <ele>606.01898193359</ele>
        <time>2012-04-17T17:12:56Z</time>
      </trkpt>
      <trkpt lat="45.77814" lon="4.64697">
        <ele>606.37902832031</ele>
        <time>2012-04-17T17:13:01Z</time>
      </trkpt>
      <trkpt lat="45.77814" lon="4.64671">
        <ele>606.55902099609</ele>
        <time>2012-04-17T17:13:07Z</time>
      </trkpt>
      <trkpt lat="45.77816" lon="4.64647">
        <ele>606.57202148438</ele>
        <time>2012-04-17T17:13:13Z</time>
      </trkpt>
      <trkpt lat="45.77819" lon="4.64621">
        <ele>606.69598388672</ele>
        <time>2012-04-17T17:13:18Z</time>
      </trkpt>
      <trkpt lat="45.77823" lon="4.64593">
        <ele>606.96600341797</ele>
        <time>2012-04-17T17:13:24Z</time>
      </trkpt>
      <trkpt lat="45.77823" lon="4.64567">
        <ele>607.95098876953</ele>
        <time>2012-04-17T17:13:30Z</time>
      </trkpt>
      <trkpt lat="45.77822" lon="4.64548">
        <ele>608.89501953125</ele>
        <time>2012-04-17T17:13:35Z</time>
      </trkpt>
      <trkpt lat="45.7782" lon="4.64521">
        <ele>610.96002197266</ele>
        <time>2012-04-17T17:13:43Z</time>
      </trkpt>
      <trkpt lat="45.77817" lon="4.64499">
        <ele>612.85101318359</ele>
        <time>2012-04-17T17:13:50Z</time>
      </trkpt>
      <trkpt lat="45.77815" lon="4.6448">
        <ele>614.31597900391</ele>
        <time>2012-04-17T17:13:56Z</time>
      </trkpt>
      <trkpt lat="45.77814" lon="4.64461">
        <ele>615.65301513672</ele>
        <time>2012-04-17T17:14:03Z</time>
      </trkpt>
      <trkpt lat="45.77813" lon="4.64444">
        <ele>615.84399414062</ele>
        <time>2012-04-17T17:14:08Z</time>
      </trkpt>
      <trkpt lat="45.77813" lon="4.64425">
        <ele>615.60302734375</ele>
        <time>2012-04-17T17:14:12Z</time>
      </trkpt>
      <trkpt lat="45.77813" lon="4.64393">
        <ele>614.68200683594</ele>
        <time>2012-04-17T17:14:17Z</time>
      </trkpt>
      <trkpt lat="45.77819" lon="4.64352">
        <ele>613.65002441406</ele>
        <time>2012-04-17T17:14:24Z</time>
      </trkpt>
      <trkpt lat="45.77821" lon="4.64347">
        <ele>613.51397705078</ele>
        <time>2012-04-17T17:14:25Z</time>
      </trkpt>
      <trkpt lat="45.77823" lon="4.64325">
        <ele>612.958984375</ele>
        <time>2012-04-17T17:14:28Z</time>
      </trkpt>
      <trkpt lat="45.77832" lon="4.64284">
        <ele>611.68298339844</ele>
        <time>2012-04-17T17:14:33Z</time>
      </trkpt>
      <trkpt lat="45.77838" lon="4.64248">
        <ele>610.01000976562</ele>
        <time>2012-04-17T17:14:38Z</time>
      </trkpt>
      <trkpt lat="45.77834" lon="4.64224">
        <ele>608.24298095703</ele>
        <time>2012-04-17T17:14:42Z</time>
      </trkpt>
      <trkpt lat="45.77826" lon="4.64196">
        <ele>607.16101074219</ele>
        <time>2012-04-17T17:14:46Z</time>
      </trkpt>
      <trkpt lat="45.77822" lon="4.64182">
        <ele>607.03198242188</ele>
        <time>2012-04-17T17:14:48Z</time>
      </trkpt>
      <trkpt lat="45.77819" lon="4.6416">
        <ele>606.65301513672</ele>
        <time>2012-04-17T17:14:51Z</time>
      </trkpt>
      <trkpt lat="45.77811" lon="4.64099">
        <ele>606.81500244141</ele>
        <time>2012-04-17T17:14:59Z</time>
      </trkpt>
      <trkpt lat="45.77808" lon="4.64061">
        <ele>606.78302001953</ele>
        <time>2012-04-17T17:15:05Z</time>
      </trkpt>
      <trkpt lat="45.77803" lon="4.64033">
        <ele>608.08599853516</ele>
        <time>2012-04-17T17:15:12Z</time>
      </trkpt>
      <trkpt lat="45.77802" lon="4.64017">
        <ele>609.35998535156</ele>
        <time>2012-04-17T17:15:17Z</time>
      </trkpt>
      <trkpt lat="45.77802" lon="4.64014">
        <ele>609.61102294922</ele>
        <time>2012-04-17T17:15:18Z</time>
      </trkpt>
      <trkpt lat="45.77805" lon="4.64011">
        <ele>611.22198486328</ele>
        <time>2012-04-17T17:15:24Z</time>
      </trkpt>
      <trkpt lat="45.77806" lon="4.64014">
        <ele>611.65997314453</ele>
        <time>2012-04-17T17:15:29Z</time>
      </trkpt>
      <trkpt lat="45.77815" lon="4.64021">
        <ele>611.17102050781</ele>
        <time>2012-04-17T17:17:10Z</time>
      </trkpt>
      <trkpt lat="45.77822" lon="4.64034">
        <ele>611.89898681641</ele>
        <time>2012-04-17T17:17:17Z</time>
      </trkpt>
      <trkpt lat="45.77828" lon="4.64052">
        <ele>612.30700683594</ele>
        <time>2012-04-17T17:17:24Z</time>
      </trkpt>
      <trkpt lat="45.77834" lon="4.64072">
        <ele>612.65600585938</ele>
        <time>2012-04-17T17:17:31Z</time>
      </trkpt>
      <trkpt lat="45.77839" lon="4.64087">
        <ele>613.42297363281</ele>
        <time>2012-04-17T17:17:37Z</time>
      </trkpt>
      <trkpt lat="45.77843" lon="4.64101">
        <ele>614.28497314453</ele>
        <time>2012-04-17T17:17:43Z</time>
      </trkpt>
      <trkpt lat="45.77849" lon="4.64117">
        <ele>615.70300292969</ele>
        <time>2012-04-17T17:17:50Z</time>
      </trkpt>
      <trkpt lat="45.77855" lon="4.64133">
        <ele>617.04998779297</ele>
        <time>2012-04-17T17:17:57Z</time>
      </trkpt>
      <trkpt lat="45.77863" lon="4.64147">
        <ele>618.92700195312</ele>
        <time>2012-04-17T17:18:04Z</time>
      </trkpt>
      <trkpt lat="45.77868" lon="4.64162">
        <ele>620.32397460938</ele>
        <time>2012-04-17T17:18:11Z</time>
      </trkpt>
      <trkpt lat="45.77871" lon="4.64173">
        <ele>621.40301513672</ele>
        <time>2012-04-17T17:18:16Z</time>
      </trkpt>
      <trkpt lat="45.77875" lon="4.64179">
        <ele>622.02801513672</ele>
        <time>2012-04-17T17:18:20Z</time>
      </trkpt>
      <trkpt lat="45.77885" lon="4.64196">
        <ele>623.01098632812</ele>
        <time>2012-04-17T17:18:28Z</time>
      </trkpt>
      <trkpt lat="45.77893" lon="4.6421">
        <ele>624.06500244141</ele>
        <time>2012-04-17T17:18:35Z</time>
      </trkpt>
      <trkpt lat="45.779" lon="4.64222">
        <ele>624.95001220703</ele>
        <time>2012-04-17T17:18:41Z</time>
      </trkpt>
      <trkpt lat="45.77901" lon="4.64224">
        <ele>625.14099121094</ele>
        <time>2012-04-17T17:18:42Z</time>
      </trkpt>
      <trkpt lat="45.77909" lon="4.64237">
        <ele>626.08502197266</ele>
        <time>2012-04-17T17:18:49Z</time>
      </trkpt>
      <trkpt lat="45.77915" lon="4.6425">
        <ele>627.02301025391</ele>
        <time>2012-04-17T17:18:55Z</time>
      </trkpt>
      <trkpt lat="45.77919" lon="4.64262">
        <ele>627.86297607422</ele>
        <time>2012-04-17T17:19:00Z</time>
      </trkpt>
      <trkpt lat="45.77926" lon="4.64283">
        <ele>629.25598144531</ele>
        <time>2012-04-17T17:19:09Z</time>
      </trkpt>
      <trkpt lat="45.77934" lon="4.64293">
        <ele>630.60498046875</ele>
        <time>2012-04-17T17:19:15Z</time>
      </trkpt>
      <trkpt lat="45.77936" lon="4.64295">
        <ele>631.19500732422</ele>
        <time>2012-04-17T17:19:17Z</time>
      </trkpt>
      <trkpt lat="45.77943" lon="4.64297">
        <ele>632.95001220703</ele>
        <time>2012-04-17T17:19:23Z</time>
      </trkpt>
      <trkpt lat="45.77946" lon="4.64288">
        <ele>634.39599609375</ele>
        <time>2012-04-17T17:19:29Z</time>
      </trkpt>
      <trkpt lat="45.77946" lon="4.64287">
        <ele>634.64398193359</ele>
        <time>2012-04-17T17:19:30Z</time>
      </trkpt>
      <trkpt lat="45.77951" lon="4.64274">
        <ele>636.55603027344</ele>
        <time>2012-04-17T17:19:39Z</time>
      </trkpt>
      <trkpt lat="45.77956" lon="4.64262">
        <ele>638.84197998047</ele>
        <time>2012-04-17T17:19:47Z</time>
      </trkpt>
      <trkpt lat="45.77962" lon="4.64246">
        <ele>641.76202392578</ele>
        <time>2012-04-17T17:19:57Z</time>
      </trkpt>
      <trkpt lat="45.77963" lon="4.6424">
        <ele>643.64398193359</ele>
        <time>2012-04-17T17:20:03Z</time>
      </trkpt>
      <trkpt lat="45.77965" lon="4.64233">
        <ele>644.52099609375</ele>
        <time>2012-04-17T17:20:09Z</time>
      </trkpt>
      <trkpt lat="45.77968" lon="4.64224">
        <ele>646.07800292969</ele>
        <time>2012-04-17T17:20:17Z</time>
      </trkpt>
      <trkpt lat="45.7797" lon="4.64217">
        <ele>647.38397216797</ele>
        <time>2012-04-17T17:20:24Z</time>
      </trkpt>
      <trkpt lat="45.77972" lon="4.64213">
        <ele>648.48199462891</ele>
        <time>2012-04-17T17:20:31Z</time>
      </trkpt>
      <trkpt lat="45.77979" lon="4.64194">
        <ele>650.20501708984</ele>
        <time>2012-04-17T17:20:42Z</time>
      </trkpt>
      <trkpt lat="45.77984" lon="4.64182">
        <ele>651.73999023438</ele>
        <time>2012-04-17T17:20:48Z</time>
      </trkpt>
      <trkpt lat="45.77989" lon="4.64169">
        <ele>653.21600341797</ele>
        <time>2012-04-17T17:20:55Z</time>
      </trkpt>
      <trkpt lat="45.7799" lon="4.64167">
        <ele>653.40600585938</ele>
        <time>2012-04-17T17:20:56Z</time>
      </trkpt>
      <trkpt lat="45.77996" lon="4.64164">
        <ele>654.14697265625</ele>
        <time>2012-04-17T17:21:00Z</time>
      </trkpt>
      <trkpt lat="45.78006" lon="4.64173">
        <ele>655.55700683594</ele>
        <time>2012-04-17T17:21:07Z</time>
      </trkpt>
      <trkpt lat="45.78012" lon="4.64185">
        <ele>656.56402587891</ele>
        <time>2012-04-17T17:21:13Z</time>
      </trkpt>
      <trkpt lat="45.78014" lon="4.64206">
        <ele>658.03100585938</ele>
        <time>2012-04-17T17:21:19Z</time>
      </trkpt>
      <trkpt lat="45.78018" lon="4.64231">
        <ele>659.01098632812</ele>
        <time>2012-04-17T17:21:26Z</time>
      </trkpt>
      <trkpt lat="45.7802" lon="4.64245">
        <ele>660.21997070312</ele>
        <time>2012-04-17T17:21:32Z</time>
      </trkpt>
      <trkpt lat="45.78022" lon="4.64258">
        <ele>660.65002441406</ele>
        <time>2012-04-17T17:21:39Z</time>
      </trkpt>
      <trkpt lat="45.78024" lon="4.64273">
        <ele>661.08001708984</ele>
        <time>2012-04-17T17:21:46Z</time>
      </trkpt>
      <trkpt lat="45.78024" lon="4.64275">
        <ele>661.3740234375</ele>
        <time>2012-04-17T17:21:50Z</time>
      </trkpt>
      <trkpt lat="45.78026" lon="4.64281">
        <ele>661.24499511719</ele>
        <time>2012-04-17T17:23:09Z</time>
      </trkpt>
      <trkpt lat="45.78035" lon="4.64296">
        <ele>661.50701904297</ele>
        <time>2012-04-17T17:23:15Z</time>
      </trkpt>
      <trkpt lat="45.78042" lon="4.64308">
        <ele>662.17901611328</ele>
        <time>2012-04-17T17:23:20Z</time>
      </trkpt>
      <trkpt lat="45.78058" lon="4.64316">
        <ele>663.70098876953</ele>
        <time>2012-04-17T17:23:28Z</time>
      </trkpt>
      <trkpt lat="45.78071" lon="4.64318">
        <ele>664.76300048828</ele>
        <time>2012-04-17T17:23:34Z</time>
      </trkpt>
      <trkpt lat="45.78085" lon="4.6432">
        <ele>664.98901367188</ele>
        <time>2012-04-17T17:23:39Z</time>
      </trkpt>
      <trkpt lat="45.78091" lon="4.64319">
        <ele>665.09698486328</ele>
        <time>2012-04-17T17:23:41Z</time>
      </trkpt>
      <trkpt lat="45.78103" lon="4.64328">
        <ele>664.93402099609</ele>
        <time>2012-04-17T17:23:46Z</time>
      </trkpt>
      <trkpt lat="45.78105" lon="4.64338">
        <ele>664.40002441406</ele>
        <time>2012-04-17T17:23:50Z</time>
      </trkpt>
      <trkpt lat="45.78106" lon="4.64339">
        <ele>664.29302978516</ele>
        <time>2012-04-17T17:23:51Z</time>
      </trkpt>
      <trkpt lat="45.78111" lon="4.64348">
        <ele>663.71301269531</ele>
        <time>2012-04-17T17:23:56Z</time>
      </trkpt>
      <trkpt lat="45.78115" lon="4.64348">
        <ele>662.59497070312</ele>
        <time>2012-04-17T17:24:03Z</time>
      </trkpt>
      <trkpt lat="45.7812" lon="4.64348">
        <ele>662.62701416016</ele>
        <time>2012-04-17T17:24:35Z</time>
      </trkpt>
      <trkpt lat="45.78125" lon="4.64348">
        <ele>662.59600830078</ele>
        <time>2012-04-17T17:24:42Z</time>
      </trkpt>
      <trkpt lat="45.78132" lon="4.64345">
        <ele>662.59100341797</ele>
        <time>2012-04-17T17:24:47Z</time>
      </trkpt>
      <trkpt lat="45.78138" lon="4.64341">
        <ele>662.54699707031</ele>
        <time>2012-04-17T17:24:50Z</time>
      </trkpt>
      <trkpt lat="45.78148" lon="4.64336">
        <ele>662.32598876953</ele>
        <time>2012-04-17T17:24:55Z</time>
      </trkpt>
      <trkpt lat="45.78161" lon="4.64327">
        <ele>662.15197753906</ele>
        <time>2012-04-17T17:24:59Z</time>
      </trkpt>
      <trkpt lat="45.78172" lon="4.64326">
        <ele>661.64300537109</ele>
        <time>2012-04-17T17:25:02Z</time>
      </trkpt>
      <trkpt lat="45.7819" lon="4.64318">
        <ele>660.19396972656</ele>
        <time>2012-04-17T17:25:08Z</time>
      </trkpt>
      <trkpt lat="45.78203" lon="4.64311">
        <ele>659.57397460938</ele>
        <time>2012-04-17T17:25:11Z</time>
      </trkpt>
      <trkpt lat="45.78221" lon="4.64298">
        <ele>658.7509765625</ele>
        <time>2012-04-17T17:25:16Z</time>
      </trkpt>
      <trkpt lat="45.78234" lon="4.64298">
        <ele>657.59497070312</ele>
        <time>2012-04-17T17:25:20Z</time>
      </trkpt>
      <trkpt lat="45.78244" lon="4.64291">
        <ele>657.24298095703</ele>
        <time>2012-04-17T17:25:22Z</time>
      </trkpt>
      <trkpt lat="45.78272" lon="4.64258">
        <ele>653.26800537109</ele>
        <time>2012-04-17T17:25:28Z</time>
      </trkpt>
      <trkpt lat="45.78284" lon="4.64259">
        <ele>650.39697265625</ele>
        <time>2012-04-17T17:25:31Z</time>
      </trkpt>
      <trkpt lat="45.78287" lon="4.64265">
        <ele>649.62701416016</ele>
        <time>2012-04-17T17:25:32Z</time>
      </trkpt>
      <trkpt lat="45.78294" lon="4.64278">
        <ele>648.44702148438</ele>
        <time>2012-04-17T17:25:34Z</time>
      </trkpt>
      <trkpt lat="45.7831" lon="4.64317">
        <ele>647.14501953125</ele>
        <time>2012-04-17T17:25:40Z</time>
      </trkpt>
      <trkpt lat="45.78313" lon="4.64322">
        <ele>646.94097900391</ele>
        <time>2012-04-17T17:25:41Z</time>
      </trkpt>
      <trkpt lat="45.7833" lon="4.64336">
        <ele>646.10198974609</ele>
        <time>2012-04-17T17:25:45Z</time>
      </trkpt>
      <trkpt lat="45.78328" lon="4.64348">
        <ele>645.833984375</ele>
        <time>2012-04-17T17:25:48Z</time>
      </trkpt>
      <trkpt lat="45.78322" lon="4.64359">
        <ele>645.69500732422</ele>
        <time>2012-04-17T17:25:51Z</time>
      </trkpt>
      <trkpt lat="45.78318" lon="4.6439">
        <ele>646.12097167969</ele>
        <time>2012-04-17T17:25:58Z</time>
      </trkpt>
      <trkpt lat="45.78319" lon="4.64412">
        <ele>646.6240234375</ele>
        <time>2012-04-17T17:26:03Z</time>
      </trkpt>
      <trkpt lat="45.7832" lon="4.64434">
        <ele>646.80499267578</ele>
        <time>2012-04-17T17:26:08Z</time>
      </trkpt>
      <trkpt lat="45.78326" lon="4.64446">
        <ele>646.66998291016</ele>
        <time>2012-04-17T17:26:12Z</time>
      </trkpt>
      <trkpt lat="45.78326" lon="4.64449">
        <ele>646.39099121094</ele>
        <time>2012-04-17T17:26:16Z</time>
      </trkpt>
      <trkpt lat="45.78327" lon="4.64455">
        <ele>646.41900634766</ele>
        <time>2012-04-17T17:26:29Z</time>
      </trkpt>
      <trkpt lat="45.7833" lon="4.64464">
        <ele>646.11102294922</ele>
        <time>2012-04-17T17:26:34Z</time>
      </trkpt>
      <trkpt lat="45.78329" lon="4.64464">
        <ele>645.92700195312</ele>
        <time>2012-04-17T17:26:36Z</time>
      </trkpt>
      <trkpt lat="45.78329" lon="4.64458">
        <ele>645.78698730469</ele>
        <time>2012-04-17T17:26:43Z</time>
      </trkpt>
      <trkpt lat="45.78328" lon="4.64457">
        <ele>645.77502441406</ele>
        <time>2012-04-17T17:26:44Z</time>
      </trkpt>
      <trkpt lat="45.78329" lon="4.64451">
        <ele>646.05700683594</ele>
        <time>2012-04-17T17:26:49Z</time>
      </trkpt>
      <trkpt lat="45.78339" lon="4.64444">
        <ele>646.53601074219</ele>
        <time>2012-04-17T17:26:55Z</time>
      </trkpt>
      <trkpt lat="45.78349" lon="4.64437">
        <ele>647.08197021484</ele>
        <time>2012-04-17T17:27:00Z</time>
      </trkpt>
      <trkpt lat="45.78357" lon="4.64426">
        <ele>647.99401855469</ele>
        <time>2012-04-17T17:27:06Z</time>
      </trkpt>
      <trkpt lat="45.78359" lon="4.64421">
        <ele>648.24798583984</ele>
        <time>2012-04-17T17:27:08Z</time>
      </trkpt>
      <trkpt lat="45.7837" lon="4.64419">
        <ele>648.99798583984</ele>
        <time>2012-04-17T17:27:13Z</time>
      </trkpt>
      <trkpt lat="45.78373" lon="4.6442">
        <ele>649.08599853516</ele>
        <time>2012-04-17T17:27:14Z</time>
      </trkpt>
      <trkpt lat="45.78391" lon="4.64438">
        <ele>649.45001220703</ele>
        <time>2012-04-17T17:27:22Z</time>
      </trkpt>
      <trkpt lat="45.78394" lon="4.64449">
        <ele>649.35198974609</ele>
        <time>2012-04-17T17:27:25Z</time>
      </trkpt>
      <trkpt lat="45.7841" lon="4.64471">
        <ele>647.88500976562</ele>
        <time>2012-04-17T17:27:31Z</time>
      </trkpt>
      <trkpt lat="45.78425" lon="4.64489">
        <ele>645.69500732422</ele>
        <time>2012-04-17T17:27:36Z</time>
      </trkpt>
      <trkpt lat="45.78424" lon="4.64506">
        <ele>644.57897949219</ele>
        <time>2012-04-17T17:27:40Z</time>
      </trkpt>
      <trkpt lat="45.78432" lon="4.64533">
        <ele>643.74499511719</ele>
        <time>2012-04-17T17:27:44Z</time>
      </trkpt>
      <trkpt lat="45.78435" lon="4.6454">
        <ele>643.74200439453</ele>
        <time>2012-04-17T17:27:45Z</time>
      </trkpt>
      <trkpt lat="45.7846" lon="4.64571">
        <ele>643.12298583984</ele>
        <time>2012-04-17T17:27:50Z</time>
      </trkpt>
      <trkpt lat="45.78469" lon="4.64602">
        <ele>642.21398925781</ele>
        <time>2012-04-17T17:27:55Z</time>
      </trkpt>
      <trkpt lat="45.78472" lon="4.64614">
        <ele>641.73400878906</ele>
        <time>2012-04-17T17:27:57Z</time>
      </trkpt>
      <trkpt lat="45.78481" lon="4.64637">
        <ele>642.10498046875</ele>
        <time>2012-04-17T17:28:02Z</time>
      </trkpt>
      <trkpt lat="45.78489" lon="4.64658">
        <ele>643.88000488281</ele>
        <time>2012-04-17T17:28:07Z</time>
      </trkpt>
      <trkpt lat="45.78497" lon="4.64685">
        <ele>645.65600585938</ele>
        <time>2012-04-17T17:28:13Z</time>
      </trkpt>
      <trkpt lat="45.78503" lon="4.64706">
        <ele>646.84399414062</ele>
        <time>2012-04-17T17:28:18Z</time>
      </trkpt>
      <trkpt lat="45.7851" lon="4.64726">
        <ele>647.63897705078</ele>
        <time>2012-04-17T17:28:24Z</time>
      </trkpt>
      <trkpt lat="45.78514" lon="4.64735">
        <ele>647.65698242188</ele>
        <time>2012-04-17T17:28:27Z</time>
      </trkpt>
      <trkpt lat="45.78519" lon="4.6475">
        <ele>647.77899169922</ele>
        <time>2012-04-17T17:28:32Z</time>
      </trkpt>
      <trkpt lat="45.7852" lon="4.64772">
        <ele>647.43902587891</ele>
        <time>2012-04-17T17:28:37Z</time>
      </trkpt>
      <trkpt lat="45.78523" lon="4.64779">
        <ele>647.27697753906</ele>
        <time>2012-04-17T17:28:39Z</time>
      </trkpt>
      <trkpt lat="45.78533" lon="4.64781">
        <ele>647.13897705078</ele>
        <time>2012-04-17T17:28:46Z</time>
      </trkpt>
      <trkpt lat="45.78537" lon="4.64782">
        <ele>646.96099853516</ele>
        <time>2012-04-17T17:28:49Z</time>
      </trkpt>
      <trkpt lat="45.78543" lon="4.64792">
        <ele>646.39599609375</ele>
        <time>2012-04-17T17:28:54Z</time>
      </trkpt>
      <trkpt lat="45.78547" lon="4.64799">
        <ele>645.916015625</ele>
        <time>2012-04-17T17:28:56Z</time>
      </trkpt>
      <trkpt lat="45.78551" lon="4.64805">
        <ele>645.41497802734</ele>
        <time>2012-04-17T17:28:58Z</time>
      </trkpt>
      <trkpt lat="45.78563" lon="4.64814">
        <ele>643.81097412109</ele>
        <time>2012-04-17T17:29:03Z</time>
      </trkpt>
      <trkpt lat="45.78565" lon="4.64817">
        <ele>642.39697265625</ele>
        <time>2012-04-17T17:29:08Z</time>
      </trkpt>
      <trkpt lat="45.78576" lon="4.64822">
        <ele>641.26800537109</ele>
        <time>2012-04-17T17:29:14Z</time>
      </trkpt>
      <trkpt lat="45.78585" lon="4.64829">
        <ele>639.84899902344</ele>
        <time>2012-04-17T17:29:18Z</time>
      </trkpt>
      <trkpt lat="45.78601" lon="4.64843">
        <ele>637.08801269531</ele>
        <time>2012-04-17T17:29:25Z</time>
      </trkpt>
      <trkpt lat="45.78609" lon="4.64843">
        <ele>635.95202636719</ele>
        <time>2012-04-17T17:29:29Z</time>
      </trkpt>
      <trkpt lat="45.78619" lon="4.64844">
        <ele>634.55499267578</ele>
        <time>2012-04-17T17:29:34Z</time>
      </trkpt>
      <trkpt lat="45.78625" lon="4.64846">
        <ele>633.28802490234</ele>
        <time>2012-04-17T17:29:38Z</time>
      </trkpt>
      <trkpt lat="45.78633" lon="4.64839">
        <ele>630.86297607422</ele>
        <time>2012-04-17T17:29:44Z</time>
      </trkpt>
      <trkpt lat="45.78635" lon="4.64834">
        <ele>630.37701416016</ele>
        <time>2012-04-17T17:29:46Z</time>
      </trkpt>
      <trkpt lat="45.78641" lon="4.64818">
        <ele>629.1259765625</ele>
        <time>2012-04-17T17:29:50Z</time>
      </trkpt>
      <trkpt lat="45.78648" lon="4.64822">
        <ele>627.15301513672</ele>
        <time>2012-04-17T17:29:55Z</time>
      </trkpt>
      <trkpt lat="45.78651" lon="4.64825">
        <ele>625.86798095703</ele>
        <time>2012-04-17T17:30:01Z</time>
      </trkpt>
      <trkpt lat="45.78658" lon="4.64829">
        <ele>624.80499267578</ele>
        <time>2012-04-17T17:30:22Z</time>
      </trkpt>
      <trkpt lat="45.78671" lon="4.64836">
        <ele>623.12799072266</ele>
        <time>2012-04-17T17:30:27Z</time>
      </trkpt>
      <trkpt lat="45.7868" lon="4.64842">
        <ele>620.82299804688</ele>
        <time>2012-04-17T17:30:30Z</time>
      </trkpt>
      <trkpt lat="45.78683" lon="4.64846">
        <ele>619.72802734375</ele>
        <time>2012-04-17T17:30:31Z</time>
      </trkpt>
      <trkpt lat="45.78692" lon="4.64854">
        <ele>617.52197265625</ele>
        <time>2012-04-17T17:30:33Z</time>
      </trkpt>
      <trkpt lat="45.78702" lon="4.64883">
        <ele>612.85998535156</ele>
        <time>2012-04-17T17:30:38Z</time>
      </trkpt>
      <trkpt lat="45.78713" lon="4.64904">
        <ele>608.87200927734</ele>
        <time>2012-04-17T17:30:43Z</time>
      </trkpt>
      <trkpt lat="45.78711" lon="4.64928">
        <ele>605.25402832031</ele>
        <time>2012-04-17T17:30:47Z</time>
      </trkpt>
      <trkpt lat="45.78711" lon="4.64933">
        <ele>604.22198486328</ele>
        <time>2012-04-17T17:30:48Z</time>
      </trkpt>
      <trkpt lat="45.78718" lon="4.64942">
        <ele>602.166015625</ele>
        <time>2012-04-17T17:30:51Z</time>
      </trkpt>
      <trkpt lat="45.7873" lon="4.64948">
        <ele>597.82397460938</ele>
        <time>2012-04-17T17:30:55Z</time>
      </trkpt>
      <trkpt lat="45.78749" lon="4.64961">
        <ele>593.46600341797</ele>
        <time>2012-04-17T17:30:59Z</time>
      </trkpt>
      <trkpt lat="45.78765" lon="4.64972">
        <ele>590.13000488281</ele>
        <time>2012-04-17T17:31:02Z</time>
      </trkpt>
      <trkpt lat="45.78772" lon="4.64983">
        <ele>586.85400390625</ele>
        <time>2012-04-17T17:31:05Z</time>
      </trkpt>
      <trkpt lat="45.78788" lon="4.64996">
        <ele>583.28802490234</ele>
        <time>2012-04-17T17:31:10Z</time>
      </trkpt>
      <trkpt lat="45.78791" lon="4.65">
        <ele>582.77001953125</ele>
        <time>2012-04-17T17:31:11Z</time>
      </trkpt>
      <trkpt lat="45.78797" lon="4.65009">
        <ele>581.79797363281</ele>
        <time>2012-04-17T17:31:13Z</time>
      </trkpt>
      <trkpt lat="45.78822" lon="4.65038">
        <ele>579.40002441406</ele>
        <time>2012-04-17T17:31:19Z</time>
      </trkpt>
      <trkpt lat="45.78827" lon="4.65043">
        <ele>578.98400878906</ele>
        <time>2012-04-17T17:31:20Z</time>
      </trkpt>
      <trkpt lat="45.78842" lon="4.65061">
        <ele>576.38299560547</ele>
        <time>2012-04-17T17:31:24Z</time>
      </trkpt>
      <trkpt lat="45.78861" lon="4.65079">
        <ele>571.83898925781</ele>
        <time>2012-04-17T17:31:29Z</time>
      </trkpt>
      <trkpt lat="45.78874" lon="4.65092">
        <ele>568</ele>
        <time>2012-04-17T17:31:33Z</time>
      </trkpt>
      <trkpt lat="45.78886" lon="4.65102">
        <ele>564.27801513672</ele>
        <time>2012-04-17T17:31:37Z</time>
      </trkpt>
      <trkpt lat="45.78888" lon="4.65117">
        <ele>561.65502929688</ele>
        <time>2012-04-17T17:31:41Z</time>
      </trkpt>
      <trkpt lat="45.78896" lon="4.65121">
        <ele>559.07299804688</ele>
        <time>2012-04-17T17:31:44Z</time>
      </trkpt>
      <trkpt lat="45.78917" lon="4.65131">
        <ele>556.25897216797</ele>
        <time>2012-04-17T17:31:48Z</time>
      </trkpt>
      <trkpt lat="45.78933" lon="4.65156">
        <ele>553.90399169922</ele>
        <time>2012-04-17T17:31:51Z</time>
      </trkpt>
      <trkpt lat="45.78944" lon="4.65189">
        <ele>549.11798095703</ele>
        <time>2012-04-17T17:31:55Z</time>
      </trkpt>
      <trkpt lat="45.78952" lon="4.65205">
        <ele>545.34997558594</ele>
        <time>2012-04-17T17:31:58Z</time>
      </trkpt>
      <trkpt lat="45.78961" lon="4.65213">
        <ele>543.57702636719</ele>
        <time>2012-04-17T17:32:00Z</time>
      </trkpt>
      <trkpt lat="45.78989" lon="4.65236">
        <ele>540.31597900391</ele>
        <time>2012-04-17T17:32:05Z</time>
      </trkpt>
      <trkpt lat="45.78998" lon="4.65242">
        <ele>539.61901855469</ele>
        <time>2012-04-17T17:32:07Z</time>
      </trkpt>
      <trkpt lat="45.78996" lon="4.65242">
        <ele>538.74401855469</ele>
        <time>2012-04-17T17:32:09Z</time>
      </trkpt>
      <trkpt lat="45.78992" lon="4.65248">
        <ele>537.63598632812</ele>
        <time>2012-04-17T17:32:21Z</time>
      </trkpt>
      <trkpt lat="45.78996" lon="4.65259">
        <ele>537.48199462891</ele>
        <time>2012-04-17T17:32:25Z</time>
      </trkpt>
      <trkpt lat="45.78998" lon="4.65288">
        <ele>536.77197265625</ele>
        <time>2012-04-17T17:32:31Z</time>
      </trkpt>
      <trkpt lat="45.78998" lon="4.65324">
        <ele>536.23101806641</ele>
        <time>2012-04-17T17:32:36Z</time>
      </trkpt>
      <trkpt lat="45.78996" lon="4.65365">
        <ele>535.61499023438</ele>
        <time>2012-04-17T17:32:41Z</time>
      </trkpt>
      <trkpt lat="45.78993" lon="4.654">
        <ele>533.82598876953</ele>
        <time>2012-04-17T17:32:46Z</time>
      </trkpt>
      <trkpt lat="45.78992" lon="4.65412">
        <ele>532.61199951172</ele>
        <time>2012-04-17T17:32:48Z</time>
      </trkpt>
      <trkpt lat="45.78988" lon="4.65426">
        <ele>531.30902099609</ele>
        <time>2012-04-17T17:32:50Z</time>
      </trkpt>
      <trkpt lat="45.78983" lon="4.65448">
        <ele>528.01898193359</ele>
        <time>2012-04-17T17:32:55Z</time>
      </trkpt>
      <trkpt lat="45.78981" lon="4.65451">
        <ele>527.46398925781</ele>
        <time>2012-04-17T17:32:56Z</time>
      </trkpt>
      <trkpt lat="45.78981" lon="4.65471">
        <ele>525.69201660156</ele>
        <time>2012-04-17T17:33:01Z</time>
      </trkpt>
      <trkpt lat="45.78981" lon="4.65475">
        <ele>525.29302978516</ele>
        <time>2012-04-17T17:33:02Z</time>
      </trkpt>
      <trkpt lat="45.78984" lon="4.65503">
        <ele>523.73199462891</ele>
        <time>2012-04-17T17:33:06Z</time>
      </trkpt>
      <trkpt lat="45.78992" lon="4.65541">
        <ele>522.47302246094</ele>
        <time>2012-04-17T17:33:10Z</time>
      </trkpt>
      <trkpt lat="45.78999" lon="4.65561">
        <ele>521.90399169922</ele>
        <time>2012-04-17T17:33:12Z</time>
      </trkpt>
      <trkpt lat="45.79008" lon="4.65609">
        <ele>519.71997070312</ele>
        <time>2012-04-17T17:33:17Z</time>
      </trkpt>
      <trkpt lat="45.79023" lon="4.65642">
        <ele>517.79699707031</ele>
        <time>2012-04-17T17:33:21Z</time>
      </trkpt>
      <trkpt lat="45.79041" lon="4.65666">
        <ele>516.63000488281</ele>
        <time>2012-04-17T17:33:24Z</time>
      </trkpt>
      <trkpt lat="45.79074" lon="4.65698">
        <ele>513.31097412109</ele>
        <time>2012-04-17T17:33:29Z</time>
      </trkpt>
      <trkpt lat="45.79099" lon="4.6572">
        <ele>511.32699584961</ele>
        <time>2012-04-17T17:33:33Z</time>
      </trkpt>
      <trkpt lat="45.79104" lon="4.6573">
        <ele>510.69400024414</ele>
        <time>2012-04-17T17:33:35Z</time>
      </trkpt>
      <trkpt lat="45.7909" lon="4.65739">
        <ele>509.87100219727</ele>
        <time>2012-04-17T17:33:39Z</time>
      </trkpt>
      <trkpt lat="45.79086" lon="4.6575">
        <ele>509.81500244141</ele>
        <time>2012-04-17T17:33:42Z</time>
      </trkpt>
      <trkpt lat="45.79084" lon="4.6577">
        <ele>510.24099731445</ele>
        <time>2012-04-17T17:33:48Z</time>
      </trkpt>
      <trkpt lat="45.79085" lon="4.6579">
        <ele>511.21200561523</ele>
        <time>2012-04-17T17:33:54Z</time>
      </trkpt>
      <trkpt lat="45.79085" lon="4.65805">
        <ele>512.18103027344</ele>
        <time>2012-04-17T17:33:59Z</time>
      </trkpt>
      <trkpt lat="45.79087" lon="4.65821">
        <ele>513.78100585938</ele>
        <time>2012-04-17T17:34:05Z</time>
      </trkpt>
      <trkpt lat="45.79088" lon="4.65836">
        <ele>515.68701171875</ele>
        <time>2012-04-17T17:34:12Z</time>
      </trkpt>
      <trkpt lat="45.79092" lon="4.65848">
        <ele>517.24798583984</ele>
        <time>2012-04-17T17:34:19Z</time>
      </trkpt>
      <trkpt lat="45.79099" lon="4.65862">
        <ele>519.59497070312</ele>
        <time>2012-04-17T17:34:27Z</time>
      </trkpt>
      <trkpt lat="45.7911" lon="4.6587">
        <ele>520.84997558594</ele>
        <time>2012-04-17T17:34:34Z</time>
      </trkpt>
      <trkpt lat="45.79125" lon="4.65873">
        <ele>521.77899169922</ele>
        <time>2012-04-17T17:34:42Z</time>
      </trkpt>
      <trkpt lat="45.79142" lon="4.65877">
        <ele>522.45202636719</ele>
        <time>2012-04-17T17:34:51Z</time>
      </trkpt>
      <trkpt lat="45.79157" lon="4.65881">
        <ele>523.29998779297</ele>
        <time>2012-04-17T17:34:59Z</time>
      </trkpt>
      <trkpt lat="45.79169" lon="4.65884">
        <ele>524.27801513672</ele>
        <time>2012-04-17T17:35:06Z</time>
      </trkpt>
      <trkpt lat="45.7918" lon="4.65886">
        <ele>525.78601074219</ele>
        <time>2012-04-17T17:35:13Z</time>
      </trkpt>
      <trkpt lat="45.79186" lon="4.65885">
        <ele>527.51000976562</ele>
        <time>2012-04-17T17:35:18Z</time>
      </trkpt>
      <trkpt lat="45.79194" lon="4.65883">
        <ele>528.72198486328</ele>
        <time>2012-04-17T17:35:24Z</time>
      </trkpt>
      <trkpt lat="45.79205" lon="4.65887">
        <ele>529.57800292969</ele>
        <time>2012-04-17T17:35:31Z</time>
      </trkpt>
      <trkpt lat="45.79211" lon="4.65889">
        <ele>530.67102050781</ele>
        <time>2012-04-17T17:35:36Z</time>
      </trkpt>
      <trkpt lat="45.79221" lon="4.65896">
        <ele>531.94897460938</ele>
        <time>2012-04-17T17:35:43Z</time>
      </trkpt>
      <trkpt lat="45.79222" lon="4.65897">
        <ele>532.1259765625</ele>
        <time>2012-04-17T17:35:44Z</time>
      </trkpt>
      <trkpt lat="45.79232" lon="4.65902">
        <ele>533.73400878906</ele>
        <time>2012-04-17T17:35:51Z</time>
      </trkpt>
      <trkpt lat="45.79248" lon="4.6591">
        <ele>535.75598144531</ele>
        <time>2012-04-17T17:36:00Z</time>
      </trkpt>
      <trkpt lat="45.7926" lon="4.65915">
        <ele>537.04901123047</ele>
        <time>2012-04-17T17:36:06Z</time>
      </trkpt>
      <trkpt lat="45.79273" lon="4.65924">
        <ele>537.66400146484</ele>
        <time>2012-04-17T17:36:13Z</time>
      </trkpt>
      <trkpt lat="45.7933" lon="4.66327">
        <ele>564.625</ele>
        <time>2012-04-17T17:38:46Z</time>
      </trkpt>
      <trkpt lat="45.79322" lon="4.6633">
        <ele>559.42401123047</ele>
        <time>2012-04-17T17:38:53Z</time>
      </trkpt>
      <trkpt lat="45.79316" lon="4.66332">
        <ele>555.12097167969</ele>
        <time>2012-04-17T17:39:00Z</time>
      </trkpt>
      <trkpt lat="45.79314" lon="4.66331">
        <ele>550.55297851562</ele>
        <time>2012-04-17T17:39:09Z</time>
      </trkpt>
      <trkpt lat="45.79307" lon="4.66329">
        <ele>541.47601318359</ele>
        <time>2012-04-17T17:39:54Z</time>
      </trkpt>
      <trkpt lat="45.79305" lon="4.6633">
        <ele>540.30297851562</ele>
        <time>2012-04-17T17:40:03Z</time>
      </trkpt>
      <trkpt lat="45.79306" lon="4.66337">
        <ele>538.52301025391</ele>
        <time>2012-04-17T17:40:21Z</time>
      </trkpt>
      <trkpt lat="45.79307" lon="4.66339">
        <ele>536.77899169922</ele>
        <time>2012-04-17T17:40:31Z</time>
      </trkpt>
      <trkpt lat="45.79309" lon="4.66347">
        <ele>536.22698974609</ele>
        <time>2012-04-17T17:40:37Z</time>
      </trkpt>
      <trkpt lat="45.79317" lon="4.66357">
        <ele>533.89801025391</ele>
        <time>2012-04-17T17:40:41Z</time>
      </trkpt>
      <trkpt lat="45.79316" lon="4.66366">
        <ele>531.74401855469</ele>
        <time>2012-04-17T17:40:44Z</time>
      </trkpt>
      <trkpt lat="45.79313" lon="4.66369">
        <ele>530.41802978516</ele>
        <time>2012-04-17T17:40:45Z</time>
      </trkpt>
      <trkpt lat="45.79306" lon="4.66375">
        <ele>526.42999267578</ele>
        <time>2012-04-17T17:40:49Z</time>
      </trkpt>
      <trkpt lat="45.79306" lon="4.66388">
        <ele>522.63500976562</ele>
        <time>2012-04-17T17:40:54Z</time>
      </trkpt>
      <trkpt lat="45.79314" lon="4.66396">
        <ele>520.16998291016</ele>
        <time>2012-04-17T17:40:57Z</time>
      </trkpt>
      <trkpt lat="45.79318" lon="4.66401">
        <ele>518.25</ele>
        <time>2012-04-17T17:40:59Z</time>
      </trkpt>
      <trkpt lat="45.79324" lon="4.66405">
        <ele>516.15802001953</ele>
        <time>2012-04-17T17:41:01Z</time>
      </trkpt>
      <trkpt lat="45.7933" lon="4.66417">
        <ele>511.27301025391</ele>
        <time>2012-04-17T17:41:06Z</time>
      </trkpt>
      <trkpt lat="45.79335" lon="4.66423">
        <ele>508.80499267578</ele>
        <time>2012-04-17T17:41:10Z</time>
      </trkpt>
      <trkpt lat="45.79341" lon="4.66437">
        <ele>505.06201171875</ele>
        <time>2012-04-17T17:41:14Z</time>
      </trkpt>
      <trkpt lat="45.79342" lon="4.66454">
        <ele>500.46398925781</ele>
        <time>2012-04-17T17:41:18Z</time>
      </trkpt>
      <trkpt lat="45.79336" lon="4.66476">
        <ele>495.72198486328</ele>
        <time>2012-04-17T17:41:23Z</time>
      </trkpt>
      <trkpt lat="45.79337" lon="4.66478">
        <ele>494.86700439453</ele>
        <time>2012-04-17T17:41:24Z</time>
      </trkpt>
      <trkpt lat="45.7934" lon="4.66479">
        <ele>491.36199951172</ele>
        <time>2012-04-17T17:41:31Z</time>
      </trkpt>
      <trkpt lat="45.79342" lon="4.66481">
        <ele>491.38198852539</ele>
        <time>2012-04-17T17:41:39Z</time>
      </trkpt>
      <trkpt lat="45.79334" lon="4.66488">
        <ele>493.26501464844</ele>
        <time>2012-04-17T17:45:18Z</time>
      </trkpt>
      <trkpt lat="45.79339" lon="4.6649">
        <ele>493.13598632812</ele>
        <time>2012-04-17T17:45:21Z</time>
      </trkpt>
      <trkpt lat="45.7934" lon="4.66503">
        <ele>491.98498535156</ele>
        <time>2012-04-17T17:45:25Z</time>
      </trkpt>
      <trkpt lat="45.79345" lon="4.66517">
        <ele>488.51300048828</ele>
        <time>2012-04-17T17:45:30Z</time>
      </trkpt>
      <trkpt lat="45.79343" lon="4.66529">
        <ele>485.76998901367</ele>
        <time>2012-04-17T17:45:34Z</time>
      </trkpt>
      <trkpt lat="45.79346" lon="4.66538">
        <ele>483.14498901367</ele>
        <time>2012-04-17T17:45:38Z</time>
      </trkpt>
      <trkpt lat="45.79355" lon="4.66539">
        <ele>480.38500976562</ele>
        <time>2012-04-17T17:45:42Z</time>
      </trkpt>
      <trkpt lat="45.7936" lon="4.66553">
        <ele>476.72900390625</ele>
        <time>2012-04-17T17:45:46Z</time>
      </trkpt>
      <trkpt lat="45.79362" lon="4.66559">
        <ele>475.84698486328</ele>
        <time>2012-04-17T17:45:48Z</time>
      </trkpt>
      <trkpt lat="45.79365" lon="4.66569">
        <ele>473.20098876953</ele>
        <time>2012-04-17T17:45:51Z</time>
      </trkpt>
      <trkpt lat="45.79374" lon="4.66573">
        <ele>469.78698730469</ele>
        <time>2012-04-17T17:45:57Z</time>
      </trkpt>
      <trkpt lat="45.79377" lon="4.66575">
        <ele>469.54299926758</ele>
        <time>2012-04-17T17:47:24Z</time>
      </trkpt>
      <trkpt lat="45.79377" lon="4.66577">
        <ele>469.52200317383</ele>
        <time>2012-04-17T17:47:27Z</time>
      </trkpt>
      <trkpt lat="45.79378" lon="4.66583">
        <ele>469.29000854492</ele>
        <time>2012-04-17T17:47:29Z</time>
      </trkpt>
      <trkpt lat="45.79388" lon="4.6659">
        <ele>467.60400390625</ele>
        <time>2012-04-17T17:47:34Z</time>
      </trkpt>
      <trkpt lat="45.79388" lon="4.66596">
        <ele>466.96499633789</ele>
        <time>2012-04-17T17:47:35Z</time>
      </trkpt>
      <trkpt lat="45.79393" lon="4.66618">
        <ele>463.83898925781</ele>
        <time>2012-04-17T17:47:39Z</time>
      </trkpt>
      <trkpt lat="45.79401" lon="4.66632">
        <ele>460.54000854492</ele>
        <time>2012-04-17T17:47:44Z</time>
      </trkpt>
      <trkpt lat="45.79405" lon="4.66646">
        <ele>458.66500854492</ele>
        <time>2012-04-17T17:47:48Z</time>
      </trkpt>
      <trkpt lat="45.79408" lon="4.66657">
        <ele>457.95599365234</ele>
        <time>2012-04-17T17:47:50Z</time>
      </trkpt>
      <trkpt lat="45.79423" lon="4.6669">
        <ele>455.42001342773</ele>
        <time>2012-04-17T17:47:55Z</time>
      </trkpt>
      <trkpt lat="45.79427" lon="4.66704">
        <ele>452.88000488281</ele>
        <time>2012-04-17T17:47:59Z</time>
      </trkpt>
      <trkpt lat="45.79432" lon="4.66709">
        <ele>452.23999023438</ele>
        <time>2012-04-17T17:48:01Z</time>
      </trkpt>
      <trkpt lat="45.79437" lon="4.66729">
        <ele>451.4580078125</ele>
        <time>2012-04-17T17:48:06Z</time>
      </trkpt>
      <trkpt lat="45.79436" lon="4.66749">
        <ele>450.84298706055</ele>
        <time>2012-04-17T17:48:11Z</time>
      </trkpt>
      <trkpt lat="45.79437" lon="4.66759">
        <ele>450.6780090332</ele>
        <time>2012-04-17T17:48:15Z</time>
      </trkpt>
      <trkpt lat="45.79448" lon="4.66763">
        <ele>450.22799682617</ele>
        <time>2012-04-17T17:48:21Z</time>
      </trkpt>
      <trkpt lat="45.7945" lon="4.66763">
        <ele>449.95098876953</ele>
        <time>2012-04-17T17:48:23Z</time>
      </trkpt>
      <trkpt lat="45.79459" lon="4.66762">
        <ele>449.40100097656</ele>
        <time>2012-04-17T17:48:31Z</time>
      </trkpt>
      <trkpt lat="45.7947" lon="4.66763">
        <ele>448.86599731445</ele>
        <time>2012-04-17T17:48:36Z</time>
      </trkpt>
      <trkpt lat="45.79481" lon="4.66757">
        <ele>447.92999267578</ele>
        <time>2012-04-17T17:48:40Z</time>
      </trkpt>
      <trkpt lat="45.79485" lon="4.66755">
        <ele>446.63299560547</ele>
        <time>2012-04-17T17:48:44Z</time>
      </trkpt>
      <trkpt lat="45.79486" lon="4.66753">
        <ele>446.15798950195</ele>
        <time>2012-04-17T17:48:48Z</time>
      </trkpt>
      <trkpt lat="45.79493" lon="4.66745">
        <ele>445.74099731445</ele>
        <time>2012-04-17T17:48:53Z</time>
      </trkpt>
      <trkpt lat="45.79495" lon="4.66744">
        <ele>445.51901245117</ele>
        <time>2012-04-17T17:48:54Z</time>
      </trkpt>
      <trkpt lat="45.79505" lon="4.66735">
        <ele>443.80599975586</ele>
        <time>2012-04-17T17:48:59Z</time>
      </trkpt>
      <trkpt lat="45.79507" lon="4.66732">
        <ele>441.93499755859</ele>
        <time>2012-04-17T17:49:06Z</time>
      </trkpt>
      <trkpt lat="45.79506" lon="4.66724">
        <ele>442.05700683594</ele>
        <time>2012-04-17T17:49:47Z</time>
      </trkpt>
      <trkpt lat="45.79512" lon="4.66717">
        <ele>440.45999145508</ele>
        <time>2012-04-17T17:49:53Z</time>
      </trkpt>
      <trkpt lat="45.79521" lon="4.66712">
        <ele>439.02499389648</ele>
        <time>2012-04-17T17:50:02Z</time>
      </trkpt>
      <trkpt lat="45.79523" lon="4.6671">
        <ele>438.74301147461</ele>
        <time>2012-04-17T17:50:03Z</time>
      </trkpt>
      <trkpt lat="45.79533" lon="4.66697">
        <ele>435.38000488281</ele>
        <time>2012-04-17T17:50:10Z</time>
      </trkpt>
      <trkpt lat="45.79538" lon="4.66694">
        <ele>433.1549987793</ele>
        <time>2012-04-17T17:50:14Z</time>
      </trkpt>
      <trkpt lat="45.79544" lon="4.66688">
        <ele>431.02600097656</ele>
        <time>2012-04-17T17:50:18Z</time>
      </trkpt>
      <trkpt lat="45.79551" lon="4.66683">
        <ele>427.61898803711</ele>
        <time>2012-04-17T17:50:24Z</time>
      </trkpt>
      <trkpt lat="45.79559" lon="4.66682">
        <ele>425.90701293945</ele>
        <time>2012-04-17T17:51:03Z</time>
      </trkpt>
      <trkpt lat="45.79563" lon="4.66677">
        <ele>424.59799194336</ele>
        <time>2012-04-17T17:51:06Z</time>
      </trkpt>
      <trkpt lat="45.79563" lon="4.66657">
        <ele>421.7080078125</ele>
        <time>2012-04-17T17:51:11Z</time>
      </trkpt>
      <trkpt lat="45.79562" lon="4.66643">
        <ele>420.62799072266</ele>
        <time>2012-04-17T17:51:15Z</time>
      </trkpt>
      <trkpt lat="45.79566" lon="4.66635">
        <ele>419.75</ele>
        <time>2012-04-17T17:51:22Z</time>
      </trkpt>
      <trkpt lat="45.79572" lon="4.66628">
        <ele>419.65200805664</ele>
        <time>2012-04-17T17:51:36Z</time>
      </trkpt>
      <trkpt lat="45.79575" lon="4.66625">
        <ele>419.94100952148</ele>
        <time>2012-04-17T17:51:39Z</time>
      </trkpt>
      <trkpt lat="45.79581" lon="4.66616">
        <ele>421.07501220703</ele>
        <time>2012-04-17T17:51:46Z</time>
      </trkpt>
      <trkpt lat="45.79583" lon="4.66613">
        <ele>422.32000732422</ele>
        <time>2012-04-17T17:51:51Z</time>
      </trkpt>
      <trkpt lat="45.79587" lon="4.66611">
        <ele>423.47601318359</ele>
        <time>2012-04-17T17:51:59Z</time>
      </trkpt>
      <trkpt lat="45.79594" lon="4.66606">
        <ele>423.99899291992</ele>
        <time>2012-04-17T17:52:07Z</time>
      </trkpt>
      <trkpt lat="45.79601" lon="4.66603">
        <ele>424.72698974609</ele>
        <time>2012-04-17T17:52:12Z</time>
      </trkpt>
      <trkpt lat="45.79609" lon="4.66598">
        <ele>425.73300170898</ele>
        <time>2012-04-17T17:52:18Z</time>
      </trkpt>
      <trkpt lat="45.79617" lon="4.66595">
        <ele>426.13900756836</ele>
        <time>2012-04-17T17:52:22Z</time>
      </trkpt>
      <trkpt lat="45.79623" lon="4.66587">
        <ele>426.36801147461</ele>
        <time>2012-04-17T17:52:26Z</time>
      </trkpt>
      <trkpt lat="45.79627" lon="4.66578">
        <ele>426.89999389648</ele>
        <time>2012-04-17T17:52:30Z</time>
      </trkpt>
      <trkpt lat="45.79638" lon="4.66563">
        <ele>427.7919921875</ele>
        <time>2012-04-17T17:52:37Z</time>
      </trkpt>
      <trkpt lat="45.79642" lon="4.66551">
        <ele>427.21398925781</ele>
        <time>2012-04-17T17:52:42Z</time>
      </trkpt>
      <trkpt lat="45.79642" lon="4.66549">
        <ele>427.16799926758</ele>
        <time>2012-04-17T17:52:43Z</time>
      </trkpt>
      <trkpt lat="45.79647" lon="4.66543">
        <ele>426.85101318359</ele>
        <time>2012-04-17T17:52:47Z</time>
      </trkpt>
      <trkpt lat="45.79654" lon="4.6653">
        <ele>426.41400146484</ele>
        <time>2012-04-17T17:52:52Z</time>
      </trkpt>
      <trkpt lat="45.79658" lon="4.66526">
        <ele>426.21398925781</ele>
        <time>2012-04-17T17:52:54Z</time>
      </trkpt>
      <trkpt lat="45.79662" lon="4.66517">
        <ele>425.94799804688</ele>
        <time>2012-04-17T17:52:58Z</time>
      </trkpt>
      <trkpt lat="45.79669" lon="4.66501">
        <ele>426.00900268555</ele>
        <time>2012-04-17T17:53:03Z</time>
      </trkpt>
      <trkpt lat="45.79678" lon="4.66482">
        <ele>426.01300048828</ele>
        <time>2012-04-17T17:53:07Z</time>
      </trkpt>
      <trkpt lat="45.79688" lon="4.66464">
        <ele>425.80599975586</ele>
        <time>2012-04-17T17:53:11Z</time>
      </trkpt>
      <trkpt lat="45.79691" lon="4.66453">
        <ele>425.77200317383</ele>
        <time>2012-04-17T17:53:13Z</time>
      </trkpt>
      <trkpt lat="45.79699" lon="4.66433">
        <ele>425.57598876953</ele>
        <time>2012-04-17T17:53:18Z</time>
      </trkpt>
      <trkpt lat="45.79713" lon="4.66425">
        <ele>425.55801391602</ele>
        <time>2012-04-17T17:53:23Z</time>
      </trkpt>
      <trkpt lat="45.79729" lon="4.66408">
        <ele>425.69900512695</ele>
        <time>2012-04-17T17:53:28Z</time>
      </trkpt>
      <trkpt lat="45.79737" lon="4.66392">
        <ele>426.23199462891</ele>
        <time>2012-04-17T17:53:32Z</time>
      </trkpt>
      <trkpt lat="45.7975" lon="4.66377">
        <ele>427.26901245117</ele>
        <time>2012-04-17T17:53:37Z</time>
      </trkpt>
      <trkpt lat="45.7976" lon="4.66362">
        <ele>428.5539855957</ele>
        <time>2012-04-17T17:53:42Z</time>
      </trkpt>
      <trkpt lat="45.79773" lon="4.66343">
        <ele>430.00799560547</ele>
        <time>2012-04-17T17:53:48Z</time>
      </trkpt>
      <trkpt lat="45.79779" lon="4.66327">
        <ele>430.48599243164</ele>
        <time>2012-04-17T17:53:52Z</time>
      </trkpt>
      <trkpt lat="45.79788" lon="4.66305">
        <ele>430.96099853516</ele>
        <time>2012-04-17T17:53:57Z</time>
      </trkpt>
      <trkpt lat="45.79799" lon="4.66274">
        <ele>431.22900390625</ele>
        <time>2012-04-17T17:54:03Z</time>
      </trkpt>
      <trkpt lat="45.79806" lon="4.66246">
        <ele>431.65399169922</ele>
        <time>2012-04-17T17:54:08Z</time>
      </trkpt>
      <trkpt lat="45.79815" lon="4.66229">
        <ele>432.79098510742</ele>
        <time>2012-04-17T17:54:12Z</time>
      </trkpt>
      <trkpt lat="45.79827" lon="4.66215">
        <ele>433.80499267578</ele>
        <time>2012-04-17T17:54:18Z</time>
      </trkpt>
      <trkpt lat="45.79842" lon="4.66197">
        <ele>433.88299560547</ele>
        <time>2012-04-17T17:54:26Z</time>
      </trkpt>
      <trkpt lat="45.79852" lon="4.66186">
        <ele>433.88800048828</ele>
        <time>2012-04-17T17:54:31Z</time>
      </trkpt>
      <trkpt lat="45.79861" lon="4.6616">
        <ele>434.26501464844</ele>
        <time>2012-04-17T17:54:37Z</time>
      </trkpt>
      <trkpt lat="45.79871" lon="4.66133">
        <ele>434.73999023438</ele>
        <time>2012-04-17T17:54:43Z</time>
      </trkpt>
      <trkpt lat="45.79875" lon="4.66111">
        <ele>435.2380065918</ele>
        <time>2012-04-17T17:54:48Z</time>
      </trkpt>
      <trkpt lat="45.7988" lon="4.66081">
        <ele>436.11199951172</ele>
        <time>2012-04-17T17:54:55Z</time>
      </trkpt>
      <trkpt lat="45.79889" lon="4.66039">
        <ele>437.42098999023</ele>
        <time>2012-04-17T17:55:03Z</time>
      </trkpt>
      <trkpt lat="45.79902" lon="4.65992">
        <ele>437.48901367188</ele>
        <time>2012-04-17T17:55:11Z</time>
      </trkpt>
      <trkpt lat="45.79908" lon="4.65969">
        <ele>437.54998779297</ele>
        <time>2012-04-17T17:55:16Z</time>
      </trkpt>
      <trkpt lat="45.79921" lon="4.65939">
        <ele>437.88400268555</ele>
        <time>2012-04-17T17:55:22Z</time>
      </trkpt>
      <trkpt lat="45.7994" lon="4.65905">
        <ele>438.65100097656</ele>
        <time>2012-04-17T17:55:30Z</time>
      </trkpt>
      <trkpt lat="45.79955" lon="4.65885">
        <ele>439.47198486328</ele>
        <time>2012-04-17T17:55:36Z</time>
      </trkpt>
      <trkpt lat="45.79967" lon="4.65859">
        <ele>440.99600219727</ele>
        <time>2012-04-17T17:55:42Z</time>
      </trkpt>
      <trkpt lat="45.79971" lon="4.65827">
        <ele>442.69799804688</ele>
        <time>2012-04-17T17:55:48Z</time>
      </trkpt>
      <trkpt lat="45.79974" lon="4.65793">
        <ele>443.58401489258</ele>
        <time>2012-04-17T17:55:55Z</time>
      </trkpt>
      <trkpt lat="45.79979" lon="4.65763">
        <ele>444.89300537109</ele>
        <time>2012-04-17T17:56:03Z</time>
      </trkpt>
      <trkpt lat="45.79979" lon="4.65749">
        <ele>446.21301269531</ele>
        <time>2012-04-17T17:56:09Z</time>
      </trkpt>
      <trkpt lat="45.7998" lon="4.65744">
        <ele>446.66500854492</ele>
        <time>2012-04-17T17:56:12Z</time>
      </trkpt>
      <trkpt lat="45.79983" lon="4.6573">
        <ele>446.75799560547</ele>
        <time>2012-04-17T17:56:18Z</time>
      </trkpt>
      <trkpt lat="45.7999" lon="4.65705">
        <ele>446.15301513672</ele>
        <time>2012-04-17T17:56:25Z</time>
      </trkpt>
      <trkpt lat="45.8" lon="4.65685">
        <ele>445.05499267578</ele>
        <time>2012-04-17T17:56:30Z</time>
      </trkpt>
      <trkpt lat="45.80015" lon="4.65651">
        <ele>442.97399902344</ele>
        <time>2012-04-17T17:56:35Z</time>
      </trkpt>
      <trkpt lat="45.80017" lon="4.65644">
        <ele>442.5830078125</ele>
        <time>2012-04-17T17:56:36Z</time>
      </trkpt>
      <trkpt lat="45.80036" lon="4.65603">
        <ele>440.76699829102</ele>
        <time>2012-04-17T17:56:42Z</time>
      </trkpt>
      <trkpt lat="45.80048" lon="4.65559">
        <ele>439.93701171875</ele>
        <time>2012-04-17T17:56:48Z</time>
      </trkpt>
      <trkpt lat="45.80056" lon="4.65536">
        <ele>439.35198974609</ele>
        <time>2012-04-17T17:56:52Z</time>
      </trkpt>
      <trkpt lat="45.80061" lon="4.65527">
        <ele>438.94100952148</ele>
        <time>2012-04-17T17:56:56Z</time>
      </trkpt>
      <trkpt lat="45.80067" lon="4.65512">
        <ele>438.79598999023</ele>
        <time>2012-04-17T17:57:00Z</time>
      </trkpt>
      <trkpt lat="45.80069" lon="4.65507">
        <ele>438.7380065918</ele>
        <time>2012-04-17T17:57:01Z</time>
      </trkpt>
      <trkpt lat="45.80087" lon="4.65469">
        <ele>438.81698608398</ele>
        <time>2012-04-17T17:57:08Z</time>
      </trkpt>
      <trkpt lat="45.80109" lon="4.6542">
        <ele>438.66598510742</ele>
        <time>2012-04-17T17:57:16Z</time>
      </trkpt>
      <trkpt lat="45.80126" lon="4.65385">
        <ele>439.26400756836</ele>
        <time>2012-04-17T17:57:22Z</time>
      </trkpt>
      <trkpt lat="45.80133" lon="4.6537">
        <ele>439.4169921875</ele>
        <time>2012-04-17T17:57:25Z</time>
      </trkpt>
      <trkpt lat="45.80148" lon="4.65333">
        <ele>439.82598876953</ele>
        <time>2012-04-17T17:57:32Z</time>
      </trkpt>
      <trkpt lat="45.80156" lon="4.65315">
        <ele>439.84399414062</ele>
        <time>2012-04-17T17:57:36Z</time>
      </trkpt>
      <trkpt lat="45.8017" lon="4.65287">
        <ele>439.86700439453</ele>
        <time>2012-04-17T17:57:43Z</time>
      </trkpt>
      <trkpt lat="45.80182" lon="4.65267">
        <ele>439.41000366211</ele>
        <time>2012-04-17T17:57:49Z</time>
      </trkpt>
      <trkpt lat="45.80195" lon="4.65246">
        <ele>438.93301391602</ele>
        <time>2012-04-17T17:57:54Z</time>
      </trkpt>
      <trkpt lat="45.80212" lon="4.65214">
        <ele>437.54699707031</ele>
        <time>2012-04-17T17:58:00Z</time>
      </trkpt>
      <trkpt lat="45.80214" lon="4.65207">
        <ele>437.18600463867</ele>
        <time>2012-04-17T17:58:01Z</time>
      </trkpt>
      <trkpt lat="45.80238" lon="4.65168">
        <ele>435.41299438477</ele>
        <time>2012-04-17T17:58:08Z</time>
      </trkpt>
      <trkpt lat="45.80261" lon="4.65133">
        <ele>433.97399902344</ele>
        <time>2012-04-17T17:58:14Z</time>
      </trkpt>
      <trkpt lat="45.80268" lon="4.65123">
        <ele>433.56500244141</ele>
        <time>2012-04-17T17:58:16Z</time>
      </trkpt>
      <trkpt lat="45.80288" lon="4.65074">
        <ele>432.78298950195</ele>
        <time>2012-04-17T17:58:23Z</time>
      </trkpt>
      <trkpt lat="45.80303" lon="4.65019">
        <ele>432.32299804688</ele>
        <time>2012-04-17T17:58:31Z</time>
      </trkpt>
      <trkpt lat="45.80309" lon="4.64993">
        <ele>432.23699951172</ele>
        <time>2012-04-17T17:58:35Z</time>
      </trkpt>
      <trkpt lat="45.80321" lon="4.64952">
        <ele>432.21701049805</ele>
        <time>2012-04-17T17:58:42Z</time>
      </trkpt>
      <trkpt lat="45.80333" lon="4.64927">
        <ele>432.57901000977</ele>
        <time>2012-04-17T17:58:47Z</time>
      </trkpt>
      <trkpt lat="45.80349" lon="4.64901">
        <ele>432.26501464844</ele>
        <time>2012-04-17T17:58:52Z</time>
      </trkpt>
      <trkpt lat="45.80365" lon="4.64874">
        <ele>430.51000976562</ele>
        <time>2012-04-17T17:58:58Z</time>
      </trkpt>
      <trkpt lat="45.80379" lon="4.64848">
        <ele>428.35101318359</ele>
        <time>2012-04-17T17:59:05Z</time>
      </trkpt>
      <trkpt lat="45.80391" lon="4.64825">
        <ele>426.83999633789</ele>
        <time>2012-04-17T17:59:10Z</time>
      </trkpt>
      <trkpt lat="45.80403" lon="4.64812">
        <ele>425.11499023438</ele>
        <time>2012-04-17T17:59:15Z</time>
      </trkpt>
      <trkpt lat="45.80405" lon="4.6481">
        <ele>424.01998901367</ele>
        <time>2012-04-17T17:59:23Z</time>
      </trkpt>
      <trkpt lat="45.80407" lon="4.64807">
        <ele>423.80599975586</ele>
        <time>2012-04-17T17:59:28Z</time>
      </trkpt>
      <trkpt lat="45.80408" lon="4.648">
        <ele>423.80599975586</ele>
        <time>2012-04-17T17:59:32Z</time>
      </trkpt>
      <trkpt lat="45.80414" lon="4.64783">
        <ele>425.70098876953</ele>
        <time>2012-04-17T17:59:39Z</time>
      </trkpt>
      <trkpt lat="45.80419" lon="4.64769">
        <ele>426.10000610352</ele>
        <time>2012-04-17T17:59:44Z</time>
      </trkpt>
      <trkpt lat="45.80417" lon="4.64761">
        <ele>426.25799560547</ele>
        <time>2012-04-17T17:59:48Z</time>
      </trkpt>
      <trkpt lat="45.80416" lon="4.64759">
        <ele>426.39700317383</ele>
        <time>2012-04-17T17:59:50Z</time>
      </trkpt>
      <trkpt lat="45.80409" lon="4.6476">
        <ele>427.35800170898</ele>
        <time>2012-04-17T17:59:55Z</time>
      </trkpt>
      <trkpt lat="45.80401" lon="4.64759">
        <ele>428.99200439453</ele>
        <time>2012-04-17T18:00:02Z</time>
      </trkpt>
      <trkpt lat="45.80392" lon="4.64761">
        <ele>430.29400634766</ele>
        <time>2012-04-17T18:00:09Z</time>
      </trkpt>
      <trkpt lat="45.80388" lon="4.6476">
        <ele>431.19299316406</ele>
        <time>2012-04-17T18:00:13Z</time>
      </trkpt>
      <trkpt lat="45.80384" lon="4.64759">
        <ele>431.99099731445</ele>
        <time>2012-04-17T18:00:17Z</time>
      </trkpt>
      <trkpt lat="45.80376" lon="4.64755">
        <ele>433.32299804688</ele>
        <time>2012-04-17T18:00:24Z</time>
      </trkpt>
      <trkpt lat="45.80368" lon="4.64749">
        <ele>434.4700012207</ele>
        <time>2012-04-17T18:00:31Z</time>
      </trkpt>
      <trkpt lat="45.80365" lon="4.64743">
        <ele>435.1549987793</ele>
        <time>2012-04-17T18:00:36Z</time>
      </trkpt>
      <trkpt lat="45.80361" lon="4.64739">
        <ele>435.73098754883</ele>
        <time>2012-04-17T18:00:39Z</time>
      </trkpt>
      <trkpt lat="45.80359" lon="4.64724">
        <ele>436.54098510742</ele>
        <time>2012-04-17T18:00:45Z</time>
      </trkpt>
      <trkpt lat="45.80361" lon="4.64704">
        <ele>436.08499145508</ele>
        <time>2012-04-17T18:00:50Z</time>
      </trkpt>
      <trkpt lat="45.80362" lon="4.64679">
        <ele>435.21200561523</ele>
        <time>2012-04-17T18:00:55Z</time>
      </trkpt>
      <trkpt lat="45.80366" lon="4.64651">
        <ele>433.57699584961</ele>
        <time>2012-04-17T18:01:00Z</time>
      </trkpt>
      <trkpt lat="45.80362" lon="4.64635">
        <ele>431.90301513672</ele>
        <time>2012-04-17T18:01:04Z</time>
      </trkpt>
      <trkpt lat="45.8036" lon="4.6463">
        <ele>431.47799682617</ele>
        <time>2012-04-17T18:01:07Z</time>
      </trkpt>
      <trkpt lat="45.80353" lon="4.64621">
        <ele>432.31100463867</ele>
        <time>2012-04-17T18:01:13Z</time>
      </trkpt>
      <trkpt lat="45.80346" lon="4.64602">
        <ele>432.74798583984</ele>
        <time>2012-04-17T18:01:18Z</time>
      </trkpt>
      <trkpt lat="45.80339" lon="4.64576">
        <ele>432.39700317383</ele>
        <time>2012-04-17T18:01:22Z</time>
      </trkpt>
      <trkpt lat="45.80324" lon="4.64552">
        <ele>431.90100097656</ele>
        <time>2012-04-17T18:01:27Z</time>
      </trkpt>
      <trkpt lat="45.80315" lon="4.64551">
        <ele>431.80700683594</ele>
        <time>2012-04-17T18:01:29Z</time>
      </trkpt>
      <trkpt lat="45.80299" lon="4.64552">
        <ele>431.54998779297</ele>
        <time>2012-04-17T18:01:33Z</time>
      </trkpt>
      <trkpt lat="45.80276" lon="4.64548">
        <ele>431.15301513672</ele>
        <time>2012-04-17T18:01:38Z</time>
      </trkpt>
      <trkpt lat="45.80266" lon="4.64549">
        <ele>430.94900512695</ele>
        <time>2012-04-17T18:01:40Z</time>
      </trkpt>
      <trkpt lat="45.80238" lon="4.64557">
        <ele>431.07299804688</ele>
        <time>2012-04-17T18:01:46Z</time>
      </trkpt>
      <trkpt lat="45.80233" lon="4.64557">
        <ele>431.18499755859</ele>
        <time>2012-04-17T18:01:47Z</time>
      </trkpt>
      <trkpt lat="45.80214" lon="4.64556">
        <ele>431.29699707031</ele>
        <time>2012-04-17T18:01:51Z</time>
      </trkpt>
      <trkpt lat="45.80205" lon="4.64551">
        <ele>431.11898803711</ele>
        <time>2012-04-17T18:01:53Z</time>
      </trkpt>
      <trkpt lat="45.80184" lon="4.64545">
        <ele>430.26699829102</ele>
        <time>2012-04-17T18:01:57Z</time>
      </trkpt>
      <trkpt lat="45.80163" lon="4.64532">
        <ele>429.01300048828</ele>
        <time>2012-04-17T18:02:02Z</time>
      </trkpt>
      <trkpt lat="45.8015" lon="4.64527">
        <ele>427.62799072266</ele>
        <time>2012-04-17T18:02:06Z</time>
      </trkpt>
      <trkpt lat="45.80147" lon="4.64527">
        <ele>427.2799987793</ele>
        <time>2012-04-17T18:02:07Z</time>
      </trkpt>
      <trkpt lat="45.80131" lon="4.64539">
        <ele>426.33200073242</ele>
        <time>2012-04-17T18:02:12Z</time>
      </trkpt>
      <trkpt lat="45.8012" lon="4.64553">
        <ele>426.24398803711</ele>
        <time>2012-04-17T18:02:15Z</time>
      </trkpt>
      <trkpt lat="45.80112" lon="4.64565">
        <ele>425.62799072266</ele>
        <time>2012-04-17T18:02:18Z</time>
      </trkpt>
      <trkpt lat="45.8009" lon="4.64588">
        <ele>422.64099121094</ele>
        <time>2012-04-17T18:02:23Z</time>
      </trkpt>
      <trkpt lat="45.80078" lon="4.64606">
        <ele>420.35699462891</ele>
        <time>2012-04-17T18:02:26Z</time>
      </trkpt>
      <trkpt lat="45.80064" lon="4.64622">
        <ele>417.64801025391</ele>
        <time>2012-04-17T18:02:30Z</time>
      </trkpt>
      <trkpt lat="45.80047" lon="4.64636">
        <ele>414.38000488281</ele>
        <time>2012-04-17T18:02:34Z</time>
      </trkpt>
      <trkpt lat="45.8003" lon="4.64639">
        <ele>411.00500488281</ele>
        <time>2012-04-17T18:02:37Z</time>
      </trkpt>
      <trkpt lat="45.80019" lon="4.64639">
        <ele>408.92999267578</ele>
        <time>2012-04-17T18:02:40Z</time>
      </trkpt>
      <trkpt lat="45.80009" lon="4.64646">
        <ele>405.88198852539</ele>
        <time>2012-04-17T18:02:43Z</time>
      </trkpt>
      <trkpt lat="45.80001" lon="4.64657">
        <ele>402.27700805664</ele>
        <time>2012-04-17T18:02:47Z</time>
      </trkpt>
      <trkpt lat="45.80001" lon="4.64665">
        <ele>400.37399291992</ele>
        <time>2012-04-17T18:02:50Z</time>
      </trkpt>
      <trkpt lat="45.80001" lon="4.64667">
        <ele>399.36700439453</ele>
        <time>2012-04-17T18:02:56Z</time>
      </trkpt>
      <trkpt lat="45.80001" lon="4.64673">
        <ele>399.32000732422</ele>
        <time>2012-04-17T18:03:25Z</time>
      </trkpt>
      <trkpt lat="45.80001" lon="4.64691">
        <ele>399.47198486328</ele>
        <time>2012-04-17T18:03:29Z</time>
      </trkpt>
      <trkpt lat="45.8" lon="4.64721">
        <ele>399.64700317383</ele>
        <time>2012-04-17T18:03:34Z</time>
      </trkpt>
      <trkpt lat="45.80005" lon="4.64787">
        <ele>400.66000366211</ele>
        <time>2012-04-17T18:03:45Z</time>
      </trkpt>
      <trkpt lat="45.80005" lon="4.64814">
        <ele>401.90899658203</ele>
        <time>2012-04-17T18:03:52Z</time>
      </trkpt>
      <trkpt lat="45.80001" lon="4.64832">
        <ele>402.17498779297</ele>
        <time>2012-04-17T18:03:57Z</time>
      </trkpt>
      <trkpt lat="45.79994" lon="4.64861">
        <ele>402.8030090332</ele>
        <time>2012-04-17T18:04:04Z</time>
      </trkpt>
      <trkpt lat="45.79984" lon="4.64882">
        <ele>404.18899536133</ele>
        <time>2012-04-17T18:04:11Z</time>
      </trkpt>
      <trkpt lat="45.79968" lon="4.64894">
        <ele>405.28799438477</ele>
        <time>2012-04-17T18:04:17Z</time>
      </trkpt>
      <trkpt lat="45.79945" lon="4.64915">
        <ele>405.88500976562</ele>
        <time>2012-04-17T18:04:25Z</time>
      </trkpt>
      <trkpt lat="45.79934" lon="4.64938">
        <ele>405.78799438477</ele>
        <time>2012-04-17T18:04:30Z</time>
      </trkpt>
      <trkpt lat="45.79932" lon="4.64943">
        <ele>405.75100708008</ele>
        <time>2012-04-17T18:04:31Z</time>
      </trkpt>
      <trkpt lat="45.79919" lon="4.64979">
        <ele>405.87399291992</ele>
        <time>2012-04-17T18:04:38Z</time>
      </trkpt>
      <trkpt lat="45.79898" lon="4.65007">
        <ele>406.07598876953</ele>
        <time>2012-04-17T18:04:45Z</time>
      </trkpt>
      <trkpt lat="45.79872" lon="4.65044">
        <ele>406.52301025391</ele>
        <time>2012-04-17T18:04:54Z</time>
      </trkpt>
      <trkpt lat="45.79855" lon="4.65079">
        <ele>407.06399536133</ele>
        <time>2012-04-17T18:05:02Z</time>
      </trkpt>
      <trkpt lat="45.79845" lon="4.65096">
        <ele>407.59600830078</ele>
        <time>2012-04-17T18:05:07Z</time>
      </trkpt>
      <trkpt lat="45.79833" lon="4.65105">
        <ele>407.48098754883</ele>
        <time>2012-04-17T18:05:11Z</time>
      </trkpt>
      <trkpt lat="45.79821" lon="4.65104">
        <ele>406.57901000977</ele>
        <time>2012-04-17T18:05:16Z</time>
      </trkpt>
      <trkpt lat="45.79811" lon="4.65106">
        <ele>406.24798583984</ele>
        <time>2012-04-17T18:05:21Z</time>
      </trkpt>
      <trkpt lat="45.79797" lon="4.65104">
        <ele>407.11599731445</ele>
        <time>2012-04-17T18:05:27Z</time>
      </trkpt>
      <trkpt lat="45.79785" lon="4.65105">
        <ele>408.76699829102</ele>
        <time>2012-04-17T18:05:33Z</time>
      </trkpt>
      <trkpt lat="45.79773" lon="4.65108">
        <ele>410.70999145508</ele>
        <time>2012-04-17T18:05:39Z</time>
      </trkpt>
      <trkpt lat="45.79759" lon="4.65113">
        <ele>411.85900878906</ele>
        <time>2012-04-17T18:05:47Z</time>
      </trkpt>
      <trkpt lat="45.79749" lon="4.65117">
        <ele>412.67498779297</ele>
        <time>2012-04-17T18:05:53Z</time>
      </trkpt>
      <trkpt lat="45.7974" lon="4.65118">
        <ele>413.46899414062</ele>
        <time>2012-04-17T18:05:59Z</time>
      </trkpt>
      <trkpt lat="45.79738" lon="4.65117">
        <ele>413.68399047852</ele>
        <time>2012-04-17T18:06:00Z</time>
      </trkpt>
      <trkpt lat="45.79731" lon="4.65119">
        <ele>414.38198852539</ele>
        <time>2012-04-17T18:06:04Z</time>
      </trkpt>
      <trkpt lat="45.79726" lon="4.6512">
        <ele>415.29000854492</ele>
        <time>2012-04-17T18:06:08Z</time>
      </trkpt>
      <trkpt lat="45.79722" lon="4.65123">
        <ele>416.09298706055</ele>
        <time>2012-04-17T18:06:13Z</time>
      </trkpt>
      <trkpt lat="45.79714" lon="4.65122">
        <ele>417.02099609375</ele>
        <time>2012-04-17T18:06:19Z</time>
      </trkpt>
      <trkpt lat="45.79705" lon="4.65114">
        <ele>416.98999023438</ele>
        <time>2012-04-17T18:06:24Z</time>
      </trkpt>
      <trkpt lat="45.79694" lon="4.65101">
        <ele>416.46899414062</ele>
        <time>2012-04-17T18:06:28Z</time>
      </trkpt>
      <trkpt lat="45.79688" lon="4.651">
        <ele>415.8210144043</ele>
        <time>2012-04-17T18:06:31Z</time>
      </trkpt>
      <trkpt lat="45.79679" lon="4.65099">
        <ele>415.77899169922</ele>
        <time>2012-04-17T18:06:39Z</time>
      </trkpt>
      <trkpt lat="45.79675" lon="4.65099">
        <ele>416.39801025391</ele>
        <time>2012-04-17T18:06:43Z</time>
      </trkpt>
      <trkpt lat="45.79665" lon="4.65098">
        <ele>417</ele>
        <time>2012-04-17T18:06:49Z</time>
      </trkpt>
      <trkpt lat="45.79653" lon="4.65094">
        <ele>417.17001342773</ele>
        <time>2012-04-17T18:06:56Z</time>
      </trkpt>
      <trkpt lat="45.79644" lon="4.65092">
        <ele>417.38800048828</ele>
        <time>2012-04-17T18:07:01Z</time>
      </trkpt>
      <trkpt lat="45.79634" lon="4.65086">
        <ele>417.4169921875</ele>
        <time>2012-04-17T18:07:07Z</time>
      </trkpt>
      <trkpt lat="45.79624" lon="4.65079">
        <ele>417.76501464844</ele>
        <time>2012-04-17T18:07:15Z</time>
      </trkpt>
      <trkpt lat="45.7962" lon="4.65074">
        <ele>418.13000488281</ele>
        <time>2012-04-17T18:07:20Z</time>
      </trkpt>
      <trkpt lat="45.79614" lon="4.65063">
        <ele>418.59600830078</ele>
        <time>2012-04-17T18:07:26Z</time>
      </trkpt>
      <trkpt lat="45.79613" lon="4.65062">
        <ele>418.48199462891</ele>
        <time>2012-04-17T18:07:27Z</time>
      </trkpt>
      <trkpt lat="45.79608" lon="4.65053">
        <ele>418.64099121094</ele>
        <time>2012-04-17T18:07:33Z</time>
      </trkpt>
      <trkpt lat="45.79601" lon="4.65044">
        <ele>418.64001464844</ele>
        <time>2012-04-17T18:07:39Z</time>
      </trkpt>
      <trkpt lat="45.79594" lon="4.65042">
        <ele>418.89700317383</ele>
        <time>2012-04-17T18:07:43Z</time>
      </trkpt>
      <trkpt lat="45.79589" lon="4.6504">
        <ele>419.69400024414</ele>
        <time>2012-04-17T18:07:47Z</time>
      </trkpt>
      <trkpt lat="45.79584" lon="4.65038">
        <ele>421.02301025391</ele>
        <time>2012-04-17T18:07:51Z</time>
      </trkpt>
      <trkpt lat="45.79574" lon="4.65034">
        <ele>422.9580078125</ele>
        <time>2012-04-17T18:07:59Z</time>
      </trkpt>
      <trkpt lat="45.79564" lon="4.65029">
        <ele>424.11401367188</ele>
        <time>2012-04-17T18:08:05Z</time>
      </trkpt>
      <trkpt lat="45.79553" lon="4.65024">
        <ele>425.01300048828</ele>
        <time>2012-04-17T18:08:10Z</time>
      </trkpt>
      <trkpt lat="45.79541" lon="4.6502">
        <ele>425.74700927734</ele>
        <time>2012-04-17T18:08:15Z</time>
      </trkpt>
      <trkpt lat="45.79533" lon="4.65015">
        <ele>425.99600219727</ele>
        <time>2012-04-17T18:08:20Z</time>
      </trkpt>
      <trkpt lat="45.79524" lon="4.6501">
        <ele>426.46798706055</ele>
        <time>2012-04-17T18:08:27Z</time>
      </trkpt>
      <trkpt lat="45.79509" lon="4.65001">
        <ele>426.97299194336</ele>
        <time>2012-04-17T18:08:35Z</time>
      </trkpt>
      <trkpt lat="45.79503" lon="4.64997">
        <ele>427.39099121094</ele>
        <time>2012-04-17T18:08:42Z</time>
      </trkpt>
      <trkpt lat="45.79493" lon="4.64994">
        <ele>428.29098510742</ele>
        <time>2012-04-17T18:08:48Z</time>
      </trkpt>
      <trkpt lat="45.79485" lon="4.64991">
        <ele>429.44198608398</ele>
        <time>2012-04-17T18:08:54Z</time>
      </trkpt>
      <trkpt lat="45.79475" lon="4.64987">
        <ele>430.65600585938</ele>
        <time>2012-04-17T18:09:00Z</time>
      </trkpt>
      <trkpt lat="45.79468" lon="4.64984">
        <ele>431.61099243164</ele>
        <time>2012-04-17T18:09:05Z</time>
      </trkpt>
      <trkpt lat="45.79454" lon="4.64981">
        <ele>432.49798583984</ele>
        <time>2012-04-17T18:09:12Z</time>
      </trkpt>
      <trkpt lat="45.79444" lon="4.6498">
        <ele>432.80599975586</ele>
        <time>2012-04-17T18:09:17Z</time>
      </trkpt>
      <trkpt lat="45.79428" lon="4.64975">
        <ele>433.58999633789</ele>
        <time>2012-04-17T18:09:24Z</time>
      </trkpt>
      <trkpt lat="45.79418" lon="4.64969">
        <ele>434.20098876953</ele>
        <time>2012-04-17T18:09:30Z</time>
      </trkpt>
      <trkpt lat="45.79415" lon="4.64968">
        <ele>434.28100585938</ele>
        <time>2012-04-17T18:09:31Z</time>
      </trkpt>
      <trkpt lat="45.79404" lon="4.64967">
        <ele>434.87600708008</ele>
        <time>2012-04-17T18:09:36Z</time>
      </trkpt>
      <trkpt lat="45.79392" lon="4.64964">
        <ele>435.87399291992</ele>
        <time>2012-04-17T18:09:43Z</time>
      </trkpt>
      <trkpt lat="45.79382" lon="4.64968">
        <ele>436.75698852539</ele>
        <time>2012-04-17T18:09:48Z</time>
      </trkpt>
      <trkpt lat="45.79369" lon="4.64971">
        <ele>437.61401367188</ele>
        <time>2012-04-17T18:09:54Z</time>
      </trkpt>
      <trkpt lat="45.79361" lon="4.64974">
        <ele>438.56100463867</ele>
        <time>2012-04-17T18:10:00Z</time>
      </trkpt>
      <trkpt lat="45.79351" lon="4.64973">
        <ele>440.01998901367</ele>
        <time>2012-04-17T18:10:06Z</time>
      </trkpt>
      <trkpt lat="45.79345" lon="4.6497">
        <ele>440.9700012207</ele>
        <time>2012-04-17T18:10:10Z</time>
      </trkpt>
      <trkpt lat="45.79343" lon="4.64974">
        <ele>441.90701293945</ele>
        <time>2012-04-17T18:10:14Z</time>
      </trkpt>
      <trkpt lat="45.79339" lon="4.64982">
        <ele>442.65399169922</ele>
        <time>2012-04-17T18:10:19Z</time>
      </trkpt>
      <trkpt lat="45.79338" lon="4.64986">
        <ele>443.18701171875</ele>
        <time>2012-04-17T18:10:22Z</time>
      </trkpt>
      <trkpt lat="45.79339" lon="4.64988">
        <ele>443.5719909668</ele>
        <time>2012-04-17T18:10:24Z</time>
      </trkpt>
      <trkpt lat="45.79349" lon="4.64992">
        <ele>444.39099121094</ele>
        <time>2012-04-17T18:10:32Z</time>
      </trkpt>
      <trkpt lat="45.79359" lon="4.65">
        <ele>445.62298583984</ele>
        <time>2012-04-17T18:10:39Z</time>
      </trkpt>
      <trkpt lat="45.79369" lon="4.65008">
        <ele>446.80801391602</ele>
        <time>2012-04-17T18:10:46Z</time>
      </trkpt>
      <trkpt lat="45.79378" lon="4.65015">
        <ele>447.62100219727</ele>
        <time>2012-04-17T18:10:52Z</time>
      </trkpt>
      <trkpt lat="45.79381" lon="4.65019">
        <ele>448.04800415039</ele>
        <time>2012-04-17T18:10:55Z</time>
      </trkpt>
      <trkpt lat="45.79387" lon="4.65029">
        <ele>449.63400268555</ele>
        <time>2012-04-17T18:11:01Z</time>
      </trkpt>
      <trkpt lat="45.79388" lon="4.6503">
        <ele>449.86499023438</ele>
        <time>2012-04-17T18:11:02Z</time>
      </trkpt>
      <trkpt lat="45.79391" lon="4.65032">
        <ele>450.32800292969</ele>
        <time>2012-04-17T18:11:04Z</time>
      </trkpt>
      <trkpt lat="45.79403" lon="4.65038">
        <ele>451.07901000977</ele>
        <time>2012-04-17T18:11:11Z</time>
      </trkpt>
      <trkpt lat="45.79406" lon="4.65039">
        <ele>451.1780090332</ele>
        <time>2012-04-17T18:11:13Z</time>
      </trkpt>
      <trkpt lat="45.79421" lon="4.65049">
        <ele>452.03900146484</ele>
        <time>2012-04-17T18:11:22Z</time>
      </trkpt>
      <trkpt lat="45.79433" lon="4.6506">
        <ele>452.8630065918</ele>
        <time>2012-04-17T18:11:30Z</time>
      </trkpt>
      <trkpt lat="45.79443" lon="4.65075">
        <ele>453.91000366211</ele>
        <time>2012-04-17T18:11:38Z</time>
      </trkpt>
      <trkpt lat="45.79449" lon="4.65086">
        <ele>455.35900878906</ele>
        <time>2012-04-17T18:11:45Z</time>
      </trkpt>
      <trkpt lat="45.79456" lon="4.65097">
        <ele>456.40200805664</ele>
        <time>2012-04-17T18:11:52Z</time>
      </trkpt>
      <trkpt lat="45.79461" lon="4.65107">
        <ele>457.35000610352</ele>
        <time>2012-04-17T18:11:57Z</time>
      </trkpt>
      <trkpt lat="45.79467" lon="4.65119">
        <ele>458.64300537109</ele>
        <time>2012-04-17T18:12:03Z</time>
      </trkpt>
      <trkpt lat="45.79469" lon="4.65124">
        <ele>459.33099365234</ele>
        <time>2012-04-17T18:12:06Z</time>
      </trkpt>
      <trkpt lat="45.79471" lon="4.65133">
        <ele>460.64898681641</ele>
        <time>2012-04-17T18:12:11Z</time>
      </trkpt>
      <trkpt lat="45.79473" lon="4.65135">
        <ele>461.28500366211</ele>
        <time>2012-04-17T18:12:13Z</time>
      </trkpt>
      <trkpt lat="45.79478" lon="4.65149">
        <ele>463.57000732422</ele>
        <time>2012-04-17T18:12:20Z</time>
      </trkpt>
      <trkpt lat="45.79483" lon="4.65154">
        <ele>464.97500610352</ele>
        <time>2012-04-17T18:12:25Z</time>
      </trkpt>
      <trkpt lat="45.79488" lon="4.65156">
        <ele>465.82501220703</ele>
        <time>2012-04-17T18:12:28Z</time>
      </trkpt>
      <trkpt lat="45.79493" lon="4.6516">
        <ele>467.33700561523</ele>
        <time>2012-04-17T18:12:35Z</time>
      </trkpt>
      <trkpt lat="45.79493" lon="4.65162">
        <ele>467.58801269531</ele>
        <time>2012-04-17T18:12:37Z</time>
      </trkpt>
      <trkpt lat="45.7949" lon="4.65171">
        <ele>468.25900268555</ele>
        <time>2012-04-17T18:12:43Z</time>
      </trkpt>
      <trkpt lat="45.79487" lon="4.65172">
        <ele>469.24301147461</ele>
        <time>2012-04-17T18:12:48Z</time>
      </trkpt>
      <trkpt lat="45.79486" lon="4.65175">
        <ele>469.71200561523</ele>
        <time>2012-04-17T18:12:58Z</time>
      </trkpt>
      <trkpt lat="45.79477" lon="4.65179">
        <ele>470.04598999023</ele>
        <time>2012-04-17T18:13:05Z</time>
      </trkpt>
      <trkpt lat="45.79472" lon="4.65183">
        <ele>470.40600585938</ele>
        <time>2012-04-17T18:13:08Z</time>
      </trkpt>
      <trkpt lat="45.79467" lon="4.65193">
        <ele>471.35299682617</ele>
        <time>2012-04-17T18:13:15Z</time>
      </trkpt>
      <trkpt lat="45.79462" lon="4.65202">
        <ele>472.45098876953</ele>
        <time>2012-04-17T18:13:21Z</time>
      </trkpt>
      <trkpt lat="45.79462" lon="4.65205">
        <ele>472.9580078125</ele>
        <time>2012-04-17T18:13:23Z</time>
      </trkpt>
      <trkpt lat="45.79464" lon="4.65211">
        <ele>474.21600341797</ele>
        <time>2012-04-17T18:13:28Z</time>
      </trkpt>
      <trkpt lat="45.79466" lon="4.65214">
        <ele>474.68899536133</ele>
        <time>2012-04-17T18:13:30Z</time>
      </trkpt>
      <trkpt lat="45.79464" lon="4.6522">
        <ele>475.48599243164</ele>
        <time>2012-04-17T18:13:34Z</time>
      </trkpt>
      <trkpt lat="45.79466" lon="4.65233">
        <ele>477.03298950195</ele>
        <time>2012-04-17T18:13:42Z</time>
      </trkpt>
      <trkpt lat="45.79466" lon="4.65237">
        <ele>478.08999633789</ele>
        <time>2012-04-17T18:13:49Z</time>
      </trkpt>
      <trkpt lat="45.79464" lon="4.65244">
        <ele>478.54299926758</ele>
        <time>2012-04-17T18:13:58Z</time>
      </trkpt>
      <trkpt lat="45.79456" lon="4.65258">
        <ele>479.75</ele>
        <time>2012-04-17T18:14:06Z</time>
      </trkpt>
      <trkpt lat="45.79452" lon="4.65267">
        <ele>480.68099975586</ele>
        <time>2012-04-17T18:14:12Z</time>
      </trkpt>
      <trkpt lat="45.79452" lon="4.65272">
        <ele>481.64199829102</ele>
        <time>2012-04-17T18:14:19Z</time>
      </trkpt>
      <trkpt lat="45.7945" lon="4.65279">
        <ele>482.38400268555</ele>
        <time>2012-04-17T18:14:28Z</time>
      </trkpt>
      <trkpt lat="45.79448" lon="4.65287">
        <ele>483.21398925781</ele>
        <time>2012-04-17T18:14:34Z</time>
      </trkpt>
      <trkpt lat="45.79448" lon="4.65289">
        <ele>483.75201416016</ele>
        <time>2012-04-17T18:14:36Z</time>
      </trkpt>
      <trkpt lat="45.79443" lon="4.65294">
        <ele>484.87899780273</ele>
        <time>2012-04-17T18:14:42Z</time>
      </trkpt>
      <trkpt lat="45.79438" lon="4.65295">
        <ele>485.53500366211</ele>
        <time>2012-04-17T18:14:46Z</time>
      </trkpt>
      <trkpt lat="45.79428" lon="4.65306">
        <ele>487.08401489258</ele>
        <time>2012-04-17T18:14:53Z</time>
      </trkpt>
      <trkpt lat="45.79422" lon="4.6532">
        <ele>488.11700439453</ele>
        <time>2012-04-17T18:15:00Z</time>
      </trkpt>
      <trkpt lat="45.79412" lon="4.65325">
        <ele>488.87701416016</ele>
        <time>2012-04-17T18:15:07Z</time>
      </trkpt>
      <trkpt lat="45.79403" lon="4.6533">
        <ele>489.83499145508</ele>
        <time>2012-04-17T18:15:13Z</time>
      </trkpt>
      <trkpt lat="45.79396" lon="4.65335">
        <ele>490.93701171875</ele>
        <time>2012-04-17T18:15:18Z</time>
      </trkpt>
      <trkpt lat="45.79386" lon="4.6534">
        <ele>492.36401367188</ele>
        <time>2012-04-17T18:15:25Z</time>
      </trkpt>
      <trkpt lat="45.79378" lon="4.65343">
        <ele>493.75601196289</ele>
        <time>2012-04-17T18:15:32Z</time>
      </trkpt>
      <trkpt lat="45.79367" lon="4.65347">
        <ele>495.32400512695</ele>
        <time>2012-04-17T18:15:40Z</time>
      </trkpt>
      <trkpt lat="45.79355" lon="4.65352">
        <ele>497.08099365234</ele>
        <time>2012-04-17T18:15:49Z</time>
      </trkpt>
      <trkpt lat="45.79345" lon="4.65355">
        <ele>498.9469909668</ele>
        <time>2012-04-17T18:15:56Z</time>
      </trkpt>
      <trkpt lat="45.79332" lon="4.65363">
        <ele>500.65701293945</ele>
        <time>2012-04-17T18:16:05Z</time>
      </trkpt>
      <trkpt lat="45.79321" lon="4.65372">
        <ele>501.80099487305</ele>
        <time>2012-04-17T18:16:12Z</time>
      </trkpt>
      <trkpt lat="45.79314" lon="4.65385">
        <ele>502.45001220703</ele>
        <time>2012-04-17T18:16:19Z</time>
      </trkpt>
      <trkpt lat="45.79307" lon="4.65393">
        <ele>502.90100097656</ele>
        <time>2012-04-17T18:16:26Z</time>
      </trkpt>
      <trkpt lat="45.793" lon="4.65401">
        <ele>503.10299682617</ele>
        <time>2012-04-17T18:16:32Z</time>
      </trkpt>
      <trkpt lat="45.79292" lon="4.65413">
        <ele>503.56399536133</ele>
        <time>2012-04-17T18:16:39Z</time>
      </trkpt>
      <trkpt lat="45.79289" lon="4.6542">
        <ele>504.15100097656</ele>
        <time>2012-04-17T18:16:45Z</time>
      </trkpt>
      <trkpt lat="45.79288" lon="4.65425">
        <ele>504.5299987793</ele>
        <time>2012-04-17T18:17:00Z</time>
      </trkpt>
      <trkpt lat="45.79293" lon="4.65426">
        <ele>505.59298706055</ele>
        <time>2012-04-17T18:20:53Z</time>
      </trkpt>
      <trkpt lat="45.79288" lon="4.65435">
        <ele>505.77801513672</ele>
        <time>2012-04-17T18:20:58Z</time>
      </trkpt>
      <trkpt lat="45.79281" lon="4.65449">
        <ele>506.44900512695</ele>
        <time>2012-04-17T18:21:05Z</time>
      </trkpt>
      <trkpt lat="45.79279" lon="4.65452">
        <ele>506.59298706055</ele>
        <time>2012-04-17T18:21:06Z</time>
      </trkpt>
      <trkpt lat="45.7927" lon="4.65472">
        <ele>507.38598632812</ele>
        <time>2012-04-17T18:21:13Z</time>
      </trkpt>
      <trkpt lat="45.79266" lon="4.65488">
        <ele>507.74798583984</ele>
        <time>2012-04-17T18:21:18Z</time>
      </trkpt>
      <trkpt lat="45.79264" lon="4.65495">
        <ele>507.99200439453</ele>
        <time>2012-04-17T18:21:20Z</time>
      </trkpt>
      <trkpt lat="45.79255" lon="4.65514">
        <ele>508.91000366211</ele>
        <time>2012-04-17T18:21:26Z</time>
      </trkpt>
      <trkpt lat="45.79248" lon="4.65533">
        <ele>509.68499755859</ele>
        <time>2012-04-17T18:21:31Z</time>
      </trkpt>
      <trkpt lat="45.79239" lon="4.6555">
        <ele>510.41900634766</ele>
        <time>2012-04-17T18:21:36Z</time>
      </trkpt>
      <trkpt lat="45.79229" lon="4.65571">
        <ele>511.45199584961</ele>
        <time>2012-04-17T18:21:42Z</time>
      </trkpt>
      <trkpt lat="45.7922" lon="4.65584">
        <ele>512.32598876953</ele>
        <time>2012-04-17T18:21:47Z</time>
      </trkpt>
      <trkpt lat="45.79212" lon="4.65597">
        <ele>512.67401123047</ele>
        <time>2012-04-17T18:21:51Z</time>
      </trkpt>
      <trkpt lat="45.79203" lon="4.65619">
        <ele>512.71801757812</ele>
        <time>2012-04-17T18:21:56Z</time>
      </trkpt>
      <trkpt lat="45.79189" lon="4.65638">
        <ele>512.33197021484</ele>
        <time>2012-04-17T18:22:01Z</time>
      </trkpt>
      <trkpt lat="45.79168" lon="4.65651">
        <ele>511.51998901367</ele>
        <time>2012-04-17T18:22:07Z</time>
      </trkpt>
      <trkpt lat="45.79155" lon="4.65662">
        <ele>510.9580078125</ele>
        <time>2012-04-17T18:22:11Z</time>
      </trkpt>
      <trkpt lat="45.79144" lon="4.65675">
        <ele>510.90399169922</ele>
        <time>2012-04-17T18:22:14Z</time>
      </trkpt>
      <trkpt lat="45.79131" lon="4.65693">
        <ele>510.6549987793</ele>
        <time>2012-04-17T18:22:18Z</time>
      </trkpt>
      <trkpt lat="45.79115" lon="4.65726">
        <ele>511.08700561523</ele>
        <time>2012-04-17T18:22:25Z</time>
      </trkpt>
      <trkpt lat="45.79108" lon="4.65731">
        <ele>511.5530090332</ele>
        <time>2012-04-17T18:22:28Z</time>
      </trkpt>
      <trkpt lat="45.791" lon="4.65721">
        <ele>511.90200805664</ele>
        <time>2012-04-17T18:22:32Z</time>
      </trkpt>
      <trkpt lat="45.79084" lon="4.65704">
        <ele>512.70202636719</ele>
        <time>2012-04-17T18:22:39Z</time>
      </trkpt>
      <trkpt lat="45.79068" lon="4.65688">
        <ele>513.2919921875</ele>
        <time>2012-04-17T18:22:47Z</time>
      </trkpt>
      <trkpt lat="45.79055" lon="4.65674">
        <ele>514.04400634766</ele>
        <time>2012-04-17T18:22:54Z</time>
      </trkpt>
      <trkpt lat="45.79044" lon="4.65659">
        <ele>514.85998535156</ele>
        <time>2012-04-17T18:23:01Z</time>
      </trkpt>
      <trkpt lat="45.79032" lon="4.65642">
        <ele>516.65301513672</ele>
        <time>2012-04-17T18:23:09Z</time>
      </trkpt>
      <trkpt lat="45.79021" lon="4.65624">
        <ele>518.48199462891</ele>
        <time>2012-04-17T18:23:17Z</time>
      </trkpt>
      <trkpt lat="45.79015" lon="4.65605">
        <ele>519.458984375</ele>
        <time>2012-04-17T18:23:24Z</time>
      </trkpt>
      <trkpt lat="45.7901" lon="4.65584">
        <ele>520.46301269531</ele>
        <time>2012-04-17T18:23:31Z</time>
      </trkpt>
      <trkpt lat="45.79007" lon="4.65565">
        <ele>521.68402099609</ele>
        <time>2012-04-17T18:23:38Z</time>
      </trkpt>
      <trkpt lat="45.79007" lon="4.65562">
        <ele>521.76702880859</ele>
        <time>2012-04-17T18:23:39Z</time>
      </trkpt>
      <trkpt lat="45.79005" lon="4.65544">
        <ele>522.35498046875</ele>
        <time>2012-04-17T18:23:46Z</time>
      </trkpt>
      <trkpt lat="45.79002" lon="4.65526">
        <ele>522.82702636719</ele>
        <time>2012-04-17T18:23:52Z</time>
      </trkpt>
      <trkpt lat="45.78996" lon="4.65507">
        <ele>523.57098388672</ele>
        <time>2012-04-17T18:23:59Z</time>
      </trkpt>
      <trkpt lat="45.78992" lon="4.65489">
        <ele>524.55200195312</ele>
        <time>2012-04-17T18:24:06Z</time>
      </trkpt>
      <trkpt lat="45.78992" lon="4.65482">
        <ele>524.85498046875</ele>
        <time>2012-04-17T18:24:10Z</time>
      </trkpt>
      <trkpt lat="45.78989" lon="4.65466">
        <ele>526.12200927734</ele>
        <time>2012-04-17T18:24:17Z</time>
      </trkpt>
      <trkpt lat="45.78989" lon="4.65462">
        <ele>527.29797363281</ele>
        <time>2012-04-17T18:24:22Z</time>
      </trkpt>
      <trkpt lat="45.78988" lon="4.65461">
        <ele>527.42999267578</ele>
        <time>2012-04-17T18:24:23Z</time>
      </trkpt>
      <trkpt lat="45.78988" lon="4.65452">
        <ele>527.59301757812</ele>
        <time>2012-04-17T18:24:29Z</time>
      </trkpt>
      <trkpt lat="45.78988" lon="4.65451">
        <ele>527.70599365234</ele>
        <time>2012-04-17T18:24:30Z</time>
      </trkpt>
      <trkpt lat="45.78989" lon="4.65449">
        <ele>527.8740234375</ele>
        <time>2012-04-17T18:24:32Z</time>
      </trkpt>
      <trkpt lat="45.78991" lon="4.65439">
        <ele>528.40600585938</ele>
        <time>2012-04-17T18:24:37Z</time>
      </trkpt>
      <trkpt lat="45.78992" lon="4.65427">
        <ele>528.84698486328</ele>
        <time>2012-04-17T18:24:43Z</time>
      </trkpt>
      <trkpt lat="45.78992" lon="4.6542">
        <ele>529.25201416016</ele>
        <time>2012-04-17T18:24:46Z</time>
      </trkpt>
      <trkpt lat="45.78989" lon="4.65408">
        <ele>530.15802001953</ele>
        <time>2012-04-17T18:24:52Z</time>
      </trkpt>
      <trkpt lat="45.78984" lon="4.65395">
        <ele>531.15002441406</ele>
        <time>2012-04-17T18:24:59Z</time>
      </trkpt>
      <trkpt lat="45.78984" lon="4.65392">
        <ele>531.30603027344</ele>
        <time>2012-04-17T18:25:00Z</time>
      </trkpt>
      <trkpt lat="45.78982" lon="4.65382">
        <ele>531.78900146484</ele>
        <time>2012-04-17T18:25:06Z</time>
      </trkpt>
      <trkpt lat="45.78979" lon="4.65366">
        <ele>533.17797851562</ele>
        <time>2012-04-17T18:25:15Z</time>
      </trkpt>
      <trkpt lat="45.78976" lon="4.65359">
        <ele>533.583984375</ele>
        <time>2012-04-17T18:25:19Z</time>
      </trkpt>
      <trkpt lat="45.78971" lon="4.65348">
        <ele>533.95599365234</ele>
        <time>2012-04-17T18:25:24Z</time>
      </trkpt>
      <trkpt lat="45.78963" lon="4.65332">
        <ele>534.45098876953</ele>
        <time>2012-04-17T18:25:31Z</time>
      </trkpt>
      <trkpt lat="45.78956" lon="4.65319">
        <ele>535.13201904297</ele>
        <time>2012-04-17T18:25:36Z</time>
      </trkpt>
      <trkpt lat="45.78948" lon="4.65302">
        <ele>535.78497314453</ele>
        <time>2012-04-17T18:25:42Z</time>
      </trkpt>
      <trkpt lat="45.78941" lon="4.6529">
        <ele>536.29602050781</ele>
        <time>2012-04-17T18:25:48Z</time>
      </trkpt>
      <trkpt lat="45.78935" lon="4.65278">
        <ele>536.83197021484</ele>
        <time>2012-04-17T18:25:53Z</time>
      </trkpt>
      <trkpt lat="45.78929" lon="4.65266">
        <ele>537.34100341797</ele>
        <time>2012-04-17T18:25:59Z</time>
      </trkpt>
      <trkpt lat="45.78925" lon="4.65253">
        <ele>537.77099609375</ele>
        <time>2012-04-17T18:26:05Z</time>
      </trkpt>
      <trkpt lat="45.78924" lon="4.65252">
        <ele>537.86102294922</ele>
        <time>2012-04-17T18:26:06Z</time>
      </trkpt>
      <trkpt lat="45.78921" lon="4.65248">
        <ele>538.27001953125</ele>
        <time>2012-04-17T18:26:09Z</time>
      </trkpt>
      <trkpt lat="45.78912" lon="4.65245">
        <ele>538.125</ele>
        <time>2012-04-17T18:26:13Z</time>
      </trkpt>
      <trkpt lat="45.78901" lon="4.65235">
        <ele>537.32702636719</ele>
        <time>2012-04-17T18:26:18Z</time>
      </trkpt>
      <trkpt lat="45.78886" lon="4.65227">
        <ele>536.98901367188</ele>
        <time>2012-04-17T18:26:22Z</time>
      </trkpt>
      <trkpt lat="45.78878" lon="4.65223">
        <ele>536.80700683594</ele>
        <time>2012-04-17T18:26:25Z</time>
      </trkpt>
      <trkpt lat="45.78858" lon="4.65219">
        <ele>536.31298828125</ele>
        <time>2012-04-17T18:26:31Z</time>
      </trkpt>
      <trkpt lat="45.78845" lon="4.65219">
        <ele>536.10498046875</ele>
        <time>2012-04-17T18:26:36Z</time>
      </trkpt>
      <trkpt lat="45.78832" lon="4.65217">
        <ele>535.88598632812</ele>
        <time>2012-04-17T18:26:40Z</time>
      </trkpt>
      <trkpt lat="45.7882" lon="4.65213">
        <ele>535.7919921875</ele>
        <time>2012-04-17T18:26:44Z</time>
      </trkpt>
      <trkpt lat="45.78808" lon="4.6521">
        <ele>536.05297851562</ele>
        <time>2012-04-17T18:26:48Z</time>
      </trkpt>
      <trkpt lat="45.78793" lon="4.65213">
        <ele>535.57202148438</ele>
        <time>2012-04-17T18:26:52Z</time>
      </trkpt>
      <trkpt lat="45.7879" lon="4.65214">
        <ele>535.33599853516</ele>
        <time>2012-04-17T18:26:53Z</time>
      </trkpt>
      <trkpt lat="45.7877" lon="4.65215">
        <ele>533.18298339844</ele>
        <time>2012-04-17T18:26:57Z</time>
      </trkpt>
      <trkpt lat="45.78746" lon="4.65214">
        <ele>529.93103027344</ele>
        <time>2012-04-17T18:27:02Z</time>
      </trkpt>
      <trkpt lat="45.78733" lon="4.65212">
        <ele>527.70697021484</ele>
        <time>2012-04-17T18:27:05Z</time>
      </trkpt>
      <trkpt lat="45.78715" lon="4.65223">
        <ele>524.68103027344</ele>
        <time>2012-04-17T18:27:09Z</time>
      </trkpt>
      <trkpt lat="45.78699" lon="4.6523">
        <ele>523.56097412109</ele>
        <time>2012-04-17T18:27:12Z</time>
      </trkpt>
      <trkpt lat="45.78673" lon="4.65227">
        <ele>521.73999023438</ele>
        <time>2012-04-17T18:27:17Z</time>
      </trkpt>
      <trkpt lat="45.78669" lon="4.65226">
        <ele>521.291015625</ele>
        <time>2012-04-17T18:27:18Z</time>
      </trkpt>
      <trkpt lat="45.78656" lon="4.65226">
        <ele>517.97399902344</ele>
        <time>2012-04-17T18:27:23Z</time>
      </trkpt>
      <trkpt lat="45.78646" lon="4.65239">
        <ele>513.70501708984</ele>
        <time>2012-04-17T18:27:30Z</time>
      </trkpt>
      <trkpt lat="45.7864" lon="4.65252">
        <ele>511.17401123047</ele>
        <time>2012-04-17T18:27:34Z</time>
      </trkpt>
      <trkpt lat="45.78639" lon="4.65258">
        <ele>510.44198608398</ele>
        <time>2012-04-17T18:27:36Z</time>
      </trkpt>
      <trkpt lat="45.78637" lon="4.65276">
        <ele>507.12298583984</ele>
        <time>2012-04-17T18:27:42Z</time>
      </trkpt>
      <trkpt lat="45.78633" lon="4.65288">
        <ele>505.37399291992</ele>
        <time>2012-04-17T18:27:47Z</time>
      </trkpt>
      <trkpt lat="45.7863" lon="4.65296">
        <ele>504.3219909668</ele>
        <time>2012-04-17T18:27:51Z</time>
      </trkpt>
      <trkpt lat="45.78629" lon="4.65302">
        <ele>503.65600585938</ele>
        <time>2012-04-17T18:27:55Z</time>
      </trkpt>
      <trkpt lat="45.78626" lon="4.65323">
        <ele>503.36801147461</ele>
        <time>2012-04-17T18:28:04Z</time>
      </trkpt>
      <trkpt lat="45.78628" lon="4.65335">
        <ele>503.07998657227</ele>
        <time>2012-04-17T18:28:08Z</time>
      </trkpt>
      <trkpt lat="45.78629" lon="4.65353">
        <ele>502.78698730469</ele>
        <time>2012-04-17T18:28:12Z</time>
      </trkpt>
      <trkpt lat="45.7863" lon="4.65378">
        <ele>502.68099975586</ele>
        <time>2012-04-17T18:28:18Z</time>
      </trkpt>
      <trkpt lat="45.78632" lon="4.65397">
        <ele>502.58599853516</ele>
        <time>2012-04-17T18:28:22Z</time>
      </trkpt>
      <trkpt lat="45.78632" lon="4.65416">
        <ele>502.65798950195</ele>
        <time>2012-04-17T18:28:27Z</time>
      </trkpt>
      <trkpt lat="45.78635" lon="4.65439">
        <ele>502.89898681641</ele>
        <time>2012-04-17T18:28:32Z</time>
      </trkpt>
      <trkpt lat="45.78631" lon="4.65462">
        <ele>503.25</ele>
        <time>2012-04-17T18:28:37Z</time>
      </trkpt>
      <trkpt lat="45.78621" lon="4.65472">
        <ele>503.52899169922</ele>
        <time>2012-04-17T18:28:42Z</time>
      </trkpt>
      <trkpt lat="45.7861" lon="4.65487">
        <ele>504.79901123047</ele>
        <time>2012-04-17T18:28:48Z</time>
      </trkpt>
      <trkpt lat="45.786" lon="4.65506">
        <ele>505.89898681641</ele>
        <time>2012-04-17T18:28:54Z</time>
      </trkpt>
      <trkpt lat="45.78588" lon="4.6552">
        <ele>506.56698608398</ele>
        <time>2012-04-17T18:28:59Z</time>
      </trkpt>
      <trkpt lat="45.78577" lon="4.65533">
        <ele>506.47698974609</ele>
        <time>2012-04-17T18:29:05Z</time>
      </trkpt>
      <trkpt lat="45.78568" lon="4.65536">
        <ele>505.76300048828</ele>
        <time>2012-04-17T18:29:10Z</time>
      </trkpt>
      <trkpt lat="45.78561" lon="4.65538">
        <ele>505.44299316406</ele>
        <time>2012-04-17T18:29:14Z</time>
      </trkpt>
      <trkpt lat="45.78552" lon="4.65556">
        <ele>505.2380065918</ele>
        <time>2012-04-17T18:29:22Z</time>
      </trkpt>
      <trkpt lat="45.78544" lon="4.65575">
        <ele>505.33099365234</ele>
        <time>2012-04-17T18:29:28Z</time>
      </trkpt>
      <trkpt lat="45.78539" lon="4.6559">
        <ele>505.24700927734</ele>
        <time>2012-04-17T18:29:33Z</time>
      </trkpt>
      <trkpt lat="45.78532" lon="4.656">
        <ele>504.40200805664</ele>
        <time>2012-04-17T18:29:39Z</time>
      </trkpt>
      <trkpt lat="45.78524" lon="4.65611">
        <ele>503.95098876953</ele>
        <time>2012-04-17T18:29:44Z</time>
      </trkpt>
      <trkpt lat="45.78514" lon="4.65629">
        <ele>503.22601318359</ele>
        <time>2012-04-17T18:29:48Z</time>
      </trkpt>
      <trkpt lat="45.78503" lon="4.65654">
        <ele>501.93099975586</ele>
        <time>2012-04-17T18:29:53Z</time>
      </trkpt>
      <trkpt lat="45.785" lon="4.65674">
        <ele>501.15200805664</ele>
        <time>2012-04-17T18:29:57Z</time>
      </trkpt>
      <trkpt lat="45.78489" lon="4.65689">
        <ele>500.80801391602</ele>
        <time>2012-04-17T18:30:01Z</time>
      </trkpt>
      <trkpt lat="45.78485" lon="4.65708">
        <ele>500.40301513672</ele>
        <time>2012-04-17T18:30:06Z</time>
      </trkpt>
      <trkpt lat="45.78481" lon="4.65725">
        <ele>500.21600341797</ele>
        <time>2012-04-17T18:30:12Z</time>
      </trkpt>
      <trkpt lat="45.78478" lon="4.65733">
        <ele>500.18499755859</ele>
        <time>2012-04-17T18:30:14Z</time>
      </trkpt>
      <trkpt lat="45.78476" lon="4.65743">
        <ele>500.23199462891</ele>
        <time>2012-04-17T18:30:17Z</time>
      </trkpt>
      <trkpt lat="45.78468" lon="4.65759">
        <ele>500.18099975586</ele>
        <time>2012-04-17T18:30:23Z</time>
      </trkpt>
      <trkpt lat="45.7846" lon="4.65775">
        <ele>500.44100952148</ele>
        <time>2012-04-17T18:30:28Z</time>
      </trkpt>
      <trkpt lat="45.7846" lon="4.65777">
        <ele>500.49499511719</ele>
        <time>2012-04-17T18:30:29Z</time>
      </trkpt>
      <trkpt lat="45.78459" lon="4.65794">
        <ele>500.59100341797</ele>
        <time>2012-04-17T18:30:34Z</time>
      </trkpt>
      <trkpt lat="45.78467" lon="4.65812">
        <ele>499.78698730469</ele>
        <time>2012-04-17T18:30:40Z</time>
      </trkpt>
      <trkpt lat="45.78468" lon="4.65818">
        <ele>499.13000488281</ele>
        <time>2012-04-17T18:30:47Z</time>
      </trkpt>
      <trkpt lat="45.78469" lon="4.65819">
        <ele>498.98498535156</ele>
        <time>2012-04-17T18:30:49Z</time>
      </trkpt>
      <trkpt lat="45.78473" lon="4.65834">
        <ele>498.30599975586</ele>
        <time>2012-04-17T18:30:55Z</time>
      </trkpt>
      <trkpt lat="45.78475" lon="4.65842">
        <ele>497.24600219727</ele>
        <time>2012-04-17T18:31:00Z</time>
      </trkpt>
      <trkpt lat="45.78476" lon="4.65847">
        <ele>496.78601074219</ele>
        <time>2012-04-17T18:31:02Z</time>
      </trkpt>
      <trkpt lat="45.78471" lon="4.6586">
        <ele>496.4880065918</ele>
        <time>2012-04-17T18:31:09Z</time>
      </trkpt>
      <trkpt lat="45.78477" lon="4.65866">
        <ele>496.26400756836</ele>
        <time>2012-04-17T18:31:13Z</time>
      </trkpt>
      <trkpt lat="45.7848" lon="4.65879">
        <ele>495.57598876953</ele>
        <time>2012-04-17T18:31:16Z</time>
      </trkpt>
      <trkpt lat="45.78482" lon="4.65885">
        <ele>495.27398681641</ele>
        <time>2012-04-17T18:31:17Z</time>
      </trkpt>
      <trkpt lat="45.78482" lon="4.65912">
        <ele>493.85299682617</ele>
        <time>2012-04-17T18:31:21Z</time>
      </trkpt>
      <trkpt lat="45.78461" lon="4.65906">
        <ele>492.34298706055</ele>
        <time>2012-04-17T18:31:26Z</time>
      </trkpt>
      <trkpt lat="45.78433" lon="4.65889">
        <ele>490.02899169922</ele>
        <time>2012-04-17T18:31:33Z</time>
      </trkpt>
      <trkpt lat="45.78419" lon="4.65884">
        <ele>487.51000976562</ele>
        <time>2012-04-17T18:31:37Z</time>
      </trkpt>
      <trkpt lat="45.78408" lon="4.65887">
        <ele>485.32400512695</ele>
        <time>2012-04-17T18:31:41Z</time>
      </trkpt>
      <trkpt lat="45.78401" lon="4.65906">
        <ele>483.62701416016</ele>
        <time>2012-04-17T18:31:47Z</time>
      </trkpt>
      <trkpt lat="45.78399" lon="4.65924">
        <ele>482.86199951172</ele>
        <time>2012-04-17T18:31:51Z</time>
      </trkpt>
      <trkpt lat="45.78393" lon="4.65957">
        <ele>481.14300537109</ele>
        <time>2012-04-17T18:31:57Z</time>
      </trkpt>
      <trkpt lat="45.78392" lon="4.65978">
        <ele>480.0710144043</ele>
        <time>2012-04-17T18:32:01Z</time>
      </trkpt>
      <trkpt lat="45.78392" lon="4.65997">
        <ele>479.02700805664</ele>
        <time>2012-04-17T18:32:05Z</time>
      </trkpt>
      <trkpt lat="45.78393" lon="4.66002">
        <ele>478.58099365234</ele>
        <time>2012-04-17T18:32:07Z</time>
      </trkpt>
      <trkpt lat="45.78392" lon="4.66021">
        <ele>477.93499755859</ele>
        <time>2012-04-17T18:32:12Z</time>
      </trkpt>
      <trkpt lat="45.78392" lon="4.66038">
        <ele>477.62200927734</ele>
        <time>2012-04-17T18:32:16Z</time>
      </trkpt>
      <trkpt lat="45.78392" lon="4.66042">
        <ele>477.53298950195</ele>
        <time>2012-04-17T18:32:17Z</time>
      </trkpt>
      <trkpt lat="45.78394" lon="4.66071">
        <ele>477.10699462891</ele>
        <time>2012-04-17T18:32:22Z</time>
      </trkpt>
      <trkpt lat="45.78395" lon="4.66103">
        <ele>476.62399291992</ele>
        <time>2012-04-17T18:32:27Z</time>
      </trkpt>
      <trkpt lat="45.78392" lon="4.66128">
        <ele>476.30999755859</ele>
        <time>2012-04-17T18:32:30Z</time>
      </trkpt>
      <trkpt lat="45.78391" lon="4.66142">
        <ele>476.12200927734</ele>
        <time>2012-04-17T18:32:32Z</time>
      </trkpt>
      <trkpt lat="45.78384" lon="4.66178">
        <ele>475.07800292969</ele>
        <time>2012-04-17T18:32:37Z</time>
      </trkpt>
      <trkpt lat="45.78379" lon="4.66193">
        <ele>474.52600097656</ele>
        <time>2012-04-17T18:32:40Z</time>
      </trkpt>
      <trkpt lat="45.78369" lon="4.66218">
        <ele>473.05499267578</ele>
        <time>2012-04-17T18:32:44Z</time>
      </trkpt>
      <trkpt lat="45.78357" lon="4.66238">
        <ele>471.86099243164</ele>
        <time>2012-04-17T18:32:47Z</time>
      </trkpt>
      <trkpt lat="45.78348" lon="4.66251">
        <ele>470.31600952148</ele>
        <time>2012-04-17T18:32:51Z</time>
      </trkpt>
      <trkpt lat="45.78349" lon="4.66256">
        <ele>469.26599121094</ele>
        <time>2012-04-17T18:32:55Z</time>
      </trkpt>
      <trkpt lat="45.78345" lon="4.66263">
        <ele>469.125</ele>
        <time>2012-04-17T18:33:05Z</time>
      </trkpt>
      <trkpt lat="45.78337" lon="4.66268">
        <ele>468.97900390625</ele>
        <time>2012-04-17T18:33:07Z</time>
      </trkpt>
      <trkpt lat="45.78315" lon="4.663">
        <ele>466.95300292969</ele>
        <time>2012-04-17T18:33:13Z</time>
      </trkpt>
      <trkpt lat="45.78297" lon="4.6633">
        <ele>463.60501098633</ele>
        <time>2012-04-17T18:33:18Z</time>
      </trkpt>
      <trkpt lat="45.78295" lon="4.66332">
        <ele>462.79598999023</ele>
        <time>2012-04-17T18:33:19Z</time>
      </trkpt>
      <trkpt lat="45.78288" lon="4.66334">
        <ele>460.00500488281</ele>
        <time>2012-04-17T18:33:23Z</time>
      </trkpt>
      <trkpt lat="45.78287" lon="4.66332">
        <ele>459.38000488281</ele>
        <time>2012-04-17T18:33:25Z</time>
      </trkpt>
      <trkpt lat="45.78286" lon="4.66319">
        <ele>459.61499023438</ele>
        <time>2012-04-17T18:33:32Z</time>
      </trkpt>
      <trkpt lat="45.78286" lon="4.66316">
        <ele>460.0299987793</ele>
        <time>2012-04-17T18:33:34Z</time>
      </trkpt>
      <trkpt lat="45.78285" lon="4.66313">
        <ele>460.53900146484</ele>
        <time>2012-04-17T18:33:36Z</time>
      </trkpt>
      <trkpt lat="45.78282" lon="4.66302">
        <ele>461.95599365234</ele>
        <time>2012-04-17T18:33:42Z</time>
      </trkpt>
      <trkpt lat="45.78279" lon="4.66288">
        <ele>464.41000366211</ele>
        <time>2012-04-17T18:33:49Z</time>
      </trkpt>
      <trkpt lat="45.78279" lon="4.66275">
        <ele>465.9280090332</ele>
        <time>2012-04-17T18:33:56Z</time>
      </trkpt>
      <trkpt lat="45.78279" lon="4.66265">
        <ele>467.66198730469</ele>
        <time>2012-04-17T18:34:03Z</time>
      </trkpt>
      <trkpt lat="45.78278" lon="4.66253">
        <ele>469.20599365234</ele>
        <time>2012-04-17T18:34:11Z</time>
      </trkpt>
      <trkpt lat="45.78277" lon="4.66245">
        <ele>470.19198608398</ele>
        <time>2012-04-17T18:34:16Z</time>
      </trkpt>
      <trkpt lat="45.78276" lon="4.66235">
        <ele>471.26800537109</ele>
        <time>2012-04-17T18:34:23Z</time>
      </trkpt>
      <trkpt lat="45.78276" lon="4.66224">
        <ele>472.14401245117</ele>
        <time>2012-04-17T18:34:30Z</time>
      </trkpt>
      <trkpt lat="45.78274" lon="4.66215">
        <ele>473.5419921875</ele>
        <time>2012-04-17T18:34:37Z</time>
      </trkpt>
      <trkpt lat="45.78274" lon="4.66213">
        <ele>473.92599487305</ele>
        <time>2012-04-17T18:34:39Z</time>
      </trkpt>
      <trkpt lat="45.78275" lon="4.66204">
        <ele>475.43499755859</ele>
        <time>2012-04-17T18:34:46Z</time>
      </trkpt>
      <trkpt lat="45.78275" lon="4.66193">
        <ele>476.69198608398</ele>
        <time>2012-04-17T18:34:52Z</time>
      </trkpt>
      <trkpt lat="45.78274" lon="4.66184">
        <ele>478.12200927734</ele>
        <time>2012-04-17T18:34:57Z</time>
      </trkpt>
      <trkpt lat="45.78272" lon="4.66173">
        <ele>480.46099853516</ele>
        <time>2012-04-17T18:35:04Z</time>
      </trkpt>
      <trkpt lat="45.7827" lon="4.66167">
        <ele>481.59899902344</ele>
        <time>2012-04-17T18:35:08Z</time>
      </trkpt>
      <trkpt lat="45.78268" lon="4.66154">
        <ele>483.46899414062</ele>
        <time>2012-04-17T18:35:17Z</time>
      </trkpt>
      <trkpt lat="45.78267" lon="4.66143">
        <ele>484.97399902344</ele>
        <time>2012-04-17T18:35:25Z</time>
      </trkpt>
      <trkpt lat="45.78265" lon="4.66132">
        <ele>486.89801025391</ele>
        <time>2012-04-17T18:35:32Z</time>
      </trkpt>
      <trkpt lat="45.7826" lon="4.66118">
        <ele>488.88500976562</ele>
        <time>2012-04-17T18:35:40Z</time>
      </trkpt>
      <trkpt lat="45.78256" lon="4.66108">
        <ele>490.97500610352</ele>
        <time>2012-04-17T18:35:47Z</time>
      </trkpt>
      <trkpt lat="45.78251" lon="4.66096">
        <ele>493.01501464844</ele>
        <time>2012-04-17T18:35:56Z</time>
      </trkpt>
      <trkpt lat="45.78247" lon="4.66081">
        <ele>494.99200439453</ele>
        <time>2012-04-17T18:36:04Z</time>
      </trkpt>
      <trkpt lat="45.78241" lon="4.6607">
        <ele>497.14801025391</ele>
        <time>2012-04-17T18:36:11Z</time>
      </trkpt>
      <trkpt lat="45.78233" lon="4.66061">
        <ele>498.87899780273</ele>
        <time>2012-04-17T18:36:17Z</time>
      </trkpt>
      <trkpt lat="45.78229" lon="4.66052">
        <ele>500.01098632812</ele>
        <time>2012-04-17T18:36:21Z</time>
      </trkpt>
      <trkpt lat="45.78226" lon="4.66048">
        <ele>500.75698852539</ele>
        <time>2012-04-17T18:36:25Z</time>
      </trkpt>
      <trkpt lat="45.78217" lon="4.66034">
        <ele>501.63000488281</ele>
        <time>2012-04-17T18:36:34Z</time>
      </trkpt>
      <trkpt lat="45.78211" lon="4.66024">
        <ele>502.32901000977</ele>
        <time>2012-04-17T18:36:41Z</time>
      </trkpt>
      <trkpt lat="45.78206" lon="4.66014">
        <ele>502.93399047852</ele>
        <time>2012-04-17T18:36:48Z</time>
      </trkpt>
      <trkpt lat="45.78199" lon="4.66001">
        <ele>503.59698486328</ele>
        <time>2012-04-17T18:36:56Z</time>
      </trkpt>
      <trkpt lat="45.78193" lon="4.65989">
        <ele>504.23001098633</ele>
        <time>2012-04-17T18:37:04Z</time>
      </trkpt>
      <trkpt lat="45.78184" lon="4.65971">
        <ele>505.01998901367</ele>
        <time>2012-04-17T18:37:15Z</time>
      </trkpt>
      <trkpt lat="45.78177" lon="4.65958">
        <ele>505.64001464844</ele>
        <time>2012-04-17T18:37:24Z</time>
      </trkpt>
      <trkpt lat="45.78175" lon="4.65943">
        <ele>506.47198486328</ele>
        <time>2012-04-17T18:37:32Z</time>
      </trkpt>
      <trkpt lat="45.78172" lon="4.65924">
        <ele>508.56799316406</ele>
        <time>2012-04-17T18:37:42Z</time>
      </trkpt>
      <trkpt lat="45.7817" lon="4.65913">
        <ele>509.31201171875</ele>
        <time>2012-04-17T18:37:48Z</time>
      </trkpt>
      <trkpt lat="45.78168" lon="4.65899">
        <ele>510.91900634766</ele>
        <time>2012-04-17T18:37:55Z</time>
      </trkpt>
      <trkpt lat="45.78172" lon="4.65886">
        <ele>513.35998535156</ele>
        <time>2012-04-17T18:38:04Z</time>
      </trkpt>
      <trkpt lat="45.78171" lon="4.65875">
        <ele>514.67901611328</ele>
        <time>2012-04-17T18:38:11Z</time>
      </trkpt>
      <trkpt lat="45.78167" lon="4.65866">
        <ele>515.92102050781</ele>
        <time>2012-04-17T18:38:18Z</time>
      </trkpt>
      <trkpt lat="45.78167" lon="4.6585">
        <ele>517.70202636719</ele>
        <time>2012-04-17T18:38:26Z</time>
      </trkpt>
      <trkpt lat="45.78167" lon="4.65846">
        <ele>518.22302246094</ele>
        <time>2012-04-17T18:38:28Z</time>
      </trkpt>
      <trkpt lat="45.78162" lon="4.65826">
        <ele>520.55499267578</ele>
        <time>2012-04-17T18:38:38Z</time>
      </trkpt>
      <trkpt lat="45.78159" lon="4.65812">
        <ele>522.82897949219</ele>
        <time>2012-04-17T18:38:46Z</time>
      </trkpt>
      <trkpt lat="45.78157" lon="4.65803">
        <ele>524.14898681641</ele>
        <time>2012-04-17T18:38:54Z</time>
      </trkpt>
      <trkpt lat="45.78155" lon="4.65793">
        <ele>525.13000488281</ele>
        <time>2012-04-17T18:39:02Z</time>
      </trkpt>
      <trkpt lat="45.78155" lon="4.65788">
        <ele>525.69598388672</ele>
        <time>2012-04-17T18:39:06Z</time>
      </trkpt>
      <trkpt lat="45.78153" lon="4.65775">
        <ele>527.2919921875</ele>
        <time>2012-04-17T18:39:15Z</time>
      </trkpt>
      <trkpt lat="45.78152" lon="4.65771">
        <ele>527.75402832031</ele>
        <time>2012-04-17T18:39:17Z</time>
      </trkpt>
      <trkpt lat="45.7815" lon="4.65765">
        <ele>528.416015625</ele>
        <time>2012-04-17T18:39:21Z</time>
      </trkpt>
      <trkpt lat="45.78147" lon="4.65753">
        <ele>529.54998779297</ele>
        <time>2012-04-17T18:39:28Z</time>
      </trkpt>
      <trkpt lat="45.78146" lon="4.65744">
        <ele>530.42297363281</ele>
        <time>2012-04-17T18:39:33Z</time>
      </trkpt>
      <trkpt lat="45.78143" lon="4.65731">
        <ele>531.35302734375</ele>
        <time>2012-04-17T18:39:40Z</time>
      </trkpt>
      <trkpt lat="45.7814" lon="4.65716">
        <ele>532.56298828125</ele>
        <time>2012-04-17T18:39:47Z</time>
      </trkpt>
      <trkpt lat="45.78134" lon="4.657">
        <ele>533.47497558594</ele>
        <time>2012-04-17T18:39:53Z</time>
      </trkpt>
      <trkpt lat="45.78131" lon="4.65684">
        <ele>534.72198486328</ele>
        <time>2012-04-17T18:39:58Z</time>
      </trkpt>
      <trkpt lat="45.78128" lon="4.65665">
        <ele>536.12298583984</ele>
        <time>2012-04-17T18:40:05Z</time>
      </trkpt>
      <trkpt lat="45.78127" lon="4.65646">
        <ele>537.0419921875</ele>
        <time>2012-04-17T18:40:12Z</time>
      </trkpt>
      <trkpt lat="45.78126" lon="4.65631">
        <ele>538.00598144531</ele>
        <time>2012-04-17T18:40:18Z</time>
      </trkpt>
      <trkpt lat="45.78123" lon="4.65616">
        <ele>538.60601806641</ele>
        <time>2012-04-17T18:40:25Z</time>
      </trkpt>
      <trkpt lat="45.78124" lon="4.65595">
        <ele>539.30297851562</ele>
        <time>2012-04-17T18:40:34Z</time>
      </trkpt>
      <trkpt lat="45.78124" lon="4.65589">
        <ele>539.75897216797</ele>
        <time>2012-04-17T18:40:37Z</time>
      </trkpt>
      <trkpt lat="45.78123" lon="4.65578">
        <ele>540.40399169922</ele>
        <time>2012-04-17T18:40:42Z</time>
      </trkpt>
      <trkpt lat="45.78127" lon="4.65561">
        <ele>541.86199951172</ele>
        <time>2012-04-17T18:40:50Z</time>
      </trkpt>
      <trkpt lat="45.7813" lon="4.65549">
        <ele>543.02398681641</ele>
        <time>2012-04-17T18:40:56Z</time>
      </trkpt>
      <trkpt lat="45.78131" lon="4.65541">
        <ele>543.75598144531</ele>
        <time>2012-04-17T18:40:59Z</time>
      </trkpt>
      <trkpt lat="45.78127" lon="4.65526">
        <ele>544.89099121094</ele>
        <time>2012-04-17T18:41:06Z</time>
      </trkpt>
      <trkpt lat="45.78125" lon="4.65518">
        <ele>544.75799560547</ele>
        <time>2012-04-17T18:41:13Z</time>
      </trkpt>
      <trkpt lat="45.78122" lon="4.65509">
        <ele>544.29699707031</ele>
        <time>2012-04-17T18:46:28Z</time>
      </trkpt>
      <trkpt lat="45.78123" lon="4.65491">
        <ele>544.40301513672</ele>
        <time>2012-04-17T18:46:34Z</time>
      </trkpt>
      <trkpt lat="45.78123" lon="4.65468">
        <ele>545.04302978516</ele>
        <time>2012-04-17T18:46:41Z</time>
      </trkpt>
      <trkpt lat="45.78124" lon="4.65442">
        <ele>545.54602050781</ele>
        <time>2012-04-17T18:46:47Z</time>
      </trkpt>
      <trkpt lat="45.78127" lon="4.65422">
        <ele>545.82501220703</ele>
        <time>2012-04-17T18:46:52Z</time>
      </trkpt>
      <trkpt lat="45.78127" lon="4.65417">
        <ele>545.90100097656</ele>
        <time>2012-04-17T18:46:54Z</time>
      </trkpt>
      <trkpt lat="45.78125" lon="4.65398">
        <ele>546.49499511719</ele>
        <time>2012-04-17T18:47:02Z</time>
      </trkpt>
      <trkpt lat="45.78127" lon="4.65381">
        <ele>547.50500488281</ele>
        <time>2012-04-17T18:47:08Z</time>
      </trkpt>
      <trkpt lat="45.78129" lon="4.65368">
        <ele>549.25</ele>
        <time>2012-04-17T18:47:13Z</time>
      </trkpt>
      <trkpt lat="45.78133" lon="4.65353">
        <ele>551.11102294922</ele>
        <time>2012-04-17T18:47:20Z</time>
      </trkpt>
      <trkpt lat="45.78133" lon="4.65339">
        <ele>552.125</ele>
        <time>2012-04-17T18:47:26Z</time>
      </trkpt>
      <trkpt lat="45.78136" lon="4.65329">
        <ele>552.44396972656</ele>
        <time>2012-04-17T18:47:31Z</time>
      </trkpt>
      <trkpt lat="45.78132" lon="4.65315">
        <ele>553.23199462891</ele>
        <time>2012-04-17T18:47:37Z</time>
      </trkpt>
      <trkpt lat="45.7813" lon="4.653">
        <ele>554.10601806641</ele>
        <time>2012-04-17T18:47:44Z</time>
      </trkpt>
      <trkpt lat="45.78128" lon="4.65292">
        <ele>554.53900146484</ele>
        <time>2012-04-17T18:47:47Z</time>
      </trkpt>
      <trkpt lat="45.78131" lon="4.65274">
        <ele>555.75500488281</ele>
        <time>2012-04-17T18:47:55Z</time>
      </trkpt>
      <trkpt lat="45.78132" lon="4.6527">
        <ele>556.10498046875</ele>
        <time>2012-04-17T18:47:57Z</time>
      </trkpt>
      <trkpt lat="45.78133" lon="4.65265">
        <ele>556.81500244141</ele>
        <time>2012-04-17T18:48:00Z</time>
      </trkpt>
      <trkpt lat="45.78134" lon="4.65249">
        <ele>558.92700195312</ele>
        <time>2012-04-17T18:48:08Z</time>
      </trkpt>
      <trkpt lat="45.78135" lon="4.65238">
        <ele>560.37701416016</ele>
        <time>2012-04-17T18:48:14Z</time>
      </trkpt>
      <trkpt lat="45.78134" lon="4.65227">
        <ele>561.52398681641</ele>
        <time>2012-04-17T18:48:20Z</time>
      </trkpt>
      <trkpt lat="45.78135" lon="4.65218">
        <ele>562.30902099609</ele>
        <time>2012-04-17T18:48:26Z</time>
      </trkpt>
      <trkpt lat="45.78135" lon="4.65204">
        <ele>563.47601318359</ele>
        <time>2012-04-17T18:48:34Z</time>
      </trkpt>
      <trkpt lat="45.78136" lon="4.65198">
        <ele>564.31597900391</ele>
        <time>2012-04-17T18:48:42Z</time>
      </trkpt>
      <trkpt lat="45.78136" lon="4.65197">
        <ele>564.36700439453</ele>
        <time>2012-04-17T18:48:49Z</time>
      </trkpt>
      <trkpt lat="45.78133" lon="4.65193">
        <ele>564.28302001953</ele>
        <time>2012-04-17T18:48:59Z</time>
      </trkpt>
      <trkpt lat="45.78134" lon="4.6519">
        <ele>564.61102294922</ele>
        <time>2012-04-17T18:49:06Z</time>
      </trkpt>
      <trkpt lat="45.78135" lon="4.65188">
        <ele>564.72998046875</ele>
        <time>2012-04-17T18:49:07Z</time>
      </trkpt>
      <trkpt lat="45.78142" lon="4.65184">
        <ele>565.74401855469</ele>
        <time>2012-04-17T18:49:12Z</time>
      </trkpt>
      <trkpt lat="45.78144" lon="4.65183">
        <ele>566.05297851562</ele>
        <time>2012-04-17T18:49:13Z</time>
      </trkpt>
      <trkpt lat="45.78148" lon="4.65181">
        <ele>567.15399169922</ele>
        <time>2012-04-17T18:49:16Z</time>
      </trkpt>
      <trkpt lat="45.78156" lon="4.65184">
        <ele>568.86602783203</ele>
        <time>2012-04-17T18:49:21Z</time>
      </trkpt>
      <trkpt lat="45.78162" lon="4.65194">
        <ele>570.6669921875</ele>
        <time>2012-04-17T18:49:29Z</time>
      </trkpt>
      <trkpt lat="45.78162" lon="4.65195">
        <ele>570.83898925781</ele>
        <time>2012-04-17T18:49:30Z</time>
      </trkpt>
      <trkpt lat="45.78165" lon="4.652">
        <ele>571.23199462891</ele>
        <time>2012-04-17T18:49:34Z</time>
      </trkpt>
      <trkpt lat="45.78167" lon="4.65211">
        <ele>572.51898193359</ele>
        <time>2012-04-17T18:49:42Z</time>
      </trkpt>
      <trkpt lat="45.78177" lon="4.65222">
        <ele>573.42999267578</ele>
        <time>2012-04-17T18:49:49Z</time>
      </trkpt>
      <trkpt lat="45.78186" lon="4.65233">
        <ele>575.15502929688</ele>
        <time>2012-04-17T18:49:57Z</time>
      </trkpt>
      <trkpt lat="45.78193" lon="4.6524">
        <ele>576.05700683594</ele>
        <time>2012-04-17T18:50:03Z</time>
      </trkpt>
      <trkpt lat="45.78198" lon="4.65243">
        <ele>576.76599121094</ele>
        <time>2012-04-17T18:50:08Z</time>
      </trkpt>
      <trkpt lat="45.78204" lon="4.65239">
        <ele>578.29901123047</ele>
        <time>2012-04-17T18:50:13Z</time>
      </trkpt>
      <trkpt lat="45.78207" lon="4.65225">
        <ele>580.35400390625</ele>
        <time>2012-04-17T18:50:21Z</time>
      </trkpt>
      <trkpt lat="45.78209" lon="4.65218">
        <ele>580.66302490234</ele>
        <time>2012-04-17T18:50:26Z</time>
      </trkpt>
      <trkpt lat="45.7821" lon="4.65217">
        <ele>580.77502441406</ele>
        <time>2012-04-17T18:50:29Z</time>
      </trkpt>
      <trkpt lat="45.78212" lon="4.65203">
        <ele>580.70300292969</ele>
        <time>2012-04-17T18:50:36Z</time>
      </trkpt>
      <trkpt lat="45.78214" lon="4.65184">
        <ele>580.84899902344</ele>
        <time>2012-04-17T18:50:44Z</time>
      </trkpt>
      <trkpt lat="45.78217" lon="4.65162">
        <ele>581.09399414062</ele>
        <time>2012-04-17T18:50:52Z</time>
      </trkpt>
      <trkpt lat="45.78221" lon="4.65148">
        <ele>580.87701416016</ele>
        <time>2012-04-17T18:50:59Z</time>
      </trkpt>
      <trkpt lat="45.78222" lon="4.65145">
        <ele>580.90899658203</ele>
        <time>2012-04-17T18:51:01Z</time>
      </trkpt>
      <trkpt lat="45.7823" lon="4.65147">
        <ele>581.80297851562</ele>
        <time>2012-04-17T18:51:07Z</time>
      </trkpt>
      <trkpt lat="45.78237" lon="4.65147">
        <ele>583.54901123047</ele>
        <time>2012-04-17T18:51:14Z</time>
      </trkpt>
      <trkpt lat="45.78242" lon="4.6514">
        <ele>585.09100341797</ele>
        <time>2012-04-17T18:51:21Z</time>
      </trkpt>
      <trkpt lat="45.78248" lon="4.65132">
        <ele>586.59002685547</ele>
        <time>2012-04-17T18:51:29Z</time>
      </trkpt>
      <trkpt lat="45.78252" lon="4.65127">
        <ele>587.50299072266</ele>
        <time>2012-04-17T18:51:34Z</time>
      </trkpt>
      <trkpt lat="45.78254" lon="4.65123">
        <ele>588.30999755859</ele>
        <time>2012-04-17T18:51:43Z</time>
      </trkpt>
      <trkpt lat="45.78256" lon="4.6512">
        <ele>588.31097412109</ele>
        <time>2012-04-17T18:51:48Z</time>
      </trkpt>
      <trkpt lat="45.78256" lon="4.65119">
        <ele>588.36297607422</ele>
        <time>2012-04-17T18:51:49Z</time>
      </trkpt>
      <trkpt lat="45.78261" lon="4.65107">
        <ele>589.51898193359</ele>
        <time>2012-04-17T18:51:58Z</time>
      </trkpt>
      <trkpt lat="45.78267" lon="4.65098">
        <ele>590.23400878906</ele>
        <time>2012-04-17T18:52:07Z</time>
      </trkpt>
      <trkpt lat="45.78271" lon="4.65091">
        <ele>590.97497558594</ele>
        <time>2012-04-17T18:52:14Z</time>
      </trkpt>
      <trkpt lat="45.78273" lon="4.6509">
        <ele>591.02600097656</ele>
        <time>2012-04-17T18:52:16Z</time>
      </trkpt>
      <trkpt lat="45.78279" lon="4.65086">
        <ele>592.16302490234</ele>
        <time>2012-04-17T18:52:24Z</time>
      </trkpt>
      <trkpt lat="45.78283" lon="4.65084">
        <ele>592.69000244141</ele>
        <time>2012-04-17T18:52:29Z</time>
      </trkpt>
      <trkpt lat="45.78292" lon="4.65077">
        <ele>593.50299072266</ele>
        <time>2012-04-17T18:52:37Z</time>
      </trkpt>
      <trkpt lat="45.783" lon="4.65059">
        <ele>594.17797851562</ele>
        <time>2012-04-17T18:52:44Z</time>
      </trkpt>
      <trkpt lat="45.78308" lon="4.65047">
        <ele>594.64599609375</ele>
        <time>2012-04-17T18:52:50Z</time>
      </trkpt>
      <trkpt lat="45.78312" lon="4.65042">
        <ele>594.82501220703</ele>
        <time>2012-04-17T18:52:53Z</time>
      </trkpt>
      <trkpt lat="45.78314" lon="4.65041">
        <ele>595.04302978516</ele>
        <time>2012-04-17T18:53:01Z</time>
      </trkpt>
      <trkpt lat="45.78319" lon="4.65037">
        <ele>595.21899414062</ele>
        <time>2012-04-17T18:53:25Z</time>
      </trkpt>
      <trkpt lat="45.78323" lon="4.65032">
        <ele>595.46502685547</ele>
        <time>2012-04-17T18:53:29Z</time>
      </trkpt>
      <trkpt lat="45.78326" lon="4.65031">
        <ele>595.67297363281</ele>
        <time>2012-04-17T18:53:31Z</time>
      </trkpt>
      <trkpt lat="45.78331" lon="4.65026">
        <ele>596.26397705078</ele>
        <time>2012-04-17T18:53:35Z</time>
      </trkpt>
      <trkpt lat="45.78343" lon="4.65014">
        <ele>596.68402099609</ele>
        <time>2012-04-17T18:53:41Z</time>
      </trkpt>
      <trkpt lat="45.78355" lon="4.64996">
        <ele>596.16101074219</ele>
        <time>2012-04-17T18:53:47Z</time>
      </trkpt>
      <trkpt lat="45.78365" lon="4.64985">
        <ele>595.69702148438</ele>
        <time>2012-04-17T18:53:53Z</time>
      </trkpt>
      <trkpt lat="45.78369" lon="4.64978">
        <ele>595.84197998047</ele>
        <time>2012-04-17T18:53:57Z</time>
      </trkpt>
      <trkpt lat="45.78374" lon="4.64967">
        <ele>596.63702392578</ele>
        <time>2012-04-17T18:54:04Z</time>
      </trkpt>
      <trkpt lat="45.78379" lon="4.64958">
        <ele>598.25598144531</ele>
        <time>2012-04-17T18:54:10Z</time>
      </trkpt>
      <trkpt lat="45.78382" lon="4.64954">
        <ele>599.24200439453</ele>
        <time>2012-04-17T18:54:14Z</time>
      </trkpt>
      <trkpt lat="45.78389" lon="4.64943">
        <ele>600.30999755859</ele>
        <time>2012-04-17T18:54:21Z</time>
      </trkpt>
      <trkpt lat="45.78389" lon="4.64941">
        <ele>600.57897949219</ele>
        <time>2012-04-17T18:54:23Z</time>
      </trkpt>
      <trkpt lat="45.78391" lon="4.64929">
        <ele>602.26501464844</ele>
        <time>2012-04-17T18:54:31Z</time>
      </trkpt>
      <trkpt lat="45.78392" lon="4.64926">
        <ele>602.51501464844</ele>
        <time>2012-04-17T18:54:33Z</time>
      </trkpt>
      <trkpt lat="45.7839" lon="4.64916">
        <ele>603.31298828125</ele>
        <time>2012-04-17T18:54:40Z</time>
      </trkpt>
      <trkpt lat="45.78386" lon="4.64908">
        <ele>603.60900878906</ele>
        <time>2012-04-17T18:54:46Z</time>
      </trkpt>
      <trkpt lat="45.78384" lon="4.64903">
        <ele>603.46997070312</ele>
        <time>2012-04-17T18:54:51Z</time>
      </trkpt>
      <trkpt lat="45.7838" lon="4.64896">
        <ele>603.17199707031</ele>
        <time>2012-04-17T18:55:39Z</time>
      </trkpt>
      <trkpt lat="45.78379" lon="4.64875">
        <ele>602.86602783203</ele>
        <time>2012-04-17T18:55:47Z</time>
      </trkpt>
      <trkpt lat="45.78379" lon="4.64857">
        <ele>603.04302978516</ele>
        <time>2012-04-17T18:55:53Z</time>
      </trkpt>
      <trkpt lat="45.78381" lon="4.64831">
        <ele>603.24700927734</ele>
        <time>2012-04-17T18:55:59Z</time>
      </trkpt>
      <trkpt lat="45.78377" lon="4.64814">
        <ele>603.8740234375</ele>
        <time>2012-04-17T18:56:04Z</time>
      </trkpt>
      <trkpt lat="45.78375" lon="4.6481">
        <ele>604.00500488281</ele>
        <time>2012-04-17T18:56:05Z</time>
      </trkpt>
      <trkpt lat="45.78368" lon="4.64783">
        <ele>604.37097167969</ele>
        <time>2012-04-17T18:56:13Z</time>
      </trkpt>
      <trkpt lat="45.78357" lon="4.6476">
        <ele>604.55798339844</ele>
        <time>2012-04-17T18:56:20Z</time>
      </trkpt>
      <trkpt lat="45.78344" lon="4.64747">
        <ele>605.31597900391</ele>
        <time>2012-04-17T18:56:27Z</time>
      </trkpt>
      <trkpt lat="45.78334" lon="4.64734">
        <ele>606.60101318359</ele>
        <time>2012-04-17T18:56:33Z</time>
      </trkpt>
      <trkpt lat="45.78328" lon="4.64725">
        <ele>607.46697998047</ele>
        <time>2012-04-17T18:56:38Z</time>
      </trkpt>
      <trkpt lat="45.78321" lon="4.64718">
        <ele>608.46801757812</ele>
        <time>2012-04-17T18:56:44Z</time>
      </trkpt>
      <trkpt lat="45.78314" lon="4.64711">
        <ele>609.55902099609</ele>
        <time>2012-04-17T18:56:50Z</time>
      </trkpt>
      <trkpt lat="45.78308" lon="4.64703">
        <ele>610.16198730469</ele>
        <time>2012-04-17T18:56:54Z</time>
      </trkpt>
      <trkpt lat="45.78302" lon="4.64694">
        <ele>610.89099121094</ele>
        <time>2012-04-17T18:56:59Z</time>
      </trkpt>
      <trkpt lat="45.78296" lon="4.64685">
        <ele>611.5419921875</ele>
        <time>2012-04-17T18:57:05Z</time>
      </trkpt>
      <trkpt lat="45.78295" lon="4.64682">
        <ele>611.86700439453</ele>
        <time>2012-04-17T18:57:07Z</time>
      </trkpt>
      <trkpt lat="45.78283" lon="4.64671">
        <ele>612.71997070312</ele>
        <time>2012-04-17T18:57:15Z</time>
      </trkpt>
      <trkpt lat="45.78273" lon="4.64662">
        <ele>612.83697509766</ele>
        <time>2012-04-17T18:57:20Z</time>
      </trkpt>
      <trkpt lat="45.78264" lon="4.6465">
        <ele>612.98602294922</ele>
        <time>2012-04-17T18:57:25Z</time>
      </trkpt>
      <trkpt lat="45.78249" lon="4.64633">
        <ele>612.98999023438</ele>
        <time>2012-04-17T18:57:30Z</time>
      </trkpt>
      <trkpt lat="45.78236" lon="4.64619">
        <ele>612.92700195312</ele>
        <time>2012-04-17T18:57:35Z</time>
      </trkpt>
      <trkpt lat="45.78226" lon="4.6461">
        <ele>613.20697021484</ele>
        <time>2012-04-17T18:57:39Z</time>
      </trkpt>
      <trkpt lat="45.78218" lon="4.646">
        <ele>613.51898193359</ele>
        <time>2012-04-17T18:57:43Z</time>
      </trkpt>
      <trkpt lat="45.78204" lon="4.64592">
        <ele>613.46600341797</ele>
        <time>2012-04-17T18:57:47Z</time>
      </trkpt>
      <trkpt lat="45.78191" lon="4.64578">
        <ele>613.11999511719</ele>
        <time>2012-04-17T18:57:52Z</time>
      </trkpt>
      <trkpt lat="45.78181" lon="4.64567">
        <ele>613.75299072266</ele>
        <time>2012-04-17T18:57:57Z</time>
      </trkpt>
      <trkpt lat="45.78172" lon="4.64563">
        <ele>614.58801269531</ele>
        <time>2012-04-17T18:58:02Z</time>
      </trkpt>
      <trkpt lat="45.78165" lon="4.64562">
        <ele>615.26599121094</ele>
        <time>2012-04-17T18:58:06Z</time>
      </trkpt>
      <trkpt lat="45.78157" lon="4.64551">
        <ele>616.3759765625</ele>
        <time>2012-04-17T18:58:13Z</time>
      </trkpt>
      <trkpt lat="45.78156" lon="4.64549">
        <ele>616.625</ele>
        <time>2012-04-17T18:58:14Z</time>
      </trkpt>
      <trkpt lat="45.78146" lon="4.64544">
        <ele>618.55700683594</ele>
        <time>2012-04-17T18:58:21Z</time>
      </trkpt>
      <trkpt lat="45.78145" lon="4.64544">
        <ele>618.86700439453</ele>
        <time>2012-04-17T18:58:22Z</time>
      </trkpt>
      <trkpt lat="45.78136" lon="4.64536">
        <ele>620.61199951172</ele>
        <time>2012-04-17T18:58:28Z</time>
      </trkpt>
      <trkpt lat="45.78133" lon="4.64531">
        <ele>622.09997558594</ele>
        <time>2012-04-17T18:58:33Z</time>
      </trkpt>
      <trkpt lat="45.78128" lon="4.64529">
        <ele>623.82800292969</ele>
        <time>2012-04-17T18:58:39Z</time>
      </trkpt>
      <trkpt lat="45.78112" lon="4.64522">
        <ele>626.75701904297</ele>
        <time>2012-04-17T18:58:49Z</time>
      </trkpt>
      <trkpt lat="45.78107" lon="4.6452">
        <ele>628.59997558594</ele>
        <time>2012-04-17T18:58:55Z</time>
      </trkpt>
      <trkpt lat="45.78098" lon="4.64515">
        <ele>630.36798095703</ele>
        <time>2012-04-17T18:59:03Z</time>
      </trkpt>
      <trkpt lat="45.78088" lon="4.64513">
        <ele>632.03601074219</ele>
        <time>2012-04-17T18:59:10Z</time>
      </trkpt>
      <trkpt lat="45.78077" lon="4.64509">
        <ele>633.41900634766</ele>
        <time>2012-04-17T18:59:17Z</time>
      </trkpt>
      <trkpt lat="45.78066" lon="4.64501">
        <ele>635.87799072266</ele>
        <time>2012-04-17T18:59:25Z</time>
      </trkpt>
      <trkpt lat="45.78061" lon="4.64493">
        <ele>638.49798583984</ele>
        <time>2012-04-17T18:59:32Z</time>
      </trkpt>
      <trkpt lat="45.78056" lon="4.64485">
        <ele>640.33001708984</ele>
        <time>2012-04-17T18:59:38Z</time>
      </trkpt>
      <trkpt lat="45.78051" lon="4.64481">
        <ele>641.14099121094</ele>
        <time>2012-04-17T18:59:42Z</time>
      </trkpt>
      <trkpt lat="45.7805" lon="4.64479">
        <ele>641.48297119141</ele>
        <time>2012-04-17T18:59:44Z</time>
      </trkpt>
      <trkpt lat="45.78041" lon="4.64469">
        <ele>642.27001953125</ele>
        <time>2012-04-17T18:59:53Z</time>
      </trkpt>
      <trkpt lat="45.78037" lon="4.64462">
        <ele>642.62097167969</ele>
        <time>2012-04-17T19:00:00Z</time>
      </trkpt>
      <trkpt lat="45.78034" lon="4.64456">
        <ele>642.94000244141</ele>
        <time>2012-04-17T19:00:06Z</time>
      </trkpt>
      <trkpt lat="45.7803" lon="4.64453">
        <ele>643.00299072266</ele>
        <time>2012-04-17T19:00:09Z</time>
      </trkpt>
      <trkpt lat="45.78027" lon="4.64454">
        <ele>642.72497558594</ele>
        <time>2012-04-17T19:00:15Z</time>
      </trkpt>
      <trkpt lat="45.7802" lon="4.64463">
        <ele>642.64001464844</ele>
        <time>2012-04-17T19:00:38Z</time>
      </trkpt>
      <trkpt lat="45.78021" lon="4.64473">
        <ele>642.55102539062</ele>
        <time>2012-04-17T19:00:44Z</time>
      </trkpt>
      <trkpt lat="45.78021" lon="4.64475">
        <ele>642.50799560547</ele>
        <time>2012-04-17T19:00:45Z</time>
      </trkpt>
      <trkpt lat="45.78019" lon="4.64485">
        <ele>642.37097167969</ele>
        <time>2012-04-17T19:00:49Z</time>
      </trkpt>
      <trkpt lat="45.7802" lon="4.64503">
        <ele>642.10998535156</ele>
        <time>2012-04-17T19:00:55Z</time>
      </trkpt>
      <trkpt lat="45.7802" lon="4.64511">
        <ele>642.12799072266</ele>
        <time>2012-04-17T19:00:57Z</time>
      </trkpt>
      <trkpt lat="45.78021" lon="4.64537">
        <ele>642.73400878906</ele>
        <time>2012-04-17T19:01:04Z</time>
      </trkpt>
      <trkpt lat="45.78022" lon="4.64554">
        <ele>643.78698730469</ele>
        <time>2012-04-17T19:01:09Z</time>
      </trkpt>
      <trkpt lat="45.7802" lon="4.64577">
        <ele>645.26800537109</ele>
        <time>2012-04-17T19:01:15Z</time>
      </trkpt>
      <trkpt lat="45.78019" lon="4.6459">
        <ele>646.12097167969</ele>
        <time>2012-04-17T19:01:20Z</time>
      </trkpt>
      <trkpt lat="45.78014" lon="4.64598">
        <ele>647.39300537109</ele>
        <time>2012-04-17T19:01:25Z</time>
      </trkpt>
      <trkpt lat="45.78011" lon="4.64601">
        <ele>648.12902832031</ele>
        <time>2012-04-17T19:01:28Z</time>
      </trkpt>
      <trkpt lat="45.78006" lon="4.64608">
        <ele>648.94299316406</ele>
        <time>2012-04-17T19:01:32Z</time>
      </trkpt>
      <trkpt lat="45.77998" lon="4.64623">
        <ele>650.78497314453</ele>
        <time>2012-04-17T19:01:38Z</time>
      </trkpt>
      <trkpt lat="45.77986" lon="4.6464">
        <ele>652.72198486328</ele>
        <time>2012-04-17T19:01:45Z</time>
      </trkpt>
      <trkpt lat="45.7798" lon="4.64649">
        <ele>652.98797607422</ele>
        <time>2012-04-17T19:01:51Z</time>
      </trkpt>
      <trkpt lat="45.77978" lon="4.64652">
        <ele>653.00897216797</ele>
        <time>2012-04-17T19:01:57Z</time>
      </trkpt>
      <trkpt lat="45.77979" lon="4.64656">
        <ele>653.09100341797</ele>
        <time>2012-04-17T19:02:16Z</time>
      </trkpt>
      <trkpt lat="45.77978" lon="4.64659">
        <ele>653.13299560547</ele>
        <time>2012-04-17T19:02:21Z</time>
      </trkpt>
      <trkpt lat="45.77977" lon="4.64662">
        <ele>653.1240234375</ele>
        <time>2012-04-17T19:02:24Z</time>
      </trkpt>
      <trkpt lat="45.77966" lon="4.64679">
        <ele>653.45697021484</ele>
        <time>2012-04-17T19:02:31Z</time>
      </trkpt>
      <trkpt lat="45.77958" lon="4.64698">
        <ele>653.67602539062</ele>
        <time>2012-04-17T19:02:37Z</time>
      </trkpt>
      <trkpt lat="45.77951" lon="4.64724">
        <ele>653.47497558594</ele>
        <time>2012-04-17T19:02:43Z</time>
      </trkpt>
      <trkpt lat="45.77949" lon="4.64743">
        <ele>653.7080078125</ele>
        <time>2012-04-17T19:02:48Z</time>
      </trkpt>
      <trkpt lat="45.77946" lon="4.64761">
        <ele>653.87902832031</ele>
        <time>2012-04-17T19:02:52Z</time>
      </trkpt>
      <trkpt lat="45.77942" lon="4.64777">
        <ele>653.73498535156</ele>
        <time>2012-04-17T19:02:55Z</time>
      </trkpt>
      <trkpt lat="45.77934" lon="4.64809">
        <ele>652.83197021484</ele>
        <time>2012-04-17T19:03:00Z</time>
      </trkpt>
      <trkpt lat="45.77925" lon="4.6484">
        <ele>650.65997314453</ele>
        <time>2012-04-17T19:03:06Z</time>
      </trkpt>
      <trkpt lat="45.77924" lon="4.64858">
        <ele>648.89697265625</ele>
        <time>2012-04-17T19:03:10Z</time>
      </trkpt>
      <trkpt lat="45.7792" lon="4.64882">
        <ele>646.88397216797</ele>
        <time>2012-04-17T19:03:15Z</time>
      </trkpt>
      <trkpt lat="45.77913" lon="4.64918">
        <ele>642.02099609375</ele>
        <time>2012-04-17T19:03:22Z</time>
      </trkpt>
      <trkpt lat="45.77912" lon="4.64941">
        <ele>638.64801025391</ele>
        <time>2012-04-17T19:03:26Z</time>
      </trkpt>
      <trkpt lat="45.77913" lon="4.64954">
        <ele>634.96301269531</ele>
        <time>2012-04-17T19:03:30Z</time>
      </trkpt>
      <trkpt lat="45.77913" lon="4.64957">
        <ele>634.13897705078</ele>
        <time>2012-04-17T19:03:31Z</time>
      </trkpt>
      <trkpt lat="45.77913" lon="4.64977">
        <ele>631.05401611328</ele>
        <time>2012-04-17T19:03:36Z</time>
      </trkpt>
      <trkpt lat="45.77917" lon="4.64998">
        <ele>627.40899658203</ele>
        <time>2012-04-17T19:03:40Z</time>
      </trkpt>
      <trkpt lat="45.77914" lon="4.65026">
        <ele>622.10601806641</ele>
        <time>2012-04-17T19:03:45Z</time>
      </trkpt>
      <trkpt lat="45.77911" lon="4.65031">
        <ele>620.94702148438</ele>
        <time>2012-04-17T19:03:46Z</time>
      </trkpt>
      <trkpt lat="45.77903" lon="4.6504">
        <ele>618.70599365234</ele>
        <time>2012-04-17T19:03:48Z</time>
      </trkpt>
      <trkpt lat="45.77895" lon="4.65063">
        <ele>614.07098388672</ele>
        <time>2012-04-17T19:03:52Z</time>
      </trkpt>
      <trkpt lat="45.77898" lon="4.6508">
        <ele>610.88397216797</ele>
        <time>2012-04-17T19:03:55Z</time>
      </trkpt>
      <trkpt lat="45.77893" lon="4.65102">
        <ele>606.13000488281</ele>
        <time>2012-04-17T19:03:59Z</time>
      </trkpt>
      <trkpt lat="45.77869" lon="4.6513">
        <ele>599.69000244141</ele>
        <time>2012-04-17T19:04:05Z</time>
      </trkpt>
      <trkpt lat="45.77864" lon="4.65134">
        <ele>598.43200683594</ele>
        <time>2012-04-17T19:04:06Z</time>
      </trkpt>
      <trkpt lat="45.77844" lon="4.65144">
        <ele>592.82702636719</ele>
        <time>2012-04-17T19:04:11Z</time>
      </trkpt>
      <trkpt lat="45.77827" lon="4.65155">
        <ele>589.42797851562</ele>
        <time>2012-04-17T19:04:15Z</time>
      </trkpt>
      <trkpt lat="45.77819" lon="4.65174">
        <ele>586.62097167969</ele>
        <time>2012-04-17T19:04:19Z</time>
      </trkpt>
      <trkpt lat="45.77815" lon="4.65194">
        <ele>583.54602050781</ele>
        <time>2012-04-17T19:04:23Z</time>
      </trkpt>
      <trkpt lat="45.77812" lon="4.65196">
        <ele>582.19500732422</ele>
        <time>2012-04-17T19:04:26Z</time>
      </trkpt>
      <trkpt lat="45.77812" lon="4.6519">
        <ele>580.90600585938</ele>
        <time>2012-04-17T19:04:29Z</time>
      </trkpt>
      <trkpt lat="45.77813" lon="4.65168">
        <ele>581.19000244141</ele>
        <time>2012-04-17T19:04:36Z</time>
      </trkpt>
      <trkpt lat="45.77809" lon="4.65164">
        <ele>581.51599121094</ele>
        <time>2012-04-17T19:04:41Z</time>
      </trkpt>
      <trkpt lat="45.778" lon="4.65159">
        <ele>581.70202636719</ele>
        <time>2012-04-17T19:05:02Z</time>
      </trkpt>
      <trkpt lat="45.77801" lon="4.65144">
        <ele>582.64501953125</ele>
        <time>2012-04-17T19:05:10Z</time>
      </trkpt>
      <trkpt lat="45.77801" lon="4.65127">
        <ele>583.35900878906</ele>
        <time>2012-04-17T19:05:17Z</time>
      </trkpt>
      <trkpt lat="45.77798" lon="4.65108">
        <ele>584.38702392578</ele>
        <time>2012-04-17T19:05:24Z</time>
      </trkpt>
      <trkpt lat="45.77793" lon="4.65092">
        <ele>584.88598632812</ele>
        <time>2012-04-17T19:05:29Z</time>
      </trkpt>
      <trkpt lat="45.77789" lon="4.65081">
        <ele>584.62799072266</ele>
        <time>2012-04-17T19:05:31Z</time>
      </trkpt>
      <trkpt lat="45.77786" lon="4.65058">
        <ele>583.80902099609</ele>
        <time>2012-04-17T19:05:35Z</time>
      </trkpt>
      <trkpt lat="45.7779" lon="4.65028">
        <ele>583.43200683594</ele>
        <time>2012-04-17T19:05:41Z</time>
      </trkpt>
      <trkpt lat="45.77794" lon="4.65005">
        <ele>583.66302490234</ele>
        <time>2012-04-17T19:05:46Z</time>
      </trkpt>
      <trkpt lat="45.77795" lon="4.64977">
        <ele>583.68499755859</ele>
        <time>2012-04-17T19:05:52Z</time>
      </trkpt>
      <trkpt lat="45.77798" lon="4.64955">
        <ele>584.07897949219</ele>
        <time>2012-04-17T19:05:57Z</time>
      </trkpt>
      <trkpt lat="45.77797" lon="4.64935">
        <ele>584.57098388672</ele>
        <time>2012-04-17T19:06:02Z</time>
      </trkpt>
      <trkpt lat="45.77798" lon="4.64922">
        <ele>585.19396972656</ele>
        <time>2012-04-17T19:06:07Z</time>
      </trkpt>
      <trkpt lat="45.77798" lon="4.64917">
        <ele>585.37902832031</ele>
        <time>2012-04-17T19:06:09Z</time>
      </trkpt>
      <trkpt lat="45.77802" lon="4.649">
        <ele>587.06701660156</ele>
        <time>2012-04-17T19:06:15Z</time>
      </trkpt>
      <trkpt lat="45.77803" lon="4.64877">
        <ele>589.30999755859</ele>
        <time>2012-04-17T19:06:24Z</time>
      </trkpt>
      <trkpt lat="45.77804" lon="4.6486">
        <ele>590.13000488281</ele>
        <time>2012-04-17T19:06:31Z</time>
      </trkpt>
      <trkpt lat="45.77806" lon="4.6484">
        <ele>590.60601806641</ele>
        <time>2012-04-17T19:06:38Z</time>
      </trkpt>
      <trkpt lat="45.77808" lon="4.64823">
        <ele>591.10400390625</ele>
        <time>2012-04-17T19:06:45Z</time>
      </trkpt>
      <trkpt lat="45.7781" lon="4.64808">
        <ele>592.02197265625</ele>
        <time>2012-04-17T19:06:51Z</time>
      </trkpt>
      <trkpt lat="45.77813" lon="4.64791">
        <ele>593.28399658203</ele>
        <time>2012-04-17T19:06:58Z</time>
      </trkpt>
      <trkpt lat="45.77817" lon="4.64776">
        <ele>594.61102294922</ele>
        <time>2012-04-17T19:07:04Z</time>
      </trkpt>
      <trkpt lat="45.77824" lon="4.6476">
        <ele>595.6240234375</ele>
        <time>2012-04-17T19:07:11Z</time>
      </trkpt>
      <trkpt lat="45.77828" lon="4.64745">
        <ele>596.38702392578</ele>
        <time>2012-04-17T19:07:17Z</time>
      </trkpt>
      <trkpt lat="45.77831" lon="4.64727">
        <ele>597.16998291016</ele>
        <time>2012-04-17T19:07:23Z</time>
      </trkpt>
      <trkpt lat="45.77832" lon="4.64707">
        <ele>597.98699951172</ele>
        <time>2012-04-17T19:07:29Z</time>
      </trkpt>
      <trkpt lat="45.77835" lon="4.64682">
        <ele>598.53198242188</ele>
        <time>2012-04-17T19:07:34Z</time>
      </trkpt>
      <trkpt lat="45.77835" lon="4.64676">
        <ele>598.60400390625</ele>
        <time>2012-04-17T19:07:35Z</time>
      </trkpt>
      <trkpt lat="45.77842" lon="4.64625">
        <ele>598.47302246094</ele>
        <time>2012-04-17T19:07:43Z</time>
      </trkpt>
      <trkpt lat="45.77845" lon="4.64595">
        <ele>598.22601318359</ele>
        <time>2012-04-17T19:07:48Z</time>
      </trkpt>
      <trkpt lat="45.77842" lon="4.64573">
        <ele>598.60302734375</ele>
        <time>2012-04-17T19:07:53Z</time>
      </trkpt>
      <trkpt lat="45.77841" lon="4.64552">
        <ele>599.79901123047</ele>
        <time>2012-04-17T19:07:58Z</time>
      </trkpt>
      <trkpt lat="45.77837" lon="4.64536">
        <ele>600.95300292969</ele>
        <time>2012-04-17T19:08:03Z</time>
      </trkpt>
      <trkpt lat="45.77831" lon="4.645">
        <ele>603.89099121094</ele>
        <time>2012-04-17T19:08:13Z</time>
      </trkpt>
      <trkpt lat="45.77829" lon="4.64478">
        <ele>605.09997558594</ele>
        <time>2012-04-17T19:08:20Z</time>
      </trkpt>
      <trkpt lat="45.7783" lon="4.64454">
        <ele>606.04602050781</ele>
        <time>2012-04-17T19:08:27Z</time>
      </trkpt>
      <trkpt lat="45.77831" lon="4.64432">
        <ele>605.88201904297</ele>
        <time>2012-04-17T19:08:32Z</time>
      </trkpt>
      <trkpt lat="45.77833" lon="4.644">
        <ele>604.97698974609</ele>
        <time>2012-04-17T19:08:37Z</time>
      </trkpt>
      <trkpt lat="45.77838" lon="4.64356">
        <ele>603.90698242188</ele>
        <time>2012-04-17T19:08:44Z</time>
      </trkpt>
      <trkpt lat="45.77842" lon="4.64325">
        <ele>602.84301757812</ele>
        <time>2012-04-17T19:08:49Z</time>
      </trkpt>
      <trkpt lat="45.77843" lon="4.64317">
        <ele>602.51501464844</ele>
        <time>2012-04-17T19:08:50Z</time>
      </trkpt>
      <trkpt lat="45.7785" lon="4.64278">
        <ele>601.15301513672</ele>
        <time>2012-04-17T19:08:55Z</time>
      </trkpt>
      <trkpt lat="45.77852" lon="4.64251">
        <ele>599.59399414062</ele>
        <time>2012-04-17T19:08:59Z</time>
      </trkpt>
      <trkpt lat="45.77845" lon="4.64228">
        <ele>597.76501464844</ele>
        <time>2012-04-17T19:09:03Z</time>
      </trkpt>
      <trkpt lat="45.77839" lon="4.6421">
        <ele>597.03302001953</ele>
        <time>2012-04-17T19:09:06Z</time>
      </trkpt>
      <trkpt lat="45.77833" lon="4.64196">
        <ele>596.60498046875</ele>
        <time>2012-04-17T19:09:08Z</time>
      </trkpt>
      <trkpt lat="45.77827" lon="4.64168">
        <ele>596.10900878906</ele>
        <time>2012-04-17T19:09:12Z</time>
      </trkpt>
      <trkpt lat="45.77822" lon="4.64131">
        <ele>596.26000976562</ele>
        <time>2012-04-17T19:09:17Z</time>
      </trkpt>
      <trkpt lat="45.77815" lon="4.64086">
        <ele>596.07598876953</ele>
        <time>2012-04-17T19:09:23Z</time>
      </trkpt>
      <trkpt lat="45.77814" lon="4.64058">
        <ele>596.43103027344</ele>
        <time>2012-04-17T19:09:28Z</time>
      </trkpt>
      <trkpt lat="45.77812" lon="4.64036">
        <ele>597.59301757812</ele>
        <time>2012-04-17T19:09:34Z</time>
      </trkpt>
      <trkpt lat="45.77808" lon="4.64012">
        <ele>599.0009765625</ele>
        <time>2012-04-17T19:09:41Z</time>
      </trkpt>
      <trkpt lat="45.77803" lon="4.63999">
        <ele>600.34899902344</ele>
        <time>2012-04-17T19:09:47Z</time>
      </trkpt>
      <trkpt lat="45.77796" lon="4.6399">
        <ele>600.45599365234</ele>
        <time>2012-04-17T19:09:53Z</time>
      </trkpt>
      <trkpt lat="45.7779" lon="4.6398">
        <ele>600.59100341797</ele>
        <time>2012-04-17T19:09:58Z</time>
      </trkpt>
      <trkpt lat="45.77784" lon="4.63974">
        <ele>601.44396972656</ele>
        <time>2012-04-17T19:10:04Z</time>
      </trkpt>
      <trkpt lat="45.77776" lon="4.63972">
        <ele>601.44097900391</ele>
        <time>2012-04-17T19:10:46Z</time>
      </trkpt>
      <trkpt lat="45.77763" lon="4.6396">
        <ele>601.43597412109</ele>
        <time>2012-04-17T19:10:52Z</time>
      </trkpt>
      <trkpt lat="45.77742" lon="4.63938">
        <ele>601.7509765625</ele>
        <time>2012-04-17T19:11:00Z</time>
      </trkpt>
      <trkpt lat="45.77725" lon="4.63931">
        <ele>602.94598388672</ele>
        <time>2012-04-17T19:11:06Z</time>
      </trkpt>
      <trkpt lat="45.77707" lon="4.63931">
        <ele>603.58197021484</ele>
        <time>2012-04-17T19:11:12Z</time>
      </trkpt>
      <trkpt lat="45.77689" lon="4.63918">
        <ele>604.63500976562</ele>
        <time>2012-04-17T19:11:19Z</time>
      </trkpt>
      <trkpt lat="45.77667" lon="4.63903">
        <ele>605.23199462891</ele>
        <time>2012-04-17T19:11:26Z</time>
      </trkpt>
      <trkpt lat="45.77663" lon="4.639">
        <ele>605.05999755859</ele>
        <time>2012-04-17T19:11:27Z</time>
      </trkpt>
      <trkpt lat="45.77623" lon="4.63875">
        <ele>602.69897460938</ele>
        <time>2012-04-17T19:11:35Z</time>
      </trkpt>
      <trkpt lat="45.77614" lon="4.63869">
        <ele>602.42199707031</ele>
        <time>2012-04-17T19:11:37Z</time>
      </trkpt>
      <trkpt lat="45.77593" lon="4.63851">
        <ele>601.63800048828</ele>
        <time>2012-04-17T19:11:43Z</time>
      </trkpt>
      <trkpt lat="45.77581" lon="4.63845">
        <ele>602.10400390625</ele>
        <time>2012-04-17T19:11:48Z</time>
      </trkpt>
      <trkpt lat="45.77571" lon="4.6383">
        <ele>603.61798095703</ele>
        <time>2012-04-17T19:11:56Z</time>
      </trkpt>
      <trkpt lat="45.77568" lon="4.63824">
        <ele>604.29302978516</ele>
        <time>2012-04-17T19:11:59Z</time>
      </trkpt>
      <trkpt lat="45.77556" lon="4.63812">
        <ele>605.82702636719</ele>
        <time>2012-04-17T19:12:06Z</time>
      </trkpt>
      <trkpt lat="45.77549" lon="4.63805">
        <ele>607.25897216797</ele>
        <time>2012-04-17T19:12:11Z</time>
      </trkpt>
      <trkpt lat="45.77545" lon="4.63802">
        <ele>608.07202148438</ele>
        <time>2012-04-17T19:12:14Z</time>
      </trkpt>
      <trkpt lat="45.77533" lon="4.63792">
        <ele>610.56097412109</ele>
        <time>2012-04-17T19:12:23Z</time>
      </trkpt>
      <trkpt lat="45.77526" lon="4.63786">
        <ele>612.23297119141</ele>
        <time>2012-04-17T19:12:29Z</time>
      </trkpt>
      <trkpt lat="45.77518" lon="4.63782">
        <ele>614.85101318359</ele>
        <time>2012-04-17T19:12:36Z</time>
      </trkpt>
      <trkpt lat="45.77513" lon="4.63779">
        <ele>616.70501708984</ele>
        <time>2012-04-17T19:12:42Z</time>
      </trkpt>
      <trkpt lat="45.77506" lon="4.6377">
        <ele>618.60302734375</ele>
        <time>2012-04-17T19:12:49Z</time>
      </trkpt>
      <trkpt lat="45.77502" lon="4.63766">
        <ele>619.21301269531</ele>
        <time>2012-04-17T19:12:53Z</time>
      </trkpt>
      <trkpt lat="45.77497" lon="4.6376">
        <ele>620.44396972656</ele>
        <time>2012-04-17T19:12:59Z</time>
      </trkpt>
      <trkpt lat="45.77493" lon="4.63757">
        <ele>621.07098388672</ele>
        <time>2012-04-17T19:13:03Z</time>
      </trkpt>
      <trkpt lat="45.77483" lon="4.63752">
        <ele>623.09802246094</ele>
        <time>2012-04-17T19:13:12Z</time>
      </trkpt>
      <trkpt lat="45.77476" lon="4.63747">
        <ele>624.90502929688</ele>
        <time>2012-04-17T19:13:20Z</time>
      </trkpt>
      <trkpt lat="45.77472" lon="4.63744">
        <ele>626.06201171875</ele>
        <time>2012-04-17T19:13:24Z</time>
      </trkpt>
      <trkpt lat="45.77468" lon="4.63745">
        <ele>626.69000244141</ele>
        <time>2012-04-17T19:13:27Z</time>
      </trkpt>
      <trkpt lat="45.77466" lon="4.63748">
        <ele>627.32000732422</ele>
        <time>2012-04-17T19:13:31Z</time>
      </trkpt>
      <trkpt lat="45.77456" lon="4.63754">
        <ele>628.90502929688</ele>
        <time>2012-04-17T19:13:40Z</time>
      </trkpt>
      <trkpt lat="45.77453" lon="4.63755">
        <ele>629.14398193359</ele>
        <time>2012-04-17T19:13:42Z</time>
      </trkpt>
      <trkpt lat="45.77448" lon="4.6376">
        <ele>629.8740234375</ele>
        <time>2012-04-17T19:13:47Z</time>
      </trkpt>
      <trkpt lat="45.77443" lon="4.63767">
        <ele>631.39099121094</ele>
        <time>2012-04-17T19:13:54Z</time>
      </trkpt>
      <trkpt lat="45.77441" lon="4.63769">
        <ele>631.78802490234</ele>
        <time>2012-04-17T19:13:56Z</time>
      </trkpt>
      <trkpt lat="45.77436" lon="4.63775">
        <ele>633.47100830078</ele>
        <time>2012-04-17T19:14:03Z</time>
      </trkpt>
      <trkpt lat="45.77435" lon="4.63775">
        <ele>633.69097900391</ele>
        <time>2012-04-17T19:14:04Z</time>
      </trkpt>
      <trkpt lat="45.77433" lon="4.63775">
        <ele>634.04602050781</ele>
        <time>2012-04-17T19:14:06Z</time>
      </trkpt>
      <trkpt lat="45.77432" lon="4.63777">
        <ele>634.44500732422</ele>
        <time>2012-04-17T19:14:08Z</time>
      </trkpt>
      <trkpt lat="45.77424" lon="4.63783">
        <ele>635.55798339844</ele>
        <time>2012-04-17T19:14:15Z</time>
      </trkpt>
      <trkpt lat="45.77421" lon="4.63785">
        <ele>636.25598144531</ele>
        <time>2012-04-17T19:14:18Z</time>
      </trkpt>
      <trkpt lat="45.77413" lon="4.63788">
        <ele>637.55200195312</ele>
        <time>2012-04-17T19:14:25Z</time>
      </trkpt>
      <trkpt lat="45.77407" lon="4.63792">
        <ele>638.57000732422</ele>
        <time>2012-04-17T19:14:32Z</time>
      </trkpt>
      <trkpt lat="45.77401" lon="4.63798">
        <ele>639.40002441406</ele>
        <time>2012-04-17T19:14:38Z</time>
      </trkpt>
      <trkpt lat="45.77394" lon="4.63805">
        <ele>640.8330078125</ele>
        <time>2012-04-17T19:14:44Z</time>
      </trkpt>
      <trkpt lat="45.7739" lon="4.63808">
        <ele>641.52600097656</ele>
        <time>2012-04-17T19:14:47Z</time>
      </trkpt>
      <trkpt lat="45.77381" lon="4.63815">
        <ele>642.57897949219</ele>
        <time>2012-04-17T19:14:54Z</time>
      </trkpt>
      <trkpt lat="45.77373" lon="4.63824">
        <ele>643.93798828125</ele>
        <time>2012-04-17T19:15:01Z</time>
      </trkpt>
      <trkpt lat="45.77363" lon="4.63832">
        <ele>645.14599609375</ele>
        <time>2012-04-17T19:15:08Z</time>
      </trkpt>
      <trkpt lat="45.77352" lon="4.63838">
        <ele>646.28100585938</ele>
        <time>2012-04-17T19:15:16Z</time>
      </trkpt>
      <trkpt lat="45.77344" lon="4.63838">
        <ele>647.77801513672</ele>
        <time>2012-04-17T19:15:22Z</time>
      </trkpt>
      <trkpt lat="45.77333" lon="4.6384">
        <ele>648.74798583984</ele>
        <time>2012-04-17T19:15:29Z</time>
      </trkpt>
      <trkpt lat="45.77325" lon="4.63839">
        <ele>649.62200927734</ele>
        <time>2012-04-17T19:15:34Z</time>
      </trkpt>
      <trkpt lat="45.77313" lon="4.6383">
        <ele>651.12200927734</ele>
        <time>2012-04-17T19:15:42Z</time>
      </trkpt>
      <trkpt lat="45.77304" lon="4.63825">
        <ele>652.75402832031</ele>
        <time>2012-04-17T19:15:48Z</time>
      </trkpt>
      <trkpt lat="45.77297" lon="4.63821">
        <ele>653.72900390625</ele>
        <time>2012-04-17T19:15:53Z</time>
      </trkpt>
      <trkpt lat="45.77285" lon="4.63816">
        <ele>655.47302246094</ele>
        <time>2012-04-17T19:16:02Z</time>
      </trkpt>
      <trkpt lat="45.7727" lon="4.6381">
        <ele>656.82202148438</ele>
        <time>2012-04-17T19:16:11Z</time>
      </trkpt>
      <trkpt lat="45.77267" lon="4.63808">
        <ele>657.18298339844</ele>
        <time>2012-04-17T19:16:14Z</time>
      </trkpt>
      <trkpt lat="45.77258" lon="4.63799">
        <ele>658.12200927734</ele>
        <time>2012-04-17T19:16:21Z</time>
      </trkpt>
      <trkpt lat="45.77252" lon="4.63788">
        <ele>658.78802490234</ele>
        <time>2012-04-17T19:16:27Z</time>
      </trkpt>
      <trkpt lat="45.77245" lon="4.63776">
        <ele>660.20202636719</ele>
        <time>2012-04-17T19:16:34Z</time>
      </trkpt>
      <trkpt lat="45.7724" lon="4.63765">
        <ele>661.44396972656</ele>
        <time>2012-04-17T19:16:40Z</time>
      </trkpt>
      <trkpt lat="45.77235" lon="4.63752">
        <ele>662.8740234375</ele>
        <time>2012-04-17T19:16:47Z</time>
      </trkpt>
      <trkpt lat="45.77234" lon="4.63751">
        <ele>663.11700439453</ele>
        <time>2012-04-17T19:16:48Z</time>
      </trkpt>
      <trkpt lat="45.77231" lon="4.63744">
        <ele>664.02697753906</ele>
        <time>2012-04-17T19:16:52Z</time>
      </trkpt>
      <trkpt lat="45.77225" lon="4.63738">
        <ele>665.93298339844</ele>
        <time>2012-04-17T19:16:59Z</time>
      </trkpt>
      <trkpt lat="45.77224" lon="4.63734">
        <ele>666.59002685547</ele>
        <time>2012-04-17T19:17:02Z</time>
      </trkpt>
      <trkpt lat="45.77223" lon="4.63727">
        <ele>667.15502929688</ele>
        <time>2012-04-17T19:17:07Z</time>
      </trkpt>
      <trkpt lat="45.77222" lon="4.63718">
        <ele>668.38098144531</ele>
        <time>2012-04-17T19:17:15Z</time>
      </trkpt>
      <trkpt lat="45.77222" lon="4.63712">
        <ele>669.35302734375</ele>
        <time>2012-04-17T19:17:21Z</time>
      </trkpt>
      <trkpt lat="45.77222" lon="4.63702">
        <ele>670.35400390625</ele>
        <time>2012-04-17T19:17:27Z</time>
      </trkpt>
      <trkpt lat="45.77222" lon="4.63701">
        <ele>670.46398925781</ele>
        <time>2012-04-17T19:17:28Z</time>
      </trkpt>
      <trkpt lat="45.77221" lon="4.63689">
        <ele>671.58898925781</ele>
        <time>2012-04-17T19:17:36Z</time>
      </trkpt>
      <trkpt lat="45.77221" lon="4.63682">
        <ele>672.32397460938</ele>
        <time>2012-04-17T19:17:40Z</time>
      </trkpt>
      <trkpt lat="45.77222" lon="4.63674">
        <ele>672.98400878906</ele>
        <time>2012-04-17T19:17:44Z</time>
      </trkpt>
      <trkpt lat="45.77223" lon="4.6367">
        <ele>673.53900146484</ele>
        <time>2012-04-17T19:17:47Z</time>
      </trkpt>
      <trkpt lat="45.77222" lon="4.63661">
        <ele>674.62298583984</ele>
        <time>2012-04-17T19:17:53Z</time>
      </trkpt>
      <trkpt lat="45.77222" lon="4.6366">
        <ele>674.72601318359</ele>
        <time>2012-04-17T19:17:54Z</time>
      </trkpt>
      <trkpt lat="45.77223" lon="4.63648">
        <ele>675.68402099609</ele>
        <time>2012-04-17T19:18:01Z</time>
      </trkpt>
      <trkpt lat="45.77222" lon="4.6364">
        <ele>676.28100585938</ele>
        <time>2012-04-17T19:18:05Z</time>
      </trkpt>
      <trkpt lat="45.77223" lon="4.63634">
        <ele>677.02697753906</ele>
        <time>2012-04-17T19:18:09Z</time>
      </trkpt>
      <trkpt lat="45.77224" lon="4.63624">
        <ele>678.42602539062</ele>
        <time>2012-04-17T19:18:15Z</time>
      </trkpt>
      <trkpt lat="45.77221" lon="4.63614">
        <ele>680.03900146484</ele>
        <time>2012-04-17T19:18:22Z</time>
      </trkpt>
      <trkpt lat="45.77217" lon="4.63607">
        <ele>681.72497558594</ele>
        <time>2012-04-17T19:18:28Z</time>
      </trkpt>
      <trkpt lat="45.77215" lon="4.63597">
        <ele>683.44000244141</ele>
        <time>2012-04-17T19:18:34Z</time>
      </trkpt>
      <trkpt lat="45.77214" lon="4.63588">
        <ele>685.20697021484</ele>
        <time>2012-04-17T19:18:40Z</time>
      </trkpt>
      <trkpt lat="45.77214" lon="4.63576">
        <ele>687.39202880859</ele>
        <time>2012-04-17T19:18:48Z</time>
      </trkpt>
      <trkpt lat="45.77214" lon="4.63569">
        <ele>688.61199951172</ele>
        <time>2012-04-17T19:18:54Z</time>
      </trkpt>
      <trkpt lat="45.77215" lon="4.63565">
        <ele>688.91302490234</ele>
        <time>2012-04-17T19:18:57Z</time>
      </trkpt>
      <trkpt lat="45.77216" lon="4.63562">
        <ele>689.25402832031</ele>
        <time>2012-04-17T19:19:00Z</time>
      </trkpt>
      <trkpt lat="45.77216" lon="4.63554">
        <ele>689.84197998047</ele>
        <time>2012-04-17T19:19:07Z</time>
      </trkpt>
      <trkpt lat="45.77217" lon="4.63547">
        <ele>690.13098144531</ele>
        <time>2012-04-17T19:19:38Z</time>
      </trkpt>
      <trkpt lat="45.77219" lon="4.63539">
        <ele>690.53100585938</ele>
        <time>2012-04-17T19:19:44Z</time>
      </trkpt>
      <trkpt lat="45.77222" lon="4.63526">
        <ele>690.87298583984</ele>
        <time>2012-04-17T19:19:51Z</time>
      </trkpt>
      <trkpt lat="45.77225" lon="4.63517">
        <ele>691.11199951172</ele>
        <time>2012-04-17T19:19:56Z</time>
      </trkpt>
      <trkpt lat="45.77227" lon="4.63507">
        <ele>691.58197021484</ele>
        <time>2012-04-17T19:20:03Z</time>
      </trkpt>
      <trkpt lat="45.77226" lon="4.63489">
        <ele>692.60400390625</ele>
        <time>2012-04-17T19:20:13Z</time>
      </trkpt>
      <trkpt lat="45.77225" lon="4.6348">
        <ele>693.5009765625</ele>
        <time>2012-04-17T19:20:19Z</time>
      </trkpt>
      <trkpt lat="45.77224" lon="4.63472">
        <ele>694.88702392578</ele>
        <time>2012-04-17T19:20:26Z</time>
      </trkpt>
      <trkpt lat="45.77224" lon="4.6347">
        <ele>695.03002929688</ele>
        <time>2012-04-17T19:20:27Z</time>
      </trkpt>
      <trkpt lat="45.77223" lon="4.63462">
        <ele>696.083984375</ele>
        <time>2012-04-17T19:20:33Z</time>
      </trkpt>
      <trkpt lat="45.77224" lon="4.63452">
        <ele>697.32598876953</ele>
        <time>2012-04-17T19:20:39Z</time>
      </trkpt>
      <trkpt lat="45.77223" lon="4.63444">
        <ele>698.01599121094</ele>
        <time>2012-04-17T19:20:44Z</time>
      </trkpt>
      <trkpt lat="45.77223" lon="4.63437">
        <ele>698.62701416016</ele>
        <time>2012-04-17T19:20:50Z</time>
      </trkpt>
      <trkpt lat="45.77227" lon="4.63425">
        <ele>698.78900146484</ele>
        <time>2012-04-17T19:22:26Z</time>
      </trkpt>
      <trkpt lat="45.77226" lon="4.63431">
        <ele>700.44598388672</ele>
        <time>2012-04-17T19:23:22Z</time>
      </trkpt>
      <trkpt lat="45.77225" lon="4.63426">
        <ele>700.26702880859</ele>
        <time>2012-04-17T19:23:30Z</time>
      </trkpt>
      <trkpt lat="45.77227" lon="4.63408">
        <ele>700.05603027344</ele>
        <time>2012-04-17T19:23:36Z</time>
      </trkpt>
      <trkpt lat="45.7723" lon="4.63387">
        <ele>699.69000244141</ele>
        <time>2012-04-17T19:23:41Z</time>
      </trkpt>
      <trkpt lat="45.77234" lon="4.63368">
        <ele>699.04400634766</ele>
        <time>2012-04-17T19:23:47Z</time>
      </trkpt>
      <trkpt lat="45.77238" lon="4.6335">
        <ele>698.89398193359</ele>
        <time>2012-04-17T19:23:54Z</time>
      </trkpt>
      <trkpt lat="45.7724" lon="4.6333">
        <ele>699</ele>
        <time>2012-04-17T19:24:00Z</time>
      </trkpt>
      <trkpt lat="45.77238" lon="4.6331">
        <ele>699.63500976562</ele>
        <time>2012-04-17T19:24:06Z</time>
      </trkpt>
      <trkpt lat="45.77238" lon="4.63289">
        <ele>700.11499023438</ele>
        <time>2012-04-17T19:24:12Z</time>
      </trkpt>
      <trkpt lat="45.77238" lon="4.63267">
        <ele>699.97802734375</ele>
        <time>2012-04-17T19:24:18Z</time>
      </trkpt>
      <trkpt lat="45.77238" lon="4.6325">
        <ele>700.11401367188</ele>
        <time>2012-04-17T19:24:23Z</time>
      </trkpt>
      <trkpt lat="45.77246" lon="4.63242">
        <ele>699.98297119141</ele>
        <time>2012-04-17T19:24:26Z</time>
      </trkpt>
      <trkpt lat="45.77248" lon="4.63226">
        <ele>699.40002441406</ele>
        <time>2012-04-17T19:24:29Z</time>
      </trkpt>
      <trkpt lat="45.77246" lon="4.63187">
        <ele>698.13299560547</ele>
        <time>2012-04-17T19:24:34Z</time>
      </trkpt>
      <trkpt lat="45.77245" lon="4.6317">
        <ele>697.72998046875</ele>
        <time>2012-04-17T19:24:36Z</time>
      </trkpt>
      <trkpt lat="45.77237" lon="4.63139">
        <ele>696.78302001953</ele>
        <time>2012-04-17T19:24:41Z</time>
      </trkpt>
      <trkpt lat="45.77229" lon="4.63118">
        <ele>696.60198974609</ele>
        <time>2012-04-17T19:24:44Z</time>
      </trkpt>
      <trkpt lat="45.77222" lon="4.63094">
        <ele>696.40600585938</ele>
        <time>2012-04-17T19:24:48Z</time>
      </trkpt>
      <trkpt lat="45.77212" lon="4.63073">
        <ele>696.25701904297</ele>
        <time>2012-04-17T19:24:53Z</time>
      </trkpt>
      <trkpt lat="45.77205" lon="4.63068">
        <ele>696.14697265625</ele>
        <time>2012-04-17T19:24:56Z</time>
      </trkpt>
      <trkpt lat="45.77196" lon="4.63074">
        <ele>696.15399169922</ele>
        <time>2012-04-17T19:25:02Z</time>
      </trkpt>
      <trkpt lat="45.77192" lon="4.63084">
        <ele>696.24597167969</ele>
        <time>2012-04-17T19:25:05Z</time>
      </trkpt>
      <trkpt lat="45.7718" lon="4.63104">
        <ele>696.77099609375</ele>
        <time>2012-04-17T19:25:12Z</time>
      </trkpt>
      <trkpt lat="45.77174" lon="4.63117">
        <ele>697.05700683594</ele>
        <time>2012-04-17T19:25:18Z</time>
      </trkpt>
      <trkpt lat="45.77174" lon="4.63118">
        <ele>697.11401367188</ele>
        <time>2012-04-17T19:25:19Z</time>
      </trkpt>
      <trkpt lat="45.77181" lon="4.63122">
        <ele>697.68701171875</ele>
        <time>2012-04-17T19:25:25Z</time>
      </trkpt>
      <trkpt lat="45.77187" lon="4.63126">
        <ele>698.35198974609</ele>
        <time>2012-04-17T19:25:30Z</time>
      </trkpt>
      <trkpt lat="45.77197" lon="4.63133">
        <ele>699.38598632812</ele>
        <time>2012-04-17T19:25:38Z</time>
      </trkpt>
      <trkpt lat="45.77197" lon="4.63144">
        <ele>700.94799804688</ele>
        <time>2012-04-17T19:25:44Z</time>
      </trkpt>
      <trkpt lat="45.77195" lon="4.63161">
        <ele>703.11199951172</ele>
        <time>2012-04-17T19:25:53Z</time>
      </trkpt>
      <trkpt lat="45.77196" lon="4.63169">
        <ele>703.98400878906</ele>
        <time>2012-04-17T19:25:57Z</time>
      </trkpt>
      <trkpt lat="45.77195" lon="4.63177">
        <ele>704.6240234375</ele>
        <time>2012-04-17T19:26:01Z</time>
      </trkpt>
      <trkpt lat="45.7719" lon="4.63189">
        <ele>705.56500244141</ele>
        <time>2012-04-17T19:26:09Z</time>
      </trkpt>
      <trkpt lat="45.77189" lon="4.63192">
        <ele>705.85699462891</ele>
        <time>2012-04-17T19:26:11Z</time>
      </trkpt>
      <trkpt lat="45.77181" lon="4.63204">
        <ele>706.25299072266</ele>
        <time>2012-04-17T19:26:18Z</time>
      </trkpt>
      <trkpt lat="45.77172" lon="4.63218">
        <ele>706.01300048828</ele>
        <time>2012-04-17T19:26:24Z</time>
      </trkpt>
      <trkpt lat="45.77171" lon="4.6322">
        <ele>706.0419921875</ele>
        <time>2012-04-17T19:26:25Z</time>
      </trkpt>
      <trkpt lat="45.77168" lon="4.63224">
        <ele>706.04498291016</ele>
        <time>2012-04-17T19:26:27Z</time>
      </trkpt>
      <trkpt lat="45.77158" lon="4.63234">
        <ele>707.00402832031</ele>
        <time>2012-04-17T19:26:34Z</time>
      </trkpt>
      <trkpt lat="45.77149" lon="4.63246">
        <ele>708.49102783203</ele>
        <time>2012-04-17T19:26:41Z</time>
      </trkpt>
      <trkpt lat="45.77139" lon="4.63252">
        <ele>710.22100830078</ele>
        <time>2012-04-17T19:26:48Z</time>
      </trkpt>
      <trkpt lat="45.77128" lon="4.63254">
        <ele>711.08599853516</ele>
        <time>2012-04-17T19:26:55Z</time>
      </trkpt>
      <trkpt lat="45.77119" lon="4.63251">
        <ele>711.05297851562</ele>
        <time>2012-04-17T19:27:01Z</time>
      </trkpt>
      <trkpt lat="45.77105" lon="4.63236">
        <ele>709.72698974609</ele>
        <time>2012-04-17T19:27:07Z</time>
      </trkpt>
      <trkpt lat="45.77102" lon="4.63235">
        <ele>709.09301757812</ele>
        <time>2012-04-17T19:27:09Z</time>
      </trkpt>
      <trkpt lat="45.77097" lon="4.63246">
        <ele>709.01397705078</ele>
        <time>2012-04-17T19:27:17Z</time>
      </trkpt>
      <trkpt lat="45.77097" lon="4.63247">
        <ele>709.22698974609</ele>
        <time>2012-04-17T19:27:18Z</time>
      </trkpt>
      <trkpt lat="45.77097" lon="4.63248">
        <ele>709.89697265625</ele>
        <time>2012-04-17T19:27:25Z</time>
      </trkpt>
      <trkpt lat="45.77097" lon="4.63245">
        <ele>709.94000244141</ele>
        <time>2012-04-17T19:27:29Z</time>
      </trkpt>
      <trkpt lat="45.77096" lon="4.63228">
        <ele>709.31500244141</ele>
        <time>2012-04-17T19:27:34Z</time>
      </trkpt>
      <trkpt lat="45.77084" lon="4.63212">
        <ele>707.59698486328</ele>
        <time>2012-04-17T19:27:40Z</time>
      </trkpt>
      <trkpt lat="45.77076" lon="4.6321">
        <ele>706.69299316406</ele>
        <time>2012-04-17T19:27:45Z</time>
      </trkpt>
      <trkpt lat="45.77069" lon="4.63211">
        <ele>707.10400390625</ele>
        <time>2012-04-17T19:27:50Z</time>
      </trkpt>
      <trkpt lat="45.77061" lon="4.63213">
        <ele>707.93200683594</ele>
        <time>2012-04-17T19:27:56Z</time>
      </trkpt>
      <trkpt lat="45.77052" lon="4.63215">
        <ele>709.08599853516</ele>
        <time>2012-04-17T19:28:02Z</time>
      </trkpt>
      <trkpt lat="45.77044" lon="4.63217">
        <ele>710.08801269531</ele>
        <time>2012-04-17T19:28:09Z</time>
      </trkpt>
      <trkpt lat="45.77035" lon="4.63222">
        <ele>711.09600830078</ele>
        <time>2012-04-17T19:28:15Z</time>
      </trkpt>
      <trkpt lat="45.77022" lon="4.63225">
        <ele>713.08599853516</ele>
        <time>2012-04-17T19:28:23Z</time>
      </trkpt>
      <trkpt lat="45.77019" lon="4.63227">
        <ele>713.66900634766</ele>
        <time>2012-04-17T19:28:25Z</time>
      </trkpt>
      <trkpt lat="45.77012" lon="4.6323">
        <ele>714.89398193359</ele>
        <time>2012-04-17T19:28:31Z</time>
      </trkpt>
      <trkpt lat="45.77004" lon="4.63236">
        <ele>716.37902832031</ele>
        <time>2012-04-17T19:28:38Z</time>
      </trkpt>
      <trkpt lat="45.77003" lon="4.63236">
        <ele>716.58099365234</ele>
        <time>2012-04-17T19:28:39Z</time>
      </trkpt>
      <trkpt lat="45.76993" lon="4.63243">
        <ele>718.72900390625</ele>
        <time>2012-04-17T19:28:48Z</time>
      </trkpt>
      <trkpt lat="45.76985" lon="4.63248">
        <ele>720.26098632812</ele>
        <time>2012-04-17T19:28:57Z</time>
      </trkpt>
      <trkpt lat="45.76979" lon="4.63252">
        <ele>721.17700195312</ele>
        <time>2012-04-17T19:29:02Z</time>
      </trkpt>
      <trkpt lat="45.76969" lon="4.63259">
        <ele>722.66198730469</ele>
        <time>2012-04-17T19:29:09Z</time>
      </trkpt>
      <trkpt lat="45.76963" lon="4.63263">
        <ele>723.791015625</ele>
        <time>2012-04-17T19:29:16Z</time>
      </trkpt>
      <trkpt lat="45.76957" lon="4.63272">
        <ele>725.07702636719</ele>
        <time>2012-04-17T19:29:24Z</time>
      </trkpt>
      <trkpt lat="45.76956" lon="4.63273">
        <ele>725.25701904297</ele>
        <time>2012-04-17T19:29:25Z</time>
      </trkpt>
      <trkpt lat="45.76956" lon="4.63282">
        <ele>726.10601806641</ele>
        <time>2012-04-17T19:29:32Z</time>
      </trkpt>
      <trkpt lat="45.7696" lon="4.63287">
        <ele>727.07000732422</ele>
        <time>2012-04-17T19:29:39Z</time>
      </trkpt>
      <trkpt lat="45.76961" lon="4.63289">
        <ele>727.29797363281</ele>
        <time>2012-04-17T19:29:41Z</time>
      </trkpt>
      <trkpt lat="45.76962" lon="4.63294">
        <ele>727.95202636719</ele>
        <time>2012-04-17T19:29:45Z</time>
      </trkpt>
      <trkpt lat="45.76968" lon="4.6331">
        <ele>729.64398193359</ele>
        <time>2012-04-17T19:29:55Z</time>
      </trkpt>
      <trkpt lat="45.76969" lon="4.6331">
        <ele>729.82800292969</ele>
        <time>2012-04-17T19:29:56Z</time>
      </trkpt>
      <trkpt lat="45.76974" lon="4.63318">
        <ele>730.84899902344</ele>
        <time>2012-04-17T19:30:02Z</time>
      </trkpt>
      <trkpt lat="45.76975" lon="4.63319">
        <ele>731.04498291016</ele>
        <time>2012-04-17T19:30:03Z</time>
      </trkpt>
      <trkpt lat="45.7698" lon="4.63329">
        <ele>732.34802246094</ele>
        <time>2012-04-17T19:30:11Z</time>
      </trkpt>
      <trkpt lat="45.76981" lon="4.63331">
        <ele>732.34899902344</ele>
        <time>2012-04-17T19:30:12Z</time>
      </trkpt>
      <trkpt lat="45.76987" lon="4.63336">
        <ele>732.91198730469</ele>
        <time>2012-04-17T19:30:18Z</time>
      </trkpt>
      <trkpt lat="45.76991" lon="4.63341">
        <ele>733.22302246094</ele>
        <time>2012-04-17T19:30:21Z</time>
      </trkpt>
      <trkpt lat="45.76995" lon="4.63355">
        <ele>734.05297851562</ele>
        <time>2012-04-17T19:30:27Z</time>
      </trkpt>
      <trkpt lat="45.77" lon="4.63361">
        <ele>734.49102783203</ele>
        <time>2012-04-17T19:30:32Z</time>
      </trkpt>
      <trkpt lat="45.77007" lon="4.6337">
        <ele>734.78900146484</ele>
        <time>2012-04-17T19:30:36Z</time>
      </trkpt>
      <trkpt lat="45.77011" lon="4.63384">
        <ele>735.39300537109</ele>
        <time>2012-04-17T19:30:44Z</time>
      </trkpt>
      <trkpt lat="45.77016" lon="4.63393">
        <ele>735.69000244141</ele>
        <time>2012-04-17T19:30:49Z</time>
      </trkpt>
      <trkpt lat="45.7702" lon="4.63396">
        <ele>735.81799316406</ele>
        <time>2012-04-17T19:30:51Z</time>
      </trkpt>
      <trkpt lat="45.77026" lon="4.63415">
        <ele>736.84002685547</ele>
        <time>2012-04-17T19:31:00Z</time>
      </trkpt>
      <trkpt lat="45.77027" lon="4.63423">
        <ele>737.64697265625</ele>
        <time>2012-04-17T19:31:05Z</time>
      </trkpt>
      <trkpt lat="45.77032" lon="4.63432">
        <ele>738.41998291016</ele>
        <time>2012-04-17T19:31:10Z</time>
      </trkpt>
      <trkpt lat="45.77038" lon="4.63438">
        <ele>738.36297607422</ele>
        <time>2012-04-17T19:31:18Z</time>
      </trkpt>
      <trkpt lat="45.77044" lon="4.63449">
        <ele>738.27197265625</ele>
        <time>2012-04-17T19:32:32Z</time>
      </trkpt>
      <trkpt lat="45.77048" lon="4.63451">
        <ele>737.96600341797</ele>
        <time>2012-04-17T19:32:38Z</time>
      </trkpt>
      <trkpt lat="45.77048" lon="4.63454">
        <ele>737.89300537109</ele>
        <time>2012-04-17T19:32:40Z</time>
      </trkpt>
      <trkpt lat="45.77051" lon="4.63457">
        <ele>737.63000488281</ele>
        <time>2012-04-17T19:32:44Z</time>
      </trkpt>
      <trkpt lat="45.77059" lon="4.63447">
        <ele>736.27099609375</ele>
        <time>2012-04-17T19:32:49Z</time>
      </trkpt>
      <trkpt lat="45.77069" lon="4.63442">
        <ele>734.48297119141</ele>
        <time>2012-04-17T19:32:53Z</time>
      </trkpt>
      <trkpt lat="45.77081" lon="4.63446">
        <ele>732.40002441406</ele>
        <time>2012-04-17T19:32:57Z</time>
      </trkpt>
      <trkpt lat="45.7709" lon="4.63447">
        <ele>730.35101318359</ele>
        <time>2012-04-17T19:33:00Z</time>
      </trkpt>
      <trkpt lat="45.771" lon="4.63447">
        <ele>728.583984375</ele>
        <time>2012-04-17T19:33:03Z</time>
      </trkpt>
      <trkpt lat="45.77113" lon="4.63461">
        <ele>726.09698486328</ele>
        <time>2012-04-17T19:33:08Z</time>
      </trkpt>
      <trkpt lat="45.77129" lon="4.6346">
        <ele>724.93597412109</ele>
        <time>2012-04-17T19:33:12Z</time>
      </trkpt>
      <trkpt lat="45.77138" lon="4.63459">
        <ele>723.40301513672</ele>
        <time>2012-04-17T19:33:16Z</time>
      </trkpt>
      <trkpt lat="45.77147" lon="4.63454">
        <ele>721.96398925781</ele>
        <time>2012-04-17T19:33:19Z</time>
      </trkpt>
      <trkpt lat="45.77163" lon="4.63463">
        <ele>718.46002197266</ele>
        <time>2012-04-17T19:33:24Z</time>
      </trkpt>
      <trkpt lat="45.77176" lon="4.63468">
        <ele>714.20397949219</ele>
        <time>2012-04-17T19:33:29Z</time>
      </trkpt>
      <trkpt lat="45.77181" lon="4.63477">
        <ele>711.73901367188</ele>
        <time>2012-04-17T19:33:32Z</time>
      </trkpt>
      <trkpt lat="45.77179" lon="4.63486">
        <ele>711.00500488281</ele>
        <time>2012-04-17T19:33:34Z</time>
      </trkpt>
      <trkpt lat="45.77174" lon="4.635">
        <ele>709.68798828125</ele>
        <time>2012-04-17T19:33:37Z</time>
      </trkpt>
      <trkpt lat="45.77172" lon="4.63519">
        <ele>709.06201171875</ele>
        <time>2012-04-17T19:33:40Z</time>
      </trkpt>
      <trkpt lat="45.77169" lon="4.6354">
        <ele>707.95001220703</ele>
        <time>2012-04-17T19:33:44Z</time>
      </trkpt>
      <trkpt lat="45.77171" lon="4.63562">
        <ele>705.51501464844</ele>
        <time>2012-04-17T19:33:49Z</time>
      </trkpt>
      <trkpt lat="45.77171" lon="4.63572">
        <ele>704.06597900391</ele>
        <time>2012-04-17T19:33:51Z</time>
      </trkpt>
      <trkpt lat="45.77177" lon="4.6358">
        <ele>701.42602539062</ele>
        <time>2012-04-17T19:33:54Z</time>
      </trkpt>
      <trkpt lat="45.77185" lon="4.63585">
        <ele>698.21398925781</ele>
        <time>2012-04-17T19:33:58Z</time>
      </trkpt>
      <trkpt lat="45.77191" lon="4.63589">
        <ele>697.3740234375</ele>
        <time>2012-04-17T19:34:00Z</time>
      </trkpt>
      <trkpt lat="45.77193" lon="4.63613">
        <ele>693.12701416016</ele>
        <time>2012-04-17T19:34:05Z</time>
      </trkpt>
      <trkpt lat="45.77185" lon="4.63626">
        <ele>689.66497802734</ele>
        <time>2012-04-17T19:34:10Z</time>
      </trkpt>
      <trkpt lat="45.77182" lon="4.6363">
        <ele>688.45300292969</ele>
        <time>2012-04-17T19:34:14Z</time>
      </trkpt>
      <trkpt lat="45.77179" lon="4.63633">
        <ele>688.21398925781</ele>
        <time>2012-04-17T19:34:22Z</time>
      </trkpt>
      <trkpt lat="45.77184" lon="4.6363">
        <ele>688.85302734375</ele>
        <time>2012-04-17T19:34:44Z</time>
      </trkpt>
      <trkpt lat="45.77192" lon="4.63646">
        <ele>687.04797363281</ele>
        <time>2012-04-17T19:34:49Z</time>
      </trkpt>
      <trkpt lat="45.77201" lon="4.63668">
        <ele>684.34600830078</ele>
        <time>2012-04-17T19:34:53Z</time>
      </trkpt>
      <trkpt lat="45.77227" lon="4.63692">
        <ele>677.958984375</ele>
        <time>2012-04-17T19:35:00Z</time>
      </trkpt>
      <trkpt lat="45.77231" lon="4.63698">
        <ele>676.63397216797</ele>
        <time>2012-04-17T19:35:03Z</time>
      </trkpt>
      <trkpt lat="45.77238" lon="4.63715">
        <ele>674.96301269531</ele>
        <time>2012-04-17T19:35:08Z</time>
      </trkpt>
      <trkpt lat="45.77232" lon="4.63732">
        <ele>672.82202148438</ele>
        <time>2012-04-17T19:35:12Z</time>
      </trkpt>
      <trkpt lat="45.77216" lon="4.63745">
        <ele>671.17401123047</ele>
        <time>2012-04-17T19:35:16Z</time>
      </trkpt>
      <trkpt lat="45.77212" lon="4.63746">
        <ele>670.02697753906</ele>
        <time>2012-04-17T19:35:19Z</time>
      </trkpt>
      <trkpt lat="45.77213" lon="4.63749">
        <ele>668.37097167969</ele>
        <time>2012-04-17T19:36:43Z</time>
      </trkpt>
      <trkpt lat="45.77206" lon="4.63757">
        <ele>667.94702148438</ele>
        <time>2012-04-17T19:36:48Z</time>
      </trkpt>
      <trkpt lat="45.77203" lon="4.63768">
        <ele>667.22698974609</ele>
        <time>2012-04-17T19:36:51Z</time>
      </trkpt>
      <trkpt lat="45.772" lon="4.63797">
        <ele>664.64898681641</ele>
        <time>2012-04-17T19:36:56Z</time>
      </trkpt>
      <trkpt lat="45.77202" lon="4.638">
        <ele>664.64599609375</ele>
        <time>2012-04-17T19:36:57Z</time>
      </trkpt>
      <trkpt lat="45.77209" lon="4.63814">
        <ele>662.26800537109</ele>
        <time>2012-04-17T19:37:00Z</time>
      </trkpt>
      <trkpt lat="45.77222" lon="4.63824">
        <ele>659.19598388672</ele>
        <time>2012-04-17T19:37:05Z</time>
      </trkpt>
      <trkpt lat="45.77228" lon="4.63831">
        <ele>658.57299804688</ele>
        <time>2012-04-17T19:37:07Z</time>
      </trkpt>
      <trkpt lat="45.77226" lon="4.63853">
        <ele>656.04901123047</ele>
        <time>2012-04-17T19:37:13Z</time>
      </trkpt>
      <trkpt lat="45.77223" lon="4.63861">
        <ele>654.64300537109</ele>
        <time>2012-04-17T19:37:15Z</time>
      </trkpt>
      <trkpt lat="45.77231" lon="4.63887">
        <ele>651.67401123047</ele>
        <time>2012-04-17T19:37:19Z</time>
      </trkpt>
      <trkpt lat="45.77238" lon="4.63905">
        <ele>650.34197998047</ele>
        <time>2012-04-17T19:37:22Z</time>
      </trkpt>
      <trkpt lat="45.7724" lon="4.63913">
        <ele>649.05297851562</ele>
        <time>2012-04-17T19:37:24Z</time>
      </trkpt>
      <trkpt lat="45.77242" lon="4.63931">
        <ele>646.61401367188</ele>
        <time>2012-04-17T19:37:28Z</time>
      </trkpt>
      <trkpt lat="45.77247" lon="4.63968">
        <ele>642.11199951172</ele>
        <time>2012-04-17T19:37:34Z</time>
      </trkpt>
      <trkpt lat="45.77245" lon="4.63976">
        <ele>640.51800537109</ele>
        <time>2012-04-17T19:37:36Z</time>
      </trkpt>
      <trkpt lat="45.77231" lon="4.63984">
        <ele>636.34997558594</ele>
        <time>2012-04-17T19:37:41Z</time>
      </trkpt>
      <trkpt lat="45.77229" lon="4.64009">
        <ele>632.10601806641</ele>
        <time>2012-04-17T19:37:46Z</time>
      </trkpt>
      <trkpt lat="45.77226" lon="4.64017">
        <ele>631.36102294922</ele>
        <time>2012-04-17T19:37:48Z</time>
      </trkpt>
      <trkpt lat="45.77214" lon="4.64042">
        <ele>626.63598632812</ele>
        <time>2012-04-17T19:37:53Z</time>
      </trkpt>
      <trkpt lat="45.77206" lon="4.64062">
        <ele>621.96197509766</ele>
        <time>2012-04-17T19:37:57Z</time>
      </trkpt>
      <trkpt lat="45.77193" lon="4.64074">
        <ele>617.7080078125</ele>
        <time>2012-04-17T19:38:02Z</time>
      </trkpt>
      <trkpt lat="45.77184" lon="4.64076">
        <ele>615.78900146484</ele>
        <time>2012-04-17T19:38:06Z</time>
      </trkpt>
      <trkpt lat="45.77181" lon="4.6408">
        <ele>615.51800537109</ele>
        <time>2012-04-17T19:38:21Z</time>
      </trkpt>
      <trkpt lat="45.77174" lon="4.6409">
        <ele>614.92199707031</ele>
        <time>2012-04-17T19:38:26Z</time>
      </trkpt>
      <trkpt lat="45.77168" lon="4.6411">
        <ele>612.03601074219</ele>
        <time>2012-04-17T19:38:32Z</time>
      </trkpt>
      <trkpt lat="45.77165" lon="4.64115">
        <ele>609.53900146484</ele>
        <time>2012-04-17T19:38:35Z</time>
      </trkpt>
      <trkpt lat="45.77166" lon="4.64121">
        <ele>607.74700927734</ele>
        <time>2012-04-17T19:38:52Z</time>
      </trkpt>
      <trkpt lat="45.77168" lon="4.64122">
        <ele>607.82397460938</ele>
        <time>2012-04-17T19:38:55Z</time>
      </trkpt>
      <trkpt lat="45.77173" lon="4.64131">
        <ele>607.04302978516</ele>
        <time>2012-04-17T19:39:00Z</time>
      </trkpt>
      <trkpt lat="45.77172" lon="4.64134">
        <ele>606.10302734375</ele>
        <time>2012-04-17T19:39:08Z</time>
      </trkpt>
      <trkpt lat="45.77172" lon="4.64136">
        <ele>606.16302490234</ele>
        <time>2012-04-17T19:39:12Z</time>
      </trkpt>
      <trkpt lat="45.77176" lon="4.64142">
        <ele>606.08801269531</ele>
        <time>2012-04-17T19:39:19Z</time>
      </trkpt>
      <trkpt lat="45.77177" lon="4.64145">
        <ele>605.8740234375</ele>
        <time>2012-04-17T19:39:25Z</time>
      </trkpt>
      <trkpt lat="45.7718" lon="4.64149">
        <ele>605.53698730469</ele>
        <time>2012-04-17T19:39:32Z</time>
      </trkpt>
      <trkpt lat="45.77183" lon="4.6415">
        <ele>605.84301757812</ele>
        <time>2012-04-17T19:39:40Z</time>
      </trkpt>
      <trkpt lat="45.77185" lon="4.64154">
        <ele>605.78002929688</ele>
        <time>2012-04-17T19:39:45Z</time>
      </trkpt>
      <trkpt lat="45.77188" lon="4.64154">
        <ele>605.24401855469</ele>
        <time>2012-04-17T19:39:50Z</time>
      </trkpt>
      <trkpt lat="45.7719" lon="4.64156">
        <ele>604.81097412109</ele>
        <time>2012-04-17T19:39:54Z</time>
      </trkpt>
      <trkpt lat="45.7719" lon="4.64164">
        <ele>603.7490234375</ele>
        <time>2012-04-17T19:40:00Z</time>
      </trkpt>
      <trkpt lat="45.77193" lon="4.64173">
        <ele>602.61102294922</ele>
        <time>2012-04-17T19:40:06Z</time>
      </trkpt>
      <trkpt lat="45.77194" lon="4.64177">
        <ele>602.28399658203</ele>
        <time>2012-04-17T19:40:08Z</time>
      </trkpt>
      <trkpt lat="45.77191" lon="4.64186">
        <ele>600.7919921875</ele>
        <time>2012-04-17T19:40:13Z</time>
      </trkpt>
      <trkpt lat="45.77191" lon="4.64186">
        <ele>600.20397949219</ele>
        <time>2012-04-17T19:40:15Z</time>
      </trkpt>
      <trkpt lat="45.77189" lon="4.64183">
        <ele>599.60699462891</ele>
        <time>2012-04-17T19:40:21Z</time>
      </trkpt>
      <trkpt lat="45.77185" lon="4.64179">
        <ele>599.34002685547</ele>
        <time>2012-04-17T19:40:29Z</time>
      </trkpt>
      <trkpt lat="45.77183" lon="4.64179">
        <ele>598.75897216797</ele>
        <time>2012-04-17T19:40:34Z</time>
      </trkpt>
      <trkpt lat="45.77182" lon="4.64178">
        <ele>598.56201171875</ele>
        <time>2012-04-17T19:40:36Z</time>
      </trkpt>
      <trkpt lat="45.77174" lon="4.64175">
        <ele>598.125</ele>
        <time>2012-04-17T19:40:41Z</time>
      </trkpt>
      <trkpt lat="45.77174" lon="4.64175">
        <ele>597.21197509766</ele>
        <time>2012-04-17T19:40:48Z</time>
      </trkpt>
      <trkpt lat="45.77177" lon="4.64178">
        <ele>597.38000488281</ele>
        <time>2012-04-17T19:40:52Z</time>
      </trkpt>
      <trkpt lat="45.77184" lon="4.64179">
        <ele>598.59399414062</ele>
        <time>2012-04-17T19:41:01Z</time>
      </trkpt>
      <trkpt lat="45.77187" lon="4.64183">
        <ele>599.40997314453</ele>
        <time>2012-04-17T19:41:09Z</time>
      </trkpt>
      <trkpt lat="45.77188" lon="4.64191">
        <ele>598.90002441406</ele>
        <time>2012-04-17T19:45:40Z</time>
      </trkpt>
      <trkpt lat="45.77189" lon="4.642">
        <ele>598.53601074219</ele>
        <time>2012-04-17T19:45:43Z</time>
      </trkpt>
      <trkpt lat="45.77194" lon="4.64218">
        <ele>596.22100830078</ele>
        <time>2012-04-17T19:45:48Z</time>
      </trkpt>
      <trkpt lat="45.77202" lon="4.64241">
        <ele>592.12799072266</ele>
        <time>2012-04-17T19:45:54Z</time>
      </trkpt>
      <trkpt lat="45.77206" lon="4.64248">
        <ele>590.15399169922</ele>
        <time>2012-04-17T19:45:56Z</time>
      </trkpt>
      <trkpt lat="45.77224" lon="4.64256">
        <ele>585.33599853516</ele>
        <time>2012-04-17T19:46:01Z</time>
      </trkpt>
      <trkpt lat="45.7723" lon="4.64254">
        <ele>584.01202392578</ele>
        <time>2012-04-17T19:46:03Z</time>
      </trkpt>
      <trkpt lat="45.77242" lon="4.64266">
        <ele>582.98101806641</ele>
        <time>2012-04-17T19:46:07Z</time>
      </trkpt>
      <trkpt lat="45.77243" lon="4.6427">
        <ele>582.58502197266</ele>
        <time>2012-04-17T19:46:08Z</time>
      </trkpt>
      <trkpt lat="45.77248" lon="4.64282">
        <ele>580.83801269531</ele>
        <time>2012-04-17T19:46:11Z</time>
      </trkpt>
      <trkpt lat="45.7725" lon="4.64289">
        <ele>579.30297851562</ele>
        <time>2012-04-17T19:46:14Z</time>
      </trkpt>
      <trkpt lat="45.77245" lon="4.64301">
        <ele>576.27301025391</ele>
        <time>2012-04-17T19:46:18Z</time>
      </trkpt>
      <trkpt lat="45.77242" lon="4.64318">
        <ele>572.50799560547</ele>
        <time>2012-04-17T19:46:23Z</time>
      </trkpt>
      <trkpt lat="45.77248" lon="4.64336">
        <ele>568.33697509766</ele>
        <time>2012-04-17T19:46:27Z</time>
      </trkpt>
      <trkpt lat="45.77257" lon="4.6436">
        <ele>563.23297119141</ele>
        <time>2012-04-17T19:46:32Z</time>
      </trkpt>
      <trkpt lat="45.77261" lon="4.64372">
        <ele>560.14300537109</ele>
        <time>2012-04-17T19:46:36Z</time>
      </trkpt>
      <trkpt lat="45.77261" lon="4.64374">
        <ele>559.44702148438</ele>
        <time>2012-04-17T19:46:37Z</time>
      </trkpt>
      <trkpt lat="45.7726" lon="4.64381">
        <ele>558.03002929688</ele>
        <time>2012-04-17T19:46:40Z</time>
      </trkpt>
      <trkpt lat="45.77255" lon="4.6438">
        <ele>556.24200439453</ele>
        <time>2012-04-17T19:46:43Z</time>
      </trkpt>
      <trkpt lat="45.77249" lon="4.64382">
        <ele>554.82598876953</ele>
        <time>2012-04-17T19:46:47Z</time>
      </trkpt>
      <trkpt lat="45.77246" lon="4.64374">
        <ele>554.64398193359</ele>
        <time>2012-04-17T19:47:32Z</time>
      </trkpt>
      <trkpt lat="45.77235" lon="4.64366">
        <ele>554.62799072266</ele>
        <time>2012-04-17T19:47:38Z</time>
      </trkpt>
      <trkpt lat="45.7722" lon="4.64352">
        <ele>553.79699707031</ele>
        <time>2012-04-17T19:47:43Z</time>
      </trkpt>
      <trkpt lat="45.77199" lon="4.64345">
        <ele>552.41497802734</ele>
        <time>2012-04-17T19:47:48Z</time>
      </trkpt>
      <trkpt lat="45.77185" lon="4.64346">
        <ele>551.91101074219</ele>
        <time>2012-04-17T19:47:51Z</time>
      </trkpt>
      <trkpt lat="45.77161" lon="4.64361">
        <ele>551.01898193359</ele>
        <time>2012-04-17T19:47:55Z</time>
      </trkpt>
      <trkpt lat="45.77157" lon="4.64381">
        <ele>550.42297363281</ele>
        <time>2012-04-17T19:47:58Z</time>
      </trkpt>
      <trkpt lat="45.77155" lon="4.64398">
        <ele>549.69201660156</ele>
        <time>2012-04-17T19:48:00Z</time>
      </trkpt>
      <trkpt lat="45.77154" lon="4.64449">
        <ele>547.59002685547</ele>
        <time>2012-04-17T19:48:05Z</time>
      </trkpt>
      <trkpt lat="45.77159" lon="4.6448">
        <ele>546.30700683594</ele>
        <time>2012-04-17T19:48:08Z</time>
      </trkpt>
      <trkpt lat="45.77169" lon="4.64547">
        <ele>543.33502197266</ele>
        <time>2012-04-17T19:48:14Z</time>
      </trkpt>
      <trkpt lat="45.7716" lon="4.64595">
        <ele>541.17102050781</ele>
        <time>2012-04-17T19:48:18Z</time>
      </trkpt>
      <trkpt lat="45.77139" lon="4.64619">
        <ele>539.93701171875</ele>
        <time>2012-04-17T19:48:21Z</time>
      </trkpt>
      <trkpt lat="45.7711" lon="4.64624">
        <ele>538.09997558594</ele>
        <time>2012-04-17T19:48:24Z</time>
      </trkpt>
      <trkpt lat="45.7709" lon="4.64623">
        <ele>536.71899414062</ele>
        <time>2012-04-17T19:48:26Z</time>
      </trkpt>
      <trkpt lat="45.77045" lon="4.64662">
        <ele>533.37200927734</ele>
        <time>2012-04-17T19:48:31Z</time>
      </trkpt>
      <trkpt lat="45.77026" lon="4.6472">
        <ele>530.46197509766</ele>
        <time>2012-04-17T19:48:35Z</time>
      </trkpt>
      <trkpt lat="45.77023" lon="4.64734">
        <ele>529.65997314453</ele>
        <time>2012-04-17T19:48:36Z</time>
      </trkpt>
      <trkpt lat="45.76999" lon="4.64821">
        <ele>525.26800537109</ele>
        <time>2012-04-17T19:48:42Z</time>
      </trkpt>
      <trkpt lat="45.76982" lon="4.64868">
        <ele>522.79998779297</ele>
        <time>2012-04-17T19:48:46Z</time>
      </trkpt>
      <trkpt lat="45.76971" lon="4.6489">
        <ele>519.06201171875</ele>
        <time>2012-04-17T19:48:50Z</time>
      </trkpt>
      <trkpt lat="45.76968" lon="4.64893">
        <ele>518.19897460938</ele>
        <time>2012-04-17T19:48:51Z</time>
      </trkpt>
      <trkpt lat="45.76965" lon="4.64899">
        <ele>515.96997070312</ele>
        <time>2012-04-17T19:48:55Z</time>
      </trkpt>
      <trkpt lat="45.76961" lon="4.64899">
        <ele>515.55798339844</ele>
        <time>2012-04-17T19:48:57Z</time>
      </trkpt>
      <trkpt lat="45.76939" lon="4.64896">
        <ele>515.12799072266</ele>
        <time>2012-04-17T19:49:02Z</time>
      </trkpt>
      <trkpt lat="45.76906" lon="4.64887">
        <ele>513.86798095703</ele>
        <time>2012-04-17T19:49:07Z</time>
      </trkpt>
      <trkpt lat="45.76864" lon="4.64888">
        <ele>512.083984375</ele>
        <time>2012-04-17T19:49:12Z</time>
      </trkpt>
      <trkpt lat="45.76846" lon="4.64893">
        <ele>511.25100708008</ele>
        <time>2012-04-17T19:49:14Z</time>
      </trkpt>
      <trkpt lat="45.7681" lon="4.64883">
        <ele>509.73400878906</ele>
        <time>2012-04-17T19:49:18Z</time>
      </trkpt>
      <trkpt lat="45.76801" lon="4.64861">
        <ele>508.66000366211</ele>
        <time>2012-04-17T19:49:20Z</time>
      </trkpt>
      <trkpt lat="45.76786" lon="4.64815">
        <ele>505.61401367188</ele>
        <time>2012-04-17T19:49:24Z</time>
      </trkpt>
      <trkpt lat="45.76764" lon="4.64816">
        <ele>502.79800415039</ele>
        <time>2012-04-17T19:49:27Z</time>
      </trkpt>
      <trkpt lat="45.76751" lon="4.64838">
        <ele>501.32000732422</ele>
        <time>2012-04-17T19:49:29Z</time>
      </trkpt>
      <trkpt lat="45.76745" lon="4.6485">
        <ele>500.71701049805</ele>
        <time>2012-04-17T19:49:30Z</time>
      </trkpt>
      <trkpt lat="45.76711" lon="4.64916">
        <ele>498.81399536133</ele>
        <time>2012-04-17T19:49:35Z</time>
      </trkpt>
      <trkpt lat="45.76664" lon="4.65022">
        <ele>495.07901000977</ele>
        <time>2012-04-17T19:49:42Z</time>
      </trkpt>
      <trkpt lat="45.76652" lon="4.65092">
        <ele>490.18798828125</ele>
        <time>2012-04-17T19:49:46Z</time>
      </trkpt>
      <trkpt lat="45.76654" lon="4.6511">
        <ele>488.91400146484</ele>
        <time>2012-04-17T19:49:47Z</time>
      </trkpt>
      <trkpt lat="45.7667" lon="4.65238">
        <ele>481.57901000977</ele>
        <time>2012-04-17T19:49:54Z</time>
      </trkpt>
      <trkpt lat="45.76675" lon="4.65317">
        <ele>477.38400268555</ele>
        <time>2012-04-17T19:49:59Z</time>
      </trkpt>
      <trkpt lat="45.76687" lon="4.65398">
        <ele>475.16101074219</ele>
        <time>2012-04-17T19:50:05Z</time>
      </trkpt>
      <trkpt lat="45.76701" lon="4.65444">
        <ele>473.99398803711</ele>
        <time>2012-04-17T19:50:09Z</time>
      </trkpt>
      <trkpt lat="45.76729" lon="4.65517">
        <ele>470.66799926758</ele>
        <time>2012-04-17T19:50:15Z</time>
      </trkpt>
      <trkpt lat="45.76753" lon="4.65603">
        <ele>466.37899780273</ele>
        <time>2012-04-17T19:50:21Z</time>
      </trkpt>
      <trkpt lat="45.76783" lon="4.65699">
        <ele>462.00900268555</ele>
        <time>2012-04-17T19:50:28Z</time>
      </trkpt>
      <trkpt lat="45.76804" lon="4.65779">
        <ele>459.95901489258</ele>
        <time>2012-04-17T19:50:33Z</time>
      </trkpt>
      <trkpt lat="45.76817" lon="4.65861">
        <ele>458.55200195312</ele>
        <time>2012-04-17T19:50:38Z</time>
      </trkpt>
      <trkpt lat="45.76813" lon="4.6592">
        <ele>456.62100219727</ele>
        <time>2012-04-17T19:50:42Z</time>
      </trkpt>
      <trkpt lat="45.76801" lon="4.65947">
        <ele>455.87899780273</ele>
        <time>2012-04-17T19:50:44Z</time>
      </trkpt>
      <trkpt lat="45.76773" lon="4.65978">
        <ele>454.37799072266</ele>
        <time>2012-04-17T19:50:47Z</time>
      </trkpt>
      <trkpt lat="45.76749" lon="4.65985">
        <ele>452.9700012207</ele>
        <time>2012-04-17T19:50:49Z</time>
      </trkpt>
      <trkpt lat="45.76693" lon="4.65989">
        <ele>450.07000732422</ele>
        <time>2012-04-17T19:50:53Z</time>
      </trkpt>
      <trkpt lat="45.7664" lon="4.6598">
        <ele>446.48901367188</ele>
        <time>2012-04-17T19:50:57Z</time>
      </trkpt>
      <trkpt lat="45.76594" lon="4.6598">
        <ele>442.74398803711</ele>
        <time>2012-04-17T19:51:01Z</time>
      </trkpt>
      <trkpt lat="45.76545" lon="4.65986">
        <ele>438.04998779297</ele>
        <time>2012-04-17T19:51:06Z</time>
      </trkpt>
      <trkpt lat="45.76537" lon="4.65988">
        <ele>437.22299194336</ele>
        <time>2012-04-17T19:51:07Z</time>
      </trkpt>
      <trkpt lat="45.76524" lon="4.65997">
        <ele>434.26501464844</ele>
        <time>2012-04-17T19:51:10Z</time>
      </trkpt>
      <trkpt lat="45.76527" lon="4.66006">
        <ele>432.38000488281</ele>
        <time>2012-04-17T19:51:12Z</time>
      </trkpt>
      <trkpt lat="45.76534" lon="4.66008">
        <ele>430.88598632812</ele>
        <time>2012-04-17T19:51:14Z</time>
      </trkpt>
      <trkpt lat="45.76548" lon="4.66012">
        <ele>429.64001464844</ele>
        <time>2012-04-17T19:51:20Z</time>
      </trkpt>
      <trkpt lat="45.76551" lon="4.66011">
        <ele>429.69500732422</ele>
        <time>2012-04-17T19:51:25Z</time>
      </trkpt>
      <trkpt lat="45.7655" lon="4.66002">
        <ele>430.02398681641</ele>
        <time>2012-04-17T19:51:33Z</time>
      </trkpt>
      <trkpt lat="45.76549" lon="4.65999">
        <ele>430.36700439453</ele>
        <time>2012-04-17T19:51:39Z</time>
      </trkpt>
      <trkpt lat="45.76548" lon="4.65999">
        <ele>430.32598876953</ele>
        <time>2012-04-17T19:51:58Z</time>
      </trkpt>
      <trkpt lat="45.76549" lon="4.65999">
        <ele>432.29598999023</ele>
        <time>2012-04-17T20:26:51Z</time>
      </trkpt>
      <trkpt lat="45.76543" lon="4.66004">
        <ele>432.18701171875</ele>
        <time>2012-04-17T20:26:56Z</time>
      </trkpt>
      <trkpt lat="45.76529" lon="4.66003">
        <ele>431.82299804688</ele>
        <time>2012-04-17T20:27:01Z</time>
      </trkpt>
      <trkpt lat="45.76519" lon="4.66012">
        <ele>431.30200195312</ele>
        <time>2012-04-17T20:27:04Z</time>
      </trkpt>
      <trkpt lat="45.76511" lon="4.66026">
        <ele>430.48699951172</ele>
        <time>2012-04-17T20:27:07Z</time>
      </trkpt>
      <trkpt lat="45.76503" lon="4.6605">
        <ele>429.10598754883</ele>
        <time>2012-04-17T20:27:11Z</time>
      </trkpt>
      <trkpt lat="45.76499" lon="4.66082">
        <ele>427.55801391602</ele>
        <time>2012-04-17T20:27:16Z</time>
      </trkpt>
      <trkpt lat="45.76499" lon="4.66107">
        <ele>425.9580078125</ele>
        <time>2012-04-17T20:27:20Z</time>
      </trkpt>
      <trkpt lat="45.76489" lon="4.66137">
        <ele>424.35299682617</ele>
        <time>2012-04-17T20:27:26Z</time>
      </trkpt>
      <trkpt lat="45.76475" lon="4.66182">
        <ele>423.32400512695</ele>
        <time>2012-04-17T20:27:34Z</time>
      </trkpt>
      <trkpt lat="45.76466" lon="4.66229">
        <ele>422.4700012207</ele>
        <time>2012-04-17T20:27:41Z</time>
      </trkpt>
      <trkpt lat="45.76453" lon="4.66276">
        <ele>422.04998779297</ele>
        <time>2012-04-17T20:27:48Z</time>
      </trkpt>
      <trkpt lat="45.76438" lon="4.66324">
        <ele>421.93099975586</ele>
        <time>2012-04-17T20:27:55Z</time>
      </trkpt>
      <trkpt lat="45.76423" lon="4.66376">
        <ele>421.95300292969</ele>
        <time>2012-04-17T20:28:03Z</time>
      </trkpt>
      <trkpt lat="45.76411" lon="4.66419">
        <ele>422.42498779297</ele>
        <time>2012-04-17T20:28:10Z</time>
      </trkpt>
      <trkpt lat="45.76394" lon="4.66474">
        <ele>423.44500732422</ele>
        <time>2012-04-17T20:28:20Z</time>
      </trkpt>
      <trkpt lat="45.76392" lon="4.66479">
        <ele>423.5419921875</ele>
        <time>2012-04-17T20:28:21Z</time>
      </trkpt>
      <trkpt lat="45.76387" lon="4.66506">
        <ele>423.74600219727</ele>
        <time>2012-04-17T20:28:26Z</time>
      </trkpt>
      <trkpt lat="45.76386" lon="4.66511">
        <ele>423.77301025391</ele>
        <time>2012-04-17T20:28:27Z</time>
      </trkpt>
      <trkpt lat="45.76371" lon="4.66577">
        <ele>423.85998535156</ele>
        <time>2012-04-17T20:28:38Z</time>
      </trkpt>
      <trkpt lat="45.76357" lon="4.66631">
        <ele>424.73599243164</ele>
        <time>2012-04-17T20:28:47Z</time>
      </trkpt>
      <trkpt lat="45.76345" lon="4.6668">
        <ele>424.94500732422</ele>
        <time>2012-04-17T20:28:55Z</time>
      </trkpt>
      <trkpt lat="45.76331" lon="4.66736">
        <ele>426.40899658203</ele>
        <time>2012-04-17T20:29:05Z</time>
      </trkpt>
      <trkpt lat="45.76318" lon="4.66784">
        <ele>427.97198486328</ele>
        <time>2012-04-17T20:29:14Z</time>
      </trkpt>
      <trkpt lat="45.76304" lon="4.66845">
        <ele>429.54998779297</ele>
        <time>2012-04-17T20:29:26Z</time>
      </trkpt>
      <trkpt lat="45.76298" lon="4.66876">
        <ele>430.1960144043</ele>
        <time>2012-04-17T20:29:32Z</time>
      </trkpt>
      <trkpt lat="45.76294" lon="4.66936">
        <ele>430.16299438477</ele>
        <time>2012-04-17T20:29:41Z</time>
      </trkpt>
      <trkpt lat="45.7629" lon="4.66988">
        <ele>429.33099365234</ele>
        <time>2012-04-17T20:29:47Z</time>
      </trkpt>
      <trkpt lat="45.76281" lon="4.67055">
        <ele>426.40701293945</ele>
        <time>2012-04-17T20:29:54Z</time>
      </trkpt>
      <trkpt lat="45.76271" lon="4.67137">
        <ele>420.73498535156</ele>
        <time>2012-04-17T20:30:02Z</time>
      </trkpt>
      <trkpt lat="45.76271" lon="4.6716">
        <ele>416.69100952148</ele>
        <time>2012-04-17T20:30:06Z</time>
      </trkpt>
      <trkpt lat="45.76272" lon="4.6716">
        <ele>415.14801025391</ele>
        <time>2012-04-17T20:30:09Z</time>
      </trkpt>
      <trkpt lat="45.76271" lon="4.67168">
        <ele>413.78698730469</ele>
        <time>2012-04-17T20:30:13Z</time>
      </trkpt>
      <trkpt lat="45.76266" lon="4.67194">
        <ele>413.05899047852</ele>
        <time>2012-04-17T20:30:17Z</time>
      </trkpt>
      <trkpt lat="45.76253" lon="4.67265">
        <ele>408.72900390625</ele>
        <time>2012-04-17T20:30:25Z</time>
      </trkpt>
      <trkpt lat="45.76242" lon="4.67329">
        <ele>403.97500610352</ele>
        <time>2012-04-17T20:30:32Z</time>
      </trkpt>
      <trkpt lat="45.7624" lon="4.67343">
        <ele>403.22900390625</ele>
        <time>2012-04-17T20:30:34Z</time>
      </trkpt>
      <trkpt lat="45.7623" lon="4.67395">
        <ele>399.0830078125</ele>
        <time>2012-04-17T20:30:41Z</time>
      </trkpt>
      <trkpt lat="45.76222" lon="4.67445">
        <ele>395.5950012207</ele>
        <time>2012-04-17T20:30:47Z</time>
      </trkpt>
      <trkpt lat="45.7621" lon="4.67512">
        <ele>390.50399780273</ele>
        <time>2012-04-17T20:30:55Z</time>
      </trkpt>
      <trkpt lat="45.76204" lon="4.67543">
        <ele>388.64199829102</ele>
        <time>2012-04-17T20:30:59Z</time>
      </trkpt>
      <trkpt lat="45.76194" lon="4.67589">
        <ele>385.38500976562</ele>
        <time>2012-04-17T20:31:04Z</time>
      </trkpt>
      <trkpt lat="45.76179" lon="4.67646">
        <ele>380.39099121094</ele>
        <time>2012-04-17T20:31:11Z</time>
      </trkpt>
      <trkpt lat="45.76163" lon="4.677">
        <ele>377.27899169922</ele>
        <time>2012-04-17T20:31:18Z</time>
      </trkpt>
      <trkpt lat="45.7614" lon="4.67767">
        <ele>374.43899536133</ele>
        <time>2012-04-17T20:31:26Z</time>
      </trkpt>
      <trkpt lat="45.76123" lon="4.6782">
        <ele>371.73400878906</ele>
        <time>2012-04-17T20:31:32Z</time>
      </trkpt>
      <trkpt lat="45.76105" lon="4.67898">
        <ele>368.57400512695</ele>
        <time>2012-04-17T20:31:40Z</time>
      </trkpt>
      <trkpt lat="45.76085" lon="4.67991">
        <ele>363.50399780273</ele>
        <time>2012-04-17T20:31:49Z</time>
      </trkpt>
      <trkpt lat="45.76073" lon="4.6806">
        <ele>360.62899780273</ele>
        <time>2012-04-17T20:31:56Z</time>
      </trkpt>
      <trkpt lat="45.76054" lon="4.68152">
        <ele>357.87701416016</ele>
        <time>2012-04-17T20:32:05Z</time>
      </trkpt>
      <trkpt lat="45.76035" lon="4.68227">
        <ele>356.68499755859</ele>
        <time>2012-04-17T20:32:12Z</time>
      </trkpt>
      <trkpt lat="45.76023" lon="4.68263">
        <ele>355.35998535156</ele>
        <time>2012-04-17T20:32:16Z</time>
      </trkpt>
      <trkpt lat="45.76021" lon="4.68269">
        <ele>354.75</ele>
        <time>2012-04-17T20:32:17Z</time>
      </trkpt>
      <trkpt lat="45.76016" lon="4.68298">
        <ele>351.95401000977</ele>
        <time>2012-04-17T20:32:21Z</time>
      </trkpt>
      <trkpt lat="45.76011" lon="4.68356">
        <ele>350.05700683594</ele>
        <time>2012-04-17T20:32:27Z</time>
      </trkpt>
      <trkpt lat="45.76001" lon="4.68437">
        <ele>347.51901245117</ele>
        <time>2012-04-17T20:32:34Z</time>
      </trkpt>
      <trkpt lat="45.75993" lon="4.68529">
        <ele>344.93798828125</ele>
        <time>2012-04-17T20:32:41Z</time>
      </trkpt>
      <trkpt lat="45.75986" lon="4.68635">
        <ele>341.61401367188</ele>
        <time>2012-04-17T20:32:49Z</time>
      </trkpt>
      <trkpt lat="45.75982" lon="4.68726">
        <ele>337.82000732422</ele>
        <time>2012-04-17T20:32:56Z</time>
      </trkpt>
      <trkpt lat="45.75966" lon="4.6877">
        <ele>335.76000976562</ele>
        <time>2012-04-17T20:33:00Z</time>
      </trkpt>
      <trkpt lat="45.7596" lon="4.68778">
        <ele>335.36700439453</ele>
        <time>2012-04-17T20:33:01Z</time>
      </trkpt>
      <trkpt lat="45.75915" lon="4.68822">
        <ele>333.76400756836</ele>
        <time>2012-04-17T20:33:08Z</time>
      </trkpt>
      <trkpt lat="45.75903" lon="4.68835">
        <ele>333.50799560547</ele>
        <time>2012-04-17T20:33:10Z</time>
      </trkpt>
      <trkpt lat="45.75872" lon="4.6889">
        <ele>332.59600830078</ele>
        <time>2012-04-17T20:33:16Z</time>
      </trkpt>
      <trkpt lat="45.75834" lon="4.68979">
        <ele>330.53601074219</ele>
        <time>2012-04-17T20:33:24Z</time>
      </trkpt>
      <trkpt lat="45.758" lon="4.69058">
        <ele>327.9469909668</ele>
        <time>2012-04-17T20:33:31Z</time>
      </trkpt>
      <trkpt lat="45.75777" lon="4.69116">
        <ele>325.86199951172</ele>
        <time>2012-04-17T20:33:36Z</time>
      </trkpt>
      <trkpt lat="45.75767" lon="4.69138">
        <ele>325.07400512695</ele>
        <time>2012-04-17T20:33:38Z</time>
      </trkpt>
      <trkpt lat="45.7576" lon="4.69188">
        <ele>322.89001464844</ele>
        <time>2012-04-17T20:33:42Z</time>
      </trkpt>
      <trkpt lat="45.75764" lon="4.69252">
        <ele>320.70098876953</ele>
        <time>2012-04-17T20:33:47Z</time>
      </trkpt>
      <trkpt lat="45.75758" lon="4.69308">
        <ele>319.40301513672</ele>
        <time>2012-04-17T20:33:51Z</time>
      </trkpt>
      <trkpt lat="45.75725" lon="4.69406">
        <ele>316.45700073242</ele>
        <time>2012-04-17T20:33:58Z</time>
      </trkpt>
      <trkpt lat="45.75687" lon="4.69526">
        <ele>309.96301269531</ele>
        <time>2012-04-17T20:34:06Z</time>
      </trkpt>
      <trkpt lat="45.75666" lon="4.69637">
        <ele>304.37200927734</ele>
        <time>2012-04-17T20:34:13Z</time>
      </trkpt>
      <trkpt lat="45.75657" lon="4.69718">
        <ele>300.60501098633</ele>
        <time>2012-04-17T20:34:18Z</time>
      </trkpt>
      <trkpt lat="45.75642" lon="4.69781">
        <ele>297.82000732422</ele>
        <time>2012-04-17T20:34:22Z</time>
      </trkpt>
      <trkpt lat="45.75627" lon="4.69826">
        <ele>294.93301391602</ele>
        <time>2012-04-17T20:34:25Z</time>
      </trkpt>
      <trkpt lat="45.75603" lon="4.69869">
        <ele>291.04901123047</ele>
        <time>2012-04-17T20:34:29Z</time>
      </trkpt>
      <trkpt lat="45.75598" lon="4.69876">
        <ele>290.26599121094</ele>
        <time>2012-04-17T20:34:30Z</time>
      </trkpt>
      <trkpt lat="45.75595" lon="4.69894">
        <ele>288.70599365234</ele>
        <time>2012-04-17T20:34:33Z</time>
      </trkpt>
      <trkpt lat="45.7561" lon="4.69908">
        <ele>288.4460144043</ele>
        <time>2012-04-17T20:34:37Z</time>
      </trkpt>
      <trkpt lat="45.75615" lon="4.69908">
        <ele>288.53500366211</ele>
        <time>2012-04-17T20:34:38Z</time>
      </trkpt>
      <trkpt lat="45.75657" lon="4.6991">
        <ele>288.4280090332</ele>
        <time>2012-04-17T20:34:45Z</time>
      </trkpt>
      <trkpt lat="45.757" lon="4.69903">
        <ele>288.14099121094</ele>
        <time>2012-04-17T20:34:52Z</time>
      </trkpt>
      <trkpt lat="45.7574" lon="4.69886">
        <ele>288.86499023438</ele>
        <time>2012-04-17T20:34:59Z</time>
      </trkpt>
      <trkpt lat="45.7578" lon="4.69857">
        <ele>290.54998779297</ele>
        <time>2012-04-17T20:35:08Z</time>
      </trkpt>
      <trkpt lat="45.75811" lon="4.69823">
        <ele>292.83099365234</ele>
        <time>2012-04-17T20:35:16Z</time>
      </trkpt>
      <trkpt lat="45.75841" lon="4.69788">
        <ele>294.70498657227</ele>
        <time>2012-04-17T20:35:24Z</time>
      </trkpt>
      <trkpt lat="45.75881" lon="4.69752">
        <ele>296.68798828125</ele>
        <time>2012-04-17T20:35:34Z</time>
      </trkpt>
      <trkpt lat="45.75905" lon="4.69734">
        <ele>298.28100585938</ele>
        <time>2012-04-17T20:35:40Z</time>
      </trkpt>
      <trkpt lat="45.75938" lon="4.69715">
        <ele>300.39599609375</ele>
        <time>2012-04-17T20:35:48Z</time>
      </trkpt>
      <trkpt lat="45.75965" lon="4.69702">
        <ele>301.98098754883</ele>
        <time>2012-04-17T20:35:55Z</time>
      </trkpt>
      <trkpt lat="45.75986" lon="4.69694">
        <ele>303.46301269531</ele>
        <time>2012-04-17T20:36:01Z</time>
      </trkpt>
      <trkpt lat="45.75995" lon="4.69708">
        <ele>304.30700683594</ele>
        <time>2012-04-17T20:36:06Z</time>
      </trkpt>
      <trkpt lat="45.76002" lon="4.69734">
        <ele>307.07901000977</ele>
        <time>2012-04-17T20:36:15Z</time>
      </trkpt>
      <trkpt lat="45.76006" lon="4.69752">
        <ele>308.80999755859</ele>
        <time>2012-04-17T20:36:21Z</time>
      </trkpt>
      <trkpt lat="45.76007" lon="4.6977">
        <ele>310.1669921875</ele>
        <time>2012-04-17T20:36:27Z</time>
      </trkpt>
      <trkpt lat="45.76006" lon="4.69796">
        <ele>312.02301025391</ele>
        <time>2012-04-17T20:36:36Z</time>
      </trkpt>
      <trkpt lat="45.76004" lon="4.69821">
        <ele>314.06500244141</ele>
        <time>2012-04-17T20:36:45Z</time>
      </trkpt>
      <trkpt lat="45.76003" lon="4.69843">
        <ele>315.45401000977</ele>
        <time>2012-04-17T20:36:53Z</time>
      </trkpt>
      <trkpt lat="45.75999" lon="4.69865">
        <ele>316.71499633789</ele>
        <time>2012-04-17T20:37:01Z</time>
      </trkpt>
      <trkpt lat="45.75996" lon="4.69886">
        <ele>317.99099731445</ele>
        <time>2012-04-17T20:37:08Z</time>
      </trkpt>
      <trkpt lat="45.75993" lon="4.69904">
        <ele>319.07598876953</ele>
        <time>2012-04-17T20:37:14Z</time>
      </trkpt>
      <trkpt lat="45.7599" lon="4.6993">
        <ele>319.6549987793</ele>
        <time>2012-04-17T20:37:21Z</time>
      </trkpt>
      <trkpt lat="45.75987" lon="4.69965">
        <ele>319.86401367188</ele>
        <time>2012-04-17T20:37:28Z</time>
      </trkpt>
      <trkpt lat="45.75989" lon="4.7001">
        <ele>319.54901123047</ele>
        <time>2012-04-17T20:37:36Z</time>
      </trkpt>
      <trkpt lat="45.75993" lon="4.70068">
        <ele>319.07000732422</ele>
        <time>2012-04-17T20:37:45Z</time>
      </trkpt>
      <trkpt lat="45.75999" lon="4.70114">
        <ele>318.25299072266</ele>
        <time>2012-04-17T20:37:52Z</time>
      </trkpt>
      <trkpt lat="45.76006" lon="4.70166">
        <ele>317.6789855957</ele>
        <time>2012-04-17T20:38:00Z</time>
      </trkpt>
      <trkpt lat="45.76022" lon="4.70236">
        <ele>317.57800292969</ele>
        <time>2012-04-17T20:38:10Z</time>
      </trkpt>
      <trkpt lat="45.76029" lon="4.70293">
        <ele>317.20999145508</ele>
        <time>2012-04-17T20:38:18Z</time>
      </trkpt>
      <trkpt lat="45.76034" lon="4.70341">
        <ele>317.53399658203</ele>
        <time>2012-04-17T20:38:25Z</time>
      </trkpt>
      <trkpt lat="45.76038" lon="4.70401">
        <ele>318.11199951172</ele>
        <time>2012-04-17T20:38:34Z</time>
      </trkpt>
      <trkpt lat="45.76042" lon="4.70453">
        <ele>318.62200927734</ele>
        <time>2012-04-17T20:38:42Z</time>
      </trkpt>
      <trkpt lat="45.76043" lon="4.70466">
        <ele>318.74798583984</ele>
        <time>2012-04-17T20:38:44Z</time>
      </trkpt>
      <trkpt lat="45.76044" lon="4.70487">
        <ele>318.96499633789</ele>
        <time>2012-04-17T20:38:47Z</time>
      </trkpt>
      <trkpt lat="45.76052" lon="4.70543">
        <ele>318.58401489258</ele>
        <time>2012-04-17T20:38:55Z</time>
      </trkpt>
      <trkpt lat="45.76056" lon="4.70563">
        <ele>318.26800537109</ele>
        <time>2012-04-17T20:38:58Z</time>
      </trkpt>
      <trkpt lat="45.7607" lon="4.70599">
        <ele>318</ele>
        <time>2012-04-17T20:39:03Z</time>
      </trkpt>
      <trkpt lat="45.76072" lon="4.70632">
        <ele>317.36801147461</ele>
        <time>2012-04-17T20:39:07Z</time>
      </trkpt>
      <trkpt lat="45.76051" lon="4.70694">
        <ele>315.38299560547</ele>
        <time>2012-04-17T20:39:14Z</time>
      </trkpt>
      <trkpt lat="45.76032" lon="4.70769">
        <ele>313.0530090332</ele>
        <time>2012-04-17T20:39:21Z</time>
      </trkpt>
      <trkpt lat="45.76012" lon="4.70854">
        <ele>311.08200073242</ele>
        <time>2012-04-17T20:39:28Z</time>
      </trkpt>
      <trkpt lat="45.75989" lon="4.70968">
        <ele>308.19799804688</ele>
        <time>2012-04-17T20:39:37Z</time>
      </trkpt>
      <trkpt lat="45.75967" lon="4.71065">
        <ele>306.19799804688</ele>
        <time>2012-04-17T20:39:45Z</time>
      </trkpt>
      <trkpt lat="45.7594" lon="4.71189">
        <ele>304.77099609375</ele>
        <time>2012-04-17T20:39:56Z</time>
      </trkpt>
      <trkpt lat="45.75922" lon="4.71301">
        <ele>304.39300537109</ele>
        <time>2012-04-17T20:40:06Z</time>
      </trkpt>
      <trkpt lat="45.75909" lon="4.71394">
        <ele>304.45901489258</ele>
        <time>2012-04-17T20:40:15Z</time>
      </trkpt>
      <trkpt lat="45.75895" lon="4.71479">
        <ele>304.91198730469</ele>
        <time>2012-04-17T20:40:24Z</time>
      </trkpt>
      <trkpt lat="45.75893" lon="4.71525">
        <ele>305.13900756836</ele>
        <time>2012-04-17T20:40:29Z</time>
      </trkpt>
      <trkpt lat="45.75887" lon="4.71635">
        <ele>305.35998535156</ele>
        <time>2012-04-17T20:40:41Z</time>
      </trkpt>
      <trkpt lat="45.75886" lon="4.71645">
        <ele>305.33599853516</ele>
        <time>2012-04-17T20:40:42Z</time>
      </trkpt>
      <trkpt lat="45.75877" lon="4.71682">
        <ele>305.26599121094</ele>
        <time>2012-04-17T20:40:46Z</time>
      </trkpt>
      <trkpt lat="45.75876" lon="4.71713">
        <ele>305.17498779297</ele>
        <time>2012-04-17T20:40:49Z</time>
      </trkpt>
      <trkpt lat="45.75854" lon="4.71805">
        <ele>304.00299072266</ele>
        <time>2012-04-17T20:40:58Z</time>
      </trkpt>
      <trkpt lat="45.75831" lon="4.71909">
        <ele>302.19100952148</ele>
        <time>2012-04-17T20:41:08Z</time>
      </trkpt>
      <trkpt lat="45.75818" lon="4.71983">
        <ele>300.80499267578</ele>
        <time>2012-04-17T20:41:15Z</time>
      </trkpt>
      <trkpt lat="45.75806" lon="4.72071">
        <ele>299.63101196289</ele>
        <time>2012-04-17T20:41:23Z</time>
      </trkpt>
      <trkpt lat="45.75795" lon="4.7214">
        <ele>298.22799682617</ele>
        <time>2012-04-17T20:41:29Z</time>
      </trkpt>
      <trkpt lat="45.75799" lon="4.72194">
        <ele>297.36700439453</ele>
        <time>2012-04-17T20:41:34Z</time>
      </trkpt>
      <trkpt lat="45.75801" lon="4.72204">
        <ele>297.1789855957</ele>
        <time>2012-04-17T20:41:35Z</time>
      </trkpt>
      <trkpt lat="45.75824" lon="4.72248">
        <ele>295.77499389648</ele>
        <time>2012-04-17T20:41:40Z</time>
      </trkpt>
      <trkpt lat="45.75864" lon="4.72317">
        <ele>293.33599853516</ele>
        <time>2012-04-17T20:41:47Z</time>
      </trkpt>
      <trkpt lat="45.75916" lon="4.72409">
        <ele>289.00100708008</ele>
        <time>2012-04-17T20:41:56Z</time>
      </trkpt>
      <trkpt lat="45.7593" lon="4.72457">
        <ele>287.63598632812</ele>
        <time>2012-04-17T20:42:00Z</time>
      </trkpt>
      <trkpt lat="45.7594" lon="4.72521">
        <ele>285.1969909668</ele>
        <time>2012-04-17T20:42:05Z</time>
      </trkpt>
      <trkpt lat="45.75951" lon="4.72639">
        <ele>280.46398925781</ele>
        <time>2012-04-17T20:42:14Z</time>
      </trkpt>
      <trkpt lat="45.75961" lon="4.72736">
        <ele>277.29000854492</ele>
        <time>2012-04-17T20:42:21Z</time>
      </trkpt>
      <trkpt lat="45.75983" lon="4.72816">
        <ele>274.28698730469</ele>
        <time>2012-04-17T20:42:27Z</time>
      </trkpt>
      <trkpt lat="45.76006" lon="4.72892">
        <ele>270.86099243164</ele>
        <time>2012-04-17T20:42:33Z</time>
      </trkpt>
      <trkpt lat="45.76009" lon="4.72948">
        <ele>269.26699829102</ele>
        <time>2012-04-17T20:42:37Z</time>
      </trkpt>
      <trkpt lat="45.76" lon="4.72988">
        <ele>267.97299194336</ele>
        <time>2012-04-17T20:42:40Z</time>
      </trkpt>
      <trkpt lat="45.75986" lon="4.73023">
        <ele>266.33801269531</ele>
        <time>2012-04-17T20:42:43Z</time>
      </trkpt>
      <trkpt lat="45.75972" lon="4.73086">
        <ele>264.15600585938</ele>
        <time>2012-04-17T20:42:48Z</time>
      </trkpt>
      <trkpt lat="45.75973" lon="4.731">
        <ele>263.58999633789</ele>
        <time>2012-04-17T20:42:49Z</time>
      </trkpt>
      <trkpt lat="45.75974" lon="4.73142">
        <ele>262.14898681641</ele>
        <time>2012-04-17T20:42:52Z</time>
      </trkpt>
      <trkpt lat="45.75964" lon="4.73197">
        <ele>260.23300170898</ele>
        <time>2012-04-17T20:42:56Z</time>
      </trkpt>
      <trkpt lat="45.75957" lon="4.73209">
        <ele>259.78500366211</ele>
        <time>2012-04-17T20:42:57Z</time>
      </trkpt>
      <trkpt lat="45.75901" lon="4.73319">
        <ele>255.10299682617</ele>
        <time>2012-04-17T20:43:06Z</time>
      </trkpt>
      <trkpt lat="45.75874" lon="4.73401">
        <ele>251.53799438477</ele>
        <time>2012-04-17T20:43:12Z</time>
      </trkpt>
      <trkpt lat="45.7585" lon="4.735">
        <ele>248.01600646973</ele>
        <time>2012-04-17T20:43:19Z</time>
      </trkpt>
      <trkpt lat="45.75835" lon="4.73617">
        <ele>244.95500183106</ele>
        <time>2012-04-17T20:43:27Z</time>
      </trkpt>
      <trkpt lat="45.75826" lon="4.73719">
        <ele>240.78999328613</ele>
        <time>2012-04-17T20:43:34Z</time>
      </trkpt>
      <trkpt lat="45.7583" lon="4.73792">
        <ele>238.70700073242</ele>
        <time>2012-04-17T20:43:39Z</time>
      </trkpt>
      <trkpt lat="45.75849" lon="4.7391">
        <ele>234.47200012207</ele>
        <time>2012-04-17T20:43:47Z</time>
      </trkpt>
      <trkpt lat="45.7586" lon="4.74033">
        <ele>229.22300720215</ele>
        <time>2012-04-17T20:43:55Z</time>
      </trkpt>
      <trkpt lat="45.7586" lon="4.74064">
        <ele>228.02200317383</ele>
        <time>2012-04-17T20:43:57Z</time>
      </trkpt>
      <trkpt lat="45.75847" lon="4.74121">
        <ele>225.60400390625</ele>
        <time>2012-04-17T20:44:01Z</time>
      </trkpt>
      <trkpt lat="45.75823" lon="4.74153">
        <ele>224.33399963379</ele>
        <time>2012-04-17T20:44:04Z</time>
      </trkpt>
      <trkpt lat="45.75792" lon="4.74172">
        <ele>222.32899475098</ele>
        <time>2012-04-17T20:44:07Z</time>
      </trkpt>
      <trkpt lat="45.75735" lon="4.74201">
        <ele>219.56199645996</ele>
        <time>2012-04-17T20:44:14Z</time>
      </trkpt>
      <trkpt lat="45.75709" lon="4.74213">
        <ele>218.68800354004</ele>
        <time>2012-04-17T20:44:17Z</time>
      </trkpt>
      <trkpt lat="45.75682" lon="4.74248">
        <ele>217.22399902344</ele>
        <time>2012-04-17T20:44:21Z</time>
      </trkpt>
      <trkpt lat="45.7568" lon="4.74289">
        <ele>216.30000305176</ele>
        <time>2012-04-17T20:44:24Z</time>
      </trkpt>
      <trkpt lat="45.75685" lon="4.74382">
        <ele>214.51400756836</ele>
        <time>2012-04-17T20:44:31Z</time>
      </trkpt>
      <trkpt lat="45.75693" lon="4.74462">
        <ele>213.23699951172</ele>
        <time>2012-04-17T20:44:37Z</time>
      </trkpt>
      <trkpt lat="45.75692" lon="4.74532">
        <ele>212.90100097656</ele>
        <time>2012-04-17T20:44:42Z</time>
      </trkpt>
      <trkpt lat="45.75689" lon="4.74614">
        <ele>212.04800415039</ele>
        <time>2012-04-17T20:44:48Z</time>
      </trkpt>
      <trkpt lat="45.75684" lon="4.74703">
        <ele>211.80299377441</ele>
        <time>2012-04-17T20:44:55Z</time>
      </trkpt>
      <trkpt lat="45.75687" lon="4.74772">
        <ele>212.23100280762</ele>
        <time>2012-04-17T20:45:01Z</time>
      </trkpt>
      <trkpt lat="45.75701" lon="4.74826">
        <ele>211.85200500488</ele>
        <time>2012-04-17T20:45:06Z</time>
      </trkpt>
      <trkpt lat="45.75711" lon="4.74847">
        <ele>211.23199462891</ele>
        <time>2012-04-17T20:45:08Z</time>
      </trkpt>
      <trkpt lat="45.75747" lon="4.74887">
        <ele>209.24800109863</ele>
        <time>2012-04-17T20:45:13Z</time>
      </trkpt>
      <trkpt lat="45.75769" lon="4.74909">
        <ele>208.02200317383</ele>
        <time>2012-04-17T20:45:16Z</time>
      </trkpt>
      <trkpt lat="45.75789" lon="4.74952">
        <ele>207.32400512695</ele>
        <time>2012-04-17T20:45:20Z</time>
      </trkpt>
      <trkpt lat="45.7579" lon="4.74965">
        <ele>206.98100280762</ele>
        <time>2012-04-17T20:45:21Z</time>
      </trkpt>
      <trkpt lat="45.75789" lon="4.75067">
        <ele>204.71699523926</ele>
        <time>2012-04-17T20:45:29Z</time>
      </trkpt>
      <trkpt lat="45.7579" lon="4.75079">
        <ele>204.48500061035</ele>
        <time>2012-04-17T20:45:30Z</time>
      </trkpt>
      <trkpt lat="45.75806" lon="4.75133">
        <ele>203.98300170898</ele>
        <time>2012-04-17T20:45:35Z</time>
      </trkpt>
      <trkpt lat="45.75835" lon="4.75198">
        <ele>203.00900268555</ele>
        <time>2012-04-17T20:45:42Z</time>
      </trkpt>
      <trkpt lat="45.75846" lon="4.75229">
        <ele>202.32099914551</ele>
        <time>2012-04-17T20:45:45Z</time>
      </trkpt>
      <trkpt lat="45.75852" lon="4.75275">
        <ele>201.72200012207</ele>
        <time>2012-04-17T20:45:49Z</time>
      </trkpt>
      <trkpt lat="45.7584" lon="4.75381">
        <ele>201.34700012207</ele>
        <time>2012-04-17T20:45:59Z</time>
      </trkpt>
      <trkpt lat="45.75831" lon="4.75418">
        <ele>201.4700012207</ele>
        <time>2012-04-17T20:46:03Z</time>
      </trkpt>
      <trkpt lat="45.75833" lon="4.75451">
        <ele>202.28700256348</ele>
        <time>2012-04-17T20:46:07Z</time>
      </trkpt>
      <trkpt lat="45.75851" lon="4.75504">
        <ele>203.09199523926</ele>
        <time>2012-04-17T20:46:14Z</time>
      </trkpt>
      <trkpt lat="45.75859" lon="4.75524">
        <ele>203.45199584961</ele>
        <time>2012-04-17T20:46:17Z</time>
      </trkpt>
      <trkpt lat="45.75888" lon="4.7556">
        <ele>204.97599792481</ele>
        <time>2012-04-17T20:46:25Z</time>
      </trkpt>
      <trkpt lat="45.75897" lon="4.75573">
        <ele>205.71000671387</ele>
        <time>2012-04-17T20:46:28Z</time>
      </trkpt>
      <trkpt lat="45.75902" lon="4.75583">
        <ele>206.1309967041</ele>
        <time>2012-04-17T20:46:30Z</time>
      </trkpt>
      <trkpt lat="45.75911" lon="4.75621">
        <ele>207.4049987793</ele>
        <time>2012-04-17T20:46:37Z</time>
      </trkpt>
      <trkpt lat="45.75908" lon="4.75664">
        <ele>209.10899353027</ele>
        <time>2012-04-17T20:46:44Z</time>
      </trkpt>
      <trkpt lat="45.75893" lon="4.75702">
        <ele>210.87600708008</ele>
        <time>2012-04-17T20:46:51Z</time>
      </trkpt>
      <trkpt lat="45.75872" lon="4.75729">
        <ele>212.6190032959</ele>
        <time>2012-04-17T20:46:58Z</time>
      </trkpt>
      <trkpt lat="45.75852" lon="4.75746">
        <ele>213.68499755859</ele>
        <time>2012-04-17T20:47:04Z</time>
      </trkpt>
      <trkpt lat="45.75845" lon="4.75753">
        <ele>214.20399475098</ele>
        <time>2012-04-17T20:47:06Z</time>
      </trkpt>
      <trkpt lat="45.75825" lon="4.75778">
        <ele>215.87199401856</ele>
        <time>2012-04-17T20:47:12Z</time>
      </trkpt>
      <trkpt lat="45.75809" lon="4.75812">
        <ele>217.2140045166</ele>
        <time>2012-04-17T20:47:19Z</time>
      </trkpt>
      <trkpt lat="45.75803" lon="4.75846">
        <ele>218.58700561523</ele>
        <time>2012-04-17T20:47:25Z</time>
      </trkpt>
      <trkpt lat="45.75798" lon="4.75897">
        <ele>219.96299743652</ele>
        <time>2012-04-17T20:47:34Z</time>
      </trkpt>
      <trkpt lat="45.75794" lon="4.75941">
        <ele>221.08700561523</ele>
        <time>2012-04-17T20:47:42Z</time>
      </trkpt>
      <trkpt lat="45.75789" lon="4.75987">
        <ele>223.32499694824</ele>
        <time>2012-04-17T20:47:50Z</time>
      </trkpt>
      <trkpt lat="45.75789" lon="4.75998">
        <ele>223.59199523926</ele>
        <time>2012-04-17T20:47:52Z</time>
      </trkpt>
      <trkpt lat="45.75798" lon="4.76049">
        <ele>225.16499328613</ele>
        <time>2012-04-17T20:48:00Z</time>
      </trkpt>
      <trkpt lat="45.7581" lon="4.76112">
        <ele>226.27699279785</ele>
        <time>2012-04-17T20:48:10Z</time>
      </trkpt>
      <trkpt lat="45.75815" lon="4.76154">
        <ele>226.59199523926</ele>
        <time>2012-04-17T20:48:16Z</time>
      </trkpt>
      <trkpt lat="45.75828" lon="4.76212">
        <ele>226.55999755859</ele>
        <time>2012-04-17T20:48:24Z</time>
      </trkpt>
      <trkpt lat="45.75839" lon="4.76275">
        <ele>225.97799682617</ele>
        <time>2012-04-17T20:48:32Z</time>
      </trkpt>
      <trkpt lat="45.75847" lon="4.76331">
        <ele>225.13499450684</ele>
        <time>2012-04-17T20:48:38Z</time>
      </trkpt>
      <trkpt lat="45.75856" lon="4.76424">
        <ele>223.33999633789</ele>
        <time>2012-04-17T20:48:47Z</time>
      </trkpt>
      <trkpt lat="45.75866" lon="4.7651">
        <ele>221.40699768066</ele>
        <time>2012-04-17T20:48:55Z</time>
      </trkpt>
      <trkpt lat="45.75875" lon="4.76598">
        <ele>219.89399719238</ele>
        <time>2012-04-17T20:49:03Z</time>
      </trkpt>
      <trkpt lat="45.75876" lon="4.7661">
        <ele>219.76400756836</ele>
        <time>2012-04-17T20:49:04Z</time>
      </trkpt>
      <trkpt lat="45.75884" lon="4.76685">
        <ele>218.60800170898</ele>
        <time>2012-04-17T20:49:11Z</time>
      </trkpt>
      <trkpt lat="45.75884" lon="4.76742">
        <ele>217.55599975586</ele>
        <time>2012-04-17T20:49:16Z</time>
      </trkpt>
      <trkpt lat="45.75887" lon="4.76833">
        <ele>216.14999389648</ele>
        <time>2012-04-17T20:49:24Z</time>
      </trkpt>
      <trkpt lat="45.7589" lon="4.76892">
        <ele>215.42799377441</ele>
        <time>2012-04-17T20:49:30Z</time>
      </trkpt>
      <trkpt lat="45.75893" lon="4.76948">
        <ele>214.89300537109</ele>
        <time>2012-04-17T20:49:36Z</time>
      </trkpt>
      <trkpt lat="45.75896" lon="4.76995">
        <ele>214.98599243164</ele>
        <time>2012-04-17T20:49:41Z</time>
      </trkpt>
      <trkpt lat="45.75891" lon="4.77062">
        <ele>214.85499572754</ele>
        <time>2012-04-17T20:49:48Z</time>
      </trkpt>
      <trkpt lat="45.75884" lon="4.77112">
        <ele>214.58999633789</ele>
        <time>2012-04-17T20:49:53Z</time>
      </trkpt>
      <trkpt lat="45.75884" lon="4.77149">
        <ele>214.22099304199</ele>
        <time>2012-04-17T20:49:57Z</time>
      </trkpt>
      <trkpt lat="45.75875" lon="4.77201">
        <ele>214.30000305176</ele>
        <time>2012-04-17T20:50:03Z</time>
      </trkpt>
      <trkpt lat="45.75864" lon="4.7726">
        <ele>214.35499572754</ele>
        <time>2012-04-17T20:50:10Z</time>
      </trkpt>
      <trkpt lat="45.75849" lon="4.77318">
        <ele>214.84700012207</ele>
        <time>2012-04-17T20:50:17Z</time>
      </trkpt>
      <trkpt lat="45.75838" lon="4.77369">
        <ele>215.42900085449</ele>
        <time>2012-04-17T20:50:23Z</time>
      </trkpt>
      <trkpt lat="45.75831" lon="4.77436">
        <ele>215.77900695801</ele>
        <time>2012-04-17T20:50:32Z</time>
      </trkpt>
      <trkpt lat="45.7583" lon="4.77445">
        <ele>215.63900756836</ele>
        <time>2012-04-17T20:50:34Z</time>
      </trkpt>
      <trkpt lat="45.75843" lon="4.77463">
        <ele>215.29299926758</ele>
        <time>2012-04-17T20:50:39Z</time>
      </trkpt>
      <trkpt lat="45.75845" lon="4.77478">
        <ele>215.25799560547</ele>
        <time>2012-04-17T20:50:42Z</time>
      </trkpt>
      <trkpt lat="45.75843" lon="4.77488">
        <ele>215.27600097656</ele>
        <time>2012-04-17T20:50:44Z</time>
      </trkpt>
      <trkpt lat="45.75846" lon="4.7751">
        <ele>215.20399475098</ele>
        <time>2012-04-17T20:50:48Z</time>
      </trkpt>
      <trkpt lat="45.75862" lon="4.77528">
        <ele>215.1309967041</ele>
        <time>2012-04-17T20:50:53Z</time>
      </trkpt>
      <trkpt lat="45.75865" lon="4.7753">
        <ele>215.12600708008</ele>
        <time>2012-04-17T20:50:54Z</time>
      </trkpt>
      <trkpt lat="45.75888" lon="4.77555">
        <ele>215.65400695801</ele>
        <time>2012-04-17T20:51:02Z</time>
      </trkpt>
      <trkpt lat="45.75912" lon="4.77581">
        <ele>216.22599792481</ele>
        <time>2012-04-17T20:51:09Z</time>
      </trkpt>
      <trkpt lat="45.75948" lon="4.77619">
        <ele>216.83599853516</ele>
        <time>2012-04-17T20:51:18Z</time>
      </trkpt>
      <trkpt lat="45.75987" lon="4.77664">
        <ele>216.95899963379</ele>
        <time>2012-04-17T20:51:28Z</time>
      </trkpt>
      <trkpt lat="45.76018" lon="4.77703">
        <ele>217.43099975586</ele>
        <time>2012-04-17T20:51:36Z</time>
      </trkpt>
      <trkpt lat="45.76049" lon="4.77742">
        <ele>217.7859954834</ele>
        <time>2012-04-17T20:51:44Z</time>
      </trkpt>
      <trkpt lat="45.76091" lon="4.77789">
        <ele>218.20199584961</ele>
        <time>2012-04-17T20:51:54Z</time>
      </trkpt>
      <trkpt lat="45.76128" lon="4.77831">
        <ele>218.12800598144</ele>
        <time>2012-04-17T20:52:03Z</time>
      </trkpt>
      <trkpt lat="45.76159" lon="4.77868">
        <ele>218.34199523926</ele>
        <time>2012-04-17T20:52:11Z</time>
      </trkpt>
      <trkpt lat="45.76199" lon="4.77915">
        <ele>218.4049987793</ele>
        <time>2012-04-17T20:52:22Z</time>
      </trkpt>
      <trkpt lat="45.76233" lon="4.77952">
        <ele>219.03100585938</ele>
        <time>2012-04-17T20:52:30Z</time>
      </trkpt>
      <trkpt lat="45.76274" lon="4.77999">
        <ele>219.14900207519</ele>
        <time>2012-04-17T20:52:40Z</time>
      </trkpt>
      <trkpt lat="45.76315" lon="4.78048">
        <ele>219.57299804688</ele>
        <time>2012-04-17T20:52:50Z</time>
      </trkpt>
      <trkpt lat="45.76352" lon="4.7809">
        <ele>219.77400207519</ele>
        <time>2012-04-17T20:52:59Z</time>
      </trkpt>
      <trkpt lat="45.76381" lon="4.78125">
        <ele>219.92799377441</ele>
        <time>2012-04-17T20:53:07Z</time>
      </trkpt>
      <trkpt lat="45.76391" lon="4.78143">
        <ele>219.49899291992</ele>
        <time>2012-04-17T20:53:12Z</time>
      </trkpt>
      <trkpt lat="45.76401" lon="4.78167">
        <ele>219.36500549316</ele>
        <time>2012-04-17T20:53:17Z</time>
      </trkpt>
      <trkpt lat="45.76407" lon="4.78185">
        <ele>219.54499816894</ele>
        <time>2012-04-17T20:53:20Z</time>
      </trkpt>
      <trkpt lat="45.7641" lon="4.78205">
        <ele>219.57899475098</ele>
        <time>2012-04-17T20:53:23Z</time>
      </trkpt>
      <trkpt lat="45.76408" lon="4.78231">
        <ele>219.84700012207</ele>
        <time>2012-04-17T20:53:27Z</time>
      </trkpt>
      <trkpt lat="45.76412" lon="4.78283">
        <ele>220.76600646973</ele>
        <time>2012-04-17T20:53:35Z</time>
      </trkpt>
      <trkpt lat="45.76411" lon="4.78295">
        <ele>220.9940032959</ele>
        <time>2012-04-17T20:53:37Z</time>
      </trkpt>
      <trkpt lat="45.76414" lon="4.78341">
        <ele>221.77400207519</ele>
        <time>2012-04-17T20:53:44Z</time>
      </trkpt>
      <trkpt lat="45.76415" lon="4.78355">
        <ele>221.89599609375</ele>
        <time>2012-04-17T20:53:46Z</time>
      </trkpt>
      <trkpt lat="45.76412" lon="4.78389">
        <ele>222.14100646973</ele>
        <time>2012-04-17T20:53:51Z</time>
      </trkpt>
      <trkpt lat="45.76414" lon="4.7841">
        <ele>222.37800598144</ele>
        <time>2012-04-17T20:53:54Z</time>
      </trkpt>
      <trkpt lat="45.76415" lon="4.78442">
        <ele>222.54899597168</ele>
        <time>2012-04-17T20:53:59Z</time>
      </trkpt>
      <trkpt lat="45.76415" lon="4.78469">
        <ele>222.64999389648</ele>
        <time>2012-04-17T20:54:03Z</time>
      </trkpt>
      <trkpt lat="45.76415" lon="4.78522">
        <ele>223.25799560547</ele>
        <time>2012-04-17T20:54:12Z</time>
      </trkpt>
      <trkpt lat="45.76418" lon="4.78561">
        <ele>223.43400573731</ele>
        <time>2012-04-17T20:54:19Z</time>
      </trkpt>
      <trkpt lat="45.76417" lon="4.78588">
        <ele>223.95799255371</ele>
        <time>2012-04-17T20:54:25Z</time>
      </trkpt>
      <trkpt lat="45.76416" lon="4.78625">
        <ele>224.25999450684</ele>
        <time>2012-04-17T20:54:32Z</time>
      </trkpt>
      <trkpt lat="45.76417" lon="4.78651">
        <ele>224.29299926758</ele>
        <time>2012-04-17T20:54:37Z</time>
      </trkpt>
      <trkpt lat="45.76418" lon="4.78678">
        <ele>224.53399658203</ele>
        <time>2012-04-17T20:54:43Z</time>
      </trkpt>
      <trkpt lat="45.76416" lon="4.78687">
        <ele>224.62100219727</ele>
        <time>2012-04-17T20:54:46Z</time>
      </trkpt>
      <trkpt lat="45.76419" lon="4.78689">
        <ele>224.51600646973</ele>
        <time>2012-04-17T20:54:48Z</time>
      </trkpt>
      <trkpt lat="45.76417" lon="4.78678">
        <ele>224.57600402832</ele>
        <time>2012-04-17T20:54:54Z</time>
      </trkpt>
      <trkpt lat="45.76416" lon="4.78678">
        <ele>224.62899780273</ele>
        <time>2012-04-17T20:54:55Z</time>
      </trkpt>
      <trkpt lat="45.76412" lon="4.78675">
        <ele>225.42700195312</ele>
        <time>2012-04-17T20:55:02Z</time>
      </trkpt>
      <trkpt lat="45.7641" lon="4.78676">
        <ele>227.02099609375</ele>
        <time>2012-04-17T20:55:08Z</time>
      </trkpt>
      <trkpt lat="45.76404" lon="4.78674">
        <ele>227.35099792481</ele>
        <time>2012-04-17T20:55:15Z</time>
      </trkpt>
      <trkpt lat="45.76403" lon="4.78673">
        <ele>227.38800048828</ele>
        <time>2012-04-17T20:55:19Z</time>
      </trkpt>
      <trkpt lat="45.76394" lon="4.78672">
        <ele>227.66700744629</ele>
        <time>2012-04-17T20:55:26Z</time>
      </trkpt>
      <trkpt lat="45.76384" lon="4.78672">
        <ele>228.12399291992</ele>
        <time>2012-04-17T20:55:32Z</time>
      </trkpt>
      <trkpt lat="45.76379" lon="4.78687">
        <ele>228.82400512695</ele>
        <time>2012-04-17T20:55:38Z</time>
      </trkpt>
      <trkpt lat="45.76365" lon="4.78708">
        <ele>229.94799804688</ele>
        <time>2012-04-17T20:55:46Z</time>
      </trkpt>
      <trkpt lat="45.76349" lon="4.78723">
        <ele>230.99099731445</ele>
        <time>2012-04-17T20:55:53Z</time>
      </trkpt>
      <trkpt lat="45.7634" lon="4.78737">
        <ele>232.12800598144</ele>
        <time>2012-04-17T20:55:59Z</time>
      </trkpt>
      <trkpt lat="45.76336" lon="4.78741">
        <ele>232.39199829102</ele>
        <time>2012-04-17T20:56:01Z</time>
      </trkpt>
      <trkpt lat="45.76328" lon="4.78756">
        <ele>233.36599731445</ele>
        <time>2012-04-17T20:56:07Z</time>
      </trkpt>
      <trkpt lat="45.76322" lon="4.78761">
        <ele>233.78100585938</ele>
        <time>2012-04-17T20:56:09Z</time>
      </trkpt>
      <trkpt lat="45.76312" lon="4.78777">
        <ele>235.35400390625</ele>
        <time>2012-04-17T20:56:17Z</time>
      </trkpt>
      <trkpt lat="45.76299" lon="4.78782">
        <ele>236.19000244141</ele>
        <time>2012-04-17T20:56:23Z</time>
      </trkpt>
      <trkpt lat="45.76282" lon="4.7879">
        <ele>237.44299316406</ele>
        <time>2012-04-17T20:56:29Z</time>
      </trkpt>
      <trkpt lat="45.76269" lon="4.78795">
        <ele>238.29200744629</ele>
        <time>2012-04-17T20:56:34Z</time>
      </trkpt>
      <trkpt lat="45.76264" lon="4.78799">
        <ele>238.37699890137</ele>
        <time>2012-04-17T20:56:36Z</time>
      </trkpt>
      <trkpt lat="45.76258" lon="4.78814">
        <ele>238.51400756836</ele>
        <time>2012-04-17T20:56:42Z</time>
      </trkpt>
      <trkpt lat="45.76253" lon="4.78822">
        <ele>238.52000427246</ele>
        <time>2012-04-17T20:56:47Z</time>
      </trkpt>
      <trkpt lat="45.76241" lon="4.78841">
        <ele>239.10099792481</ele>
        <time>2012-04-17T20:56:55Z</time>
      </trkpt>
      <trkpt lat="45.76234" lon="4.78858">
        <ele>239.49499511719</ele>
        <time>2012-04-17T20:57:01Z</time>
      </trkpt>
      <trkpt lat="45.76229" lon="4.78879">
        <ele>240.05900573731</ele>
        <time>2012-04-17T20:57:07Z</time>
      </trkpt>
      <trkpt lat="45.76225" lon="4.78891">
        <ele>240.31799316406</ele>
        <time>2012-04-17T20:57:11Z</time>
      </trkpt>
      <trkpt lat="45.76214" lon="4.78914">
        <ele>241.00999450684</ele>
        <time>2012-04-17T20:57:17Z</time>
      </trkpt>
      <trkpt lat="45.76205" lon="4.78942">
        <ele>241.55900573731</ele>
        <time>2012-04-17T20:57:25Z</time>
      </trkpt>
      <trkpt lat="45.76196" lon="4.78967">
        <ele>242.1190032959</ele>
        <time>2012-04-17T20:57:31Z</time>
      </trkpt>
      <trkpt lat="45.76183" lon="4.78997">
        <ele>242.72500610352</ele>
        <time>2012-04-17T20:57:38Z</time>
      </trkpt>
      <trkpt lat="45.76166" lon="4.79035">
        <ele>243.61500549316</ele>
        <time>2012-04-17T20:57:47Z</time>
      </trkpt>
      <trkpt lat="45.7616" lon="4.79067">
        <ele>244.11700439453</ele>
        <time>2012-04-17T20:57:54Z</time>
      </trkpt>
      <trkpt lat="45.76154" lon="4.79089">
        <ele>244.78500366211</ele>
        <time>2012-04-17T20:57:59Z</time>
      </trkpt>
      <trkpt lat="45.76154" lon="4.7909">
        <ele>245.05299377441</ele>
        <time>2012-04-17T20:58:02Z</time>
      </trkpt>
      <trkpt lat="45.76153" lon="4.79119">
        <ele>245.52600097656</ele>
        <time>2012-04-17T20:58:09Z</time>
      </trkpt>
      <trkpt lat="45.76155" lon="4.79149">
        <ele>245.91999816894</ele>
        <time>2012-04-17T20:58:13Z</time>
      </trkpt>
      <trkpt lat="45.76149" lon="4.79182">
        <ele>246.37100219727</ele>
        <time>2012-04-17T20:58:19Z</time>
      </trkpt>
      <trkpt lat="45.76145" lon="4.7921">
        <ele>246.81199645996</ele>
        <time>2012-04-17T20:58:25Z</time>
      </trkpt>
      <trkpt lat="45.76147" lon="4.79241">
        <ele>247.30299377441</ele>
        <time>2012-04-17T20:58:32Z</time>
      </trkpt>
      <trkpt lat="45.76156" lon="4.79275">
        <ele>247.82400512695</ele>
        <time>2012-04-17T20:58:39Z</time>
      </trkpt>
      <trkpt lat="45.76156" lon="4.79298">
        <ele>248.20300292969</ele>
        <time>2012-04-17T20:58:44Z</time>
      </trkpt>
      <trkpt lat="45.76158" lon="4.79342">
        <ele>248.85099792481</ele>
        <time>2012-04-17T20:58:53Z</time>
      </trkpt>
      <trkpt lat="45.76159" lon="4.79369">
        <ele>249.37800598144</ele>
        <time>2012-04-17T20:58:59Z</time>
      </trkpt>
      <trkpt lat="45.7616" lon="4.79393">
        <ele>249.76600646973</ele>
        <time>2012-04-17T20:59:04Z</time>
      </trkpt>
      <trkpt lat="45.76161" lon="4.79419">
        <ele>250.20399475098</ele>
        <time>2012-04-17T20:59:10Z</time>
      </trkpt>
      <trkpt lat="45.7616" lon="4.79445">
        <ele>250.61099243164</ele>
        <time>2012-04-17T20:59:16Z</time>
      </trkpt>
      <trkpt lat="45.76165" lon="4.7947">
        <ele>251.22200012207</ele>
        <time>2012-04-17T20:59:22Z</time>
      </trkpt>
      <trkpt lat="45.76171" lon="4.79488">
        <ele>251.52699279785</ele>
        <time>2012-04-17T20:59:26Z</time>
      </trkpt>
      <trkpt lat="45.76183" lon="4.79522">
        <ele>251.84199523926</ele>
        <time>2012-04-17T20:59:34Z</time>
      </trkpt>
      <trkpt lat="45.76186" lon="4.79546">
        <ele>252.27900695801</ele>
        <time>2012-04-17T20:59:39Z</time>
      </trkpt>
      <trkpt lat="45.76188" lon="4.79571">
        <ele>252.70700073242</ele>
        <time>2012-04-17T20:59:45Z</time>
      </trkpt>
      <trkpt lat="45.76194" lon="4.79595">
        <ele>252.95799255371</ele>
        <time>2012-04-17T20:59:51Z</time>
      </trkpt>
      <trkpt lat="45.76197" lon="4.7962">
        <ele>252.97599792481</ele>
        <time>2012-04-17T20:59:56Z</time>
      </trkpt>
      <trkpt lat="45.76201" lon="4.79662">
        <ele>252.67500305176</ele>
        <time>2012-04-17T21:00:04Z</time>
      </trkpt>
      <trkpt lat="45.76204" lon="4.79684">
        <ele>252.82600402832</ele>
        <time>2012-04-17T21:00:08Z</time>
      </trkpt>
      <trkpt lat="45.7621" lon="4.79702">
        <ele>252.92999267578</ele>
        <time>2012-04-17T21:00:12Z</time>
      </trkpt>
      <trkpt lat="45.76218" lon="4.79726">
        <ele>253.14300537109</ele>
        <time>2012-04-17T21:00:18Z</time>
      </trkpt>
      <trkpt lat="45.76226" lon="4.79736">
        <ele>253.31700134277</ele>
        <time>2012-04-17T21:00:22Z</time>
      </trkpt>
      <trkpt lat="45.76231" lon="4.79743">
        <ele>253.34300231934</ele>
        <time>2012-04-17T21:00:28Z</time>
      </trkpt>
      <trkpt lat="45.76236" lon="4.79766">
        <ele>253.71499633789</ele>
        <time>2012-04-17T21:00:33Z</time>
      </trkpt>
      <trkpt lat="45.76244" lon="4.79792">
        <ele>253.94299316406</ele>
        <time>2012-04-17T21:00:39Z</time>
      </trkpt>
      <trkpt lat="45.76249" lon="4.79815">
        <ele>254.02600097656</ele>
        <time>2012-04-17T21:00:44Z</time>
      </trkpt>
      <trkpt lat="45.76247" lon="4.79826">
        <ele>253.97999572754</ele>
        <time>2012-04-17T21:00:48Z</time>
      </trkpt>
      <trkpt lat="45.76247" lon="4.79825">
        <ele>253.81399536133</ele>
        <time>2012-04-17T21:00:57Z</time>
      </trkpt>
      <trkpt lat="45.76248" lon="4.79834">
        <ele>253.94599914551</ele>
        <time>2012-04-17T21:01:02Z</time>
      </trkpt>
      <trkpt lat="45.7625" lon="4.79855">
        <ele>254.79600524902</ele>
        <time>2012-04-17T21:01:08Z</time>
      </trkpt>
      <trkpt lat="45.76252" lon="4.79863">
        <ele>255.26300048828</ele>
        <time>2012-04-17T21:01:13Z</time>
      </trkpt>
      <trkpt lat="45.76251" lon="4.79862">
        <ele>253.45399475098</ele>
        <time>2012-04-17T21:01:20Z</time>
      </trkpt>
      <trkpt lat="45.76254" lon="4.7987">
        <ele>255.13400268555</ele>
        <time>2012-04-17T21:01:26Z</time>
      </trkpt>
      <trkpt lat="45.76251" lon="4.79887">
        <ele>255.5890045166</ele>
        <time>2012-04-17T21:01:30Z</time>
      </trkpt>
      <trkpt lat="45.76248" lon="4.7992">
        <ele>256.22698974609</ele>
        <time>2012-04-17T21:01:36Z</time>
      </trkpt>
      <trkpt lat="45.7625" lon="4.79956">
        <ele>256.80099487305</ele>
        <time>2012-04-17T21:01:43Z</time>
      </trkpt>
      <trkpt lat="45.76244" lon="4.79984">
        <ele>257.29400634766</ele>
        <time>2012-04-17T21:01:49Z</time>
      </trkpt>
      <trkpt lat="45.76238" lon="4.80011">
        <ele>257.64599609375</ele>
        <time>2012-04-17T21:01:55Z</time>
      </trkpt>
      <trkpt lat="45.76237" lon="4.80047">
        <ele>258.1130065918</ele>
        <time>2012-04-17T21:02:03Z</time>
      </trkpt>
      <trkpt lat="45.76239" lon="4.80062">
        <ele>258.35198974609</ele>
        <time>2012-04-17T21:02:07Z</time>
      </trkpt>
      <trkpt lat="45.76228" lon="4.80081">
        <ele>258.52099609375</ele>
        <time>2012-04-17T21:02:11Z</time>
      </trkpt>
      <trkpt lat="45.76221" lon="4.80106">
        <ele>258.58700561523</ele>
        <time>2012-04-17T21:02:16Z</time>
      </trkpt>
      <trkpt lat="45.76212" lon="4.80135">
        <ele>258.70401000977</ele>
        <time>2012-04-17T21:02:22Z</time>
      </trkpt>
      <trkpt lat="45.76197" lon="4.80172">
        <ele>258.56698608398</ele>
        <time>2012-04-17T21:02:29Z</time>
      </trkpt>
      <trkpt lat="45.76184" lon="4.80193">
        <ele>258.37298583984</ele>
        <time>2012-04-17T21:02:33Z</time>
      </trkpt>
      <trkpt lat="45.76171" lon="4.80208">
        <ele>258.08401489258</ele>
        <time>2012-04-17T21:02:36Z</time>
      </trkpt>
      <trkpt lat="45.76157" lon="4.80223">
        <ele>257.92700195312</ele>
        <time>2012-04-17T21:02:39Z</time>
      </trkpt>
      <trkpt lat="45.76143" lon="4.8024">
        <ele>257.53100585938</ele>
        <time>2012-04-17T21:02:42Z</time>
      </trkpt>
      <trkpt lat="45.76117" lon="4.80269">
        <ele>257.125</ele>
        <time>2012-04-17T21:02:47Z</time>
      </trkpt>
      <trkpt lat="45.76102" lon="4.80287">
        <ele>256.90200805664</ele>
        <time>2012-04-17T21:02:50Z</time>
      </trkpt>
      <trkpt lat="45.76093" lon="4.80316">
        <ele>256.39199829102</ele>
        <time>2012-04-17T21:02:54Z</time>
      </trkpt>
      <trkpt lat="45.76083" lon="4.80337">
        <ele>255.97300720215</ele>
        <time>2012-04-17T21:02:57Z</time>
      </trkpt>
      <trkpt lat="45.76078" lon="4.8035">
        <ele>255.79200744629</ele>
        <time>2012-04-17T21:02:59Z</time>
      </trkpt>
      <trkpt lat="45.76076" lon="4.80377">
        <ele>254.89300537109</ele>
        <time>2012-04-17T21:03:04Z</time>
      </trkpt>
      <trkpt lat="45.7608" lon="4.80401">
        <ele>253.03900146484</ele>
        <time>2012-04-17T21:03:08Z</time>
      </trkpt>
      <trkpt lat="45.76086" lon="4.80427">
        <ele>247.20599365234</ele>
        <time>2012-04-17T21:03:14Z</time>
      </trkpt>
      <trkpt lat="45.76083" lon="4.80433">
        <ele>245.22999572754</ele>
        <time>2012-04-17T21:03:17Z</time>
      </trkpt>
      <trkpt lat="45.76067" lon="4.80445">
        <ele>245.46000671387</ele>
        <time>2012-04-17T21:03:24Z</time>
      </trkpt>
      <trkpt lat="45.76055" lon="4.80462">
        <ele>246.17199707031</ele>
        <time>2012-04-17T21:03:29Z</time>
      </trkpt>
      <trkpt lat="45.76045" lon="4.80485">
        <ele>247.45700073242</ele>
        <time>2012-04-17T21:03:35Z</time>
      </trkpt>
      <trkpt lat="45.7603" lon="4.80509">
        <ele>248.25300598144</ele>
        <time>2012-04-17T21:03:41Z</time>
      </trkpt>
      <trkpt lat="45.76021" lon="4.80515">
        <ele>248.5</ele>
        <time>2012-04-17T21:03:43Z</time>
      </trkpt>
      <trkpt lat="45.76034" lon="4.80539">
        <ele>249.32099914551</ele>
        <time>2012-04-17T21:03:48Z</time>
      </trkpt>
      <trkpt lat="45.76026" lon="4.80567">
        <ele>249.97799682617</ele>
        <time>2012-04-17T21:03:56Z</time>
      </trkpt>
      <trkpt lat="45.7602" lon="4.80581">
        <ele>250.84300231934</ele>
        <time>2012-04-17T21:04:02Z</time>
      </trkpt>
      <trkpt lat="45.76022" lon="4.80602">
        <ele>251.60299682617</ele>
        <time>2012-04-17T21:04:07Z</time>
      </trkpt>
      <trkpt lat="45.76029" lon="4.80626">
        <ele>252.11399841309</ele>
        <time>2012-04-17T21:04:12Z</time>
      </trkpt>
      <trkpt lat="45.76027" lon="4.80643">
        <ele>252.56700134277</ele>
        <time>2012-04-17T21:04:16Z</time>
      </trkpt>
      <trkpt lat="45.76009" lon="4.80664">
        <ele>252.79600524902</ele>
        <time>2012-04-17T21:04:22Z</time>
      </trkpt>
      <trkpt lat="45.75993" lon="4.80685">
        <ele>253.31599426269</ele>
        <time>2012-04-17T21:04:27Z</time>
      </trkpt>
      <trkpt lat="45.75974" lon="4.8072">
        <ele>253.81700134277</ele>
        <time>2012-04-17T21:04:35Z</time>
      </trkpt>
      <trkpt lat="45.75966" lon="4.80744">
        <ele>254.03999328613</ele>
        <time>2012-04-17T21:04:40Z</time>
      </trkpt>
      <trkpt lat="45.75959" lon="4.80768">
        <ele>254.2380065918</ele>
        <time>2012-04-17T21:04:45Z</time>
      </trkpt>
      <trkpt lat="45.75946" lon="4.80809">
        <ele>254.38900756836</ele>
        <time>2012-04-17T21:04:53Z</time>
      </trkpt>
      <trkpt lat="45.75935" lon="4.80849">
        <ele>254.86799621582</ele>
        <time>2012-04-17T21:05:01Z</time>
      </trkpt>
      <trkpt lat="45.75928" lon="4.80875">
        <ele>255.10200500488</ele>
        <time>2012-04-17T21:05:06Z</time>
      </trkpt>
      <trkpt lat="45.7592" lon="4.80912">
        <ele>255.23100280762</ele>
        <time>2012-04-17T21:05:13Z</time>
      </trkpt>
      <trkpt lat="45.75901" lon="4.8096">
        <ele>255.79299926758</ele>
        <time>2012-04-17T21:05:23Z</time>
      </trkpt>
      <trkpt lat="45.75896" lon="4.80995">
        <ele>256.38101196289</ele>
        <time>2012-04-17T21:05:30Z</time>
      </trkpt>
      <trkpt lat="45.75889" lon="4.81023">
        <ele>256.87298583984</ele>
        <time>2012-04-17T21:05:36Z</time>
      </trkpt>
      <trkpt lat="45.75889" lon="4.81058">
        <ele>257.56298828125</ele>
        <time>2012-04-17T21:05:43Z</time>
      </trkpt>
      <trkpt lat="45.75887" lon="4.81088">
        <ele>258.22500610352</ele>
        <time>2012-04-17T21:05:49Z</time>
      </trkpt>
      <trkpt lat="45.75883" lon="4.81121">
        <ele>259.49600219727</ele>
        <time>2012-04-17T21:05:56Z</time>
      </trkpt>
      <trkpt lat="45.75884" lon="4.81143">
        <ele>260.23300170898</ele>
        <time>2012-04-17T21:06:01Z</time>
      </trkpt>
      <trkpt lat="45.75879" lon="4.81161">
        <ele>261.0419921875</ele>
        <time>2012-04-17T21:06:06Z</time>
      </trkpt>
      <trkpt lat="45.75874" lon="4.81179">
        <ele>261.81100463867</ele>
        <time>2012-04-17T21:06:11Z</time>
      </trkpt>
      <trkpt lat="45.75876" lon="4.81213">
        <ele>263.40100097656</ele>
        <time>2012-04-17T21:06:20Z</time>
      </trkpt>
      <trkpt lat="45.75869" lon="4.81237">
        <ele>264.17999267578</ele>
        <time>2012-04-17T21:06:26Z</time>
      </trkpt>
      <trkpt lat="45.75853" lon="4.81253">
        <ele>264.93200683594</ele>
        <time>2012-04-17T21:06:31Z</time>
      </trkpt>
      <trkpt lat="45.75846" lon="4.81272">
        <ele>265.70300292969</ele>
        <time>2012-04-17T21:06:36Z</time>
      </trkpt>
      <trkpt lat="45.75846" lon="4.81297">
        <ele>267.03900146484</ele>
        <time>2012-04-17T21:06:43Z</time>
      </trkpt>
      <trkpt lat="45.7583" lon="4.81305">
        <ele>268.16598510742</ele>
        <time>2012-04-17T21:06:50Z</time>
      </trkpt>
      <trkpt lat="45.75819" lon="4.81322">
        <ele>268.74200439453</ele>
        <time>2012-04-17T21:06:55Z</time>
      </trkpt>
      <trkpt lat="45.75814" lon="4.81346">
        <ele>269.57699584961</ele>
        <time>2012-04-17T21:07:01Z</time>
      </trkpt>
      <trkpt lat="45.75809" lon="4.81363">
        <ele>270.40100097656</ele>
        <time>2012-04-17T21:07:06Z</time>
      </trkpt>
      <trkpt lat="45.75803" lon="4.81393">
        <ele>271.43600463867</ele>
        <time>2012-04-17T21:07:13Z</time>
      </trkpt>
      <trkpt lat="45.75793" lon="4.81404">
        <ele>271.47100830078</ele>
        <time>2012-04-17T21:07:16Z</time>
      </trkpt>
      <trkpt lat="45.75793" lon="4.81429">
        <ele>271.32901000977</ele>
        <time>2012-04-17T21:07:21Z</time>
      </trkpt>
      <trkpt lat="45.75788" lon="4.81433">
        <ele>271.31698608398</ele>
        <time>2012-04-17T21:07:22Z</time>
      </trkpt>
      <trkpt lat="45.75769" lon="4.81454">
        <ele>271.42599487305</ele>
        <time>2012-04-17T21:07:28Z</time>
      </trkpt>
      <trkpt lat="45.75766" lon="4.81481">
        <ele>271.40798950195</ele>
        <time>2012-04-17T21:07:33Z</time>
      </trkpt>
      <trkpt lat="45.75758" lon="4.81501">
        <ele>271.40899658203</ele>
        <time>2012-04-17T21:07:37Z</time>
      </trkpt>
      <trkpt lat="45.7574" lon="4.81533">
        <ele>270.88800048828</ele>
        <time>2012-04-17T21:07:44Z</time>
      </trkpt>
      <trkpt lat="45.7573" lon="4.81559">
        <ele>270.59799194336</ele>
        <time>2012-04-17T21:07:50Z</time>
      </trkpt>
      <trkpt lat="45.75723" lon="4.8159">
        <ele>270.58999633789</ele>
        <time>2012-04-17T21:07:56Z</time>
      </trkpt>
      <trkpt lat="45.75716" lon="4.81599">
        <ele>270.43899536133</ele>
        <time>2012-04-17T21:07:58Z</time>
      </trkpt>
      <trkpt lat="45.75706" lon="4.81631">
        <ele>270.14199829102</ele>
        <time>2012-04-17T21:08:04Z</time>
      </trkpt>
      <trkpt lat="45.7569" lon="4.81665">
        <ele>269.69299316406</ele>
        <time>2012-04-17T21:08:10Z</time>
      </trkpt>
      <trkpt lat="45.7568" lon="4.81687">
        <ele>269.05200195312</ele>
        <time>2012-04-17T21:08:13Z</time>
      </trkpt>
      <trkpt lat="45.75658" lon="4.81706">
        <ele>268.37701416016</ele>
        <time>2012-04-17T21:08:16Z</time>
      </trkpt>
      <trkpt lat="45.75625" lon="4.81767">
        <ele>266.07598876953</ele>
        <time>2012-04-17T21:08:23Z</time>
      </trkpt>
      <trkpt lat="45.75613" lon="4.81826">
        <ele>264.21301269531</ele>
        <time>2012-04-17T21:08:29Z</time>
      </trkpt>
      <trkpt lat="45.75607" lon="4.81856">
        <ele>263.37799072266</ele>
        <time>2012-04-17T21:08:32Z</time>
      </trkpt>
      <trkpt lat="45.75604" lon="4.81885">
        <ele>262.80499267578</ele>
        <time>2012-04-17T21:08:35Z</time>
      </trkpt>
      <trkpt lat="45.75605" lon="4.81904">
        <ele>262.26501464844</ele>
        <time>2012-04-17T21:08:37Z</time>
      </trkpt>
      <trkpt lat="45.75624" lon="4.81954">
        <ele>260.21398925781</ele>
        <time>2012-04-17T21:08:42Z</time>
      </trkpt>
      <trkpt lat="45.75648" lon="4.82011">
        <ele>258.70999145508</ele>
        <time>2012-04-17T21:08:47Z</time>
      </trkpt>
      <trkpt lat="45.75678" lon="4.82067">
        <ele>255.66499328613</ele>
        <time>2012-04-17T21:08:52Z</time>
      </trkpt>
      <trkpt lat="45.75691" lon="4.82084">
        <ele>253.92999267578</ele>
        <time>2012-04-17T21:08:54Z</time>
      </trkpt>
      <trkpt lat="45.75719" lon="4.82126">
        <ele>250.49899291992</ele>
        <time>2012-04-17T21:08:59Z</time>
      </trkpt>
      <trkpt lat="45.75755" lon="4.82166">
        <ele>246.66999816894</ele>
        <time>2012-04-17T21:09:04Z</time>
      </trkpt>
      <trkpt lat="45.7579" lon="4.8219">
        <ele>243.7440032959</ele>
        <time>2012-04-17T21:09:09Z</time>
      </trkpt>
      <trkpt lat="45.75807" lon="4.82201">
        <ele>242.60099792481</ele>
        <time>2012-04-17T21:09:12Z</time>
      </trkpt>
      <trkpt lat="45.75805" lon="4.82206">
        <ele>240.99000549316</ele>
        <time>2012-04-17T21:09:16Z</time>
      </trkpt>
      <trkpt lat="45.75798" lon="4.82203">
        <ele>240.18400573731</ele>
        <time>2012-04-17T21:09:18Z</time>
      </trkpt>
      <trkpt lat="45.75762" lon="4.82188">
        <ele>238.69900512695</ele>
        <time>2012-04-17T21:09:24Z</time>
      </trkpt>
      <trkpt lat="45.75743" lon="4.82173">
        <ele>236.71000671387</ele>
        <time>2012-04-17T21:09:29Z</time>
      </trkpt>
      <trkpt lat="45.75751" lon="4.82186">
        <ele>235.41200256348</ele>
        <time>2012-04-17T21:09:32Z</time>
      </trkpt>
      <trkpt lat="45.75754" lon="4.82194">
        <ele>234.86500549316</ele>
        <time>2012-04-17T21:09:33Z</time>
      </trkpt>
      <trkpt lat="45.7576" lon="4.82225">
        <ele>233.45100402832</ele>
        <time>2012-04-17T21:09:36Z</time>
      </trkpt>
      <trkpt lat="45.75773" lon="4.82249">
        <ele>232.13900756836</ele>
        <time>2012-04-17T21:09:38Z</time>
      </trkpt>
      <trkpt lat="45.75776" lon="4.82316">
        <ele>226.07699584961</ele>
        <time>2012-04-17T21:09:45Z</time>
      </trkpt>
      <trkpt lat="45.75779" lon="4.82345">
        <ele>223.39799499512</ele>
        <time>2012-04-17T21:09:49Z</time>
      </trkpt>
      <trkpt lat="45.75787" lon="4.82362">
        <ele>219.78700256348</ele>
        <time>2012-04-17T21:09:53Z</time>
      </trkpt>
      <trkpt lat="45.75792" lon="4.82364">
        <ele>219.07899475098</ele>
        <time>2012-04-17T21:09:54Z</time>
      </trkpt>
      <trkpt lat="45.75815" lon="4.82372">
        <ele>215.01600646973</ele>
        <time>2012-04-17T21:09:59Z</time>
      </trkpt>
      <trkpt lat="45.75824" lon="4.8238">
        <ele>212.48300170898</ele>
        <time>2012-04-17T21:10:02Z</time>
      </trkpt>
      <trkpt lat="45.75841" lon="4.82412">
        <ele>208.68800354004</ele>
        <time>2012-04-17T21:10:06Z</time>
      </trkpt>
      <trkpt lat="45.75863" lon="4.82447">
        <ele>202.88200378418</ele>
        <time>2012-04-17T21:10:11Z</time>
      </trkpt>
      <trkpt lat="45.75881" lon="4.82463">
        <ele>200.56599426269</ele>
        <time>2012-04-17T21:10:14Z</time>
      </trkpt>
      <trkpt lat="45.75894" lon="4.82472">
        <ele>198.23399353027</ele>
        <time>2012-04-17T21:10:16Z</time>
      </trkpt>
      <trkpt lat="45.7593" lon="4.82511">
        <ele>190.70700073242</ele>
        <time>2012-04-17T21:10:22Z</time>
      </trkpt>
      <trkpt lat="45.75942" lon="4.82521">
        <ele>187.91200256348</ele>
        <time>2012-04-17T21:10:24Z</time>
      </trkpt>
      <trkpt lat="45.75954" lon="4.82548">
        <ele>180.72099304199</ele>
        <time>2012-04-17T21:10:29Z</time>
      </trkpt>
      <trkpt lat="45.75963" lon="4.82554">
        <ele>177.91299438477</ele>
        <time>2012-04-17T21:10:32Z</time>
      </trkpt>
      <trkpt lat="45.75967" lon="4.82557">
        <ele>176.23599243164</ele>
        <time>2012-04-17T21:10:37Z</time>
      </trkpt>
      <trkpt lat="45.75958" lon="4.82552">
        <ele>175.88000488281</ele>
        <time>2012-04-17T21:10:44Z</time>
      </trkpt>
      <trkpt lat="45.76008" lon="4.82561">
        <ele>174.61999511719</ele>
        <time>2012-04-17T21:12:18Z</time>
      </trkpt>
      <trkpt lat="45.76007" lon="4.82583">
        <ele>174.20599365234</ele>
        <time>2012-04-17T21:12:24Z</time>
      </trkpt>
      <trkpt lat="45.76001" lon="4.82603">
        <ele>173.39399719238</ele>
        <time>2012-04-17T21:12:29Z</time>
      </trkpt>
      <trkpt lat="45.75993" lon="4.82632">
        <ele>172.13999938965</ele>
        <time>2012-04-17T21:12:35Z</time>
      </trkpt>
      <trkpt lat="45.75991" lon="4.82636">
        <ele>171.92100524902</ele>
        <time>2012-04-17T21:12:36Z</time>
      </trkpt>
      <trkpt lat="45.75983" lon="4.82643">
        <ele>171.34199523926</ele>
        <time>2012-04-17T21:12:42Z</time>
      </trkpt>
      <trkpt lat="45.75986" lon="4.82644">
        <ele>171.22999572754</ele>
        <time>2012-04-17T21:12:43Z</time>
      </trkpt>
      <trkpt lat="45.75992" lon="4.82659">
        <ele>171.26499938965</ele>
        <time>2012-04-17T21:12:47Z</time>
      </trkpt>
      <trkpt lat="45.75992" lon="4.82665">
        <ele>171.2619934082</ele>
        <time>2012-04-17T21:12:48Z</time>
      </trkpt>
      <trkpt lat="45.75977" lon="4.82726">
        <ele>171.87899780273</ele>
        <time>2012-04-17T21:12:57Z</time>
      </trkpt>
      <trkpt lat="45.75975" lon="4.82739">
        <ele>171.98300170898</ele>
        <time>2012-04-17T21:12:59Z</time>
      </trkpt>
      <trkpt lat="45.75968" lon="4.82758">
        <ele>172.22700500488</ele>
        <time>2012-04-17T21:13:02Z</time>
      </trkpt>
      <trkpt lat="45.75961" lon="4.82796">
        <ele>172.71000671387</ele>
        <time>2012-04-17T21:13:08Z</time>
      </trkpt>
      <trkpt lat="45.75948" lon="4.82853">
        <ele>173.43499755859</ele>
        <time>2012-04-17T21:13:17Z</time>
      </trkpt>
      <trkpt lat="45.75935" lon="4.82897">
        <ele>174.11199951172</ele>
        <time>2012-04-17T21:13:24Z</time>
      </trkpt>
      <trkpt lat="45.75928" lon="4.8294">
        <ele>173.50900268555</ele>
        <time>2012-04-17T21:13:31Z</time>
      </trkpt>
      <trkpt lat="45.75925" lon="4.82947">
        <ele>172.72500610352</ele>
        <time>2012-04-17T21:13:35Z</time>
      </trkpt>
      <trkpt lat="45.75925" lon="4.82949">
        <ele>172.39999389648</ele>
        <time>2012-04-17T21:13:40Z</time>
      </trkpt>
      <trkpt lat="45.75924" lon="4.82951">
        <ele>172.42799377441</ele>
        <time>2012-04-17T21:13:41Z</time>
      </trkpt>
      <trkpt lat="45.75918" lon="4.82964">
        <ele>172.40800476074</ele>
        <time>2012-04-17T21:13:46Z</time>
      </trkpt>
      <trkpt lat="45.75909" lon="4.82984">
        <ele>172.29699707031</ele>
        <time>2012-04-17T21:13:50Z</time>
      </trkpt>
      <trkpt lat="45.75904" lon="4.83008">
        <ele>171.69799804688</ele>
        <time>2012-04-17T21:13:54Z</time>
      </trkpt>
      <trkpt lat="45.75893" lon="4.83041">
        <ele>170.9109954834</ele>
        <time>2012-04-17T21:13:59Z</time>
      </trkpt>
      <trkpt lat="45.75891" lon="4.83072">
        <ele>170.71000671387</ele>
        <time>2012-04-17T21:14:03Z</time>
      </trkpt>
      <trkpt lat="45.7587" lon="4.8313">
        <ele>171.33099365234</ele>
        <time>2012-04-17T21:14:11Z</time>
      </trkpt>
      <trkpt lat="45.75853" lon="4.83181">
        <ele>171.37199401856</ele>
        <time>2012-04-17T21:14:17Z</time>
      </trkpt>
      <trkpt lat="45.75828" lon="4.83272">
        <ele>170.62100219727</ele>
        <time>2012-04-17T21:14:27Z</time>
      </trkpt>
      <trkpt lat="45.7581" lon="4.83342">
        <ele>170.29400634766</ele>
        <time>2012-04-17T21:14:35Z</time>
      </trkpt>
      <trkpt lat="45.75795" lon="4.834">
        <ele>170.41000366211</ele>
        <time>2012-04-17T21:14:42Z</time>
      </trkpt>
      <trkpt lat="45.75784" lon="4.83452">
        <ele>171.23899841309</ele>
        <time>2012-04-17T21:14:48Z</time>
      </trkpt>
      <trkpt lat="45.75775" lon="4.83505">
        <ele>171.11599731445</ele>
        <time>2012-04-17T21:14:54Z</time>
      </trkpt>
      <trkpt lat="45.75772" lon="4.83523">
        <ele>171.08799743652</ele>
        <time>2012-04-17T21:14:56Z</time>
      </trkpt>
      <trkpt lat="45.75756" lon="4.83577">
        <ele>171.9049987793</ele>
        <time>2012-04-17T21:15:03Z</time>
      </trkpt>
      <trkpt lat="45.75749" lon="4.8362">
        <ele>172.71099853516</ele>
        <time>2012-04-17T21:15:09Z</time>
      </trkpt>
      <trkpt lat="45.75748" lon="4.83627">
        <ele>172.78900146484</ele>
        <time>2012-04-17T21:15:10Z</time>
      </trkpt>
      <trkpt lat="45.75723" lon="4.83673">
        <ele>173.69099426269</ele>
        <time>2012-04-17T21:15:18Z</time>
      </trkpt>
      <trkpt lat="45.75706" lon="4.83728">
        <ele>174.49899291992</ele>
        <time>2012-04-17T21:15:27Z</time>
      </trkpt>
      <trkpt lat="45.75684" lon="4.83799">
        <ele>175.56500244141</ele>
        <time>2012-04-17T21:15:39Z</time>
      </trkpt>
      <trkpt lat="45.75668" lon="4.83857">
        <ele>175.53100585938</ele>
        <time>2012-04-17T21:15:48Z</time>
      </trkpt>
      <trkpt lat="45.75648" lon="4.83928">
        <ele>175.30999755859</ele>
        <time>2012-04-17T21:15:58Z</time>
      </trkpt>
      <trkpt lat="45.75623" lon="4.84003">
        <ele>174.11799621582</ele>
        <time>2012-04-17T21:16:08Z</time>
      </trkpt>
      <trkpt lat="45.75619" lon="4.84015">
        <ele>173.88999938965</ele>
        <time>2012-04-17T21:16:11Z</time>
      </trkpt>
      <trkpt lat="45.75616" lon="4.84027">
        <ele>173.66400146484</ele>
        <time>2012-04-17T21:16:17Z</time>
      </trkpt>
      <trkpt lat="45.7561" lon="4.84045">
        <ele>173.73399353027</ele>
        <time>2012-04-17T21:16:21Z</time>
      </trkpt>
      <trkpt lat="45.756" lon="4.84076">
        <ele>173.89500427246</ele>
        <time>2012-04-17T21:16:27Z</time>
      </trkpt>
      <trkpt lat="45.75597" lon="4.84083">
        <ele>173.67300415039</ele>
        <time>2012-04-17T21:16:31Z</time>
      </trkpt>
      <trkpt lat="45.75593" lon="4.84098">
        <ele>173.40699768066</ele>
        <time>2012-04-17T21:16:35Z</time>
      </trkpt>
      <trkpt lat="45.7559" lon="4.84108">
        <ele>173.36000061035</ele>
        <time>2012-04-17T21:16:37Z</time>
      </trkpt>
      <trkpt lat="45.75586" lon="4.8412">
        <ele>173.42199707031</ele>
        <time>2012-04-17T21:16:39Z</time>
      </trkpt>
      <trkpt lat="45.7557" lon="4.84167">
        <ele>173.4700012207</ele>
        <time>2012-04-17T21:16:46Z</time>
      </trkpt>
      <trkpt lat="45.75567" lon="4.84191">
        <ele>173.05000305176</ele>
        <time>2012-04-17T21:16:49Z</time>
      </trkpt>
      <trkpt lat="45.75547" lon="4.84244">
        <ele>172.30499267578</ele>
        <time>2012-04-17T21:16:57Z</time>
      </trkpt>
      <trkpt lat="45.75539" lon="4.84263">
        <ele>171.67100524902</ele>
        <time>2012-04-17T21:17:02Z</time>
      </trkpt>
      <trkpt lat="45.75534" lon="4.84269">
        <ele>171.08599853516</ele>
        <time>2012-04-17T21:17:07Z</time>
      </trkpt>
      <trkpt lat="45.75527" lon="4.84287">
        <ele>170.91400146484</ele>
        <time>2012-04-17T21:17:11Z</time>
      </trkpt>
      <trkpt lat="45.75515" lon="4.84325">
        <ele>170.78799438477</ele>
        <time>2012-04-17T21:17:17Z</time>
      </trkpt>
      <trkpt lat="45.75504" lon="4.84361">
        <ele>170.70599365234</ele>
        <time>2012-04-17T21:17:22Z</time>
      </trkpt>
      <trkpt lat="45.75497" lon="4.84388">
        <ele>170.65199279785</ele>
        <time>2012-04-17T21:17:25Z</time>
      </trkpt>
      <trkpt lat="45.75495" lon="4.84404">
        <ele>170.63400268555</ele>
        <time>2012-04-17T21:17:27Z</time>
      </trkpt>
      <trkpt lat="45.75495" lon="4.84448">
        <ele>170.6309967041</ele>
        <time>2012-04-17T21:17:32Z</time>
      </trkpt>
      <trkpt lat="45.75493" lon="4.84455">
        <ele>170.61700439453</ele>
        <time>2012-04-17T21:17:33Z</time>
      </trkpt>
      <trkpt lat="45.75478" lon="4.84511">
        <ele>170.83999633789</ele>
        <time>2012-04-17T21:17:41Z</time>
      </trkpt>
      <trkpt lat="45.7546" lon="4.84557">
        <ele>170.68800354004</ele>
        <time>2012-04-17T21:17:48Z</time>
      </trkpt>
      <trkpt lat="45.75458" lon="4.84564">
        <ele>170.77099609375</ele>
        <time>2012-04-17T21:17:49Z</time>
      </trkpt>
      <trkpt lat="45.75456" lon="4.84579">
        <ele>170.7140045166</ele>
        <time>2012-04-17T21:17:51Z</time>
      </trkpt>
      <trkpt lat="45.75445" lon="4.84607">
        <ele>170.77499389648</ele>
        <time>2012-04-17T21:17:55Z</time>
      </trkpt>
      <trkpt lat="45.75437" lon="4.84634">
        <ele>170.89199829102</ele>
        <time>2012-04-17T21:17:59Z</time>
      </trkpt>
      <trkpt lat="45.7543" lon="4.84664">
        <ele>171.06399536133</ele>
        <time>2012-04-17T21:18:03Z</time>
      </trkpt>
      <trkpt lat="45.75417" lon="4.84694">
        <ele>171.03900146484</ele>
        <time>2012-04-17T21:18:08Z</time>
      </trkpt>
      <trkpt lat="45.75407" lon="4.84696">
        <ele>170.85899353027</ele>
        <time>2012-04-17T21:18:11Z</time>
      </trkpt>
      <trkpt lat="45.75392" lon="4.84695">
        <ele>170.60499572754</ele>
        <time>2012-04-17T21:18:18Z</time>
      </trkpt>
      <trkpt lat="45.75378" lon="4.84697">
        <ele>170.78300476074</ele>
        <time>2012-04-17T21:18:34Z</time>
      </trkpt>
      <trkpt lat="45.75382" lon="4.84713">
        <ele>170.98599243164</ele>
        <time>2012-04-17T21:18:38Z</time>
      </trkpt>
      <trkpt lat="45.75383" lon="4.84731">
        <ele>171.22700500488</ele>
        <time>2012-04-17T21:18:42Z</time>
      </trkpt>
      <trkpt lat="45.7538" lon="4.84771">
        <ele>171.52000427246</ele>
        <time>2012-04-17T21:18:49Z</time>
      </trkpt>
      <trkpt lat="45.75357" lon="4.84814">
        <ele>172.04299926758</ele>
        <time>2012-04-17T21:18:56Z</time>
      </trkpt>
      <trkpt lat="45.75354" lon="4.84821">
        <ele>172.10899353027</ele>
        <time>2012-04-17T21:18:57Z</time>
      </trkpt>
      <trkpt lat="45.75348" lon="4.84866">
        <ele>172.04499816894</ele>
        <time>2012-04-17T21:19:03Z</time>
      </trkpt>
      <trkpt lat="45.75346" lon="4.84879">
        <ele>171.93899536133</ele>
        <time>2012-04-17T21:19:05Z</time>
      </trkpt>
      <trkpt lat="45.75341" lon="4.84904">
        <ele>171.85499572754</ele>
        <time>2012-04-17T21:19:09Z</time>
      </trkpt>
      <trkpt lat="45.75322" lon="4.84932">
        <ele>171.87100219727</ele>
        <time>2012-04-17T21:19:14Z</time>
      </trkpt>
      <trkpt lat="45.75302" lon="4.84961">
        <ele>172.20300292969</ele>
        <time>2012-04-17T21:19:19Z</time>
      </trkpt>
      <trkpt lat="45.75289" lon="4.84988">
        <ele>172.37199401856</ele>
        <time>2012-04-17T21:19:23Z</time>
      </trkpt>
      <trkpt lat="45.75284" lon="4.85001">
        <ele>172.49200439453</ele>
        <time>2012-04-17T21:19:25Z</time>
      </trkpt>
      <trkpt lat="45.75277" lon="4.85019">
        <ele>172.29200744629</ele>
        <time>2012-04-17T21:19:28Z</time>
      </trkpt>
      <trkpt lat="45.75262" lon="4.85047">
        <ele>171.79800415039</ele>
        <time>2012-04-17T21:19:34Z</time>
      </trkpt>
      <trkpt lat="45.75261" lon="4.85061">
        <ele>171.44299316406</ele>
        <time>2012-04-17T21:19:39Z</time>
      </trkpt>
      <trkpt lat="45.75256" lon="4.8508">
        <ele>171.30200195312</ele>
        <time>2012-04-17T21:19:43Z</time>
      </trkpt>
      <trkpt lat="45.75251" lon="4.851">
        <ele>171.42799377441</ele>
        <time>2012-04-17T21:19:46Z</time>
      </trkpt>
      <trkpt lat="45.75246" lon="4.8512">
        <ele>171.66299438477</ele>
        <time>2012-04-17T21:19:49Z</time>
      </trkpt>
      <trkpt lat="45.7524" lon="4.8514">
        <ele>171.77900695801</ele>
        <time>2012-04-17T21:19:52Z</time>
      </trkpt>
      <trkpt lat="45.75236" lon="4.85199">
        <ele>172.20599365234</ele>
        <time>2012-04-17T21:20:00Z</time>
      </trkpt>
      <trkpt lat="45.75227" lon="4.85223">
        <ele>172.22200012207</ele>
        <time>2012-04-17T21:20:04Z</time>
      </trkpt>
      <trkpt lat="45.752" lon="4.85267">
        <ele>172.35000610352</ele>
        <time>2012-04-17T21:20:12Z</time>
      </trkpt>
      <trkpt lat="45.75185" lon="4.85315">
        <ele>172.50100708008</ele>
        <time>2012-04-17T21:20:19Z</time>
      </trkpt>
      <trkpt lat="45.75148" lon="4.85387">
        <ele>172.78900146484</ele>
        <time>2012-04-17T21:20:30Z</time>
      </trkpt>
      <trkpt lat="45.75135" lon="4.85444">
        <ele>173.18600463867</ele>
        <time>2012-04-17T21:20:38Z</time>
      </trkpt>
      <trkpt lat="45.75127" lon="4.85502">
        <ele>173.52699279785</ele>
        <time>2012-04-17T21:20:46Z</time>
      </trkpt>
      <trkpt lat="45.75126" lon="4.85509">
        <ele>173.6130065918</ele>
        <time>2012-04-17T21:20:47Z</time>
      </trkpt>
      <trkpt lat="45.75117" lon="4.85534">
        <ele>174.14199829102</ele>
        <time>2012-04-17T21:20:51Z</time>
      </trkpt>
      <trkpt lat="45.75101" lon="4.85566">
        <ele>174.7799987793</ele>
        <time>2012-04-17T21:20:56Z</time>
      </trkpt>
      <trkpt lat="45.75091" lon="4.85582">
        <ele>175.11999511719</ele>
        <time>2012-04-17T21:20:59Z</time>
      </trkpt>
      <trkpt lat="45.75087" lon="4.85594">
        <ele>175.26699829102</ele>
        <time>2012-04-17T21:21:01Z</time>
      </trkpt>
      <trkpt lat="45.75072" lon="4.8564">
        <ele>175.71499633789</ele>
        <time>2012-04-17T21:21:08Z</time>
      </trkpt>
      <trkpt lat="45.75053" lon="4.85687">
        <ele>175.97599792481</ele>
        <time>2012-04-17T21:21:15Z</time>
      </trkpt>
      <trkpt lat="45.75036" lon="4.85736">
        <ele>176.88200378418</ele>
        <time>2012-04-17T21:21:22Z</time>
      </trkpt>
      <trkpt lat="45.75014" lon="4.85792">
        <ele>177.19400024414</ele>
        <time>2012-04-17T21:21:30Z</time>
      </trkpt>
      <trkpt lat="45.74995" lon="4.85848">
        <ele>177.77799987793</ele>
        <time>2012-04-17T21:21:38Z</time>
      </trkpt>
      <trkpt lat="45.74979" lon="4.85895">
        <ele>178.52400207519</ele>
        <time>2012-04-17T21:21:45Z</time>
      </trkpt>
      <trkpt lat="45.74965" lon="4.8594">
        <ele>178.86199951172</ele>
        <time>2012-04-17T21:21:53Z</time>
      </trkpt>
      <trkpt lat="45.74952" lon="4.85975">
        <ele>179.58500671387</ele>
        <time>2012-04-17T21:22:00Z</time>
      </trkpt>
      <trkpt lat="45.74952" lon="4.85981">
        <ele>179.72599792481</ele>
        <time>2012-04-17T21:22:01Z</time>
      </trkpt>
      <trkpt lat="45.74946" lon="4.86018">
        <ele>180.25399780273</ele>
        <time>2012-04-17T21:22:07Z</time>
      </trkpt>
      <trkpt lat="45.74944" lon="4.86025">
        <ele>180.25</ele>
        <time>2012-04-17T21:22:08Z</time>
      </trkpt>
      <trkpt lat="45.7492" lon="4.86068">
        <ele>179.86599731445</ele>
        <time>2012-04-17T21:22:15Z</time>
      </trkpt>
      <trkpt lat="45.74907" lon="4.86095">
        <ele>179.66700744629</ele>
        <time>2012-04-17T21:22:19Z</time>
      </trkpt>
      <trkpt lat="45.74891" lon="4.8614">
        <ele>178.94999694824</ele>
        <time>2012-04-17T21:22:25Z</time>
      </trkpt>
      <trkpt lat="45.74874" lon="4.86195">
        <ele>178.54499816894</ele>
        <time>2012-04-17T21:22:32Z</time>
      </trkpt>
      <trkpt lat="45.74855" lon="4.86255">
        <ele>177.91299438477</ele>
        <time>2012-04-17T21:22:40Z</time>
      </trkpt>
      <trkpt lat="45.74831" lon="4.86323">
        <ele>177.52299499512</ele>
        <time>2012-04-17T21:22:49Z</time>
      </trkpt>
      <trkpt lat="45.74814" lon="4.86375">
        <ele>177.55299377441</ele>
        <time>2012-04-17T21:22:56Z</time>
      </trkpt>
      <trkpt lat="45.74812" lon="4.86383">
        <ele>177.52099609375</ele>
        <time>2012-04-17T21:22:57Z</time>
      </trkpt>
      <trkpt lat="45.74809" lon="4.8641">
        <ele>177.63200378418</ele>
        <time>2012-04-17T21:23:01Z</time>
      </trkpt>
      <trkpt lat="45.7482" lon="4.86426">
        <ele>177.47300720215</ele>
        <time>2012-04-17T21:23:06Z</time>
      </trkpt>
      <trkpt lat="45.74823" lon="4.86427">
        <ele>177.5</ele>
        <time>2012-04-17T21:23:07Z</time>
      </trkpt>
      <trkpt lat="45.7486" lon="4.86439">
        <ele>177.94700622559</ele>
        <time>2012-04-17T21:23:13Z</time>
      </trkpt>
      <trkpt lat="45.7487" lon="4.86461">
        <ele>177.375</ele>
        <time>2012-04-17T21:23:17Z</time>
      </trkpt>
      <trkpt lat="45.74866" lon="4.86469">
        <ele>177.20300292969</ele>
        <time>2012-04-17T21:23:18Z</time>
      </trkpt>
      <trkpt lat="45.74849" lon="4.8655">
        <ele>176.68600463867</ele>
        <time>2012-04-17T21:23:28Z</time>
      </trkpt>
      <trkpt lat="45.74841" lon="4.86592">
        <ele>176.77499389648</ele>
        <time>2012-04-17T21:23:34Z</time>
      </trkpt>
      <trkpt lat="45.74836" lon="4.86646">
        <ele>176.79499816894</ele>
        <time>2012-04-17T21:23:41Z</time>
      </trkpt>
      <trkpt lat="45.74832" lon="4.8666">
        <ele>176.63999938965</ele>
        <time>2012-04-17T21:23:44Z</time>
      </trkpt>
      <trkpt lat="45.74838" lon="4.86642">
        <ele>176.32499694824</ele>
        <time>2012-04-17T21:23:50Z</time>
      </trkpt>
      <trkpt lat="45.74834" lon="4.86637">
        <ele>176.45399475098</ele>
        <time>2012-04-17T21:23:54Z</time>
      </trkpt>
      <trkpt lat="45.74834" lon="4.86639">
        <ele>176.5299987793</ele>
        <time>2012-04-17T21:23:55Z</time>
      </trkpt>
      <trkpt lat="45.74839" lon="4.86642">
        <ele>176.44500732422</ele>
        <time>2012-04-17T21:24:02Z</time>
      </trkpt>
      <trkpt lat="45.74841" lon="4.8665">
        <ele>176.37199401856</ele>
        <time>2012-04-17T21:24:06Z</time>
      </trkpt>
      <trkpt lat="45.74838" lon="4.8666">
        <ele>176.40400695801</ele>
        <time>2012-04-17T21:24:08Z</time>
      </trkpt>
      <trkpt lat="45.74838" lon="4.86663">
        <ele>176.24099731445</ele>
        <time>2012-04-17T21:24:12Z</time>
      </trkpt>
      <trkpt lat="45.74838" lon="4.86657">
        <ele>176.23199462891</ele>
        <time>2012-04-17T21:24:14Z</time>
      </trkpt>
      <trkpt lat="45.74839" lon="4.86648">
        <ele>176.25900268555</ele>
        <time>2012-04-17T21:24:16Z</time>
      </trkpt>
      <trkpt lat="45.74838" lon="4.86639">
        <ele>176.38800048828</ele>
        <time>2012-04-17T21:24:20Z</time>
      </trkpt>
      <trkpt lat="45.74839" lon="4.86639">
        <ele>176.50900268555</ele>
        <time>2012-04-17T21:24:24Z</time>
      </trkpt>
    </trkseg>
  </trk>
</gpx>